<?xml version='1.0' encoding='UTF-8'?><gpx version="1.1" creator="JPX - https://github.com/jenetics/jpx" xmlns="http://www.topografix.com/GPX/1/1"><trk><trkseg><trkpt lat="45.4419967" lon="10.752745"><ele>100.00000000000001</ele><time>2026-04-04T08:57:01.606Z</time></trkpt><trkpt lat="45.441915" lon="10.7527983"><ele>100.0</ele><time>2026-04-04T08:57:03.606Z</time></trkpt><trkpt lat="45.4419017" lon="10.75296"><ele>100.0</ele><time>2026-04-04T08:57:05.606Z</time></trkpt><trkpt lat="45.4419183" lon="10.7530467"><ele>100.0</ele><time>2026-04-04T08:57:06.606Z</time></trkpt><trkpt lat="45.441945" lon="10.75314"><ele>100.00000000000001</ele><time>2026-04-04T08:57:07.606Z</time></trkpt><trkpt lat="45.4419817" lon="10.7532233"><ele>100.0</ele><time>2026-04-04T08:57:08.606Z</time></trkpt><trkpt lat="45.4420317" lon="10.7533117"><ele>100.0</ele><time>2026-04-04T08:57:09.606Z</time></trkpt><trkpt lat="45.4421017" lon="10.753405"><ele>100.0</ele><time>2026-04-04T08:57:10.606Z</time></trkpt><trkpt lat="45.4421633" lon="10.7534933"><ele>100.0</ele><time>2026-04-04T08:57:11.606Z</time></trkpt><trkpt lat="45.4422267" lon="10.75359"><ele>100.0</ele><time>2026-04-04T08:57:12.606Z</time></trkpt><trkpt lat="45.4422883" lon="10.7536817"><ele>100.0</ele><time>2026-04-04T08:57:13.606Z</time></trkpt><trkpt lat="45.442365" lon="10.7537633"><ele>99.8</ele><time>2026-04-04T08:57:14.606Z</time></trkpt><trkpt lat="45.4424517" lon="10.753825"><ele>99.6</ele><time>2026-04-04T08:57:15.606Z</time></trkpt><trkpt lat="45.4425433" lon="10.75389"><ele>99.4</ele><time>2026-04-04T08:57:16.606Z</time></trkpt><trkpt lat="45.4426417" lon="10.7539367"><ele>99.2</ele><time>2026-04-04T08:57:17.606Z</time></trkpt><trkpt lat="45.4427467" lon="10.753975"><ele>99.0</ele><time>2026-04-04T08:57:18.606Z</time></trkpt><trkpt lat="45.4428517" lon="10.7540267"><ele>99.0</ele><time>2026-04-04T08:57:19.606Z</time></trkpt><trkpt lat="45.4429583" lon="10.7540817"><ele>99.0</ele><time>2026-04-04T08:57:20.606Z</time></trkpt><trkpt lat="45.4430567" lon="10.7541667"><ele>99.0</ele><time>2026-04-04T08:57:21.606Z</time></trkpt><trkpt lat="45.4431633" lon="10.7542633"><ele>99.0</ele><time>2026-04-04T08:57:22.606Z</time></trkpt><trkpt lat="45.4432583" lon="10.75438"><ele>99.2</ele><time>2026-04-04T08:57:23.606Z</time></trkpt><trkpt lat="45.443335" lon="10.7544967"><ele>99.4</ele><time>2026-04-04T08:57:24.606Z</time></trkpt><trkpt lat="45.4434067" lon="10.7546117"><ele>99.6</ele><time>2026-04-04T08:57:25.606Z</time></trkpt><trkpt lat="45.4434583" lon="10.7547417"><ele>99.8</ele><time>2026-04-04T08:57:26.606Z</time></trkpt><trkpt lat="45.4435033" lon="10.7548783"><ele>100.0</ele><time>2026-04-04T08:57:27.606Z</time></trkpt><trkpt lat="45.44353" lon="10.7550017"><ele>100.0</ele><time>2026-04-04T08:57:28.606Z</time></trkpt><trkpt lat="45.44355" lon="10.7550983"><ele>100.0</ele><time>2026-04-04T08:57:29.606Z</time></trkpt><trkpt lat="45.4435683" lon="10.7552383"><ele>100.0</ele><time>2026-04-04T08:57:31.606Z</time></trkpt><trkpt lat="45.4435983" lon="10.75543"><ele>100.0</ele><time>2026-04-04T08:57:33.606Z</time></trkpt><trkpt lat="45.4436167" lon="10.75557"><ele>100.0</ele><time>2026-04-04T08:57:34.606Z</time></trkpt><trkpt lat="45.4436333" lon="10.7557267"><ele>100.0</ele><time>2026-04-04T08:57:35.606Z</time></trkpt><trkpt lat="45.4436583" lon="10.7558883"><ele>100.0</ele><time>2026-04-04T08:57:36.606Z</time></trkpt><trkpt lat="45.4436833" lon="10.7560383"><ele>100.0</ele><time>2026-04-04T08:57:37.606Z</time></trkpt><trkpt lat="45.443705" lon="10.7561917"><ele>100.0</ele><time>2026-04-04T08:57:38.606Z</time></trkpt><trkpt lat="45.4437283" lon="10.756345"><ele>100.0</ele><time>2026-04-04T08:57:39.606Z</time></trkpt><trkpt lat="45.443755" lon="10.7565083"><ele>100.0</ele><time>2026-04-04T08:57:40.606Z</time></trkpt><trkpt lat="45.4437833" lon="10.7566767"><ele>100.0</ele><time>2026-04-04T08:57:41.606Z</time></trkpt><trkpt lat="45.4438133" lon="10.756855"><ele>100.0</ele><time>2026-04-04T08:57:42.606Z</time></trkpt><trkpt lat="45.4438383" lon="10.7570367"><ele>100.0</ele><time>2026-04-04T08:57:43.606Z</time></trkpt><trkpt lat="45.4438767" lon="10.757215"><ele>100.25</ele><time>2026-04-04T08:57:44.606Z</time></trkpt><trkpt lat="45.4439017" lon="10.7574017"><ele>100.5</ele><time>2026-04-04T08:57:45.606Z</time></trkpt><trkpt lat="45.4439367" lon="10.7575933"><ele>100.75</ele><time>2026-04-04T08:57:46.606Z</time></trkpt><trkpt lat="45.4439633" lon="10.7577967"><ele>101.0</ele><time>2026-04-04T08:57:47.605Z</time></trkpt><trkpt lat="45.444" lon="10.7579767"><ele>101.0</ele><time>2026-04-04T08:57:48.605Z</time></trkpt><trkpt lat="45.444035" lon="10.75815"><ele>101.0</ele><time>2026-04-04T08:57:49.605Z</time></trkpt><trkpt lat="45.4440517" lon="10.75834"><ele>101.0</ele><time>2026-04-04T08:57:50.605Z</time></trkpt><trkpt lat="45.4440783" lon="10.7585217"><ele>101.0</ele><time>2026-04-04T08:57:51.605Z</time></trkpt><trkpt lat="45.4441083" lon="10.758715"><ele>100.66666666666666</ele><time>2026-04-04T08:57:52.605Z</time></trkpt><trkpt lat="45.44414" lon="10.758905"><ele>100.33333333333334</ele><time>2026-04-04T08:57:53.605Z</time></trkpt><trkpt lat="45.4441817" lon="10.759125"><ele>100.0</ele><time>2026-04-04T08:57:54.605Z</time></trkpt><trkpt lat="45.4442367" lon="10.7593367"><ele>100.0</ele><time>2026-04-04T08:57:55.605Z</time></trkpt><trkpt lat="45.4442967" lon="10.7595267"><ele>100.0</ele><time>2026-04-04T08:57:56.605Z</time></trkpt><trkpt lat="45.444365" lon="10.7597133"><ele>100.0</ele><time>2026-04-04T08:57:57.605Z</time></trkpt><trkpt lat="45.4444333" lon="10.7598983"><ele>100.0</ele><time>2026-04-04T08:57:58.605Z</time></trkpt><trkpt lat="45.4445083" lon="10.76007"><ele>100.5</ele><time>2026-04-04T08:57:59.605Z</time></trkpt><trkpt lat="45.4445817" lon="10.7602433"><ele>101.0</ele><time>2026-04-04T08:58:00.605Z</time></trkpt><trkpt lat="45.4446633" lon="10.76042"><ele>101.5</ele><time>2026-04-04T08:58:01.605Z</time></trkpt><trkpt lat="45.4447567" lon="10.76059"><ele>102.0</ele><time>2026-04-04T08:58:02.606Z</time></trkpt><trkpt lat="45.44485" lon="10.7607667"><ele>103.0</ele><time>2026-04-04T08:58:03.605Z</time></trkpt><trkpt lat="45.44494" lon="10.7609383"><ele>104.0</ele><time>2026-04-04T08:58:04.605Z</time></trkpt><trkpt lat="45.4450333" lon="10.76111"><ele>105.0</ele><time>2026-04-04T08:58:05.605Z</time></trkpt><trkpt lat="45.4451167" lon="10.7612817"><ele>106.0</ele><time>2026-04-04T08:58:06.606Z</time></trkpt><trkpt lat="45.4451967" lon="10.7614383"><ele>106.0</ele><time>2026-04-04T08:58:07.605Z</time></trkpt><trkpt lat="45.4452783" lon="10.76158"><ele>106.0</ele><time>2026-04-04T08:58:08.605Z</time></trkpt><trkpt lat="45.445355" lon="10.7617117"><ele>106.0</ele><time>2026-04-04T08:58:09.605Z</time></trkpt><trkpt lat="45.4454283" lon="10.76184"><ele>106.0</ele><time>2026-04-04T08:58:10.606Z</time></trkpt><trkpt lat="45.445505" lon="10.7619883"><ele>106.0</ele><time>2026-04-04T08:58:11.605Z</time></trkpt><trkpt lat="45.445575" lon="10.7621367"><ele>106.0</ele><time>2026-04-04T08:58:12.605Z</time></trkpt><trkpt lat="45.44561" lon="10.7622933"><ele>106.0</ele><time>2026-04-04T08:58:13.605Z</time></trkpt><trkpt lat="45.4456217" lon="10.76245"><ele>106.0</ele><time>2026-04-04T08:58:14.605Z</time></trkpt><trkpt lat="45.4456117" lon="10.7626133"><ele>107.25</ele><time>2026-04-04T08:58:15.605Z</time></trkpt><trkpt lat="45.4455917" lon="10.7627683"><ele>108.5</ele><time>2026-04-04T08:58:16.605Z</time></trkpt><trkpt lat="45.4455733" lon="10.7629317"><ele>109.75</ele><time>2026-04-04T08:58:17.605Z</time></trkpt><trkpt lat="45.4455533" lon="10.76309"><ele>111.0</ele><time>2026-04-04T08:58:18.605Z</time></trkpt><trkpt lat="45.4455233" lon="10.763255"><ele>111.0</ele><time>2026-04-04T08:58:19.606Z</time></trkpt><trkpt lat="45.4454967" lon="10.7634283"><ele>111.0</ele><time>2026-04-04T08:58:20.605Z</time></trkpt><trkpt lat="45.4454733" lon="10.7635983"><ele>111.0</ele><time>2026-04-04T08:58:21.605Z</time></trkpt><trkpt lat="45.4454467" lon="10.7637717"><ele>111.0</ele><time>2026-04-04T08:58:22.605Z</time></trkpt><trkpt lat="45.44543" lon="10.7639517"><ele>113.0</ele><time>2026-04-04T08:58:23.605Z</time></trkpt><trkpt lat="45.4454117" lon="10.7641133"><ele>115.0</ele><time>2026-04-04T08:58:24.605Z</time></trkpt><trkpt lat="45.4454083" lon="10.76427"><ele>117.0</ele><time>2026-04-04T08:58:25.605Z</time></trkpt><trkpt lat="45.445415" lon="10.7644083"><ele>119.0</ele><time>2026-04-04T08:58:26.605Z</time></trkpt><trkpt lat="45.4454333" lon="10.7645317"><ele>121.0</ele><time>2026-04-04T08:58:27.605Z</time></trkpt><trkpt lat="45.4454433" lon="10.7646467"><ele>121.19999999999999</ele><time>2026-04-04T08:58:28.605Z</time></trkpt><trkpt lat="45.44544" lon="10.764745"><ele>121.39999999999999</ele><time>2026-04-04T08:58:29.605Z</time></trkpt><trkpt lat="45.4454067" lon="10.7649033"><ele>121.6</ele><time>2026-04-04T08:58:31.606Z</time></trkpt><trkpt lat="45.445295" lon="10.7649833"><ele>121.8</ele><time>2026-04-04T08:58:33.605Z</time></trkpt><trkpt lat="45.4452017" lon="10.7649717"><ele>122.0</ele><time>2026-04-04T08:58:34.605Z</time></trkpt><trkpt lat="45.4450833" lon="10.7649533"><ele>122.0</ele><time>2026-04-04T08:58:35.605Z</time></trkpt><trkpt lat="45.4449667" lon="10.7649567"><ele>122.0</ele><time>2026-04-04T08:58:36.605Z</time></trkpt><trkpt lat="45.444855" lon="10.7649667"><ele>122.0</ele><time>2026-04-04T08:58:37.605Z</time></trkpt><trkpt lat="45.44474" lon="10.7649783"><ele>122.0</ele><time>2026-04-04T08:58:38.605Z</time></trkpt><trkpt lat="45.44463" lon="10.76495"><ele>121.5</ele><time>2026-04-04T08:58:39.605Z</time></trkpt><trkpt lat="45.44452" lon="10.764915"><ele>121.0</ele><time>2026-04-04T08:58:40.605Z</time></trkpt><trkpt lat="45.4444033" lon="10.76487"><ele>120.5</ele><time>2026-04-04T08:58:41.605Z</time></trkpt><trkpt lat="45.4442933" lon="10.7648433"><ele>120.0</ele><time>2026-04-04T08:58:42.605Z</time></trkpt><trkpt lat="45.4441817" lon="10.76481"><ele>120.0</ele><time>2026-04-04T08:58:43.605Z</time></trkpt><trkpt lat="45.444075" lon="10.76479"><ele>120.0</ele><time>2026-04-04T08:58:44.605Z</time></trkpt><trkpt lat="45.443975" lon="10.764785"><ele>120.0</ele><time>2026-04-04T08:58:45.605Z</time></trkpt><trkpt lat="45.4438983" lon="10.7647867"><ele>120.0</ele><time>2026-04-04T08:58:46.606Z</time></trkpt><trkpt lat="45.4437833" lon="10.7648617"><ele>120.0</ele><time>2026-04-04T08:58:48.605Z</time></trkpt><trkpt lat="45.4437367" lon="10.7649417"><ele>119.8</ele><time>2026-04-04T08:58:49.605Z</time></trkpt><trkpt lat="45.4437117" lon="10.7650583"><ele>119.6</ele><time>2026-04-04T08:58:50.606Z</time></trkpt><trkpt lat="45.44371" lon="10.7652"><ele>119.4</ele><time>2026-04-04T08:58:51.605Z</time></trkpt><trkpt lat="45.4437267" lon="10.7653583"><ele>119.2</ele><time>2026-04-04T08:58:52.605Z</time></trkpt><trkpt lat="45.4437183" lon="10.7655033"><ele>119.0</ele><time>2026-04-04T08:58:53.605Z</time></trkpt><trkpt lat="45.4437267" lon="10.76565"><ele>119.0</ele><time>2026-04-04T08:58:54.605Z</time></trkpt><trkpt lat="45.4437233" lon="10.7657883"><ele>119.0</ele><time>2026-04-04T08:58:55.605Z</time></trkpt><trkpt lat="45.4437333" lon="10.7659283"><ele>119.0</ele><time>2026-04-04T08:58:56.605Z</time></trkpt><trkpt lat="45.4437383" lon="10.76607"><ele>119.0</ele><time>2026-04-04T08:58:57.605Z</time></trkpt><trkpt lat="45.4437483" lon="10.766205"><ele>119.0</ele><time>2026-04-04T08:58:58.605Z</time></trkpt><trkpt lat="45.44375" lon="10.76632"><ele>118.83333333333333</ele><time>2026-04-04T08:58:59.605Z</time></trkpt><trkpt lat="45.4437533" lon="10.7664467"><ele>118.66666666666666</ele><time>2026-04-04T08:59:01.605Z</time></trkpt><trkpt lat="45.44377" lon="10.7665333"><ele>118.5</ele><time>2026-04-04T08:59:05.605Z</time></trkpt><trkpt lat="45.443775" lon="10.7666317"><ele>118.33333333333334</ele><time>2026-04-04T08:59:08.605Z</time></trkpt><trkpt lat="45.4438467" lon="10.7666833"><ele>118.16666666666667</ele><time>2026-04-04T08:59:10.605Z</time></trkpt><trkpt lat="45.4439283" lon="10.7667017"><ele>118.0</ele><time>2026-04-04T08:59:11.605Z</time></trkpt><trkpt lat="45.4440267" lon="10.7667283"><ele>117.5</ele><time>2026-04-04T08:59:12.605Z</time></trkpt><trkpt lat="45.444155" lon="10.7667483"><ele>117.0</ele><time>2026-04-04T08:59:13.605Z</time></trkpt><trkpt lat="45.4443017" lon="10.766775"><ele>116.5</ele><time>2026-04-04T08:59:14.605Z</time></trkpt><trkpt lat="45.4444433" lon="10.7668067"><ele>116.0</ele><time>2026-04-04T08:59:15.605Z</time></trkpt><trkpt lat="45.4445933" lon="10.7668567"><ele>116.0</ele><time>2026-04-04T08:59:16.605Z</time></trkpt><trkpt lat="45.4447417" lon="10.7668833"><ele>116.0</ele><time>2026-04-04T08:59:17.605Z</time></trkpt><trkpt lat="45.4449017" lon="10.76692"><ele>116.0</ele><time>2026-04-04T08:59:18.605Z</time></trkpt><trkpt lat="45.44504" lon="10.766965"><ele>116.0</ele><time>2026-04-04T08:59:19.605Z</time></trkpt><trkpt lat="45.4451817" lon="10.7670133"><ele>116.0</ele><time>2026-04-04T08:59:20.605Z</time></trkpt><trkpt lat="45.4453217" lon="10.76707"><ele>116.0</ele><time>2026-04-04T08:59:21.605Z</time></trkpt><trkpt lat="45.44545" lon="10.7671133"><ele>116.0</ele><time>2026-04-04T08:59:22.605Z</time></trkpt><trkpt lat="45.445575" lon="10.76716"><ele>115.25</ele><time>2026-04-04T08:59:23.605Z</time></trkpt><trkpt lat="45.4457033" lon="10.7672167"><ele>114.5</ele><time>2026-04-04T08:59:24.605Z</time></trkpt><trkpt lat="45.4458217" lon="10.7672867"><ele>113.75</ele><time>2026-04-04T08:59:25.605Z</time></trkpt><trkpt lat="45.445935" lon="10.7673767"><ele>113.0</ele><time>2026-04-04T08:59:26.605Z</time></trkpt><trkpt lat="45.4460483" lon="10.7674783"><ele>113.0</ele><time>2026-04-04T08:59:27.605Z</time></trkpt><trkpt lat="45.4461567" lon="10.767595"><ele>113.0</ele><time>2026-04-04T08:59:28.605Z</time></trkpt><trkpt lat="45.4462483" lon="10.7677217"><ele>113.0</ele><time>2026-04-04T08:59:29.605Z</time></trkpt><trkpt lat="45.4463133" lon="10.7678133"><ele>113.0</ele><time>2026-04-04T08:59:30.605Z</time></trkpt><trkpt lat="45.446355" lon="10.7679383"><ele>112.75</ele><time>2026-04-04T08:59:32.605Z</time></trkpt><trkpt lat="45.4464017" lon="10.7680617"><ele>112.5</ele><time>2026-04-04T08:59:39.605Z</time></trkpt><trkpt lat="45.44648" lon="10.7681233"><ele>112.25</ele><time>2026-04-04T08:59:40.605Z</time></trkpt><trkpt lat="45.4465917" lon="10.768195"><ele>112.0</ele><time>2026-04-04T08:59:41.605Z</time></trkpt><trkpt lat="45.4467383" lon="10.7682717"><ele>112.0</ele><time>2026-04-04T08:59:42.605Z</time></trkpt><trkpt lat="45.4468917" lon="10.7683533"><ele>112.0</ele><time>2026-04-04T08:59:43.605Z</time></trkpt><trkpt lat="45.4470517" lon="10.768445"><ele>112.0</ele><time>2026-04-04T08:59:44.605Z</time></trkpt><trkpt lat="45.4472133" lon="10.7685383"><ele>113.0</ele><time>2026-04-04T08:59:45.605Z</time></trkpt><trkpt lat="45.4473833" lon="10.7686417"><ele>114.0</ele><time>2026-04-04T08:59:46.605Z</time></trkpt><trkpt lat="45.44755" lon="10.768755"><ele>115.0</ele><time>2026-04-04T08:59:47.605Z</time></trkpt><trkpt lat="45.4477117" lon="10.7688733"><ele>115.0</ele><time>2026-04-04T08:59:48.605Z</time></trkpt><trkpt lat="45.4478783" lon="10.7689867"><ele>115.0</ele><time>2026-04-04T08:59:49.605Z</time></trkpt><trkpt lat="45.4480367" lon="10.7690983"><ele>115.0</ele><time>2026-04-04T08:59:50.605Z</time></trkpt><trkpt lat="45.44819" lon="10.76921"><ele>114.66666666666667</ele><time>2026-04-04T08:59:51.605Z</time></trkpt><trkpt lat="45.44834" lon="10.769335"><ele>114.33333333333334</ele><time>2026-04-04T08:59:52.605Z</time></trkpt><trkpt lat="45.4484717" lon="10.7694583"><ele>114.0</ele><time>2026-04-04T08:59:53.605Z</time></trkpt><trkpt lat="45.4486033" lon="10.7695817"><ele>113.75</ele><time>2026-04-04T08:59:54.605Z</time></trkpt><trkpt lat="45.4487183" lon="10.7697083"><ele>113.5</ele><time>2026-04-04T08:59:55.605Z</time></trkpt><trkpt lat="45.448815" lon="10.7698433"><ele>113.25</ele><time>2026-04-04T08:59:56.605Z</time></trkpt><trkpt lat="45.4489017" lon="10.7699683"><ele>113.0</ele><time>2026-04-04T08:59:57.605Z</time></trkpt><trkpt lat="45.4489717" lon="10.7700733"><ele>113.33333333333333</ele><time>2026-04-04T08:59:58.605Z</time></trkpt><trkpt lat="45.4490383" lon="10.7701667"><ele>113.66666666666666</ele><time>2026-04-04T08:59:59.605Z</time></trkpt><trkpt lat="45.4490917" lon="10.7702617"><ele>114.0</ele><time>2026-04-04T09:00:00.606Z</time></trkpt><trkpt lat="45.4491517" lon="10.7703417"><ele>114.33333333333334</ele><time>2026-04-04T09:00:01.605Z</time></trkpt><trkpt lat="45.4492167" lon="10.7703983"><ele>114.66666666666667</ele><time>2026-04-04T09:00:02.605Z</time></trkpt><trkpt lat="45.4492817" lon="10.7704167"><ele>115.0</ele><time>2026-04-04T09:00:03.605Z</time></trkpt><trkpt lat="45.4493683" lon="10.7704267"><ele>115.0</ele><time>2026-04-04T09:00:04.606Z</time></trkpt><trkpt lat="45.4494683" lon="10.77042"><ele>115.0</ele><time>2026-04-04T09:00:05.605Z</time></trkpt><trkpt lat="45.44958" lon="10.7704183"><ele>115.0</ele><time>2026-04-04T09:00:06.605Z</time></trkpt><trkpt lat="45.4496967" lon="10.7704233"><ele>115.0</ele><time>2026-04-04T09:00:07.605Z</time></trkpt><trkpt lat="45.44983" lon="10.77044"><ele>115.0</ele><time>2026-04-04T09:00:08.605Z</time></trkpt><trkpt lat="45.449965" lon="10.7704633"><ele>115.0</ele><time>2026-04-04T09:00:09.605Z</time></trkpt><trkpt lat="45.4500933" lon="10.7704833"><ele>115.0</ele><time>2026-04-04T09:00:10.605Z</time></trkpt><trkpt lat="45.45021" lon="10.7704967"><ele>115.0</ele><time>2026-04-04T09:00:11.605Z</time></trkpt><trkpt lat="45.450315" lon="10.770515"><ele>115.00000000000001</ele><time>2026-04-04T09:00:12.605Z</time></trkpt><trkpt lat="45.45041" lon="10.7705367"><ele>115.0</ele><time>2026-04-04T09:00:13.605Z</time></trkpt><trkpt lat="45.4504967" lon="10.7705383"><ele>115.0</ele><time>2026-04-04T09:00:14.605Z</time></trkpt><trkpt lat="45.450585" lon="10.770545"><ele>115.0</ele><time>2026-04-04T09:00:15.605Z</time></trkpt><trkpt lat="45.4506717" lon="10.7705583"><ele>115.00000000000001</ele><time>2026-04-04T09:00:16.605Z</time></trkpt><trkpt lat="45.450755" lon="10.770575"><ele>115.0</ele><time>2026-04-04T09:00:17.605Z</time></trkpt><trkpt lat="45.4508383" lon="10.7705833"><ele>115.2</ele><time>2026-04-04T09:00:18.605Z</time></trkpt><trkpt lat="45.4509267" lon="10.7706"><ele>115.4</ele><time>2026-04-04T09:00:19.605Z</time></trkpt><trkpt lat="45.45102" lon="10.7706217"><ele>115.6</ele><time>2026-04-04T09:00:20.605Z</time></trkpt><trkpt lat="45.4511083" lon="10.7706333"><ele>115.8</ele><time>2026-04-04T09:00:21.605Z</time></trkpt><trkpt lat="45.4512" lon="10.77065"><ele>116.0</ele><time>2026-04-04T09:00:22.605Z</time></trkpt><trkpt lat="45.4512933" lon="10.7706617"><ele>116.19999999999999</ele><time>2026-04-04T09:00:23.605Z</time></trkpt><trkpt lat="45.4513933" lon="10.7706767"><ele>116.39999999999999</ele><time>2026-04-04T09:00:24.605Z</time></trkpt><trkpt lat="45.4514967" lon="10.7706967"><ele>116.6</ele><time>2026-04-04T09:00:25.605Z</time></trkpt><trkpt lat="45.4515983" lon="10.770725"><ele>116.8</ele><time>2026-04-04T09:00:26.605Z</time></trkpt><trkpt lat="45.4517033" lon="10.7707467"><ele>117.0</ele><time>2026-04-04T09:00:27.605Z</time></trkpt><trkpt lat="45.4518133" lon="10.7707583"><ele>117.0</ele><time>2026-04-04T09:00:28.605Z</time></trkpt><trkpt lat="45.4519283" lon="10.7707767"><ele>117.0</ele><time>2026-04-04T09:00:29.605Z</time></trkpt><trkpt lat="45.4520533" lon="10.7707967"><ele>117.0</ele><time>2026-04-04T09:00:30.605Z</time></trkpt><trkpt lat="45.4521867" lon="10.7708183"><ele>117.0</ele><time>2026-04-04T09:00:31.605Z</time></trkpt><trkpt lat="45.4523317" lon="10.7708433"><ele>117.66666666666666</ele><time>2026-04-04T09:00:32.606Z</time></trkpt><trkpt lat="45.4524917" lon="10.7708667"><ele>118.33333333333333</ele><time>2026-04-04T09:00:33.605Z</time></trkpt><trkpt lat="45.4526717" lon="10.7708983"><ele>119.0</ele><time>2026-04-04T09:00:34.605Z</time></trkpt><trkpt lat="45.4528783" lon="10.7709367"><ele>118.5</ele><time>2026-04-04T09:00:35.605Z</time></trkpt><trkpt lat="45.4531133" lon="10.7709867"><ele>118.0</ele><time>2026-04-04T09:00:36.605Z</time></trkpt><trkpt lat="45.4533483" lon="10.7710333"><ele>118.0</ele><time>2026-04-04T09:00:37.605Z</time></trkpt><trkpt lat="45.4535933" lon="10.7710733"><ele>118.0</ele><time>2026-04-04T09:00:38.606Z</time></trkpt><trkpt lat="45.4538317" lon="10.771105"><ele>117.66666666666667</ele><time>2026-04-04T09:00:39.605Z</time></trkpt><trkpt lat="45.4540567" lon="10.7711383"><ele>117.33333333333334</ele><time>2026-04-04T09:00:40.605Z</time></trkpt><trkpt lat="45.4542517" lon="10.77117"><ele>117.0</ele><time>2026-04-04T09:00:41.605Z</time></trkpt><trkpt lat="45.4544267" lon="10.771195"><ele>117.0</ele><time>2026-04-04T09:00:42.605Z</time></trkpt><trkpt lat="45.45458" lon="10.7712217"><ele>117.0</ele><time>2026-04-04T09:00:43.606Z</time></trkpt><trkpt lat="45.4547117" lon="10.77124"><ele>117.0</ele><time>2026-04-04T09:00:44.606Z</time></trkpt><trkpt lat="45.4548167" lon="10.7712533"><ele>117.0</ele><time>2026-04-04T09:00:45.605Z</time></trkpt><trkpt lat="45.4548967" lon="10.7712717"><ele>117.5</ele><time>2026-04-04T09:00:46.605Z</time></trkpt><trkpt lat="45.4549633" lon="10.77128"><ele>118.0</ele><time>2026-04-04T09:00:47.605Z</time></trkpt><trkpt lat="45.4550433" lon="10.7713067"><ele>118.5</ele><time>2026-04-04T09:00:49.605Z</time></trkpt><trkpt lat="45.4550767" lon="10.771385"><ele>119.0</ele><time>2026-04-04T09:00:52.605Z</time></trkpt><trkpt lat="45.4550667" lon="10.77155"><ele>119.5</ele><time>2026-04-04T09:00:54.605Z</time></trkpt><trkpt lat="45.455055" lon="10.771685"><ele>120.0</ele><time>2026-04-04T09:00:55.605Z</time></trkpt><trkpt lat="45.4550383" lon="10.7718467"><ele>119.75</ele><time>2026-04-04T09:00:56.605Z</time></trkpt><trkpt lat="45.4550217" lon="10.77201"><ele>119.5</ele><time>2026-04-04T09:00:57.605Z</time></trkpt><trkpt lat="45.45501" lon="10.7721833"><ele>119.25</ele><time>2026-04-04T09:00:58.605Z</time></trkpt><trkpt lat="45.454995" lon="10.7723733"><ele>119.0</ele><time>2026-04-04T09:00:59.605Z</time></trkpt><trkpt lat="45.4549717" lon="10.772575"><ele>118.75</ele><time>2026-04-04T09:01:00.605Z</time></trkpt><trkpt lat="45.4549517" lon="10.7727783"><ele>118.5</ele><time>2026-04-04T09:01:01.605Z</time></trkpt><trkpt lat="45.45492" lon="10.7729883"><ele>118.25</ele><time>2026-04-04T09:01:02.605Z</time></trkpt><trkpt lat="45.4548867" lon="10.7732033"><ele>118.0</ele><time>2026-04-04T09:01:03.605Z</time></trkpt><trkpt lat="45.4548383" lon="10.7734033"><ele>118.0</ele><time>2026-04-04T09:01:04.605Z</time></trkpt><trkpt lat="45.454785" lon="10.773595"><ele>118.0</ele><time>2026-04-04T09:01:05.605Z</time></trkpt><trkpt lat="45.45472" lon="10.77378"><ele>118.0</ele><time>2026-04-04T09:01:06.605Z</time></trkpt><trkpt lat="45.4546367" lon="10.773965"><ele>118.0</ele><time>2026-04-04T09:01:07.605Z</time></trkpt><trkpt lat="45.454545" lon="10.7741317"><ele>118.0</ele><time>2026-04-04T09:01:08.605Z</time></trkpt><trkpt lat="45.4544517" lon="10.7742783"><ele>118.0</ele><time>2026-04-04T09:01:09.605Z</time></trkpt><trkpt lat="45.4543433" lon="10.7744117"><ele>118.0</ele><time>2026-04-04T09:01:10.606Z</time></trkpt><trkpt lat="45.4542233" lon="10.774535"><ele>118.0</ele><time>2026-04-04T09:01:11.605Z</time></trkpt><trkpt lat="45.4541033" lon="10.7746633"><ele>117.75</ele><time>2026-04-04T09:01:12.605Z</time></trkpt><trkpt lat="45.4539867" lon="10.774785"><ele>117.5</ele><time>2026-04-04T09:01:13.606Z</time></trkpt><trkpt lat="45.453865" lon="10.7749217"><ele>117.25</ele><time>2026-04-04T09:01:14.605Z</time></trkpt><trkpt lat="45.453755" lon="10.7750467"><ele>117.0</ele><time>2026-04-04T09:01:15.605Z</time></trkpt><trkpt lat="45.45365" lon="10.77517"><ele>116.75</ele><time>2026-04-04T09:01:16.605Z</time></trkpt><trkpt lat="45.4535383" lon="10.7752867"><ele>116.5</ele><time>2026-04-04T09:01:17.605Z</time></trkpt><trkpt lat="45.4534267" lon="10.7754017"><ele>116.25</ele><time>2026-04-04T09:01:18.605Z</time></trkpt><trkpt lat="45.4533183" lon="10.7755117"><ele>116.0</ele><time>2026-04-04T09:01:19.605Z</time></trkpt><trkpt lat="45.4532417" lon="10.775565"><ele>115.99999999999999</ele><time>2026-04-04T09:01:20.605Z</time></trkpt><trkpt lat="45.4531517" lon="10.7756417"><ele>116.0</ele><time>2026-04-04T09:01:21.605Z</time></trkpt><trkpt lat="45.45306" lon="10.7757083"><ele>116.0</ele><time>2026-04-04T09:01:22.605Z</time></trkpt><trkpt lat="45.4529817" lon="10.77575"><ele>116.0</ele><time>2026-04-04T09:01:23.605Z</time></trkpt><trkpt lat="45.4529017" lon="10.77577"><ele>115.99999999999999</ele><time>2026-04-04T09:01:24.605Z</time></trkpt><trkpt lat="45.4528283" lon="10.7757533"><ele>116.0</ele><time>2026-04-04T09:01:25.605Z</time></trkpt><trkpt lat="45.4527517" lon="10.7757167"><ele>116.33333333333333</ele><time>2026-04-04T09:01:26.605Z</time></trkpt><trkpt lat="45.45269" lon="10.7756983"><ele>116.66666666666666</ele><time>2026-04-04T09:01:27.605Z</time></trkpt><trkpt lat="45.4526283" lon="10.7757317"><ele>117.0</ele><time>2026-04-04T09:01:28.605Z</time></trkpt><trkpt lat="45.452575" lon="10.7757817"><ele>117.33333333333334</ele><time>2026-04-04T09:01:29.605Z</time></trkpt><trkpt lat="45.4525317" lon="10.7758883"><ele>117.66666666666667</ele><time>2026-04-04T09:01:30.605Z</time></trkpt><trkpt lat="45.452515" lon="10.7760283"><ele>118.0</ele><time>2026-04-04T09:01:31.605Z</time></trkpt><trkpt lat="45.4524867" lon="10.776175"><ele>118.25</ele><time>2026-04-04T09:01:32.605Z</time></trkpt><trkpt lat="45.45243" lon="10.7763033"><ele>118.5</ele><time>2026-04-04T09:01:33.605Z</time></trkpt><trkpt lat="45.4523483" lon="10.7764083"><ele>118.75</ele><time>2026-04-04T09:01:34.605Z</time></trkpt><trkpt lat="45.4522517" lon="10.77652"><ele>119.0</ele><time>2026-04-04T09:01:35.605Z</time></trkpt><trkpt lat="45.45215" lon="10.7766367"><ele>119.33333333333333</ele><time>2026-04-04T09:01:36.605Z</time></trkpt><trkpt lat="45.4520417" lon="10.7767717"><ele>119.66666666666666</ele><time>2026-04-04T09:01:37.605Z</time></trkpt><trkpt lat="45.4519283" lon="10.776915"><ele>120.0</ele><time>2026-04-04T09:01:38.605Z</time></trkpt><trkpt lat="45.4518117" lon="10.7770617"><ele>120.0</ele><time>2026-04-04T09:01:39.605Z</time></trkpt><trkpt lat="45.4516883" lon="10.7772067"><ele>120.0</ele><time>2026-04-04T09:01:40.605Z</time></trkpt><trkpt lat="45.4515567" lon="10.777345"><ele>120.0</ele><time>2026-04-04T09:01:41.605Z</time></trkpt><trkpt lat="45.4514267" lon="10.777455"><ele>119.33333333333334</ele><time>2026-04-04T09:01:42.605Z</time></trkpt><trkpt lat="45.451275" lon="10.77755"><ele>118.66666666666667</ele><time>2026-04-04T09:01:43.605Z</time></trkpt><trkpt lat="45.4511233" lon="10.7776317"><ele>118.0</ele><time>2026-04-04T09:01:44.605Z</time></trkpt><trkpt lat="45.4509783" lon="10.7777133"><ele>117.66666666666667</ele><time>2026-04-04T09:01:45.605Z</time></trkpt><trkpt lat="45.4508283" lon="10.7778033"><ele>117.33333333333334</ele><time>2026-04-04T09:01:46.605Z</time></trkpt><trkpt lat="45.45068" lon="10.7778967"><ele>117.0</ele><time>2026-04-04T09:01:47.605Z</time></trkpt><trkpt lat="45.4505333" lon="10.7780133"><ele>116.33333333333334</ele><time>2026-04-04T09:01:48.605Z</time></trkpt><trkpt lat="45.45038" lon="10.7781483"><ele>115.66666666666667</ele><time>2026-04-04T09:01:49.605Z</time></trkpt><trkpt lat="45.4502417" lon="10.778295"><ele>115.0</ele><time>2026-04-04T09:01:50.605Z</time></trkpt><trkpt lat="45.450105" lon="10.77845"><ele>115.33333333333334</ele><time>2026-04-04T09:01:51.605Z</time></trkpt><trkpt lat="45.449975" lon="10.778615"><ele>115.66666666666666</ele><time>2026-04-04T09:01:52.605Z</time></trkpt><trkpt lat="45.449845" lon="10.778775"><ele>116.0</ele><time>2026-04-04T09:01:53.605Z</time></trkpt><trkpt lat="45.4497183" lon="10.778935"><ele>116.66666666666666</ele><time>2026-04-04T09:01:54.605Z</time></trkpt><trkpt lat="45.4495917" lon="10.7790817"><ele>117.33333333333334</ele><time>2026-04-04T09:01:55.605Z</time></trkpt><trkpt lat="45.449455" lon="10.77923"><ele>118.0</ele><time>2026-04-04T09:01:56.605Z</time></trkpt><trkpt lat="45.4493233" lon="10.7793833"><ele>118.0</ele><time>2026-04-04T09:01:57.605Z</time></trkpt><trkpt lat="45.4492" lon="10.7795417"><ele>118.0</ele><time>2026-04-04T09:01:58.605Z</time></trkpt><trkpt lat="45.4490967" lon="10.7797117"><ele>118.0</ele><time>2026-04-04T09:01:59.605Z</time></trkpt><trkpt lat="45.4489983" lon="10.77988"><ele>118.0</ele><time>2026-04-04T09:02:00.605Z</time></trkpt><trkpt lat="45.44891" lon="10.7800517"><ele>118.0</ele><time>2026-04-04T09:02:01.605Z</time></trkpt><trkpt lat="45.448805" lon="10.780215"><ele>118.0</ele><time>2026-04-04T09:02:02.605Z</time></trkpt><trkpt lat="45.4486867" lon="10.780355"><ele>117.33333333333334</ele><time>2026-04-04T09:02:03.605Z</time></trkpt><trkpt lat="45.448565" lon="10.7804667"><ele>116.66666666666666</ele><time>2026-04-04T09:02:04.605Z</time></trkpt><trkpt lat="45.448415" lon="10.7805683"><ele>116.0</ele><time>2026-04-04T09:02:05.605Z</time></trkpt><trkpt lat="45.4482667" lon="10.7806567"><ele>116.0</ele><time>2026-04-04T09:02:06.605Z</time></trkpt><trkpt lat="45.448115" lon="10.7807267"><ele>116.0</ele><time>2026-04-04T09:02:07.605Z</time></trkpt><trkpt lat="45.44796" lon="10.7807833"><ele>116.0</ele><time>2026-04-04T09:02:08.605Z</time></trkpt><trkpt lat="45.4478033" lon="10.7808433"><ele>115.0</ele><time>2026-04-04T09:02:09.605Z</time></trkpt><trkpt lat="45.4476467" lon="10.7809167"><ele>114.0</ele><time>2026-04-04T09:02:10.605Z</time></trkpt><trkpt lat="45.447505" lon="10.7810067"><ele>113.0</ele><time>2026-04-04T09:02:11.605Z</time></trkpt><trkpt lat="45.4473733" lon="10.7811267"><ele>113.0</ele><time>2026-04-04T09:02:12.605Z</time></trkpt><trkpt lat="45.4472567" lon="10.7812683"><ele>113.0</ele><time>2026-04-04T09:02:13.605Z</time></trkpt><trkpt lat="45.4471533" lon="10.781425"><ele>113.0</ele><time>2026-04-04T09:02:14.605Z</time></trkpt><trkpt lat="45.4470583" lon="10.7815617"><ele>113.0</ele><time>2026-04-04T09:02:15.605Z</time></trkpt><trkpt lat="45.4469683" lon="10.7817067"><ele>114.0</ele><time>2026-04-04T09:02:16.605Z</time></trkpt><trkpt lat="45.44688" lon="10.7818317"><ele>115.00000000000001</ele><time>2026-04-04T09:02:17.605Z</time></trkpt><trkpt lat="45.4468083" lon="10.7819183"><ele>116.00000000000001</ele><time>2026-04-04T09:02:18.605Z</time></trkpt><trkpt lat="45.4467467" lon="10.78199"><ele>117.0</ele><time>2026-04-04T09:02:19.605Z</time></trkpt><trkpt lat="45.4466917" lon="10.78205"><ele>118.0</ele><time>2026-04-04T09:02:20.605Z</time></trkpt><trkpt lat="45.4466633" lon="10.7822017"><ele>118.00000000000001</ele><time>2026-04-04T09:02:22.605Z</time></trkpt><trkpt lat="45.4466633" lon="10.7822967"><ele>118.0</ele><time>2026-04-04T09:02:23.605Z</time></trkpt><trkpt lat="45.4466667" lon="10.7823933"><ele>118.0</ele><time>2026-04-04T09:02:24.605Z</time></trkpt><trkpt lat="45.4466717" lon="10.78249"><ele>118.0</ele><time>2026-04-04T09:02:25.605Z</time></trkpt><trkpt lat="45.446685" lon="10.7826517"><ele>118.00000000000001</ele><time>2026-04-04T09:02:27.605Z</time></trkpt><trkpt lat="45.4466717" lon="10.78279"><ele>118.0</ele><time>2026-04-04T09:02:29.605Z</time></trkpt><trkpt lat="45.4466317" lon="10.78295"><ele>118.50000000000001</ele><time>2026-04-04T09:02:31.605Z</time></trkpt><trkpt lat="45.4465917" lon="10.783045"><ele>119.0</ele><time>2026-04-04T09:02:32.605Z</time></trkpt><trkpt lat="45.4465417" lon="10.78313"><ele>119.5</ele><time>2026-04-04T09:02:33.605Z</time></trkpt><trkpt lat="45.4464883" lon="10.7832117"><ele>120.0</ele><time>2026-04-04T09:02:34.605Z</time></trkpt><trkpt lat="45.4464383" lon="10.7833083"><ele>120.50000000000001</ele><time>2026-04-04T09:02:35.605Z</time></trkpt><trkpt lat="45.4463983" lon="10.7834217"><ele>121.0</ele><time>2026-04-04T09:02:36.606Z</time></trkpt><trkpt lat="45.4463633" lon="10.7835533"><ele>121.19999999999999</ele><time>2026-04-04T09:02:37.605Z</time></trkpt><trkpt lat="45.4463317" lon="10.7836983"><ele>121.39999999999999</ele><time>2026-04-04T09:02:38.605Z</time></trkpt><trkpt lat="45.4462967" lon="10.78384"><ele>121.6</ele><time>2026-04-04T09:02:39.605Z</time></trkpt><trkpt lat="45.446265" lon="10.7839867"><ele>121.8</ele><time>2026-04-04T09:02:40.605Z</time></trkpt><trkpt lat="45.4462283" lon="10.7841367"><ele>122.0</ele><time>2026-04-04T09:02:41.605Z</time></trkpt><trkpt lat="45.4461867" lon="10.784295"><ele>122.0</ele><time>2026-04-04T09:02:42.605Z</time></trkpt><trkpt lat="45.446135" lon="10.78446"><ele>122.0</ele><time>2026-04-04T09:02:43.605Z</time></trkpt><trkpt lat="45.4461033" lon="10.7846233"><ele>122.0</ele><time>2026-04-04T09:02:44.605Z</time></trkpt><trkpt lat="45.446065" lon="10.78479"><ele>122.0</ele><time>2026-04-04T09:02:45.605Z</time></trkpt><trkpt lat="45.4460183" lon="10.7849783"><ele>122.0</ele><time>2026-04-04T09:02:46.605Z</time></trkpt><trkpt lat="45.4459733" lon="10.7851683"><ele>122.0</ele><time>2026-04-04T09:02:47.605Z</time></trkpt><trkpt lat="45.4459283" lon="10.7853583"><ele>122.0</ele><time>2026-04-04T09:02:48.605Z</time></trkpt><trkpt lat="45.4458817" lon="10.78554"><ele>122.0</ele><time>2026-04-04T09:02:49.605Z</time></trkpt><trkpt lat="45.4458467" lon="10.7857167"><ele>122.25</ele><time>2026-04-04T09:02:50.605Z</time></trkpt><trkpt lat="45.4458" lon="10.7858933"><ele>122.5</ele><time>2026-04-04T09:02:51.605Z</time></trkpt><trkpt lat="45.4457567" lon="10.7860633"><ele>122.75</ele><time>2026-04-04T09:02:52.606Z</time></trkpt><trkpt lat="45.4457167" lon="10.78624"><ele>123.0</ele><time>2026-04-04T09:02:53.605Z</time></trkpt><trkpt lat="45.4456817" lon="10.786415"><ele>123.75</ele><time>2026-04-04T09:02:54.605Z</time></trkpt><trkpt lat="45.4456483" lon="10.7865933"><ele>124.5</ele><time>2026-04-04T09:02:55.605Z</time></trkpt><trkpt lat="45.44562" lon="10.7867517"><ele>125.25</ele><time>2026-04-04T09:02:56.605Z</time></trkpt><trkpt lat="45.4455767" lon="10.7869217"><ele>126.0</ele><time>2026-04-04T09:02:57.605Z</time></trkpt><trkpt lat="45.4455317" lon="10.7870967"><ele>125.75</ele><time>2026-04-04T09:02:58.605Z</time></trkpt><trkpt lat="45.4454917" lon="10.78727"><ele>125.5</ele><time>2026-04-04T09:02:59.605Z</time></trkpt><trkpt lat="45.4454583" lon="10.78743"><ele>125.25</ele><time>2026-04-04T09:03:00.605Z</time></trkpt><trkpt lat="45.44541" lon="10.787595"><ele>125.0</ele><time>2026-04-04T09:03:01.605Z</time></trkpt><trkpt lat="45.4453567" lon="10.7877617"><ele>125.0</ele><time>2026-04-04T09:03:02.605Z</time></trkpt><trkpt lat="45.4453083" lon="10.787935"><ele>125.0</ele><time>2026-04-04T09:03:03.605Z</time></trkpt><trkpt lat="45.4452583" lon="10.7880933"><ele>125.0</ele><time>2026-04-04T09:03:04.605Z</time></trkpt><trkpt lat="45.4452133" lon="10.7882483"><ele>125.0</ele><time>2026-04-04T09:03:05.605Z</time></trkpt><trkpt lat="45.44518" lon="10.7884017"><ele>125.6</ele><time>2026-04-04T09:03:06.605Z</time></trkpt><trkpt lat="45.4451517" lon="10.788555"><ele>126.2</ele><time>2026-04-04T09:03:07.605Z</time></trkpt><trkpt lat="45.4451267" lon="10.7887017"><ele>126.80000000000001</ele><time>2026-04-04T09:03:08.605Z</time></trkpt><trkpt lat="45.4451033" lon="10.7888467"><ele>127.4</ele><time>2026-04-04T09:03:09.605Z</time></trkpt><trkpt lat="45.4450867" lon="10.7889783"><ele>128.0</ele><time>2026-04-04T09:03:10.605Z</time></trkpt><trkpt lat="45.4450683" lon="10.7891033"><ele>127.99999999999999</ele><time>2026-04-04T09:03:11.605Z</time></trkpt><trkpt lat="45.4450583" lon="10.7892133"><ele>128.0</ele><time>2026-04-04T09:03:12.605Z</time></trkpt><trkpt lat="45.44505" lon="10.789315"><ele>128.0</ele><time>2026-04-04T09:03:13.605Z</time></trkpt><trkpt lat="45.4450433" lon="10.7894083"><ele>128.0</ele><time>2026-04-04T09:03:14.605Z</time></trkpt><trkpt lat="45.445" lon="10.7895583"><ele>127.99999999999999</ele><time>2026-04-04T09:03:16.605Z</time></trkpt><trkpt lat="45.4449067" lon="10.7896083"><ele>128.0</ele><time>2026-04-04T09:03:18.605Z</time></trkpt><trkpt lat="45.4448417" lon="10.7895867"><ele>128.16666666666666</ele><time>2026-04-04T09:03:19.605Z</time></trkpt><trkpt lat="45.44477" lon="10.7895467"><ele>128.33333333333331</ele><time>2026-04-04T09:03:20.605Z</time></trkpt><trkpt lat="45.4446933" lon="10.7894833"><ele>128.5</ele><time>2026-04-04T09:03:21.605Z</time></trkpt><trkpt lat="45.444615" lon="10.78943"><ele>128.66666666666666</ele><time>2026-04-04T09:03:22.605Z</time></trkpt><trkpt lat="45.444535" lon="10.7893917"><ele>128.83333333333334</ele><time>2026-04-04T09:03:23.605Z</time></trkpt><trkpt lat="45.4444533" lon="10.7893517"><ele>129.0</ele><time>2026-04-04T09:03:24.605Z</time></trkpt><trkpt lat="45.444375" lon="10.789315"><ele>129.5</ele><time>2026-04-04T09:03:25.605Z</time></trkpt><trkpt lat="45.4442983" lon="10.7892767"><ele>130.0</ele><time>2026-04-04T09:03:26.605Z</time></trkpt><trkpt lat="45.4442317" lon="10.7892467"><ele>130.5</ele><time>2026-04-04T09:03:27.605Z</time></trkpt><trkpt lat="45.4441583" lon="10.7892183"><ele>131.0</ele><time>2026-04-04T09:03:28.605Z</time></trkpt><trkpt lat="45.4440883" lon="10.7891917"><ele>131.5</ele><time>2026-04-04T09:03:29.605Z</time></trkpt><trkpt lat="45.4440283" lon="10.7891567"><ele>132.0</ele><time>2026-04-04T09:03:30.606Z</time></trkpt><trkpt lat="45.4439217" lon="10.7891033"><ele>132.0</ele><time>2026-04-04T09:03:32.605Z</time></trkpt><trkpt lat="45.4438117" lon="10.78905"><ele>132.0</ele><time>2026-04-04T09:03:34.605Z</time></trkpt><trkpt lat="45.44375" lon="10.78901"><ele>132.0</ele><time>2026-04-04T09:03:35.605Z</time></trkpt><trkpt lat="45.443685" lon="10.788955"><ele>132.0</ele><time>2026-04-04T09:03:36.605Z</time></trkpt><trkpt lat="45.4436183" lon="10.7889133"><ele>132.0</ele><time>2026-04-04T09:03:37.605Z</time></trkpt><trkpt lat="45.443555" lon="10.7889067"><ele>132.0</ele><time>2026-04-04T09:03:38.605Z</time></trkpt><trkpt lat="45.4434533" lon="10.7890083"><ele>132.79999999999998</ele><time>2026-04-04T09:03:40.605Z</time></trkpt><trkpt lat="45.4434267" lon="10.7891067"><ele>133.6</ele><time>2026-04-04T09:03:41.605Z</time></trkpt><trkpt lat="45.44341" lon="10.78925"><ele>134.39999999999998</ele><time>2026-04-04T09:03:42.605Z</time></trkpt><trkpt lat="45.4433883" lon="10.78941"><ele>135.2</ele><time>2026-04-04T09:03:43.606Z</time></trkpt><trkpt lat="45.44336" lon="10.7895717"><ele>136.0</ele><time>2026-04-04T09:03:44.605Z</time></trkpt><trkpt lat="45.4433167" lon="10.7897283"><ele>136.0</ele><time>2026-04-04T09:03:45.605Z</time></trkpt><trkpt lat="45.4432567" lon="10.7898867"><ele>136.0</ele><time>2026-04-04T09:03:46.605Z</time></trkpt><trkpt lat="45.44319" lon="10.79002"><ele>136.0</ele><time>2026-04-04T09:03:47.605Z</time></trkpt><trkpt lat="45.4431367" lon="10.7901433"><ele>136.0</ele><time>2026-04-04T09:03:48.605Z</time></trkpt><trkpt lat="45.4430917" lon="10.7902417"><ele>136.0</ele><time>2026-04-04T09:03:49.605Z</time></trkpt><trkpt lat="45.4430417" lon="10.790315"><ele>135.4</ele><time>2026-04-04T09:03:50.605Z</time></trkpt><trkpt lat="45.4429783" lon="10.790375"><ele>134.8</ele><time>2026-04-04T09:03:51.605Z</time></trkpt><trkpt lat="45.4429017" lon="10.7904317"><ele>134.20000000000002</ele><time>2026-04-04T09:03:52.605Z</time></trkpt><trkpt lat="45.4428167" lon="10.790475"><ele>133.6</ele><time>2026-04-04T09:03:53.605Z</time></trkpt><trkpt lat="45.4427083" lon="10.7904917"><ele>133.0</ele><time>2026-04-04T09:03:54.605Z</time></trkpt><trkpt lat="45.4425767" lon="10.7904967"><ele>133.0</ele><time>2026-04-04T09:03:55.605Z</time></trkpt><trkpt lat="45.4424283" lon="10.7905017"><ele>133.0</ele><time>2026-04-04T09:03:56.605Z</time></trkpt><trkpt lat="45.4422883" lon="10.7905"><ele>133.0</ele><time>2026-04-04T09:03:57.605Z</time></trkpt><trkpt lat="45.4421467" lon="10.79053"><ele>133.0</ele><time>2026-04-04T09:03:58.605Z</time></trkpt><trkpt lat="45.4420183" lon="10.7905867"><ele>133.66666666666669</ele><time>2026-04-04T09:03:59.605Z</time></trkpt><trkpt lat="45.4418917" lon="10.7906933"><ele>134.33333333333334</ele><time>2026-04-04T09:04:00.605Z</time></trkpt><trkpt lat="45.441765" lon="10.7908467"><ele>135.0</ele><time>2026-04-04T09:04:01.605Z</time></trkpt><trkpt lat="45.4416533" lon="10.7910483"><ele>135.0</ele><time>2026-04-04T09:04:02.605Z</time></trkpt><trkpt lat="45.4415533" lon="10.7912933"><ele>135.0</ele><time>2026-04-04T09:04:03.606Z</time></trkpt><trkpt lat="45.441445" lon="10.7915733"><ele>135.0</ele><time>2026-04-04T09:04:04.605Z</time></trkpt><trkpt lat="45.4413417" lon="10.7918283"><ele>136.5</ele><time>2026-04-04T09:04:05.605Z</time></trkpt><trkpt lat="45.4412533" lon="10.7920367"><ele>138.0</ele><time>2026-04-04T09:04:06.605Z</time></trkpt><trkpt lat="45.44117" lon="10.7922083"><ele>139.5</ele><time>2026-04-04T09:04:07.605Z</time></trkpt><trkpt lat="45.4411083" lon="10.792355"><ele>141.0</ele><time>2026-04-04T09:04:08.605Z</time></trkpt><trkpt lat="45.4410617" lon="10.7924667"><ele>141.0</ele><time>2026-04-04T09:04:09.605Z</time></trkpt><trkpt lat="45.4410117" lon="10.7925483"><ele>141.0</ele><time>2026-04-04T09:04:10.605Z</time></trkpt><trkpt lat="45.4409667" lon="10.7926117"><ele>141.0</ele><time>2026-04-04T09:04:11.605Z</time></trkpt><trkpt lat="45.4408583" lon="10.7926733"><ele>141.0</ele><time>2026-04-04T09:04:13.605Z</time></trkpt><trkpt lat="45.4407933" lon="10.7926633"><ele>141.0</ele><time>2026-04-04T09:04:14.605Z</time></trkpt><trkpt lat="45.4406983" lon="10.7926217"><ele>141.0</ele><time>2026-04-04T09:04:15.605Z</time></trkpt><trkpt lat="45.4406067" lon="10.79257"><ele>141.0</ele><time>2026-04-04T09:04:16.605Z</time></trkpt><trkpt lat="45.440515" lon="10.79252"><ele>141.0</ele><time>2026-04-04T09:04:17.605Z</time></trkpt><trkpt lat="45.4404433" lon="10.7924833"><ele>141.0</ele><time>2026-04-04T09:04:18.605Z</time></trkpt><trkpt lat="45.4403617" lon="10.7924333"><ele>141.0</ele><time>2026-04-04T09:04:20.605Z</time></trkpt><trkpt lat="45.4402767" lon="10.7924617"><ele>141.0</ele><time>2026-04-04T09:04:28.606Z</time></trkpt><trkpt lat="45.4401433" lon="10.7925217"><ele>141.25</ele><time>2026-04-04T09:04:30.605Z</time></trkpt><trkpt lat="45.4400367" lon="10.7925417"><ele>141.5</ele><time>2026-04-04T09:04:31.605Z</time></trkpt><trkpt lat="45.4399217" lon="10.792545"><ele>141.75</ele><time>2026-04-04T09:04:32.605Z</time></trkpt><trkpt lat="45.4397883" lon="10.7925333"><ele>142.0</ele><time>2026-04-04T09:04:33.605Z</time></trkpt><trkpt lat="45.4396483" lon="10.7925317"><ele>141.33333333333334</ele><time>2026-04-04T09:04:34.605Z</time></trkpt><trkpt lat="45.4395017" lon="10.792535"><ele>140.66666666666666</ele><time>2026-04-04T09:04:35.605Z</time></trkpt><trkpt lat="45.4393467" lon="10.792535"><ele>140.0</ele><time>2026-04-04T09:04:36.606Z</time></trkpt><trkpt lat="45.4391967" lon="10.7925283"><ele>140.0</ele><time>2026-04-04T09:04:37.605Z</time></trkpt><trkpt lat="45.4390483" lon="10.7925233"><ele>140.0</ele><time>2026-04-04T09:04:38.605Z</time></trkpt><trkpt lat="45.43891" lon="10.79253"><ele>140.0</ele><time>2026-04-04T09:04:39.605Z</time></trkpt><trkpt lat="45.4387783" lon="10.7925283"><ele>140.0</ele><time>2026-04-04T09:04:40.605Z</time></trkpt><trkpt lat="45.4386483" lon="10.7925183"><ele>139.0</ele><time>2026-04-04T09:04:41.605Z</time></trkpt><trkpt lat="45.43851" lon="10.7925117"><ele>138.0</ele><time>2026-04-04T09:04:42.605Z</time></trkpt><trkpt lat="45.4383717" lon="10.79249"><ele>137.0</ele><time>2026-04-04T09:04:43.605Z</time></trkpt><trkpt lat="45.4382317" lon="10.7924717"><ele>136.0</ele><time>2026-04-04T09:04:44.605Z</time></trkpt><trkpt lat="45.4381" lon="10.79243"><ele>136.0</ele><time>2026-04-04T09:04:45.605Z</time></trkpt><trkpt lat="45.4379767" lon="10.792375"><ele>136.0</ele><time>2026-04-04T09:04:46.605Z</time></trkpt><trkpt lat="45.437855" lon="10.792305"><ele>136.0</ele><time>2026-04-04T09:04:47.605Z</time></trkpt><trkpt lat="45.4377283" lon="10.7922217"><ele>136.0</ele><time>2026-04-04T09:04:48.605Z</time></trkpt><trkpt lat="45.4376083" lon="10.792135"><ele>135.5</ele><time>2026-04-04T09:04:49.605Z</time></trkpt><trkpt lat="45.4374767" lon="10.79206"><ele>135.0</ele><time>2026-04-04T09:04:50.605Z</time></trkpt><trkpt lat="45.43734" lon="10.7920017"><ele>134.5</ele><time>2026-04-04T09:04:51.605Z</time></trkpt><trkpt lat="45.4371917" lon="10.7919733"><ele>134.0</ele><time>2026-04-04T09:04:52.605Z</time></trkpt><trkpt lat="45.43704" lon="10.7919717"><ele>133.66666666666666</ele><time>2026-04-04T09:04:53.605Z</time></trkpt><trkpt lat="45.436875" lon="10.7919867"><ele>133.33333333333334</ele><time>2026-04-04T09:04:54.605Z</time></trkpt><trkpt lat="45.4367" lon="10.79201"><ele>133.0</ele><time>2026-04-04T09:04:55.605Z</time></trkpt><trkpt lat="45.43654" lon="10.7920233"><ele>133.0</ele><time>2026-04-04T09:04:56.605Z</time></trkpt><trkpt lat="45.4363817" lon="10.7920467"><ele>133.0</ele><time>2026-04-04T09:04:57.605Z</time></trkpt><trkpt lat="45.436215" lon="10.792065"><ele>133.0</ele><time>2026-04-04T09:04:58.605Z</time></trkpt><trkpt lat="45.43605" lon="10.7920933"><ele>133.33333333333334</ele><time>2026-04-04T09:04:59.605Z</time></trkpt><trkpt lat="45.4358917" lon="10.79211"><ele>133.66666666666666</ele><time>2026-04-04T09:05:00.605Z</time></trkpt><trkpt lat="45.4357283" lon="10.7921317"><ele>134.0</ele><time>2026-04-04T09:05:01.605Z</time></trkpt><trkpt lat="45.43555" lon="10.7921617"><ele>133.0</ele><time>2026-04-04T09:05:02.605Z</time></trkpt><trkpt lat="45.4353717" lon="10.7921867"><ele>132.0</ele><time>2026-04-04T09:05:03.604Z</time></trkpt><trkpt lat="45.4352067" lon="10.7922067"><ele>131.0</ele><time>2026-04-04T09:05:04.604Z</time></trkpt><trkpt lat="45.43504" lon="10.792235"><ele>131.0</ele><time>2026-04-04T09:05:05.604Z</time></trkpt><trkpt lat="45.4348717" lon="10.792265"><ele>131.0</ele><time>2026-04-04T09:05:06.604Z</time></trkpt><trkpt lat="45.434705" lon="10.792285"><ele>131.0</ele><time>2026-04-04T09:05:07.604Z</time></trkpt><trkpt lat="45.434555" lon="10.7923117"><ele>131.0</ele><time>2026-04-04T09:05:08.604Z</time></trkpt><trkpt lat="45.4344" lon="10.7923333"><ele>131.0</ele><time>2026-04-04T09:05:09.604Z</time></trkpt><trkpt lat="45.4342517" lon="10.7923517"><ele>131.0</ele><time>2026-04-04T09:05:10.604Z</time></trkpt><trkpt lat="45.4341017" lon="10.792365"><ele>131.0</ele><time>2026-04-04T09:05:11.604Z</time></trkpt><trkpt lat="45.4339567" lon="10.792375"><ele>131.0</ele><time>2026-04-04T09:05:12.604Z</time></trkpt><trkpt lat="45.4338083" lon="10.7923783"><ele>131.0</ele><time>2026-04-04T09:05:13.604Z</time></trkpt><trkpt lat="45.4336633" lon="10.7923733"><ele>131.0</ele><time>2026-04-04T09:05:14.604Z</time></trkpt><trkpt lat="45.4335167" lon="10.7923667"><ele>131.0</ele><time>2026-04-04T09:05:15.604Z</time></trkpt><trkpt lat="45.4333683" lon="10.7923567"><ele>131.0</ele><time>2026-04-04T09:05:16.604Z</time></trkpt><trkpt lat="45.4332167" lon="10.7923417"><ele>131.0</ele><time>2026-04-04T09:05:17.604Z</time></trkpt><trkpt lat="45.43307" lon="10.79232"><ele>131.0</ele><time>2026-04-04T09:05:18.604Z</time></trkpt><trkpt lat="45.432925" lon="10.79228"><ele>130.0</ele><time>2026-04-04T09:05:19.604Z</time></trkpt><trkpt lat="45.4327867" lon="10.7922283"><ele>129.0</ele><time>2026-04-04T09:05:20.604Z</time></trkpt><trkpt lat="45.4326467" lon="10.7921617"><ele>128.0</ele><time>2026-04-04T09:05:21.604Z</time></trkpt><trkpt lat="45.4325017" lon="10.7920833"><ele>127.0</ele><time>2026-04-04T09:05:22.604Z</time></trkpt><trkpt lat="45.432365" lon="10.7919867"><ele>127.0</ele><time>2026-04-04T09:05:23.604Z</time></trkpt><trkpt lat="45.4322283" lon="10.7918783"><ele>127.0</ele><time>2026-04-04T09:05:24.604Z</time></trkpt><trkpt lat="45.43209" lon="10.7917767"><ele>127.0</ele><time>2026-04-04T09:05:25.604Z</time></trkpt><trkpt lat="45.4319583" lon="10.7916733"><ele>126.33333333333334</ele><time>2026-04-04T09:05:26.604Z</time></trkpt><trkpt lat="45.4318217" lon="10.791575"><ele>125.66666666666666</ele><time>2026-04-04T09:05:27.605Z</time></trkpt><trkpt lat="45.43168" lon="10.7914983"><ele>125.0</ele><time>2026-04-04T09:05:28.604Z</time></trkpt><trkpt lat="45.4315333" lon="10.791435"><ele>125.0</ele><time>2026-04-04T09:05:29.604Z</time></trkpt><trkpt lat="45.43138" lon="10.7913983"><ele>125.0</ele><time>2026-04-04T09:05:30.604Z</time></trkpt><trkpt lat="45.4312217" lon="10.7913833"><ele>125.0</ele><time>2026-04-04T09:05:31.604Z</time></trkpt><trkpt lat="45.43106" lon="10.7913867"><ele>125.66666666666666</ele><time>2026-04-04T09:05:32.604Z</time></trkpt><trkpt lat="45.4309067" lon="10.79141"><ele>126.33333333333334</ele><time>2026-04-04T09:05:33.604Z</time></trkpt><trkpt lat="45.430755" lon="10.7914533"><ele>127.0</ele><time>2026-04-04T09:05:34.604Z</time></trkpt><trkpt lat="45.430615" lon="10.7914867"><ele>127.0</ele><time>2026-04-04T09:05:35.604Z</time></trkpt><trkpt lat="45.43049" lon="10.791505"><ele>127.0</ele><time>2026-04-04T09:05:36.604Z</time></trkpt><trkpt lat="45.4303783" lon="10.79153"><ele>127.0</ele><time>2026-04-04T09:05:37.604Z</time></trkpt><trkpt lat="45.4302683" lon="10.79155"><ele>127.0</ele><time>2026-04-04T09:05:38.604Z</time></trkpt><trkpt lat="45.4301667" lon="10.791545"><ele>126.8</ele><time>2026-04-04T09:05:39.604Z</time></trkpt><trkpt lat="45.4300733" lon="10.7915167"><ele>126.6</ele><time>2026-04-04T09:05:40.604Z</time></trkpt><trkpt lat="45.4299833" lon="10.7914483"><ele>126.39999999999999</ele><time>2026-04-04T09:05:41.604Z</time></trkpt><trkpt lat="45.4299217" lon="10.7913333"><ele>126.19999999999999</ele><time>2026-04-04T09:05:42.604Z</time></trkpt><trkpt lat="45.4298667" lon="10.7912067"><ele>126.0</ele><time>2026-04-04T09:05:43.604Z</time></trkpt><trkpt lat="45.4298133" lon="10.7911067"><ele>126.0</ele><time>2026-04-04T09:05:44.604Z</time></trkpt><trkpt lat="45.4297633" lon="10.791045"><ele>126.0</ele><time>2026-04-04T09:05:45.604Z</time></trkpt><trkpt lat="45.429695" lon="10.7910333"><ele>126.0</ele><time>2026-04-04T09:05:46.604Z</time></trkpt><trkpt lat="45.42961" lon="10.7910517"><ele>126.0</ele><time>2026-04-04T09:05:47.604Z</time></trkpt><trkpt lat="45.4294883" lon="10.7911033"><ele>126.0</ele><time>2026-04-04T09:05:48.604Z</time></trkpt><trkpt lat="45.429355" lon="10.7911733"><ele>125.75</ele><time>2026-04-04T09:05:49.604Z</time></trkpt><trkpt lat="45.429225" lon="10.7912267"><ele>125.5</ele><time>2026-04-04T09:05:50.605Z</time></trkpt><trkpt lat="45.429075" lon="10.7912833"><ele>125.25</ele><time>2026-04-04T09:05:51.605Z</time></trkpt><trkpt lat="45.4289283" lon="10.7913367"><ele>125.0</ele><time>2026-04-04T09:05:52.604Z</time></trkpt><trkpt lat="45.4287783" lon="10.7913917"><ele>125.0</ele><time>2026-04-04T09:05:53.604Z</time></trkpt><trkpt lat="45.4286167" lon="10.7914517"><ele>125.0</ele><time>2026-04-04T09:05:54.604Z</time></trkpt><trkpt lat="45.428465" lon="10.7915033"><ele>125.0</ele><time>2026-04-04T09:05:55.604Z</time></trkpt><trkpt lat="45.4283067" lon="10.7915433"><ele>125.0</ele><time>2026-04-04T09:05:56.604Z</time></trkpt><trkpt lat="45.42815" lon="10.7916033"><ele>125.0</ele><time>2026-04-04T09:05:57.604Z</time></trkpt><trkpt lat="45.428005" lon="10.7916533"><ele>125.0</ele><time>2026-04-04T09:05:58.604Z</time></trkpt><trkpt lat="45.427865" lon="10.7916983"><ele>124.75</ele><time>2026-04-04T09:05:59.604Z</time></trkpt><trkpt lat="45.4277317" lon="10.791745"><ele>124.5</ele><time>2026-04-04T09:06:00.604Z</time></trkpt><trkpt lat="45.4276067" lon="10.7917817"><ele>124.25</ele><time>2026-04-04T09:06:01.604Z</time></trkpt><trkpt lat="45.4274917" lon="10.7918217"><ele>124.0</ele><time>2026-04-04T09:06:02.604Z</time></trkpt><trkpt lat="45.427395" lon="10.79185"><ele>124.0</ele><time>2026-04-04T09:06:03.604Z</time></trkpt><trkpt lat="45.4273217" lon="10.7918717"><ele>124.0</ele><time>2026-04-04T09:06:04.604Z</time></trkpt><trkpt lat="45.4272467" lon="10.7918383"><ele>124.0</ele><time>2026-04-04T09:06:06.604Z</time></trkpt><trkpt lat="45.42719" lon="10.791705"><ele>124.0</ele><time>2026-04-04T09:06:08.604Z</time></trkpt><trkpt lat="45.4271667" lon="10.791575"><ele>124.0</ele><time>2026-04-04T09:06:09.604Z</time></trkpt><trkpt lat="45.42716" lon="10.79141"><ele>124.0</ele><time>2026-04-04T09:06:10.604Z</time></trkpt><trkpt lat="45.4271483" lon="10.7912683"><ele>124.0</ele><time>2026-04-04T09:06:11.604Z</time></trkpt><trkpt lat="45.4271367" lon="10.7911383"><ele>124.0</ele><time>2026-04-04T09:06:12.604Z</time></trkpt><trkpt lat="45.4271083" lon="10.7910467"><ele>124.0</ele><time>2026-04-04T09:06:13.604Z</time></trkpt><trkpt lat="45.4269933" lon="10.790995"><ele>124.0</ele><time>2026-04-04T09:06:15.604Z</time></trkpt><trkpt lat="45.426905" lon="10.7910183"><ele>124.5</ele><time>2026-04-04T09:06:16.604Z</time></trkpt><trkpt lat="45.4267883" lon="10.791075"><ele>125.0</ele><time>2026-04-04T09:06:17.604Z</time></trkpt><trkpt lat="45.4266533" lon="10.7911433"><ele>125.5</ele><time>2026-04-04T09:06:18.604Z</time></trkpt><trkpt lat="45.4265367" lon="10.791195"><ele>126.0</ele><time>2026-04-04T09:06:19.605Z</time></trkpt><trkpt lat="45.4264233" lon="10.7912367"><ele>126.0</ele><time>2026-04-04T09:06:20.604Z</time></trkpt><trkpt lat="45.42632" lon="10.791255"><ele>126.0</ele><time>2026-04-04T09:06:21.604Z</time></trkpt><trkpt lat="45.4262017" lon="10.791245"><ele>126.0</ele><time>2026-04-04T09:06:22.604Z</time></trkpt><trkpt lat="45.4260883" lon="10.7912267"><ele>126.0</ele><time>2026-04-04T09:06:23.604Z</time></trkpt><trkpt lat="45.4259733" lon="10.7912017"><ele>126.0</ele><time>2026-04-04T09:06:24.604Z</time></trkpt><trkpt lat="45.4258717" lon="10.79118"><ele>126.0</ele><time>2026-04-04T09:06:25.604Z</time></trkpt><trkpt lat="45.42578" lon="10.7911567"><ele>126.0</ele><time>2026-04-04T09:06:26.604Z</time></trkpt><trkpt lat="45.4256933" lon="10.791135"><ele>126.0</ele><time>2026-04-04T09:06:27.604Z</time></trkpt><trkpt lat="45.4256317" lon="10.791115"><ele>126.0</ele><time>2026-04-04T09:06:28.604Z</time></trkpt><trkpt lat="45.4255633" lon="10.7911817"><ele>126.0</ele><time>2026-04-04T09:06:31.605Z</time></trkpt><trkpt lat="45.4255267" lon="10.791375"><ele>126.0</ele><time>2026-04-04T09:06:33.604Z</time></trkpt><trkpt lat="45.4254983" lon="10.7915183"><ele>126.0</ele><time>2026-04-04T09:06:34.604Z</time></trkpt><trkpt lat="45.4254633" lon="10.7916717"><ele>126.0</ele><time>2026-04-04T09:06:35.604Z</time></trkpt><trkpt lat="45.4254367" lon="10.7918083"><ele>126.0</ele><time>2026-04-04T09:06:36.604Z</time></trkpt><trkpt lat="45.4254167" lon="10.7919283"><ele>126.0</ele><time>2026-04-04T09:06:37.604Z</time></trkpt><trkpt lat="45.4253967" lon="10.7920467"><ele>125.83333333333333</ele><time>2026-04-04T09:06:38.604Z</time></trkpt><trkpt lat="45.4253833" lon="10.7921467"><ele>125.66666666666666</ele><time>2026-04-04T09:06:39.604Z</time></trkpt><trkpt lat="45.425365" lon="10.7922617"><ele>125.5</ele><time>2026-04-04T09:06:41.604Z</time></trkpt><trkpt lat="45.4253" lon="10.7924033"><ele>125.33333333333333</ele><time>2026-04-04T09:07:06.604Z</time></trkpt><trkpt lat="45.42524" lon="10.7924517"><ele>125.16666666666666</ele><time>2026-04-04T09:07:07.604Z</time></trkpt><trkpt lat="45.4251667" lon="10.7924667"><ele>125.0</ele><time>2026-04-04T09:07:08.604Z</time></trkpt><trkpt lat="45.4250817" lon="10.792455"><ele>125.0</ele><time>2026-04-04T09:07:09.604Z</time></trkpt><trkpt lat="45.4249833" lon="10.79242"><ele>125.0</ele><time>2026-04-04T09:07:10.604Z</time></trkpt><trkpt lat="45.42487" lon="10.79237"><ele>125.0</ele><time>2026-04-04T09:07:11.604Z</time></trkpt><trkpt lat="45.4247583" lon="10.7923267"><ele>125.0</ele><time>2026-04-04T09:07:12.604Z</time></trkpt><trkpt lat="45.4246433" lon="10.7922883"><ele>125.8</ele><time>2026-04-04T09:07:13.604Z</time></trkpt><trkpt lat="45.424525" lon="10.79225"><ele>126.6</ele><time>2026-04-04T09:07:14.604Z</time></trkpt><trkpt lat="45.4244133" lon="10.79221"><ele>127.4</ele><time>2026-04-04T09:07:15.604Z</time></trkpt><trkpt lat="45.4243183" lon="10.7921817"><ele>128.2</ele><time>2026-04-04T09:07:16.604Z</time></trkpt><trkpt lat="45.42425" lon="10.7921367"><ele>129.0</ele><time>2026-04-04T09:07:17.605Z</time></trkpt><trkpt lat="45.4241517" lon="10.792105"><ele>129.0</ele><time>2026-04-04T09:07:19.604Z</time></trkpt><trkpt lat="45.4241067" lon="10.7921733"><ele>129.0</ele><time>2026-04-04T09:07:21.604Z</time></trkpt><trkpt lat="45.42409" lon="10.792365"><ele>129.0</ele><time>2026-04-04T09:07:23.604Z</time></trkpt><trkpt lat="45.424095" lon="10.7925117"><ele>129.0</ele><time>2026-04-04T09:07:24.605Z</time></trkpt><trkpt lat="45.4241017" lon="10.7926883"><ele>129.0</ele><time>2026-04-04T09:07:25.604Z</time></trkpt><trkpt lat="45.42411" lon="10.7928583"><ele>129.0</ele><time>2026-04-04T09:07:26.604Z</time></trkpt><trkpt lat="45.42411" lon="10.793015"><ele>129.0</ele><time>2026-04-04T09:07:27.604Z</time></trkpt><trkpt lat="45.4241083" lon="10.793165"><ele>129.0</ele><time>2026-04-04T09:07:28.604Z</time></trkpt><trkpt lat="45.4241033" lon="10.7932967"><ele>129.0</ele><time>2026-04-04T09:07:29.604Z</time></trkpt><trkpt lat="45.424095" lon="10.7934067"><ele>129.0</ele><time>2026-04-04T09:07:30.604Z</time></trkpt><trkpt lat="45.4240567" lon="10.793535"><ele>129.0</ele><time>2026-04-04T09:07:32.604Z</time></trkpt><trkpt lat="45.42399" lon="10.7935433"><ele>129.0</ele><time>2026-04-04T09:07:34.604Z</time></trkpt><trkpt lat="45.4238733" lon="10.79346"><ele>129.0</ele><time>2026-04-04T09:07:36.604Z</time></trkpt><trkpt lat="45.4237583" lon="10.7933917"><ele>129.0</ele><time>2026-04-04T09:07:38.604Z</time></trkpt><trkpt lat="45.42368" lon="10.7933517"><ele>129.0</ele><time>2026-04-04T09:07:40.604Z</time></trkpt><trkpt lat="45.423585" lon="10.7933583"><ele>128.83333333333334</ele><time>2026-04-04T09:07:42.604Z</time></trkpt><trkpt lat="45.4234633" lon="10.7933617"><ele>128.66666666666666</ele><time>2026-04-04T09:07:44.604Z</time></trkpt><trkpt lat="45.4234" lon="10.7933533"><ele>128.5</ele><time>2026-04-04T09:07:45.604Z</time></trkpt><trkpt lat="45.423335" lon="10.793345"><ele>128.33333333333331</ele><time>2026-04-04T09:07:46.604Z</time></trkpt><trkpt lat="45.42326" lon="10.7933467"><ele>128.16666666666666</ele><time>2026-04-04T09:07:47.604Z</time></trkpt><trkpt lat="45.4231767" lon="10.7933483"><ele>128.0</ele><time>2026-04-04T09:07:48.604Z</time></trkpt><trkpt lat="45.4230883" lon="10.7933583"><ele>128.0</ele><time>2026-04-04T09:07:49.604Z</time></trkpt><trkpt lat="45.422995" lon="10.7933583"><ele>128.0</ele><time>2026-04-04T09:07:50.604Z</time></trkpt><trkpt lat="45.422895" lon="10.7933567"><ele>128.0</ele><time>2026-04-04T09:07:51.604Z</time></trkpt><trkpt lat="45.4228067" lon="10.7933383"><ele>128.0</ele><time>2026-04-04T09:07:52.604Z</time></trkpt><trkpt lat="45.4227333" lon="10.793325"><ele>128.0</ele><time>2026-04-04T09:07:53.604Z</time></trkpt><trkpt lat="45.42262" lon="10.7933117"><ele>129.0</ele><time>2026-04-04T09:07:55.604Z</time></trkpt><trkpt lat="45.4225183" lon="10.793285"><ele>130.0</ele><time>2026-04-04T09:07:57.604Z</time></trkpt><trkpt lat="45.422405" lon="10.7932633"><ele>131.0</ele><time>2026-04-04T09:07:59.604Z</time></trkpt><trkpt lat="45.4222867" lon="10.7932417"><ele>132.0</ele><time>2026-04-04T09:08:01.604Z</time></trkpt><trkpt lat="45.4222167" lon="10.7932417"><ele>133.0</ele><time>2026-04-04T09:08:02.604Z</time></trkpt><trkpt lat="45.4221417" lon="10.7932333"><ele>133.33333333333334</ele><time>2026-04-04T09:08:03.604Z</time></trkpt><trkpt lat="45.4220683" lon="10.7932233"><ele>133.66666666666669</ele><time>2026-04-04T09:08:04.604Z</time></trkpt><trkpt lat="45.4219933" lon="10.7932217"><ele>134.0</ele><time>2026-04-04T09:08:05.604Z</time></trkpt><trkpt lat="45.421905" lon="10.7932317"><ele>134.33333333333334</ele><time>2026-04-04T09:08:06.604Z</time></trkpt><trkpt lat="45.42182" lon="10.7932267"><ele>134.66666666666666</ele><time>2026-04-04T09:08:07.604Z</time></trkpt><trkpt lat="45.4217417" lon="10.79322"><ele>135.0</ele><time>2026-04-04T09:08:08.604Z</time></trkpt><trkpt lat="45.4216683" lon="10.793195"><ele>135.0</ele><time>2026-04-04T09:08:09.604Z</time></trkpt><trkpt lat="45.421595" lon="10.7931817"><ele>135.0</ele><time>2026-04-04T09:08:10.604Z</time></trkpt><trkpt lat="45.4215233" lon="10.7931567"><ele>135.0</ele><time>2026-04-04T09:08:11.604Z</time></trkpt><trkpt lat="45.4214467" lon="10.7931433"><ele>135.0</ele><time>2026-04-04T09:08:12.605Z</time></trkpt><trkpt lat="45.4213667" lon="10.793125"><ele>135.0</ele><time>2026-04-04T09:08:13.605Z</time></trkpt><trkpt lat="45.4212833" lon="10.7931217"><ele>135.0</ele><time>2026-04-04T09:08:14.604Z</time></trkpt><trkpt lat="45.4212067" lon="10.7931283"><ele>134.83333333333334</ele><time>2026-04-04T09:08:15.604Z</time></trkpt><trkpt lat="45.42113" lon="10.7931317"><ele>134.66666666666666</ele><time>2026-04-04T09:08:16.604Z</time></trkpt><trkpt lat="45.4210533" lon="10.7931333"><ele>134.5</ele><time>2026-04-04T09:08:17.604Z</time></trkpt><trkpt lat="45.4209717" lon="10.7931267"><ele>134.33333333333331</ele><time>2026-04-04T09:08:18.604Z</time></trkpt><trkpt lat="45.4208917" lon="10.7931083"><ele>134.16666666666666</ele><time>2026-04-04T09:08:19.604Z</time></trkpt><trkpt lat="45.420815" lon="10.79308"><ele>134.0</ele><time>2026-04-04T09:08:20.604Z</time></trkpt><trkpt lat="45.420745" lon="10.7930767"><ele>134.0</ele><time>2026-04-04T09:08:21.604Z</time></trkpt><trkpt lat="45.42066" lon="10.79302"><ele>134.0</ele><time>2026-04-04T09:08:22.604Z</time></trkpt><trkpt lat="45.4205733" lon="10.7929633"><ele>134.0</ele><time>2026-04-04T09:08:23.604Z</time></trkpt><trkpt lat="45.4204867" lon="10.79291"><ele>134.0</ele><time>2026-04-04T09:08:24.604Z</time></trkpt><trkpt lat="45.42041" lon="10.7928667"><ele>134.0</ele><time>2026-04-04T09:08:25.604Z</time></trkpt><trkpt lat="45.4203333" lon="10.792815"><ele>134.33333333333331</ele><time>2026-04-04T09:08:26.604Z</time></trkpt><trkpt lat="45.42027" lon="10.7927683"><ele>134.66666666666666</ele><time>2026-04-04T09:08:27.604Z</time></trkpt><trkpt lat="45.4202083" lon="10.7927267"><ele>135.0</ele><time>2026-04-04T09:08:28.604Z</time></trkpt><trkpt lat="45.4201" lon="10.7926467"><ele>135.33333333333334</ele><time>2026-04-04T09:08:30.604Z</time></trkpt><trkpt lat="45.4200133" lon="10.792575"><ele>135.66666666666669</ele><time>2026-04-04T09:08:32.604Z</time></trkpt><trkpt lat="45.4199417" lon="10.792515"><ele>136.0</ele><time>2026-04-04T09:08:34.604Z</time></trkpt><trkpt lat="45.419885" lon="10.7924667"><ele>135.2</ele><time>2026-04-04T09:08:36.604Z</time></trkpt><trkpt lat="45.4198517" lon="10.79239"><ele>134.39999999999998</ele><time>2026-04-04T09:08:39.604Z</time></trkpt><trkpt lat="45.4198383" lon="10.7922317"><ele>133.6</ele><time>2026-04-04T09:08:41.604Z</time></trkpt><trkpt lat="45.41982" lon="10.7921083"><ele>132.79999999999998</ele><time>2026-04-04T09:08:42.604Z</time></trkpt><trkpt lat="45.4198017" lon="10.7919733"><ele>132.0</ele><time>2026-04-04T09:08:43.604Z</time></trkpt><trkpt lat="45.4197867" lon="10.7918217"><ele>131.6</ele><time>2026-04-04T09:08:44.604Z</time></trkpt><trkpt lat="45.4197783" lon="10.7916667"><ele>131.2</ele><time>2026-04-04T09:08:45.604Z</time></trkpt><trkpt lat="45.4197767" lon="10.7915067"><ele>130.8</ele><time>2026-04-04T09:08:46.604Z</time></trkpt><trkpt lat="45.419775" lon="10.7913567"><ele>130.4</ele><time>2026-04-04T09:08:47.604Z</time></trkpt><trkpt lat="45.419775" lon="10.79121"><ele>130.0</ele><time>2026-04-04T09:08:48.604Z</time></trkpt><trkpt lat="45.4197767" lon="10.791085"><ele>130.33333333333334</ele><time>2026-04-04T09:08:49.604Z</time></trkpt><trkpt lat="45.419775" lon="10.7909733"><ele>130.66666666666669</ele><time>2026-04-04T09:08:50.604Z</time></trkpt><trkpt lat="45.4197717" lon="10.790875"><ele>131.0</ele><time>2026-04-04T09:08:51.604Z</time></trkpt><trkpt lat="45.4197883" lon="10.790725"><ele>131.33333333333334</ele><time>2026-04-04T09:08:53.604Z</time></trkpt><trkpt lat="45.41986" lon="10.79066"><ele>131.66666666666666</ele><time>2026-04-04T09:08:55.604Z</time></trkpt><trkpt lat="45.4199283" lon="10.7906433"><ele>132.0</ele><time>2026-04-04T09:08:56.604Z</time></trkpt><trkpt lat="45.420005" lon="10.7906467"><ele>132.0</ele><time>2026-04-04T09:08:57.604Z</time></trkpt><trkpt lat="45.420085" lon="10.7906583"><ele>132.0</ele><time>2026-04-04T09:08:58.604Z</time></trkpt><trkpt lat="45.420165" lon="10.790665"><ele>132.0</ele><time>2026-04-04T09:08:59.604Z</time></trkpt><trkpt lat="45.4202333" lon="10.790655"><ele>132.0</ele><time>2026-04-04T09:09:00.604Z</time></trkpt><trkpt lat="45.4203017" lon="10.790575"><ele>132.0</ele><time>2026-04-04T09:09:02.604Z</time></trkpt><trkpt lat="45.4203017" lon="10.790395"><ele>132.0</ele><time>2026-04-04T09:09:04.604Z</time></trkpt><trkpt lat="45.4202783" lon="10.79028"><ele>131.6</ele><time>2026-04-04T09:09:05.604Z</time></trkpt><trkpt lat="45.4202467" lon="10.7901533"><ele>131.2</ele><time>2026-04-04T09:09:06.604Z</time></trkpt><trkpt lat="45.420235" lon="10.7900267"><ele>130.8</ele><time>2026-04-04T09:09:07.604Z</time></trkpt><trkpt lat="45.4202383" lon="10.7899"><ele>130.4</ele><time>2026-04-04T09:09:08.604Z</time></trkpt><trkpt lat="45.4202717" lon="10.7897717"><ele>130.0</ele><time>2026-04-04T09:09:09.604Z</time></trkpt><trkpt lat="45.42032" lon="10.7896533"><ele>130.0</ele><time>2026-04-04T09:09:10.604Z</time></trkpt><trkpt lat="45.4203883" lon="10.7895467"><ele>130.0</ele><time>2026-04-04T09:09:11.604Z</time></trkpt><trkpt lat="45.4204733" lon="10.7894433"><ele>130.0</ele><time>2026-04-04T09:09:12.604Z</time></trkpt><trkpt lat="45.4205567" lon="10.7893633"><ele>130.0</ele><time>2026-04-04T09:09:13.604Z</time></trkpt><trkpt lat="45.4206417" lon="10.7892817"><ele>130.0</ele><time>2026-04-04T09:09:14.604Z</time></trkpt><trkpt lat="45.420715" lon="10.789205"><ele>129.83333333333334</ele><time>2026-04-04T09:09:15.604Z</time></trkpt><trkpt lat="45.42079" lon="10.7891283"><ele>129.66666666666669</ele><time>2026-04-04T09:09:16.604Z</time></trkpt><trkpt lat="45.420855" lon="10.78906"><ele>129.5</ele><time>2026-04-04T09:09:17.604Z</time></trkpt><trkpt lat="45.42091" lon="10.789"><ele>129.33333333333334</ele><time>2026-04-04T09:09:18.604Z</time></trkpt><trkpt lat="45.4209617" lon="10.7889433"><ele>129.16666666666666</ele><time>2026-04-04T09:09:19.604Z</time></trkpt><trkpt lat="45.42105" lon="10.7888683"><ele>129.0</ele><time>2026-04-04T09:09:21.604Z</time></trkpt><trkpt lat="45.4211417" lon="10.78886"><ele>129.0</ele><time>2026-04-04T09:09:23.604Z</time></trkpt><trkpt lat="45.4212083" lon="10.7888233"><ele>129.0</ele><time>2026-04-04T09:09:25.604Z</time></trkpt><trkpt lat="45.421185" lon="10.78871"><ele>129.0</ele><time>2026-04-04T09:09:28.604Z</time></trkpt><trkpt lat="45.4211333" lon="10.788655"><ele>129.0</ele><time>2026-04-04T09:09:29.604Z</time></trkpt><trkpt lat="45.42106" lon="10.7885833"><ele>129.0</ele><time>2026-04-04T09:09:30.604Z</time></trkpt><trkpt lat="45.42097" lon="10.7884917"><ele>129.0</ele><time>2026-04-04T09:09:31.604Z</time></trkpt><trkpt lat="45.4208733" lon="10.7883867"><ele>129.0</ele><time>2026-04-04T09:09:32.604Z</time></trkpt><trkpt lat="45.4207667" lon="10.78828"><ele>129.0</ele><time>2026-04-04T09:09:33.604Z</time></trkpt><trkpt lat="45.4206717" lon="10.788175"><ele>129.0</ele><time>2026-04-04T09:09:34.604Z</time></trkpt><trkpt lat="45.4205733" lon="10.78806"><ele>129.0</ele><time>2026-04-04T09:09:35.604Z</time></trkpt><trkpt lat="45.420475" lon="10.7879467"><ele>128.2</ele><time>2026-04-04T09:09:36.604Z</time></trkpt><trkpt lat="45.420385" lon="10.787825"><ele>127.4</ele><time>2026-04-04T09:09:37.604Z</time></trkpt><trkpt lat="45.42031" lon="10.787705"><ele>126.6</ele><time>2026-04-04T09:09:38.604Z</time></trkpt><trkpt lat="45.4202483" lon="10.7875967"><ele>125.8</ele><time>2026-04-04T09:09:39.604Z</time></trkpt><trkpt lat="45.4201967" lon="10.7874933"><ele>125.0</ele><time>2026-04-04T09:09:40.604Z</time></trkpt><trkpt lat="45.4201417" lon="10.787405"><ele>125.0</ele><time>2026-04-04T09:09:41.604Z</time></trkpt><trkpt lat="45.4200733" lon="10.78727"><ele>125.0</ele><time>2026-04-04T09:09:43.604Z</time></trkpt><trkpt lat="45.4200333" lon="10.7871883"><ele>125.0</ele><time>2026-04-04T09:09:45.604Z</time></trkpt><trkpt lat="45.41994" lon="10.787245"><ele>125.0</ele><time>2026-04-04T09:11:27.604Z</time></trkpt><trkpt lat="45.4198433" lon="10.7872083"><ele>125.0</ele><time>2026-04-04T09:11:29.604Z</time></trkpt><trkpt lat="45.4197717" lon="10.7871717"><ele>124.99999999999999</ele><time>2026-04-04T09:11:30.604Z</time></trkpt><trkpt lat="45.4196933" lon="10.7871267"><ele>125.0</ele><time>2026-04-04T09:11:31.605Z</time></trkpt><trkpt lat="45.4196167" lon="10.78708"><ele>125.0</ele><time>2026-04-04T09:11:32.604Z</time></trkpt><trkpt lat="45.4195367" lon="10.787035"><ele>125.0</ele><time>2026-04-04T09:11:33.604Z</time></trkpt><trkpt lat="45.41947" lon="10.786995"><ele>124.99999999999999</ele><time>2026-04-04T09:11:34.604Z</time></trkpt><trkpt lat="45.4193633" lon="10.7869433"><ele>125.0</ele><time>2026-04-04T09:11:36.604Z</time></trkpt><trkpt lat="45.4192933" lon="10.7870017"><ele>124.6</ele><time>2026-04-04T09:11:38.604Z</time></trkpt><trkpt lat="45.419245" lon="10.787145"><ele>124.2</ele><time>2026-04-04T09:11:40.604Z</time></trkpt><trkpt lat="45.41921" lon="10.787255"><ele>123.80000000000001</ele><time>2026-04-04T09:11:41.604Z</time></trkpt><trkpt lat="45.4191833" lon="10.7873883"><ele>123.4</ele><time>2026-04-04T09:11:42.604Z</time></trkpt><trkpt lat="45.4191583" lon="10.78754"><ele>123.0</ele><time>2026-04-04T09:11:43.604Z</time></trkpt><trkpt lat="45.4191367" lon="10.7877117"><ele>122.5</ele><time>2026-04-04T09:11:44.604Z</time></trkpt><trkpt lat="45.4191033" lon="10.787885"><ele>122.0</ele><time>2026-04-04T09:11:45.604Z</time></trkpt><trkpt lat="45.4190517" lon="10.7880733"><ele>121.5</ele><time>2026-04-04T09:11:46.604Z</time></trkpt><trkpt lat="45.4190083" lon="10.7882567"><ele>121.0</ele><time>2026-04-04T09:11:47.604Z</time></trkpt><trkpt lat="45.418975" lon="10.7884367"><ele>121.5</ele><time>2026-04-04T09:11:48.604Z</time></trkpt><trkpt lat="45.4189467" lon="10.788605"><ele>122.0</ele><time>2026-04-04T09:11:49.605Z</time></trkpt><trkpt lat="45.4189183" lon="10.7887917"><ele>122.5</ele><time>2026-04-04T09:11:50.604Z</time></trkpt><trkpt lat="45.4188867" lon="10.7889533"><ele>123.0</ele><time>2026-04-04T09:11:51.604Z</time></trkpt><trkpt lat="45.41886" lon="10.78909"><ele>123.0</ele><time>2026-04-04T09:11:52.604Z</time></trkpt><trkpt lat="45.4188217" lon="10.7892283"><ele>123.00000000000001</ele><time>2026-04-04T09:11:53.604Z</time></trkpt><trkpt lat="45.41878" lon="10.7893733"><ele>123.00000000000001</ele><time>2026-04-04T09:11:54.604Z</time></trkpt><trkpt lat="45.418745" lon="10.7895183"><ele>123.0</ele><time>2026-04-04T09:11:55.604Z</time></trkpt><trkpt lat="45.4187083" lon="10.7896733"><ele>123.0</ele><time>2026-04-04T09:11:56.604Z</time></trkpt><trkpt lat="45.41867" lon="10.7898283"><ele>123.80000000000001</ele><time>2026-04-04T09:11:57.604Z</time></trkpt><trkpt lat="45.4186417" lon="10.7899867"><ele>124.60000000000001</ele><time>2026-04-04T09:11:58.604Z</time></trkpt><trkpt lat="45.4186067" lon="10.7901317"><ele>125.39999999999999</ele><time>2026-04-04T09:11:59.604Z</time></trkpt><trkpt lat="45.41858" lon="10.7902633"><ele>126.19999999999999</ele><time>2026-04-04T09:12:00.604Z</time></trkpt><trkpt lat="45.4185483" lon="10.790365"><ele>127.0</ele><time>2026-04-04T09:12:01.604Z</time></trkpt><trkpt lat="45.4185033" lon="10.7904533"><ele>127.00000000000001</ele><time>2026-04-04T09:12:02.604Z</time></trkpt><trkpt lat="45.4184483" lon="10.790505"><ele>127.0</ele><time>2026-04-04T09:12:03.604Z</time></trkpt><trkpt lat="45.4183833" lon="10.7905217"><ele>127.0</ele><time>2026-04-04T09:12:04.604Z</time></trkpt><trkpt lat="45.4183117" lon="10.7905317"><ele>127.0</ele><time>2026-04-04T09:12:05.604Z</time></trkpt><trkpt lat="45.4182267" lon="10.7905167"><ele>127.00000000000001</ele><time>2026-04-04T09:12:06.603Z</time></trkpt><trkpt lat="45.4181183" lon="10.7904883"><ele>127.0</ele><time>2026-04-04T09:12:07.603Z</time></trkpt><trkpt lat="45.4179983" lon="10.790465"><ele>127.25</ele><time>2026-04-04T09:12:08.604Z</time></trkpt><trkpt lat="45.417885" lon="10.7904533"><ele>127.5</ele><time>2026-04-04T09:12:09.603Z</time></trkpt><trkpt lat="45.417765" lon="10.7904467"><ele>127.75</ele><time>2026-04-04T09:12:10.603Z</time></trkpt><trkpt lat="45.4176533" lon="10.7904367"><ele>128.0</ele><time>2026-04-04T09:12:11.603Z</time></trkpt><trkpt lat="45.4175383" lon="10.790425"><ele>128.0</ele><time>2026-04-04T09:12:12.603Z</time></trkpt><trkpt lat="45.4174267" lon="10.790405"><ele>128.0</ele><time>2026-04-04T09:12:13.603Z</time></trkpt><trkpt lat="45.41732" lon="10.790375"><ele>128.0</ele><time>2026-04-04T09:12:14.603Z</time></trkpt><trkpt lat="45.4172217" lon="10.7903483"><ele>128.0</ele><time>2026-04-04T09:12:15.603Z</time></trkpt><trkpt lat="45.4171383" lon="10.7903"><ele>128.0</ele><time>2026-04-04T09:12:16.603Z</time></trkpt><trkpt lat="45.41706" lon="10.790265"><ele>127.60000000000001</ele><time>2026-04-04T09:12:17.603Z</time></trkpt><trkpt lat="45.4169867" lon="10.79024"><ele>127.20000000000002</ele><time>2026-04-04T09:12:18.603Z</time></trkpt><trkpt lat="45.416875" lon="10.7902717"><ele>126.8</ele><time>2026-04-04T09:12:20.603Z</time></trkpt><trkpt lat="45.4168117" lon="10.79043"><ele>126.4</ele><time>2026-04-04T09:12:22.603Z</time></trkpt><trkpt lat="45.4167933" lon="10.79056"><ele>126.0</ele><time>2026-04-04T09:12:23.603Z</time></trkpt><trkpt lat="45.4167733" lon="10.7907217"><ele>126.0</ele><time>2026-04-04T09:12:24.603Z</time></trkpt><trkpt lat="45.4167567" lon="10.7909133"><ele>126.0</ele><time>2026-04-04T09:12:25.603Z</time></trkpt><trkpt lat="45.4167483" lon="10.7911017"><ele>126.0</ele><time>2026-04-04T09:12:26.603Z</time></trkpt><trkpt lat="45.4167183" lon="10.7913083"><ele>126.0</ele><time>2026-04-04T09:12:27.603Z</time></trkpt><trkpt lat="45.4167067" lon="10.7914883"><ele>125.8</ele><time>2026-04-04T09:12:28.603Z</time></trkpt><trkpt lat="45.4166867" lon="10.791655"><ele>125.6</ele><time>2026-04-04T09:12:29.603Z</time></trkpt><trkpt lat="45.4166617" lon="10.7917817"><ele>125.4</ele><time>2026-04-04T09:12:30.603Z</time></trkpt><trkpt lat="45.4166417" lon="10.7918783"><ele>125.2</ele><time>2026-04-04T09:12:31.603Z</time></trkpt><trkpt lat="45.4165733" lon="10.7919833"><ele>125.0</ele><time>2026-04-04T09:12:33.603Z</time></trkpt><trkpt lat="45.41645" lon="10.7919617"><ele>125.0</ele><time>2026-04-04T09:12:35.603Z</time></trkpt><trkpt lat="45.4163517" lon="10.7918883"><ele>125.0</ele><time>2026-04-04T09:12:36.603Z</time></trkpt><trkpt lat="45.4162283" lon="10.7918067"><ele>125.0</ele><time>2026-04-04T09:12:37.603Z</time></trkpt><trkpt lat="45.416095" lon="10.79173"><ele>125.0</ele><time>2026-04-04T09:12:38.603Z</time></trkpt><trkpt lat="45.4159533" lon="10.7916533"><ele>126.33333333333333</ele><time>2026-04-04T09:12:39.603Z</time></trkpt><trkpt lat="45.41581" lon="10.79159"><ele>127.66666666666666</ele><time>2026-04-04T09:12:40.603Z</time></trkpt><trkpt lat="45.4156417" lon="10.7915167"><ele>129.0</ele><time>2026-04-04T09:12:41.603Z</time></trkpt><trkpt lat="45.41548" lon="10.791455"><ele>129.25</ele><time>2026-04-04T09:12:42.603Z</time></trkpt><trkpt lat="45.4153333" lon="10.7913883"><ele>129.5</ele><time>2026-04-04T09:12:43.603Z</time></trkpt><trkpt lat="45.4151933" lon="10.7913233"><ele>129.75</ele><time>2026-04-04T09:12:44.603Z</time></trkpt><trkpt lat="45.415065" lon="10.7912583"><ele>130.0</ele><time>2026-04-04T09:12:45.603Z</time></trkpt><trkpt lat="45.4149483" lon="10.7911967"><ele>130.0</ele><time>2026-04-04T09:12:46.603Z</time></trkpt><trkpt lat="45.41483" lon="10.79114"><ele>130.0</ele><time>2026-04-04T09:12:47.603Z</time></trkpt><trkpt lat="45.4147" lon="10.791085"><ele>130.0</ele><time>2026-04-04T09:12:48.603Z</time></trkpt><trkpt lat="45.414575" lon="10.7910267"><ele>130.0</ele><time>2026-04-04T09:12:49.603Z</time></trkpt><trkpt lat="45.4144833" lon="10.7909817"><ele>130.0</ele><time>2026-04-04T09:12:50.603Z</time></trkpt><trkpt lat="45.4144033" lon="10.7909467"><ele>130.0</ele><time>2026-04-04T09:12:51.603Z</time></trkpt><trkpt lat="45.4143383" lon="10.7909283"><ele>130.0</ele><time>2026-04-04T09:12:52.603Z</time></trkpt><trkpt lat="45.414275" lon="10.7909067"><ele>130.0</ele><time>2026-04-04T09:12:53.603Z</time></trkpt><trkpt lat="45.4141817" lon="10.79096"><ele>130.0</ele><time>2026-04-04T09:12:55.603Z</time></trkpt><trkpt lat="45.4141467" lon="10.791045"><ele>130.0</ele><time>2026-04-04T09:12:56.603Z</time></trkpt><trkpt lat="45.41413" lon="10.791155"><ele>130.0</ele><time>2026-04-04T09:12:57.603Z</time></trkpt><trkpt lat="45.414145" lon="10.79131"><ele>130.0</ele><time>2026-04-04T09:12:58.603Z</time></trkpt><trkpt lat="45.4141517" lon="10.7914633"><ele>130.0</ele><time>2026-04-04T09:12:59.603Z</time></trkpt><trkpt lat="45.4141417" lon="10.7915983"><ele>130.0</ele><time>2026-04-04T09:13:00.603Z</time></trkpt><trkpt lat="45.4141233" lon="10.7917167"><ele>130.0</ele><time>2026-04-04T09:13:01.603Z</time></trkpt><trkpt lat="45.4141083" lon="10.7918167"><ele>129.16666666666669</ele><time>2026-04-04T09:13:02.603Z</time></trkpt><trkpt lat="45.4140667" lon="10.7919933"><ele>128.33333333333334</ele><time>2026-04-04T09:13:04.603Z</time></trkpt><trkpt lat="45.4140317" lon="10.792085"><ele>127.5</ele><time>2026-04-04T09:13:05.603Z</time></trkpt><trkpt lat="45.4139883" lon="10.792155"><ele>126.66666666666666</ele><time>2026-04-04T09:13:06.603Z</time></trkpt><trkpt lat="45.41392" lon="10.7922183"><ele>125.83333333333333</ele><time>2026-04-04T09:13:07.603Z</time></trkpt><trkpt lat="45.4138433" lon="10.7922617"><ele>125.0</ele><time>2026-04-04T09:13:08.603Z</time></trkpt><trkpt lat="45.413755" lon="10.7922833"><ele>124.33333333333333</ele><time>2026-04-04T09:13:09.603Z</time></trkpt><trkpt lat="45.41367" lon="10.7923233"><ele>123.66666666666666</ele><time>2026-04-04T09:13:10.604Z</time></trkpt><trkpt lat="45.4135967" lon="10.7923783"><ele>123.0</ele><time>2026-04-04T09:13:11.603Z</time></trkpt><trkpt lat="45.413535" lon="10.7924367"><ele>122.33333333333334</ele><time>2026-04-04T09:13:12.603Z</time></trkpt><trkpt lat="45.4134717" lon="10.792485"><ele>121.66666666666667</ele><time>2026-04-04T09:13:13.604Z</time></trkpt><trkpt lat="45.4133983" lon="10.7925283"><ele>121.0</ele><time>2026-04-04T09:13:14.603Z</time></trkpt><trkpt lat="45.4133317" lon="10.79256"><ele>121.0</ele><time>2026-04-04T09:13:15.603Z</time></trkpt><trkpt lat="45.4132683" lon="10.792595"><ele>121.0</ele><time>2026-04-04T09:13:16.603Z</time></trkpt><trkpt lat="45.413165" lon="10.7926833"><ele>121.0</ele><time>2026-04-04T09:13:18.603Z</time></trkpt><trkpt lat="45.4131133" lon="10.792735"><ele>121.0</ele><time>2026-04-04T09:13:19.604Z</time></trkpt><trkpt lat="45.4130033" lon="10.79272"><ele>121.0</ele><time>2026-04-04T09:13:21.603Z</time></trkpt><trkpt lat="45.4129167" lon="10.7926683"><ele>119.33333333333334</ele><time>2026-04-04T09:13:22.603Z</time></trkpt><trkpt lat="45.4128017" lon="10.7926033"><ele>117.66666666666666</ele><time>2026-04-04T09:13:23.603Z</time></trkpt><trkpt lat="45.4126267" lon="10.7925167"><ele>116.0</ele><time>2026-04-04T09:13:24.603Z</time></trkpt><trkpt lat="45.4124433" lon="10.792435"><ele>116.0</ele><time>2026-04-04T09:13:25.603Z</time></trkpt><trkpt lat="45.412265" lon="10.7923683"><ele>116.0</ele><time>2026-04-04T09:13:26.603Z</time></trkpt><trkpt lat="45.412105" lon="10.7923117"><ele>116.0</ele><time>2026-04-04T09:13:27.603Z</time></trkpt><trkpt lat="45.4119683" lon="10.7922467"><ele>115.25</ele><time>2026-04-04T09:13:28.603Z</time></trkpt><trkpt lat="45.41184" lon="10.7921833"><ele>114.5</ele><time>2026-04-04T09:13:29.603Z</time></trkpt><trkpt lat="45.4117283" lon="10.7921067"><ele>113.75</ele><time>2026-04-04T09:13:30.603Z</time></trkpt><trkpt lat="45.411615" lon="10.7920367"><ele>113.0</ele><time>2026-04-04T09:13:31.603Z</time></trkpt><trkpt lat="45.4115" lon="10.7919683"><ele>113.0</ele><time>2026-04-04T09:13:32.603Z</time></trkpt><trkpt lat="45.4113867" lon="10.7919033"><ele>113.0</ele><time>2026-04-04T09:13:33.603Z</time></trkpt><trkpt lat="45.4112717" lon="10.7918383"><ele>113.0</ele><time>2026-04-04T09:13:34.603Z</time></trkpt><trkpt lat="45.4111633" lon="10.791785"><ele>113.0</ele><time>2026-04-04T09:13:35.603Z</time></trkpt><trkpt lat="45.4110583" lon="10.7917583"><ele>113.2</ele><time>2026-04-04T09:13:36.603Z</time></trkpt><trkpt lat="45.4109533" lon="10.7917583"><ele>113.4</ele><time>2026-04-04T09:13:37.604Z</time></trkpt><trkpt lat="45.41085" lon="10.7917817"><ele>113.60000000000001</ele><time>2026-04-04T09:13:38.603Z</time></trkpt><trkpt lat="45.4107417" lon="10.79181"><ele>113.80000000000001</ele><time>2026-04-04T09:13:39.603Z</time></trkpt><trkpt lat="45.4106233" lon="10.7918317"><ele>114.0</ele><time>2026-04-04T09:13:40.603Z</time></trkpt><trkpt lat="45.4105117" lon="10.7918483"><ele>113.75</ele><time>2026-04-04T09:13:41.603Z</time></trkpt><trkpt lat="45.4103967" lon="10.7918667"><ele>113.5</ele><time>2026-04-04T09:13:42.603Z</time></trkpt><trkpt lat="45.4102767" lon="10.791875"><ele>113.25</ele><time>2026-04-04T09:13:43.603Z</time></trkpt><trkpt lat="45.4101567" lon="10.7918767"><ele>113.0</ele><time>2026-04-04T09:13:44.603Z</time></trkpt><trkpt lat="45.4100433" lon="10.7918817"><ele>113.0</ele><time>2026-04-04T09:13:45.603Z</time></trkpt><trkpt lat="45.4099333" lon="10.79188"><ele>113.00000000000001</ele><time>2026-04-04T09:13:46.603Z</time></trkpt><trkpt lat="45.4098267" lon="10.79188"><ele>113.00000000000001</ele><time>2026-04-04T09:13:47.603Z</time></trkpt><trkpt lat="45.4097233" lon="10.7918833"><ele>113.0</ele><time>2026-04-04T09:13:48.603Z</time></trkpt><trkpt lat="45.4096233" lon="10.79189"><ele>113.0</ele><time>2026-04-04T09:13:49.603Z</time></trkpt><trkpt lat="45.4095483" lon="10.791895"><ele>112.99999999999999</ele><time>2026-04-04T09:13:50.603Z</time></trkpt><trkpt lat="45.40948" lon="10.7919"><ele>113.0</ele><time>2026-04-04T09:13:51.603Z</time></trkpt><trkpt lat="45.4093833" lon="10.7918933"><ele>113.0</ele><time>2026-04-04T09:13:53.603Z</time></trkpt><trkpt lat="45.4093283" lon="10.7917783"><ele>113.0</ele><time>2026-04-04T09:13:55.603Z</time></trkpt><trkpt lat="45.409315" lon="10.7916733"><ele>112.99999999999999</ele><time>2026-04-04T09:13:56.603Z</time></trkpt><trkpt lat="45.4093117" lon="10.7915533"><ele>113.0</ele><time>2026-04-04T09:13:57.603Z</time></trkpt><trkpt lat="45.4093067" lon="10.7914433"><ele>112.99999999999999</ele><time>2026-04-04T09:13:58.603Z</time></trkpt><trkpt lat="45.409305" lon="10.7913517"><ele>113.0</ele><time>2026-04-04T09:13:59.603Z</time></trkpt><trkpt lat="45.4092733" lon="10.7912567"><ele>113.0</ele><time>2026-04-04T09:14:01.603Z</time></trkpt><trkpt lat="45.4091933" lon="10.7912233"><ele>113.0</ele><time>2026-04-04T09:14:03.603Z</time></trkpt><trkpt lat="45.4090733" lon="10.7912167"><ele>112.99999999999999</ele><time>2026-04-04T09:14:05.603Z</time></trkpt><trkpt lat="45.408995" lon="10.7912217"><ele>113.0</ele><time>2026-04-04T09:14:06.603Z</time></trkpt><trkpt lat="45.4089033" lon="10.7912283"><ele>113.0</ele><time>2026-04-04T09:14:07.603Z</time></trkpt><trkpt lat="45.4088017" lon="10.7912333"><ele>113.00000000000001</ele><time>2026-04-04T09:14:08.603Z</time></trkpt><trkpt lat="45.4087033" lon="10.7912433"><ele>113.00000000000001</ele><time>2026-04-04T09:14:09.603Z</time></trkpt><trkpt lat="45.40861" lon="10.7912617"><ele>113.0</ele><time>2026-04-04T09:14:10.603Z</time></trkpt><trkpt lat="45.4085133" lon="10.7912817"><ele>113.0</ele><time>2026-04-04T09:14:11.603Z</time></trkpt><trkpt lat="45.4084167" lon="10.7912967"><ele>113.0</ele><time>2026-04-04T09:14:12.603Z</time></trkpt><trkpt lat="45.4083233" lon="10.7913"><ele>113.00000000000001</ele><time>2026-04-04T09:14:13.603Z</time></trkpt><trkpt lat="45.4082267" lon="10.7913033"><ele>113.00000000000001</ele><time>2026-04-04T09:14:14.603Z</time></trkpt><trkpt lat="45.4081333" lon="10.7912967"><ele>113.0</ele><time>2026-04-04T09:14:15.603Z</time></trkpt><trkpt lat="45.4080383" lon="10.7912967"><ele>113.0</ele><time>2026-04-04T09:14:16.603Z</time></trkpt><trkpt lat="45.4079367" lon="10.791295"><ele>112.75</ele><time>2026-04-04T09:14:17.603Z</time></trkpt><trkpt lat="45.4078333" lon="10.791295"><ele>112.5</ele><time>2026-04-04T09:14:18.603Z</time></trkpt><trkpt lat="45.4077233" lon="10.7913017"><ele>112.25</ele><time>2026-04-04T09:14:19.603Z</time></trkpt><trkpt lat="45.4076067" lon="10.79131"><ele>112.0</ele><time>2026-04-04T09:14:20.603Z</time></trkpt><trkpt lat="45.4074783" lon="10.791315"><ele>112.0</ele><time>2026-04-04T09:14:21.603Z</time></trkpt><trkpt lat="45.4073483" lon="10.7913183"><ele>112.0</ele><time>2026-04-04T09:14:22.603Z</time></trkpt><trkpt lat="45.4072183" lon="10.7913267"><ele>112.0</ele><time>2026-04-04T09:14:23.603Z</time></trkpt><trkpt lat="45.4071" lon="10.791335"><ele>112.0</ele><time>2026-04-04T09:14:24.603Z</time></trkpt><trkpt lat="45.4069867" lon="10.7913467"><ele>112.0</ele><time>2026-04-04T09:14:25.603Z</time></trkpt><trkpt lat="45.4068717" lon="10.7913533"><ele>112.0</ele><time>2026-04-04T09:14:26.603Z</time></trkpt><trkpt lat="45.4067517" lon="10.7913633"><ele>112.0</ele><time>2026-04-04T09:14:27.603Z</time></trkpt><trkpt lat="45.40662" lon="10.7913667"><ele>112.0</ele><time>2026-04-04T09:14:28.603Z</time></trkpt><trkpt lat="45.4064967" lon="10.7913733"><ele>112.0</ele><time>2026-04-04T09:14:29.603Z</time></trkpt><trkpt lat="45.406365" lon="10.791385"><ele>112.0</ele><time>2026-04-04T09:14:30.604Z</time></trkpt><trkpt lat="45.406235" lon="10.7913983"><ele>112.0</ele><time>2026-04-04T09:14:31.603Z</time></trkpt><trkpt lat="45.4061167" lon="10.7914"><ele>112.0</ele><time>2026-04-04T09:14:32.603Z</time></trkpt><trkpt lat="45.405985" lon="10.7913983"><ele>112.0</ele><time>2026-04-04T09:14:33.603Z</time></trkpt><trkpt lat="45.40585" lon="10.7914017"><ele>112.0</ele><time>2026-04-04T09:14:34.603Z</time></trkpt><trkpt lat="45.4057183" lon="10.7914017"><ele>112.0</ele><time>2026-04-04T09:14:35.603Z</time></trkpt><trkpt lat="45.4055883" lon="10.7914033"><ele>112.0</ele><time>2026-04-04T09:14:36.603Z</time></trkpt><trkpt lat="45.4054617" lon="10.7914183"><ele>112.0</ele><time>2026-04-04T09:14:37.603Z</time></trkpt><trkpt lat="45.405345" lon="10.7914317"><ele>111.99999999999999</ele><time>2026-04-04T09:14:38.603Z</time></trkpt><trkpt lat="45.40523" lon="10.79145"><ele>111.99999999999999</ele><time>2026-04-04T09:14:39.603Z</time></trkpt><trkpt lat="45.4051183" lon="10.7914583"><ele>112.0</ele><time>2026-04-04T09:14:40.603Z</time></trkpt><trkpt lat="45.405025" lon="10.791465"><ele>112.0</ele><time>2026-04-04T09:14:41.603Z</time></trkpt><trkpt lat="45.4049317" lon="10.7914667"><ele>112.0</ele><time>2026-04-04T09:14:42.603Z</time></trkpt><trkpt lat="45.404835" lon="10.7914767"><ele>111.99999999999999</ele><time>2026-04-04T09:14:43.603Z</time></trkpt><trkpt lat="45.404735" lon="10.79152"><ele>111.99999999999999</ele><time>2026-04-04T09:14:44.603Z</time></trkpt><trkpt lat="45.40464" lon="10.791585"><ele>112.0</ele><time>2026-04-04T09:14:45.603Z</time></trkpt><trkpt lat="45.4045617" lon="10.791685"><ele>112.0</ele><time>2026-04-04T09:14:46.603Z</time></trkpt><trkpt lat="45.404505" lon="10.7918083"><ele>111.0</ele><time>2026-04-04T09:14:47.603Z</time></trkpt><trkpt lat="45.40447" lon="10.7919517"><ele>110.0</ele><time>2026-04-04T09:14:48.603Z</time></trkpt><trkpt lat="45.40445" lon="10.7921183"><ele>109.0</ele><time>2026-04-04T09:14:49.603Z</time></trkpt><trkpt lat="45.4044483" lon="10.7922817"><ele>108.0</ele><time>2026-04-04T09:14:50.603Z</time></trkpt><trkpt lat="45.4044633" lon="10.7924383"><ele>108.0</ele><time>2026-04-04T09:14:51.603Z</time></trkpt><trkpt lat="45.4044733" lon="10.7925967"><ele>108.0</ele><time>2026-04-04T09:14:52.603Z</time></trkpt><trkpt lat="45.4044783" lon="10.79276"><ele>108.0</ele><time>2026-04-04T09:14:53.603Z</time></trkpt><trkpt lat="45.4044733" lon="10.7929233"><ele>108.0</ele><time>2026-04-04T09:14:54.603Z</time></trkpt><trkpt lat="45.40448" lon="10.793085"><ele>108.2</ele><time>2026-04-04T09:14:55.603Z</time></trkpt><trkpt lat="45.4044767" lon="10.79324"><ele>108.4</ele><time>2026-04-04T09:14:56.603Z</time></trkpt><trkpt lat="45.4044817" lon="10.7933983"><ele>108.60000000000001</ele><time>2026-04-04T09:14:57.603Z</time></trkpt><trkpt lat="45.40449" lon="10.793535"><ele>108.80000000000001</ele><time>2026-04-04T09:14:58.603Z</time></trkpt><trkpt lat="45.4045017" lon="10.7936583"><ele>109.0</ele><time>2026-04-04T09:14:59.603Z</time></trkpt><trkpt lat="45.404515" lon="10.79377"><ele>109.2</ele><time>2026-04-04T09:15:00.603Z</time></trkpt><trkpt lat="45.4045333" lon="10.7938667"><ele>109.4</ele><time>2026-04-04T09:15:01.603Z</time></trkpt><trkpt lat="45.40455" lon="10.7939533"><ele>109.6</ele><time>2026-04-04T09:15:02.603Z</time></trkpt><trkpt lat="45.4045217" lon="10.7940667"><ele>109.8</ele><time>2026-04-04T09:15:05.603Z</time></trkpt><trkpt lat="45.4043917" lon="10.7940583"><ele>110.0</ele><time>2026-04-04T09:15:07.603Z</time></trkpt><trkpt lat="45.40429" lon="10.7940317"><ele>110.0</ele><time>2026-04-04T09:15:08.604Z</time></trkpt><trkpt lat="45.4041633" lon="10.7939833"><ele>110.0</ele><time>2026-04-04T09:15:09.603Z</time></trkpt><trkpt lat="45.4039983" lon="10.7939283"><ele>110.0</ele><time>2026-04-04T09:15:10.603Z</time></trkpt><trkpt lat="45.4038133" lon="10.7938717"><ele>108.5</ele><time>2026-04-04T09:15:11.603Z</time></trkpt><trkpt lat="45.4035833" lon="10.7938133"><ele>107.0</ele><time>2026-04-04T09:15:12.603Z</time></trkpt><trkpt lat="45.4033483" lon="10.7937633"><ele>107.0</ele><time>2026-04-04T09:15:13.603Z</time></trkpt><trkpt lat="45.4031283" lon="10.7937083"><ele>107.0</ele><time>2026-04-04T09:15:14.603Z</time></trkpt><trkpt lat="45.4029133" lon="10.793655"><ele>107.0</ele><time>2026-04-04T09:15:15.603Z</time></trkpt><trkpt lat="45.40271" lon="10.7936083"><ele>107.0</ele><time>2026-04-04T09:15:16.603Z</time></trkpt><trkpt lat="45.402505" lon="10.793555"><ele>107.0</ele><time>2026-04-04T09:15:17.603Z</time></trkpt><trkpt lat="45.4022817" lon="10.7935083"><ele>107.0</ele><time>2026-04-04T09:15:18.603Z</time></trkpt><trkpt lat="45.4020467" lon="10.793455"><ele>107.0</ele><time>2026-04-04T09:15:19.603Z</time></trkpt><trkpt lat="45.40178" lon="10.793385"><ele>107.0</ele><time>2026-04-04T09:15:20.603Z</time></trkpt><trkpt lat="45.40152" lon="10.7933133"><ele>107.0</ele><time>2026-04-04T09:15:21.603Z</time></trkpt><trkpt lat="45.4012733" lon="10.7932617"><ele>107.0</ele><time>2026-04-04T09:15:22.604Z</time></trkpt><trkpt lat="45.4010467" lon="10.7932083"><ele>107.0</ele><time>2026-04-04T09:15:23.603Z</time></trkpt><trkpt lat="45.4008267" lon="10.793165"><ele>107.0</ele><time>2026-04-04T09:15:24.603Z</time></trkpt><trkpt lat="45.4006433" lon="10.793125"><ele>107.0</ele><time>2026-04-04T09:15:25.603Z</time></trkpt><trkpt lat="45.4004733" lon="10.79309"><ele>107.0</ele><time>2026-04-04T09:15:26.603Z</time></trkpt><trkpt lat="45.4003183" lon="10.7930567"><ele>107.0</ele><time>2026-04-04T09:15:27.603Z</time></trkpt><trkpt lat="45.400185" lon="10.7930133"><ele>107.0</ele><time>2026-04-04T09:15:28.603Z</time></trkpt><trkpt lat="45.4000567" lon="10.7929783"><ele>107.0</ele><time>2026-04-04T09:15:29.603Z</time></trkpt><trkpt lat="45.3999417" lon="10.7929567"><ele>107.0</ele><time>2026-04-04T09:15:30.603Z</time></trkpt><trkpt lat="45.3998317" lon="10.7929483"><ele>106.99999999999999</ele><time>2026-04-04T09:15:31.603Z</time></trkpt><trkpt lat="45.3997267" lon="10.792925"><ele>106.99999999999999</ele><time>2026-04-04T09:15:32.603Z</time></trkpt><trkpt lat="45.3996283" lon="10.79291"><ele>107.0</ele><time>2026-04-04T09:15:33.603Z</time></trkpt><trkpt lat="45.3995333" lon="10.7928867"><ele>107.0</ele><time>2026-04-04T09:15:34.603Z</time></trkpt><trkpt lat="45.3994383" lon="10.79286"><ele>106.6</ele><time>2026-04-04T09:15:35.603Z</time></trkpt><trkpt lat="45.399345" lon="10.7928267"><ele>106.19999999999999</ele><time>2026-04-04T09:15:36.603Z</time></trkpt><trkpt lat="45.399255" lon="10.792795"><ele>105.8</ele><time>2026-04-04T09:15:37.603Z</time></trkpt><trkpt lat="45.3991717" lon="10.792765"><ele>105.4</ele><time>2026-04-04T09:15:38.603Z</time></trkpt><trkpt lat="45.3990767" lon="10.7927367"><ele>105.0</ele><time>2026-04-04T09:15:39.604Z</time></trkpt><trkpt lat="45.3989817" lon="10.7927183"><ele>105.0</ele><time>2026-04-04T09:15:40.603Z</time></trkpt><trkpt lat="45.398885" lon="10.7927033"><ele>105.0</ele><time>2026-04-04T09:15:41.603Z</time></trkpt><trkpt lat="45.3987933" lon="10.7926867"><ele>105.0</ele><time>2026-04-04T09:15:42.603Z</time></trkpt><trkpt lat="45.398705" lon="10.79266"><ele>105.0</ele><time>2026-04-04T09:15:43.603Z</time></trkpt><trkpt lat="45.398615" lon="10.792635"><ele>105.0</ele><time>2026-04-04T09:15:44.603Z</time></trkpt><trkpt lat="45.3985317" lon="10.792615"><ele>104.66666666666667</ele><time>2026-04-04T09:15:45.603Z</time></trkpt><trkpt lat="45.3984483" lon="10.7925917"><ele>104.33333333333334</ele><time>2026-04-04T09:15:46.603Z</time></trkpt><trkpt lat="45.3983667" lon="10.792565"><ele>104.0</ele><time>2026-04-04T09:15:47.603Z</time></trkpt><trkpt lat="45.3982867" lon="10.79254"><ele>103.66666666666667</ele><time>2026-04-04T09:15:48.603Z</time></trkpt><trkpt lat="45.3982033" lon="10.79252"><ele>103.33333333333334</ele><time>2026-04-04T09:15:49.603Z</time></trkpt><trkpt lat="45.3981283" lon="10.7925117"><ele>103.0</ele><time>2026-04-04T09:15:50.603Z</time></trkpt><trkpt lat="45.39806" lon="10.7924933"><ele>103.0</ele><time>2026-04-04T09:15:51.603Z</time></trkpt><trkpt lat="45.39794" lon="10.7924517"><ele>103.0</ele><time>2026-04-04T09:15:53.603Z</time></trkpt><trkpt lat="45.3978633" lon="10.7924433"><ele>103.0</ele><time>2026-04-04T09:15:54.603Z</time></trkpt><trkpt lat="45.397785" lon="10.792425"><ele>103.0</ele><time>2026-04-04T09:15:55.603Z</time></trkpt><trkpt lat="45.3976933" lon="10.792405"><ele>103.0</ele><time>2026-04-04T09:15:56.603Z</time></trkpt><trkpt lat="45.3976" lon="10.7923733"><ele>103.0</ele><time>2026-04-04T09:15:57.603Z</time></trkpt><trkpt lat="45.397505" lon="10.7923533"><ele>103.0</ele><time>2026-04-04T09:15:58.603Z</time></trkpt><trkpt lat="45.3973967" lon="10.792335"><ele>103.0</ele><time>2026-04-04T09:15:59.603Z</time></trkpt><trkpt lat="45.397285" lon="10.7923067"><ele>103.0</ele><time>2026-04-04T09:16:00.603Z</time></trkpt><trkpt lat="45.3971633" lon="10.7922783"><ele>103.0</ele><time>2026-04-04T09:16:01.603Z</time></trkpt><trkpt lat="45.3970383" lon="10.7922483"><ele>102.80000000000001</ele><time>2026-04-04T09:16:02.603Z</time></trkpt><trkpt lat="45.3969167" lon="10.7922117"><ele>102.6</ele><time>2026-04-04T09:16:03.603Z</time></trkpt><trkpt lat="45.3968033" lon="10.7921933"><ele>102.4</ele><time>2026-04-04T09:16:04.603Z</time></trkpt><trkpt lat="45.3967133" lon="10.7921817"><ele>102.19999999999999</ele><time>2026-04-04T09:16:05.603Z</time></trkpt><trkpt lat="45.396645" lon="10.79216"><ele>102.0</ele><time>2026-04-04T09:16:06.603Z</time></trkpt><trkpt lat="45.3965583" lon="10.7922133"><ele>102.0</ele><time>2026-04-04T09:16:08.604Z</time></trkpt><trkpt lat="45.3965217" lon="10.79231"><ele>102.0</ele><time>2026-04-04T09:16:09.603Z</time></trkpt><trkpt lat="45.39649" lon="10.7924383"><ele>102.0</ele><time>2026-04-04T09:16:10.603Z</time></trkpt><trkpt lat="45.3964783" lon="10.7926233"><ele>102.0</ele><time>2026-04-04T09:16:11.603Z</time></trkpt><trkpt lat="45.3964783" lon="10.7928817"><ele>102.33333333333334</ele><time>2026-04-04T09:16:12.603Z</time></trkpt><trkpt lat="45.3964883" lon="10.79316"><ele>102.66666666666667</ele><time>2026-04-04T09:16:13.603Z</time></trkpt><trkpt lat="45.396485" lon="10.7934233"><ele>103.0</ele><time>2026-04-04T09:16:14.603Z</time></trkpt><trkpt lat="45.396495" lon="10.7936967"><ele>103.0</ele><time>2026-04-04T09:16:15.603Z</time></trkpt><trkpt lat="45.3965017" lon="10.7939383"><ele>103.0</ele><time>2026-04-04T09:16:16.603Z</time></trkpt><trkpt lat="45.3965017" lon="10.7941433"><ele>103.0</ele><time>2026-04-04T09:16:17.603Z</time></trkpt><trkpt lat="45.3965017" lon="10.7943383"><ele>103.25</ele><time>2026-04-04T09:16:18.603Z</time></trkpt><trkpt lat="45.3964967" lon="10.79454"><ele>103.5</ele><time>2026-04-04T09:16:19.603Z</time></trkpt><trkpt lat="45.3964917" lon="10.79475"><ele>103.75</ele><time>2026-04-04T09:16:20.603Z</time></trkpt><trkpt lat="45.3964833" lon="10.7949467"><ele>104.0</ele><time>2026-04-04T09:16:21.603Z</time></trkpt><trkpt lat="45.3964783" lon="10.795115"><ele>103.80000000000001</ele><time>2026-04-04T09:16:22.603Z</time></trkpt><trkpt lat="45.39647" lon="10.7952667"><ele>103.60000000000001</ele><time>2026-04-04T09:16:23.603Z</time></trkpt><trkpt lat="45.39646" lon="10.7954033"><ele>103.4</ele><time>2026-04-04T09:16:24.603Z</time></trkpt><trkpt lat="45.3964333" lon="10.79552"><ele>103.2</ele><time>2026-04-04T09:16:25.603Z</time></trkpt><trkpt lat="45.3963783" lon="10.795615"><ele>103.0</ele><time>2026-04-04T09:16:26.603Z</time></trkpt><trkpt lat="45.3963083" lon="10.7956933"><ele>103.0</ele><time>2026-04-04T09:16:27.603Z</time></trkpt><trkpt lat="45.39621" lon="10.7957683"><ele>103.0</ele><time>2026-04-04T09:16:28.603Z</time></trkpt><trkpt lat="45.3961217" lon="10.7958733"><ele>103.0</ele><time>2026-04-04T09:16:29.603Z</time></trkpt><trkpt lat="45.3960383" lon="10.79604"><ele>103.0</ele><time>2026-04-04T09:16:30.603Z</time></trkpt><trkpt lat="45.3959683" lon="10.79627"><ele>102.66666666666667</ele><time>2026-04-04T09:16:31.603Z</time></trkpt><trkpt lat="45.3959" lon="10.796515"><ele>102.33333333333334</ele><time>2026-04-04T09:16:32.603Z</time></trkpt><trkpt lat="45.395845" lon="10.796725"><ele>102.0</ele><time>2026-04-04T09:16:33.603Z</time></trkpt><trkpt lat="45.3957883" lon="10.796915"><ele>101.5</ele><time>2026-04-04T09:16:34.603Z</time></trkpt><trkpt lat="45.3957367" lon="10.7971033"><ele>101.0</ele><time>2026-04-04T09:16:35.603Z</time></trkpt><trkpt lat="45.3957067" lon="10.79727"><ele>100.5</ele><time>2026-04-04T09:16:36.603Z</time></trkpt><trkpt lat="45.395695" lon="10.7974217"><ele>100.0</ele><time>2026-04-04T09:16:37.603Z</time></trkpt><trkpt lat="45.3956983" lon="10.79758"><ele>99.75</ele><time>2026-04-04T09:16:38.603Z</time></trkpt><trkpt lat="45.3957067" lon="10.7977483"><ele>99.5</ele><time>2026-04-04T09:16:39.603Z</time></trkpt><trkpt lat="45.3957183" lon="10.797935"><ele>99.25</ele><time>2026-04-04T09:16:40.603Z</time></trkpt><trkpt lat="45.3957333" lon="10.7981467"><ele>99.0</ele><time>2026-04-04T09:16:41.603Z</time></trkpt><trkpt lat="45.3957483" lon="10.7983967"><ele>99.5</ele><time>2026-04-04T09:16:42.603Z</time></trkpt><trkpt lat="45.3957633" lon="10.798635"><ele>100.0</ele><time>2026-04-04T09:16:43.603Z</time></trkpt><trkpt lat="45.3957717" lon="10.7988417"><ele>100.5</ele><time>2026-04-04T09:16:44.603Z</time></trkpt><trkpt lat="45.3957833" lon="10.7990333"><ele>101.0</ele><time>2026-04-04T09:16:45.604Z</time></trkpt><trkpt lat="45.3957967" lon="10.7992133"><ele>101.33333333333333</ele><time>2026-04-04T09:16:46.603Z</time></trkpt><trkpt lat="45.3958133" lon="10.7993567"><ele>101.66666666666666</ele><time>2026-04-04T09:16:47.603Z</time></trkpt><trkpt lat="45.3958267" lon="10.7994633"><ele>102.0</ele><time>2026-04-04T09:16:48.603Z</time></trkpt><trkpt lat="45.3958183" lon="10.7995783"><ele>102.33333333333334</ele><time>2026-04-04T09:16:50.603Z</time></trkpt><trkpt lat="45.3957417" lon="10.7996183"><ele>102.66666666666667</ele><time>2026-04-04T09:16:53.603Z</time></trkpt><trkpt lat="45.3956717" lon="10.799605"><ele>103.0</ele><time>2026-04-04T09:16:54.603Z</time></trkpt><trkpt lat="45.3955683" lon="10.7995667"><ele>102.75</ele><time>2026-04-04T09:16:55.603Z</time></trkpt><trkpt lat="45.3954383" lon="10.79953"><ele>102.5</ele><time>2026-04-04T09:16:56.603Z</time></trkpt><trkpt lat="45.395295" lon="10.7994983"><ele>102.25</ele><time>2026-04-04T09:16:57.603Z</time></trkpt><trkpt lat="45.3951533" lon="10.79946"><ele>102.0</ele><time>2026-04-04T09:16:58.603Z</time></trkpt><trkpt lat="45.3950133" lon="10.7994183"><ele>102.0</ele><time>2026-04-04T09:16:59.603Z</time></trkpt><trkpt lat="45.3948767" lon="10.7993817"><ele>102.0</ele><time>2026-04-04T09:17:00.603Z</time></trkpt><trkpt lat="45.39473" lon="10.799345"><ele>102.0</ele><time>2026-04-04T09:17:01.603Z</time></trkpt><trkpt lat="45.394585" lon="10.79929"><ele>102.0</ele><time>2026-04-04T09:17:02.603Z</time></trkpt><trkpt lat="45.3944417" lon="10.799235"><ele>101.33333333333334</ele><time>2026-04-04T09:17:03.603Z</time></trkpt><trkpt lat="45.3942967" lon="10.799175"><ele>100.66666666666667</ele><time>2026-04-04T09:17:04.603Z</time></trkpt><trkpt lat="45.3941483" lon="10.7991117"><ele>100.0</ele><time>2026-04-04T09:17:05.604Z</time></trkpt><trkpt lat="45.393995" lon="10.7990583"><ele>100.0</ele><time>2026-04-04T09:17:06.603Z</time></trkpt><trkpt lat="45.39384" lon="10.7990033"><ele>100.0</ele><time>2026-04-04T09:17:07.603Z</time></trkpt><trkpt lat="45.39369" lon="10.7989433"><ele>100.0</ele><time>2026-04-04T09:17:08.603Z</time></trkpt><trkpt lat="45.3935367" lon="10.7988983"><ele>100.0</ele><time>2026-04-04T09:17:09.603Z</time></trkpt><trkpt lat="45.3933917" lon="10.7988367"><ele>100.0</ele><time>2026-04-04T09:17:10.603Z</time></trkpt><trkpt lat="45.3932517" lon="10.7987767"><ele>100.0</ele><time>2026-04-04T09:17:11.603Z</time></trkpt><trkpt lat="45.3931183" lon="10.7987167"><ele>100.0</ele><time>2026-04-04T09:17:12.604Z</time></trkpt><trkpt lat="45.3930033" lon="10.7986683"><ele>100.4</ele><time>2026-04-04T09:17:13.603Z</time></trkpt><trkpt lat="45.3929" lon="10.7986283"><ele>100.8</ele><time>2026-04-04T09:17:14.603Z</time></trkpt><trkpt lat="45.39279" lon="10.7986217"><ele>101.19999999999999</ele><time>2026-04-04T09:17:15.603Z</time></trkpt><trkpt lat="45.3926983" lon="10.7986683"><ele>101.6</ele><time>2026-04-04T09:17:16.603Z</time></trkpt><trkpt lat="45.3926333" lon="10.798775"><ele>102.0</ele><time>2026-04-04T09:17:17.603Z</time></trkpt><trkpt lat="45.3925867" lon="10.79894"><ele>102.0</ele><time>2026-04-04T09:17:18.603Z</time></trkpt><trkpt lat="45.3925467" lon="10.7991367"><ele>102.0</ele><time>2026-04-04T09:17:19.603Z</time></trkpt><trkpt lat="45.3925083" lon="10.7993317"><ele>102.0</ele><time>2026-04-04T09:17:20.603Z</time></trkpt><trkpt lat="45.3924717" lon="10.799525"><ele>102.0</ele><time>2026-04-04T09:17:21.603Z</time></trkpt><trkpt lat="45.3924383" lon="10.7997383"><ele>102.66666666666666</ele><time>2026-04-04T09:17:22.603Z</time></trkpt><trkpt lat="45.3923967" lon="10.7999567"><ele>103.33333333333333</ele><time>2026-04-04T09:17:23.603Z</time></trkpt><trkpt lat="45.3923583" lon="10.80018"><ele>104.0</ele><time>2026-04-04T09:17:24.603Z</time></trkpt><trkpt lat="45.392315" lon="10.8004"><ele>104.0</ele><time>2026-04-04T09:17:25.603Z</time></trkpt><trkpt lat="45.3922667" lon="10.80061"><ele>104.0</ele><time>2026-04-04T09:17:26.603Z</time></trkpt><trkpt lat="45.392235" lon="10.800805"><ele>104.0</ele><time>2026-04-04T09:17:27.603Z</time></trkpt><trkpt lat="45.3921967" lon="10.8009983"><ele>104.0</ele><time>2026-04-04T09:17:28.603Z</time></trkpt><trkpt lat="45.39216" lon="10.80118"><ele>104.75</ele><time>2026-04-04T09:17:29.603Z</time></trkpt><trkpt lat="45.392125" lon="10.8013467"><ele>105.5</ele><time>2026-04-04T09:17:30.603Z</time></trkpt><trkpt lat="45.3920817" lon="10.801505"><ele>106.25</ele><time>2026-04-04T09:17:31.603Z</time></trkpt><trkpt lat="45.3920267" lon="10.8016633"><ele>107.0</ele><time>2026-04-04T09:17:32.603Z</time></trkpt><trkpt lat="45.3919667" lon="10.8018233"><ele>107.0</ele><time>2026-04-04T09:17:33.603Z</time></trkpt><trkpt lat="45.3919017" lon="10.8019867"><ele>107.0</ele><time>2026-04-04T09:17:34.604Z</time></trkpt><trkpt lat="45.391835" lon="10.8021483"><ele>107.0</ele><time>2026-04-04T09:17:35.603Z</time></trkpt><trkpt lat="45.39177" lon="10.8023283"><ele>107.0</ele><time>2026-04-04T09:17:36.603Z</time></trkpt><trkpt lat="45.3917033" lon="10.8024983"><ele>107.0</ele><time>2026-04-04T09:17:37.603Z</time></trkpt><trkpt lat="45.39163" lon="10.8026717"><ele>107.0</ele><time>2026-04-04T09:17:38.603Z</time></trkpt><trkpt lat="45.391555" lon="10.8028583"><ele>107.0</ele><time>2026-04-04T09:17:39.603Z</time></trkpt><trkpt lat="45.3914933" lon="10.80304"><ele>107.0</ele><time>2026-04-04T09:17:40.603Z</time></trkpt><trkpt lat="45.3914333" lon="10.8032283"><ele>107.0</ele><time>2026-04-04T09:17:41.604Z</time></trkpt><trkpt lat="45.39138" lon="10.8034233"><ele>107.0</ele><time>2026-04-04T09:17:42.603Z</time></trkpt><trkpt lat="45.39133" lon="10.8036283"><ele>107.0</ele><time>2026-04-04T09:17:43.603Z</time></trkpt><trkpt lat="45.3912817" lon="10.8038317"><ele>109.0</ele><time>2026-04-04T09:17:44.603Z</time></trkpt><trkpt lat="45.391235" lon="10.8040483"><ele>111.0</ele><time>2026-04-04T09:17:45.604Z</time></trkpt><trkpt lat="45.39118" lon="10.8042733"><ele>113.0</ele><time>2026-04-04T09:17:46.603Z</time></trkpt><trkpt lat="45.3911267" lon="10.804495"><ele>113.0</ele><time>2026-04-04T09:17:47.603Z</time></trkpt><trkpt lat="45.3910683" lon="10.8047167"><ele>113.0</ele><time>2026-04-04T09:17:48.603Z</time></trkpt><trkpt lat="45.3910117" lon="10.8049333"><ele>113.0</ele><time>2026-04-04T09:17:49.603Z</time></trkpt><trkpt lat="45.3909567" lon="10.805145"><ele>112.66666666666666</ele><time>2026-04-04T09:17:50.603Z</time></trkpt><trkpt lat="45.3909067" lon="10.8053583"><ele>112.33333333333334</ele><time>2026-04-04T09:17:51.603Z</time></trkpt><trkpt lat="45.3908483" lon="10.8055717"><ele>112.0</ele><time>2026-04-04T09:17:52.603Z</time></trkpt><trkpt lat="45.3908" lon="10.80579"><ele>111.0</ele><time>2026-04-04T09:17:53.603Z</time></trkpt><trkpt lat="45.39074" lon="10.80601"><ele>110.0</ele><time>2026-04-04T09:17:54.603Z</time></trkpt><trkpt lat="45.39069" lon="10.8062183"><ele>109.0</ele><time>2026-04-04T09:17:55.603Z</time></trkpt><trkpt lat="45.39064" lon="10.8064267"><ele>109.0</ele><time>2026-04-04T09:17:56.603Z</time></trkpt><trkpt lat="45.3905933" lon="10.8066317"><ele>109.0</ele><time>2026-04-04T09:17:57.603Z</time></trkpt><trkpt lat="45.390575" lon="10.8068517"><ele>109.0</ele><time>2026-04-04T09:17:58.603Z</time></trkpt><trkpt lat="45.3905783" lon="10.8070867"><ele>107.66666666666667</ele><time>2026-04-04T09:17:59.603Z</time></trkpt><trkpt lat="45.3906033" lon="10.807325"><ele>106.33333333333334</ele><time>2026-04-04T09:18:00.603Z</time></trkpt><trkpt lat="45.3906617" lon="10.8075383"><ele>105.0</ele><time>2026-04-04T09:18:01.603Z</time></trkpt><trkpt lat="45.3907067" lon="10.8077733"><ele>104.33333333333334</ele><time>2026-04-04T09:18:02.603Z</time></trkpt><trkpt lat="45.3907367" lon="10.8080317"><ele>103.66666666666667</ele><time>2026-04-04T09:18:03.603Z</time></trkpt><trkpt lat="45.3907717" lon="10.8082933"><ele>103.0</ele><time>2026-04-04T09:18:04.603Z</time></trkpt><trkpt lat="45.3908033" lon="10.808565"><ele>102.0</ele><time>2026-04-04T09:18:05.603Z</time></trkpt><trkpt lat="45.3908333" lon="10.8088333"><ele>101.0</ele><time>2026-04-04T09:18:06.603Z</time></trkpt><trkpt lat="45.3908633" lon="10.8091"><ele>100.0</ele><time>2026-04-04T09:18:07.603Z</time></trkpt><trkpt lat="45.3908867" lon="10.8093683"><ele>99.33333333333334</ele><time>2026-04-04T09:18:08.603Z</time></trkpt><trkpt lat="45.390905" lon="10.8096367"><ele>98.66666666666666</ele><time>2026-04-04T09:18:09.603Z</time></trkpt><trkpt lat="45.390905" lon="10.8098983"><ele>98.0</ele><time>2026-04-04T09:18:10.603Z</time></trkpt><trkpt lat="45.39089" lon="10.810175"><ele>98.0</ele><time>2026-04-04T09:18:11.604Z</time></trkpt><trkpt lat="45.3908717" lon="10.8104433"><ele>98.0</ele><time>2026-04-04T09:18:12.603Z</time></trkpt><trkpt lat="45.3908583" lon="10.8106983"><ele>98.0</ele><time>2026-04-04T09:18:13.603Z</time></trkpt><trkpt lat="45.39085" lon="10.810955"><ele>98.33333333333333</ele><time>2026-04-04T09:18:14.603Z</time></trkpt><trkpt lat="45.39084" lon="10.811215"><ele>98.66666666666666</ele><time>2026-04-04T09:18:15.603Z</time></trkpt><trkpt lat="45.39082" lon="10.8114683"><ele>99.0</ele><time>2026-04-04T09:18:16.603Z</time></trkpt><trkpt lat="45.3908167" lon="10.811695"><ele>98.5</ele><time>2026-04-04T09:18:17.603Z</time></trkpt><trkpt lat="45.3908133" lon="10.8119117"><ele>98.0</ele><time>2026-04-04T09:18:18.603Z</time></trkpt><trkpt lat="45.3908017" lon="10.8121033"><ele>97.5</ele><time>2026-04-04T09:18:19.603Z</time></trkpt><trkpt lat="45.3907883" lon="10.8122817"><ele>97.0</ele><time>2026-04-04T09:18:20.603Z</time></trkpt><trkpt lat="45.390765" lon="10.812455"><ele>97.0</ele><time>2026-04-04T09:18:21.603Z</time></trkpt><trkpt lat="45.3907367" lon="10.8126067"><ele>97.0</ele><time>2026-04-04T09:18:22.603Z</time></trkpt><trkpt lat="45.3907" lon="10.81275"><ele>97.0</ele><time>2026-04-04T09:18:23.603Z</time></trkpt><trkpt lat="45.3906483" lon="10.8128933"><ele>97.0</ele><time>2026-04-04T09:18:24.603Z</time></trkpt><trkpt lat="45.3905917" lon="10.8130467"><ele>96.75</ele><time>2026-04-04T09:18:25.603Z</time></trkpt><trkpt lat="45.390545" lon="10.8132033"><ele>96.5</ele><time>2026-04-04T09:18:26.603Z</time></trkpt><trkpt lat="45.390495" lon="10.8133617"><ele>96.25</ele><time>2026-04-04T09:18:27.603Z</time></trkpt><trkpt lat="45.39046" lon="10.8135233"><ele>96.0</ele><time>2026-04-04T09:18:28.603Z</time></trkpt><trkpt lat="45.3904167" lon="10.81369"><ele>95.5</ele><time>2026-04-04T09:18:29.603Z</time></trkpt><trkpt lat="45.390375" lon="10.8138583"><ele>95.0</ele><time>2026-04-04T09:18:30.603Z</time></trkpt><trkpt lat="45.3903283" lon="10.814025"><ele>94.5</ele><time>2026-04-04T09:18:31.602Z</time></trkpt><trkpt lat="45.3902767" lon="10.8141917"><ele>94.0</ele><time>2026-04-04T09:18:32.602Z</time></trkpt><trkpt lat="45.390235" lon="10.8143517"><ele>93.75</ele><time>2026-04-04T09:18:33.602Z</time></trkpt><trkpt lat="45.390185" lon="10.8145133"><ele>93.5</ele><time>2026-04-04T09:18:34.602Z</time></trkpt><trkpt lat="45.39014" lon="10.8146733"><ele>93.25</ele><time>2026-04-04T09:18:35.602Z</time></trkpt><trkpt lat="45.3900883" lon="10.8148367"><ele>93.0</ele><time>2026-04-04T09:18:36.602Z</time></trkpt><trkpt lat="45.3900367" lon="10.8149733"><ele>93.0</ele><time>2026-04-04T09:18:37.602Z</time></trkpt><trkpt lat="45.38997" lon="10.8151017"><ele>93.0</ele><time>2026-04-04T09:18:38.602Z</time></trkpt><trkpt lat="45.3898883" lon="10.8152283"><ele>93.0</ele><time>2026-04-04T09:18:39.602Z</time></trkpt><trkpt lat="45.3897917" lon="10.8153617"><ele>93.0</ele><time>2026-04-04T09:18:40.602Z</time></trkpt><trkpt lat="45.3896917" lon="10.8154983"><ele>93.25</ele><time>2026-04-04T09:18:41.602Z</time></trkpt><trkpt lat="45.3895883" lon="10.8156367"><ele>93.5</ele><time>2026-04-04T09:18:42.602Z</time></trkpt><trkpt lat="45.3894733" lon="10.815775"><ele>93.75</ele><time>2026-04-04T09:18:43.602Z</time></trkpt><trkpt lat="45.3893517" lon="10.8159083"><ele>94.0</ele><time>2026-04-04T09:18:44.602Z</time></trkpt><trkpt lat="45.3892317" lon="10.81601"><ele>93.75</ele><time>2026-04-04T09:18:45.602Z</time></trkpt><trkpt lat="45.3891017" lon="10.8160983"><ele>93.5</ele><time>2026-04-04T09:18:46.602Z</time></trkpt><trkpt lat="45.3889667" lon="10.8161683"><ele>93.25</ele><time>2026-04-04T09:18:47.602Z</time></trkpt><trkpt lat="45.3888317" lon="10.8162467"><ele>93.0</ele><time>2026-04-04T09:18:48.602Z</time></trkpt><trkpt lat="45.3886983" lon="10.816325"><ele>93.0</ele><time>2026-04-04T09:18:49.602Z</time></trkpt><trkpt lat="45.3885617" lon="10.8163917"><ele>93.0</ele><time>2026-04-04T09:18:50.603Z</time></trkpt><trkpt lat="45.3884267" lon="10.81646"><ele>93.0</ele><time>2026-04-04T09:18:51.602Z</time></trkpt><trkpt lat="45.3883067" lon="10.8165167"><ele>93.0</ele><time>2026-04-04T09:18:52.602Z</time></trkpt><trkpt lat="45.3881883" lon="10.8165867"><ele>93.0</ele><time>2026-04-04T09:18:53.602Z</time></trkpt><trkpt lat="45.3881" lon="10.81665"><ele>93.0</ele><time>2026-04-04T09:18:54.602Z</time></trkpt><trkpt lat="45.388005" lon="10.8167217"><ele>93.0</ele><time>2026-04-04T09:18:55.601Z</time></trkpt><trkpt lat="45.3879167" lon="10.816785"><ele>93.0</ele><time>2026-04-04T09:18:56.602Z</time></trkpt><trkpt lat="45.3878367" lon="10.8168283"><ele>93.0</ele><time>2026-04-04T09:18:57.602Z</time></trkpt><trkpt lat="45.3877633" lon="10.8168667"><ele>92.75</ele><time>2026-04-04T09:18:58.602Z</time></trkpt><trkpt lat="45.387685" lon="10.8169233"><ele>92.5</ele><time>2026-04-04T09:18:59.602Z</time></trkpt><trkpt lat="45.38761" lon="10.8170217"><ele>92.25</ele><time>2026-04-04T09:19:00.602Z</time></trkpt><trkpt lat="45.3875283" lon="10.8171667"><ele>92.0</ele><time>2026-04-04T09:19:01.602Z</time></trkpt><trkpt lat="45.38745" lon="10.81733"><ele>92.0</ele><time>2026-04-04T09:19:02.602Z</time></trkpt><trkpt lat="45.3873683" lon="10.8174833"><ele>92.0</ele><time>2026-04-04T09:19:03.602Z</time></trkpt><trkpt lat="45.3872833" lon="10.817645"><ele>92.0</ele><time>2026-04-04T09:19:04.602Z</time></trkpt><trkpt lat="45.387185" lon="10.81782"><ele>92.0</ele><time>2026-04-04T09:19:05.602Z</time></trkpt><trkpt lat="45.3871017" lon="10.817995"><ele>91.33333333333334</ele><time>2026-04-04T09:19:06.602Z</time></trkpt><trkpt lat="45.3870167" lon="10.8181733"><ele>90.66666666666667</ele><time>2026-04-04T09:19:07.602Z</time></trkpt><trkpt lat="45.3869333" lon="10.8183617"><ele>90.0</ele><time>2026-04-04T09:19:08.602Z</time></trkpt><trkpt lat="45.386855" lon="10.818565"><ele>90.0</ele><time>2026-04-04T09:19:09.602Z</time></trkpt><trkpt lat="45.3867767" lon="10.8187767"><ele>90.0</ele><time>2026-04-04T09:19:10.602Z</time></trkpt><trkpt lat="45.3867" lon="10.8189967"><ele>90.0</ele><time>2026-04-04T09:19:11.602Z</time></trkpt><trkpt lat="45.3866233" lon="10.819215"><ele>89.33333333333333</ele><time>2026-04-04T09:19:12.602Z</time></trkpt><trkpt lat="45.386545" lon="10.8194283"><ele>88.66666666666666</ele><time>2026-04-04T09:19:13.602Z</time></trkpt><trkpt lat="45.3864683" lon="10.8196517"><ele>88.0</ele><time>2026-04-04T09:19:14.602Z</time></trkpt><trkpt lat="45.3863817" lon="10.8198817"><ele>87.66666666666666</ele><time>2026-04-04T09:19:15.603Z</time></trkpt><trkpt lat="45.3862967" lon="10.82011"><ele>87.33333333333333</ele><time>2026-04-04T09:19:16.602Z</time></trkpt><trkpt lat="45.3862133" lon="10.8203333"><ele>87.0</ele><time>2026-04-04T09:19:17.602Z</time></trkpt><trkpt lat="45.38612" lon="10.8205733"><ele>86.66666666666667</ele><time>2026-04-04T09:19:18.602Z</time></trkpt><trkpt lat="45.3860433" lon="10.820795"><ele>86.33333333333334</ele><time>2026-04-04T09:19:19.602Z</time></trkpt><trkpt lat="45.38595" lon="10.8210217"><ele>86.0</ele><time>2026-04-04T09:19:20.602Z</time></trkpt><trkpt lat="45.3858567" lon="10.8212317"><ele>85.66666666666667</ele><time>2026-04-04T09:19:21.602Z</time></trkpt><trkpt lat="45.3857417" lon="10.8214333"><ele>85.33333333333333</ele><time>2026-04-04T09:19:22.602Z</time></trkpt><trkpt lat="45.3856283" lon="10.82162"><ele>85.0</ele><time>2026-04-04T09:19:23.602Z</time></trkpt><trkpt lat="45.38551" lon="10.8218117"><ele>85.0</ele><time>2026-04-04T09:19:24.602Z</time></trkpt><trkpt lat="45.3853883" lon="10.821995"><ele>85.0</ele><time>2026-04-04T09:19:25.602Z</time></trkpt><trkpt lat="45.3852617" lon="10.82217"><ele>85.0</ele><time>2026-04-04T09:19:26.602Z</time></trkpt><trkpt lat="45.3851333" lon="10.8223383"><ele>85.0</ele><time>2026-04-04T09:19:27.602Z</time></trkpt><trkpt lat="45.3849917" lon="10.8225017"><ele>85.0</ele><time>2026-04-04T09:19:28.602Z</time></trkpt><trkpt lat="45.3848517" lon="10.8226383"><ele>85.0</ele><time>2026-04-04T09:19:29.602Z</time></trkpt><trkpt lat="45.3847067" lon="10.8227683"><ele>84.66666666666666</ele><time>2026-04-04T09:19:30.602Z</time></trkpt><trkpt lat="45.3845667" lon="10.8228683"><ele>84.33333333333333</ele><time>2026-04-04T09:19:31.602Z</time></trkpt><trkpt lat="45.3844383" lon="10.822965"><ele>84.0</ele><time>2026-04-04T09:19:32.602Z</time></trkpt><trkpt lat="45.3843083" lon="10.8230683"><ele>84.0</ele><time>2026-04-04T09:19:33.602Z</time></trkpt><trkpt lat="45.3841783" lon="10.8231717"><ele>84.0</ele><time>2026-04-04T09:19:34.602Z</time></trkpt><trkpt lat="45.3840517" lon="10.8232817"><ele>84.0</ele><time>2026-04-04T09:19:35.602Z</time></trkpt><trkpt lat="45.383925" lon="10.8234"><ele>84.0</ele><time>2026-04-04T09:19:36.602Z</time></trkpt><trkpt lat="45.383805" lon="10.8235183"><ele>83.33333333333333</ele><time>2026-04-04T09:19:37.602Z</time></trkpt><trkpt lat="45.3836733" lon="10.8236467"><ele>82.66666666666666</ele><time>2026-04-04T09:19:38.602Z</time></trkpt><trkpt lat="45.3835317" lon="10.8237683"><ele>82.0</ele><time>2026-04-04T09:19:39.602Z</time></trkpt><trkpt lat="45.3833867" lon="10.823885"><ele>82.0</ele><time>2026-04-04T09:19:40.602Z</time></trkpt><trkpt lat="45.3832417" lon="10.8240017"><ele>82.0</ele><time>2026-04-04T09:19:41.602Z</time></trkpt><trkpt lat="45.38309" lon="10.824125"><ele>82.0</ele><time>2026-04-04T09:19:42.602Z</time></trkpt><trkpt lat="45.3829417" lon="10.82423"><ele>81.0</ele><time>2026-04-04T09:19:43.602Z</time></trkpt><trkpt lat="45.3827983" lon="10.8243233"><ele>80.0</ele><time>2026-04-04T09:19:44.602Z</time></trkpt><trkpt lat="45.382655" lon="10.8244017"><ele>79.0</ele><time>2026-04-04T09:19:45.602Z</time></trkpt><trkpt lat="45.382515" lon="10.8244583"><ele>79.0</ele><time>2026-04-04T09:19:46.602Z</time></trkpt><trkpt lat="45.38237" lon="10.8244983"><ele>79.0</ele><time>2026-04-04T09:19:47.602Z</time></trkpt><trkpt lat="45.3822317" lon="10.8245233"><ele>79.0</ele><time>2026-04-04T09:19:48.602Z</time></trkpt><trkpt lat="45.3820917" lon="10.8245467"><ele>79.0</ele><time>2026-04-04T09:19:49.602Z</time></trkpt><trkpt lat="45.38195" lon="10.8245717"><ele>78.5</ele><time>2026-04-04T09:19:50.602Z</time></trkpt><trkpt lat="45.3818133" lon="10.8245983"><ele>78.0</ele><time>2026-04-04T09:19:51.602Z</time></trkpt><trkpt lat="45.3816733" lon="10.824625"><ele>77.5</ele><time>2026-04-04T09:19:52.603Z</time></trkpt><trkpt lat="45.3815383" lon="10.8246567"><ele>77.0</ele><time>2026-04-04T09:19:53.602Z</time></trkpt><trkpt lat="45.3814033" lon="10.8247067"><ele>77.0</ele><time>2026-04-04T09:19:54.602Z</time></trkpt><trkpt lat="45.3812683" lon="10.8247567"><ele>77.0</ele><time>2026-04-04T09:19:55.602Z</time></trkpt><trkpt lat="45.3811283" lon="10.8248233"><ele>77.0</ele><time>2026-04-04T09:19:56.602Z</time></trkpt><trkpt lat="45.38099" lon="10.8248717"><ele>77.0</ele><time>2026-04-04T09:19:57.602Z</time></trkpt><trkpt lat="45.380845" lon="10.8249283"><ele>77.0</ele><time>2026-04-04T09:19:58.602Z</time></trkpt><trkpt lat="45.3807" lon="10.824995"><ele>77.0</ele><time>2026-04-04T09:19:59.602Z</time></trkpt><trkpt lat="45.3805533" lon="10.8250717"><ele>77.0</ele><time>2026-04-04T09:20:00.602Z</time></trkpt><trkpt lat="45.380405" lon="10.8251367"><ele>76.33333333333334</ele><time>2026-04-04T09:20:01.602Z</time></trkpt><trkpt lat="45.38025" lon="10.8252083"><ele>75.66666666666667</ele><time>2026-04-04T09:20:02.602Z</time></trkpt><trkpt lat="45.3800967" lon="10.825275"><ele>75.0</ele><time>2026-04-04T09:20:03.602Z</time></trkpt><trkpt lat="45.3799433" lon="10.8253467"><ele>75.0</ele><time>2026-04-04T09:20:04.602Z</time></trkpt><trkpt lat="45.3797917" lon="10.8254217"><ele>75.0</ele><time>2026-04-04T09:20:05.602Z</time></trkpt><trkpt lat="45.3796417" lon="10.8254983"><ele>75.0</ele><time>2026-04-04T09:20:06.602Z</time></trkpt><trkpt lat="45.37949" lon="10.8255733"><ele>74.66666666666667</ele><time>2026-04-04T09:20:07.602Z</time></trkpt><trkpt lat="45.3793367" lon="10.825655"><ele>74.33333333333334</ele><time>2026-04-04T09:20:08.603Z</time></trkpt><trkpt lat="45.3791883" lon="10.82574"><ele>74.0</ele><time>2026-04-04T09:20:09.602Z</time></trkpt><trkpt lat="45.3790383" lon="10.8258217"><ele>74.0</ele><time>2026-04-04T09:20:10.602Z</time></trkpt><trkpt lat="45.378885" lon="10.8259083"><ele>74.0</ele><time>2026-04-04T09:20:11.602Z</time></trkpt><trkpt lat="45.37873" lon="10.8260067"><ele>74.0</ele><time>2026-04-04T09:20:12.602Z</time></trkpt><trkpt lat="45.3785867" lon="10.826105"><ele>74.33333333333334</ele><time>2026-04-04T09:20:13.602Z</time></trkpt><trkpt lat="45.3784367" lon="10.8262067"><ele>74.66666666666667</ele><time>2026-04-04T09:20:14.602Z</time></trkpt><trkpt lat="45.3782983" lon="10.8263067"><ele>75.0</ele><time>2026-04-04T09:20:15.602Z</time></trkpt><trkpt lat="45.3781517" lon="10.82641"><ele>75.0</ele><time>2026-04-04T09:20:16.602Z</time></trkpt><trkpt lat="45.3780067" lon="10.8265067"><ele>75.0</ele><time>2026-04-04T09:20:17.602Z</time></trkpt><trkpt lat="45.37786" lon="10.8266117"><ele>75.0</ele><time>2026-04-04T09:20:18.602Z</time></trkpt><trkpt lat="45.37772" lon="10.826715"><ele>75.0</ele><time>2026-04-04T09:20:19.602Z</time></trkpt><trkpt lat="45.3775767" lon="10.8268267"><ele>75.0</ele><time>2026-04-04T09:20:20.602Z</time></trkpt><trkpt lat="45.3774417" lon="10.8269333"><ele>75.0</ele><time>2026-04-04T09:20:21.602Z</time></trkpt><trkpt lat="45.3773017" lon="10.8270467"><ele>74.0</ele><time>2026-04-04T09:20:22.602Z</time></trkpt><trkpt lat="45.3771667" lon="10.82716"><ele>73.0</ele><time>2026-04-04T09:20:23.602Z</time></trkpt><trkpt lat="45.37704" lon="10.8272567"><ele>72.0</ele><time>2026-04-04T09:20:24.602Z</time></trkpt><trkpt lat="45.37692" lon="10.827355"><ele>71.0</ele><time>2026-04-04T09:20:25.602Z</time></trkpt><trkpt lat="45.376795" lon="10.8274517"><ele>71.0</ele><time>2026-04-04T09:20:26.602Z</time></trkpt><trkpt lat="45.37667" lon="10.82755"><ele>71.0</ele><time>2026-04-04T09:20:27.602Z</time></trkpt><trkpt lat="45.3765383" lon="10.8276467"><ele>71.0</ele><time>2026-04-04T09:20:28.602Z</time></trkpt><trkpt lat="45.376405" lon="10.82775"><ele>71.0</ele><time>2026-04-04T09:20:29.602Z</time></trkpt><trkpt lat="45.3762683" lon="10.8278567"><ele>71.33333333333334</ele><time>2026-04-04T09:20:30.602Z</time></trkpt><trkpt lat="45.3761283" lon="10.8279633"><ele>71.66666666666667</ele><time>2026-04-04T09:20:31.602Z</time></trkpt><trkpt lat="45.375985" lon="10.8280767"><ele>72.0</ele><time>2026-04-04T09:20:32.602Z</time></trkpt><trkpt lat="45.3758333" lon="10.8281833"><ele>72.0</ele><time>2026-04-04T09:20:33.602Z</time></trkpt><trkpt lat="45.3756833" lon="10.82829"><ele>72.0</ele><time>2026-04-04T09:20:34.602Z</time></trkpt><trkpt lat="45.3755317" lon="10.828405"><ele>72.0</ele><time>2026-04-04T09:20:35.602Z</time></trkpt><trkpt lat="45.3753817" lon="10.828515"><ele>71.33333333333333</ele><time>2026-04-04T09:20:36.602Z</time></trkpt><trkpt lat="45.3752333" lon="10.82864"><ele>70.66666666666666</ele><time>2026-04-04T09:20:37.602Z</time></trkpt><trkpt lat="45.375085" lon="10.82875"><ele>70.0</ele><time>2026-04-04T09:20:38.603Z</time></trkpt><trkpt lat="45.3749367" lon="10.8288683"><ele>70.0</ele><time>2026-04-04T09:20:39.602Z</time></trkpt><trkpt lat="45.3747783" lon="10.82898"><ele>70.0</ele><time>2026-04-04T09:20:40.602Z</time></trkpt><trkpt lat="45.3746217" lon="10.8290967"><ele>70.0</ele><time>2026-04-04T09:20:41.602Z</time></trkpt><trkpt lat="45.3744717" lon="10.8292033"><ele>69.66666666666666</ele><time>2026-04-04T09:20:42.602Z</time></trkpt><trkpt lat="45.374325" lon="10.8293133"><ele>69.33333333333333</ele><time>2026-04-04T09:20:43.602Z</time></trkpt><trkpt lat="45.374175" lon="10.8294267"><ele>69.0</ele><time>2026-04-04T09:20:44.602Z</time></trkpt><trkpt lat="45.3740267" lon="10.8295433"><ele>69.0</ele><time>2026-04-04T09:20:45.602Z</time></trkpt><trkpt lat="45.3738867" lon="10.8296567"><ele>69.0</ele><time>2026-04-04T09:20:46.602Z</time></trkpt><trkpt lat="45.37374" lon="10.8297567"><ele>69.0</ele><time>2026-04-04T09:20:47.602Z</time></trkpt><trkpt lat="45.3736" lon="10.829855"><ele>68.0</ele><time>2026-04-04T09:20:48.602Z</time></trkpt><trkpt lat="45.3734683" lon="10.829955"><ele>67.0</ele><time>2026-04-04T09:20:49.602Z</time></trkpt><trkpt lat="45.3733383" lon="10.8300583"><ele>66.0</ele><time>2026-04-04T09:20:50.602Z</time></trkpt><trkpt lat="45.3732067" lon="10.8301667"><ele>66.0</ele><time>2026-04-04T09:20:51.602Z</time></trkpt><trkpt lat="45.3730783" lon="10.830265"><ele>66.0</ele><time>2026-04-04T09:20:52.602Z</time></trkpt><trkpt lat="45.3729733" lon="10.830345"><ele>66.0</ele><time>2026-04-04T09:20:53.602Z</time></trkpt><trkpt lat="45.3728917" lon="10.8303833"><ele>66.0</ele><time>2026-04-04T09:20:54.602Z</time></trkpt><trkpt lat="45.3728217" lon="10.8304117"><ele>66.0</ele><time>2026-04-04T09:20:55.603Z</time></trkpt><trkpt lat="45.3727433" lon="10.8303767"><ele>65.75</ele><time>2026-04-04T09:20:57.602Z</time></trkpt><trkpt lat="45.3726933" lon="10.8302917"><ele>65.5</ele><time>2026-04-04T09:20:58.602Z</time></trkpt><trkpt lat="45.3726283" lon="10.83017"><ele>65.25</ele><time>2026-04-04T09:20:59.602Z</time></trkpt><trkpt lat="45.3725417" lon="10.8300217"><ele>65.0</ele><time>2026-04-04T09:21:00.602Z</time></trkpt><trkpt lat="45.3724383" lon="10.8298633"><ele>65.0</ele><time>2026-04-04T09:21:01.602Z</time></trkpt><trkpt lat="45.3723317" lon="10.8297017"><ele>65.0</ele><time>2026-04-04T09:21:02.602Z</time></trkpt><trkpt lat="45.3722217" lon="10.8295467"><ele>65.0</ele><time>2026-04-04T09:21:03.602Z</time></trkpt><trkpt lat="45.37211" lon="10.8293817"><ele>65.0</ele><time>2026-04-04T09:21:04.602Z</time></trkpt><trkpt lat="45.372" lon="10.8292033"><ele>65.0</ele><time>2026-04-04T09:21:05.602Z</time></trkpt><trkpt lat="45.3718817" lon="10.82903"><ele>65.0</ele><time>2026-04-04T09:21:06.602Z</time></trkpt><trkpt lat="45.3717667" lon="10.8288633"><ele>65.0</ele><time>2026-04-04T09:21:07.603Z</time></trkpt><trkpt lat="45.371655" lon="10.8286983"><ele>65.0</ele><time>2026-04-04T09:21:08.602Z</time></trkpt><trkpt lat="45.3715467" lon="10.8285383"><ele>65.0</ele><time>2026-04-04T09:21:09.602Z</time></trkpt><trkpt lat="45.37144" lon="10.8283883"><ele>65.0</ele><time>2026-04-04T09:21:10.602Z</time></trkpt><trkpt lat="45.3713433" lon="10.82826"><ele>65.0</ele><time>2026-04-04T09:21:11.602Z</time></trkpt><trkpt lat="45.371265" lon="10.8281417"><ele>65.0</ele><time>2026-04-04T09:21:12.602Z</time></trkpt><trkpt lat="45.3712033" lon="10.8280433"><ele>65.0</ele><time>2026-04-04T09:21:13.602Z</time></trkpt><trkpt lat="45.371145" lon="10.8279617"><ele>65.0</ele><time>2026-04-04T09:21:14.602Z</time></trkpt><trkpt lat="45.3711" lon="10.82789"><ele>65.0</ele><time>2026-04-04T09:21:15.602Z</time></trkpt><trkpt lat="45.3710133" lon="10.8278317"><ele>65.0</ele><time>2026-04-04T09:21:17.602Z</time></trkpt><trkpt lat="45.3709033" lon="10.8279317"><ele>65.0</ele><time>2026-04-04T09:21:19.602Z</time></trkpt><trkpt lat="45.3708333" lon="10.8280617"><ele>65.0</ele><time>2026-04-04T09:21:20.602Z</time></trkpt><trkpt lat="45.3707533" lon="10.828205"><ele>65.0</ele><time>2026-04-04T09:21:21.602Z</time></trkpt><trkpt lat="45.3706583" lon="10.8283533"><ele>65.0</ele><time>2026-04-04T09:21:22.602Z</time></trkpt><trkpt lat="45.3705683" lon="10.8284833"><ele>65.0</ele><time>2026-04-04T09:21:23.602Z</time></trkpt><trkpt lat="45.3704783" lon="10.828605"><ele>65.0</ele><time>2026-04-04T09:21:24.602Z</time></trkpt><trkpt lat="45.3703817" lon="10.8287367"><ele>64.75</ele><time>2026-04-04T09:21:25.602Z</time></trkpt><trkpt lat="45.3702783" lon="10.8288667"><ele>64.5</ele><time>2026-04-04T09:21:26.602Z</time></trkpt><trkpt lat="45.3701833" lon="10.828995"><ele>64.25</ele><time>2026-04-04T09:21:27.602Z</time></trkpt><trkpt lat="45.3700867" lon="10.8291217"><ele>64.0</ele><time>2026-04-04T09:21:28.602Z</time></trkpt><trkpt lat="45.3699933" lon="10.8292483"><ele>63.5</ele><time>2026-04-04T09:21:29.602Z</time></trkpt><trkpt lat="45.3699033" lon="10.8293817"><ele>63.0</ele><time>2026-04-04T09:21:30.602Z</time></trkpt><trkpt lat="45.3697917" lon="10.8295417"><ele>62.5</ele><time>2026-04-04T09:21:31.602Z</time></trkpt><trkpt lat="45.3696867" lon="10.82969"><ele>62.0</ele><time>2026-04-04T09:21:32.602Z</time></trkpt><trkpt lat="45.3695867" lon="10.829825"><ele>62.0</ele><time>2026-04-04T09:21:33.602Z</time></trkpt><trkpt lat="45.3694867" lon="10.8299667"><ele>62.0</ele><time>2026-04-04T09:21:34.602Z</time></trkpt><trkpt lat="45.3693967" lon="10.8300933"><ele>62.0</ele><time>2026-04-04T09:21:35.602Z</time></trkpt><trkpt lat="45.3693083" lon="10.8302267"><ele>62.0</ele><time>2026-04-04T09:21:36.602Z</time></trkpt><trkpt lat="45.3692233" lon="10.8303483"><ele>62.0</ele><time>2026-04-04T09:21:37.602Z</time></trkpt><trkpt lat="45.3691417" lon="10.8304667"><ele>62.0</ele><time>2026-04-04T09:21:38.602Z</time></trkpt><trkpt lat="45.369065" lon="10.8305767"><ele>62.0</ele><time>2026-04-04T09:21:39.603Z</time></trkpt><trkpt lat="45.3689883" lon="10.8306783"><ele>62.0</ele><time>2026-04-04T09:21:40.602Z</time></trkpt><trkpt lat="45.3689133" lon="10.8307767"><ele>62.0</ele><time>2026-04-04T09:21:41.602Z</time></trkpt><trkpt lat="45.3688433" lon="10.8308717"><ele>62.0</ele><time>2026-04-04T09:21:42.602Z</time></trkpt><trkpt lat="45.3687717" lon="10.8309667"><ele>62.0</ele><time>2026-04-04T09:21:43.602Z</time></trkpt><trkpt lat="45.3686983" lon="10.8310633"><ele>62.0</ele><time>2026-04-04T09:21:44.602Z</time></trkpt><trkpt lat="45.3686217" lon="10.8311683"><ele>62.0</ele><time>2026-04-04T09:21:45.602Z</time></trkpt><trkpt lat="45.3685517" lon="10.83126"><ele>62.0</ele><time>2026-04-04T09:21:46.603Z</time></trkpt><trkpt lat="45.3684717" lon="10.8313867"><ele>61.8</ele><time>2026-04-04T09:21:47.602Z</time></trkpt><trkpt lat="45.3683867" lon="10.8314967"><ele>61.6</ele><time>2026-04-04T09:21:48.602Z</time></trkpt><trkpt lat="45.3683183" lon="10.8316"><ele>61.39999999999999</ele><time>2026-04-04T09:21:49.602Z</time></trkpt><trkpt lat="45.3682333" lon="10.831715"><ele>61.199999999999996</ele><time>2026-04-04T09:21:50.602Z</time></trkpt><trkpt lat="45.368165" lon="10.8318233"><ele>61.0</ele><time>2026-04-04T09:21:51.602Z</time></trkpt><trkpt lat="45.368065" lon="10.8319517"><ele>60.25</ele><time>2026-04-04T09:21:52.602Z</time></trkpt><trkpt lat="45.3679667" lon="10.8320883"><ele>59.5</ele><time>2026-04-04T09:21:53.602Z</time></trkpt><trkpt lat="45.36787" lon="10.8322233"><ele>58.75</ele><time>2026-04-04T09:21:54.602Z</time></trkpt><trkpt lat="45.3677617" lon="10.83237"><ele>58.0</ele><time>2026-04-04T09:21:55.602Z</time></trkpt><trkpt lat="45.3676617" lon="10.832515"><ele>58.666666666666664</ele><time>2026-04-04T09:21:56.602Z</time></trkpt><trkpt lat="45.3675433" lon="10.8326717"><ele>59.33333333333333</ele><time>2026-04-04T09:21:57.602Z</time></trkpt><trkpt lat="45.36742" lon="10.8328417"><ele>60.0</ele><time>2026-04-04T09:21:58.602Z</time></trkpt><trkpt lat="45.367295" lon="10.83303"><ele>59.0</ele><time>2026-04-04T09:21:59.602Z</time></trkpt><trkpt lat="45.3671667" lon="10.833215"><ele>58.0</ele><time>2026-04-04T09:22:00.602Z</time></trkpt><trkpt lat="45.3670367" lon="10.8333917"><ele>57.0</ele><time>2026-04-04T09:22:01.602Z</time></trkpt><trkpt lat="45.3669217" lon="10.8335583"><ele>56.66666666666667</ele><time>2026-04-04T09:22:02.602Z</time></trkpt><trkpt lat="45.3667983" lon="10.833725"><ele>56.333333333333336</ele><time>2026-04-04T09:22:03.602Z</time></trkpt><trkpt lat="45.3666917" lon="10.8338717"><ele>56.0</ele><time>2026-04-04T09:22:04.602Z</time></trkpt><trkpt lat="45.3665767" lon="10.8340333"><ele>56.0</ele><time>2026-04-04T09:22:05.602Z</time></trkpt><trkpt lat="45.3664717" lon="10.834175"><ele>56.0</ele><time>2026-04-04T09:22:06.602Z</time></trkpt><trkpt lat="45.3663667" lon="10.8343283"><ele>56.0</ele><time>2026-04-04T09:22:07.602Z</time></trkpt><trkpt lat="45.36626" lon="10.834475"><ele>56.0</ele><time>2026-04-04T09:22:08.602Z</time></trkpt><trkpt lat="45.36616" lon="10.8346233"><ele>56.25</ele><time>2026-04-04T09:22:09.602Z</time></trkpt><trkpt lat="45.3660633" lon="10.83476"><ele>56.5</ele><time>2026-04-04T09:22:10.602Z</time></trkpt><trkpt lat="45.3659617" lon="10.834895"><ele>56.75</ele><time>2026-04-04T09:22:11.602Z</time></trkpt><trkpt lat="45.3658683" lon="10.8350333"><ele>57.0</ele><time>2026-04-04T09:22:12.602Z</time></trkpt><trkpt lat="45.3657783" lon="10.8351633"><ele>57.25</ele><time>2026-04-04T09:22:13.602Z</time></trkpt><trkpt lat="45.3656867" lon="10.8352833"><ele>57.5</ele><time>2026-04-04T09:22:14.603Z</time></trkpt><trkpt lat="45.3656033" lon="10.83541"><ele>57.75</ele><time>2026-04-04T09:22:15.602Z</time></trkpt><trkpt lat="45.365515" lon="10.835535"><ele>58.0</ele><time>2026-04-04T09:22:16.602Z</time></trkpt><trkpt lat="45.36543" lon="10.8356567"><ele>58.0</ele><time>2026-04-04T09:22:17.602Z</time></trkpt><trkpt lat="45.3653467" lon="10.8357733"><ele>58.0</ele><time>2026-04-04T09:22:18.602Z</time></trkpt><trkpt lat="45.3652767" lon="10.8358883"><ele>58.0</ele><time>2026-04-04T09:22:19.602Z</time></trkpt><trkpt lat="45.3652" lon="10.8359917"><ele>58.0</ele><time>2026-04-04T09:22:20.602Z</time></trkpt><trkpt lat="45.36513" lon="10.8360717"><ele>58.0</ele><time>2026-04-04T09:22:21.602Z</time></trkpt><trkpt lat="45.3650683" lon="10.8361583"><ele>57.83333333333333</ele><time>2026-04-04T09:22:22.602Z</time></trkpt><trkpt lat="45.3650083" lon="10.8362383"><ele>57.666666666666664</ele><time>2026-04-04T09:22:23.602Z</time></trkpt><trkpt lat="45.3649567" lon="10.8363117"><ele>57.5</ele><time>2026-04-04T09:22:24.602Z</time></trkpt><trkpt lat="45.3649067" lon="10.83638"><ele>57.33333333333333</ele><time>2026-04-04T09:22:25.602Z</time></trkpt><trkpt lat="45.3648367" lon="10.8365183"><ele>57.166666666666664</ele><time>2026-04-04T09:22:27.602Z</time></trkpt><trkpt lat="45.3647817" lon="10.8365817"><ele>57.0</ele><time>2026-04-04T09:22:28.602Z</time></trkpt><trkpt lat="45.364715" lon="10.8366367"><ele>56.8</ele><time>2026-04-04T09:22:29.602Z</time></trkpt><trkpt lat="45.3646283" lon="10.8367"><ele>56.6</ele><time>2026-04-04T09:22:30.602Z</time></trkpt><trkpt lat="45.3645383" lon="10.8367683"><ele>56.39999999999999</ele><time>2026-04-04T09:22:31.602Z</time></trkpt><trkpt lat="45.3644333" lon="10.836845"><ele>56.199999999999996</ele><time>2026-04-04T09:22:32.602Z</time></trkpt><trkpt lat="45.3643267" lon="10.8369233"><ele>56.0</ele><time>2026-04-04T09:22:33.602Z</time></trkpt><trkpt lat="45.3642217" lon="10.837005"><ele>56.0</ele><time>2026-04-04T09:22:34.602Z</time></trkpt><trkpt lat="45.3641133" lon="10.8370883"><ele>56.0</ele><time>2026-04-04T09:22:35.602Z</time></trkpt><trkpt lat="45.363995" lon="10.837175"><ele>56.0</ele><time>2026-04-04T09:22:36.602Z</time></trkpt><trkpt lat="45.3638717" lon="10.83726"><ele>56.0</ele><time>2026-04-04T09:22:37.602Z</time></trkpt><trkpt lat="45.3637533" lon="10.83734"><ele>56.199999999999996</ele><time>2026-04-04T09:22:38.602Z</time></trkpt><trkpt lat="45.3636517" lon="10.8374233"><ele>56.39999999999999</ele><time>2026-04-04T09:22:39.602Z</time></trkpt><trkpt lat="45.363565" lon="10.8374933"><ele>56.6</ele><time>2026-04-04T09:22:40.602Z</time></trkpt><trkpt lat="45.3634833" lon="10.8375517"><ele>56.8</ele><time>2026-04-04T09:22:41.602Z</time></trkpt><trkpt lat="45.3634067" lon="10.8376083"><ele>57.0</ele><time>2026-04-04T09:22:42.602Z</time></trkpt><trkpt lat="45.363325" lon="10.8376733"><ele>57.2</ele><time>2026-04-04T09:22:43.602Z</time></trkpt><trkpt lat="45.3632333" lon="10.8377433"><ele>57.400000000000006</ele><time>2026-04-04T09:22:44.602Z</time></trkpt><trkpt lat="45.3631383" lon="10.8378017"><ele>57.599999999999994</ele><time>2026-04-04T09:22:45.602Z</time></trkpt><trkpt lat="45.3630333" lon="10.837875"><ele>57.8</ele><time>2026-04-04T09:22:46.602Z</time></trkpt><trkpt lat="45.3629267" lon="10.8379517"><ele>58.0</ele><time>2026-04-04T09:22:47.602Z</time></trkpt><trkpt lat="45.36282" lon="10.83803"><ele>57.5</ele><time>2026-04-04T09:22:48.602Z</time></trkpt><trkpt lat="45.362705" lon="10.838125"><ele>57.0</ele><time>2026-04-04T09:22:49.602Z</time></trkpt><trkpt lat="45.36259" lon="10.8382067"><ele>56.5</ele><time>2026-04-04T09:22:50.602Z</time></trkpt><trkpt lat="45.362475" lon="10.838295"><ele>56.0</ele><time>2026-04-04T09:22:51.602Z</time></trkpt><trkpt lat="45.3623567" lon="10.8383933"><ele>55.75</ele><time>2026-04-04T09:22:52.602Z</time></trkpt><trkpt lat="45.3622417" lon="10.8384867"><ele>55.5</ele><time>2026-04-04T09:22:53.602Z</time></trkpt><trkpt lat="45.362125" lon="10.838585"><ele>55.25</ele><time>2026-04-04T09:22:54.602Z</time></trkpt><trkpt lat="45.3620067" lon="10.83868"><ele>55.0</ele><time>2026-04-04T09:22:55.602Z</time></trkpt><trkpt lat="45.3618867" lon="10.8387717"><ele>55.0</ele><time>2026-04-04T09:22:56.602Z</time></trkpt><trkpt lat="45.3617667" lon="10.8388583"><ele>55.0</ele><time>2026-04-04T09:22:57.602Z</time></trkpt><trkpt lat="45.3616467" lon="10.8389567"><ele>55.0</ele><time>2026-04-04T09:22:58.602Z</time></trkpt><trkpt lat="45.3615233" lon="10.839065"><ele>55.0</ele><time>2026-04-04T09:22:59.602Z</time></trkpt><trkpt lat="45.361415" lon="10.8391783"><ele>55.0</ele><time>2026-04-04T09:23:00.602Z</time></trkpt><trkpt lat="45.3613167" lon="10.839305"><ele>55.0</ele><time>2026-04-04T09:23:01.602Z</time></trkpt><trkpt lat="45.3612233" lon="10.83943"><ele>55.0</ele><time>2026-04-04T09:23:02.602Z</time></trkpt><trkpt lat="45.3611217" lon="10.83956"><ele>55.0</ele><time>2026-04-04T09:23:03.602Z</time></trkpt><trkpt lat="45.3610217" lon="10.839695"><ele>55.0</ele><time>2026-04-04T09:23:04.602Z</time></trkpt><trkpt lat="45.3609267" lon="10.8398383"><ele>55.0</ele><time>2026-04-04T09:23:05.602Z</time></trkpt><trkpt lat="45.3608367" lon="10.8399683"><ele>55.0</ele><time>2026-04-04T09:23:06.602Z</time></trkpt><trkpt lat="45.3607517" lon="10.84009"><ele>55.0</ele><time>2026-04-04T09:23:07.602Z</time></trkpt><trkpt lat="45.36067" lon="10.8402017"><ele>55.0</ele><time>2026-04-04T09:23:08.602Z</time></trkpt><trkpt lat="45.3605883" lon="10.840315"><ele>55.0</ele><time>2026-04-04T09:23:09.602Z</time></trkpt><trkpt lat="45.36052" lon="10.84042"><ele>55.0</ele><time>2026-04-04T09:23:10.602Z</time></trkpt><trkpt lat="45.3604367" lon="10.8405317"><ele>55.0</ele><time>2026-04-04T09:23:11.602Z</time></trkpt><trkpt lat="45.36036" lon="10.8406567"><ele>55.0</ele><time>2026-04-04T09:23:12.602Z</time></trkpt><trkpt lat="45.36029" lon="10.8407733"><ele>54.75</ele><time>2026-04-04T09:23:13.603Z</time></trkpt><trkpt lat="45.3602067" lon="10.8409"><ele>54.5</ele><time>2026-04-04T09:23:14.602Z</time></trkpt><trkpt lat="45.3601117" lon="10.8410283"><ele>54.25</ele><time>2026-04-04T09:23:15.602Z</time></trkpt><trkpt lat="45.3600117" lon="10.8411733"><ele>54.0</ele><time>2026-04-04T09:23:16.602Z</time></trkpt><trkpt lat="45.3599183" lon="10.84131"><ele>54.0</ele><time>2026-04-04T09:23:17.602Z</time></trkpt><trkpt lat="45.3598233" lon="10.84146"><ele>54.0</ele><time>2026-04-04T09:23:18.602Z</time></trkpt><trkpt lat="45.3597367" lon="10.8416083"><ele>54.0</ele><time>2026-04-04T09:23:19.602Z</time></trkpt><trkpt lat="45.3596417" lon="10.84177"><ele>54.0</ele><time>2026-04-04T09:23:20.602Z</time></trkpt><trkpt lat="45.3595467" lon="10.84191"><ele>53.75</ele><time>2026-04-04T09:23:21.602Z</time></trkpt><trkpt lat="45.3594567" lon="10.8420517"><ele>53.5</ele><time>2026-04-04T09:23:22.602Z</time></trkpt><trkpt lat="45.3593783" lon="10.842195"><ele>53.25</ele><time>2026-04-04T09:23:23.602Z</time></trkpt><trkpt lat="45.3592967" lon="10.8423433"><ele>53.0</ele><time>2026-04-04T09:23:24.602Z</time></trkpt><trkpt lat="45.3592133" lon="10.8424767"><ele>53.0</ele><time>2026-04-04T09:23:25.602Z</time></trkpt><trkpt lat="45.359135" lon="10.842625"><ele>53.0</ele><time>2026-04-04T09:23:26.602Z</time></trkpt><trkpt lat="45.3590617" lon="10.8427717"><ele>53.0</ele><time>2026-04-04T09:23:27.602Z</time></trkpt><trkpt lat="45.3589917" lon="10.8429083"><ele>53.0</ele><time>2026-04-04T09:23:28.602Z</time></trkpt><trkpt lat="45.3589283" lon="10.8430417"><ele>53.00000000000001</ele><time>2026-04-04T09:23:29.602Z</time></trkpt><trkpt lat="45.358865" lon="10.8431667"><ele>53.0</ele><time>2026-04-04T09:23:30.602Z</time></trkpt><trkpt lat="45.35881" lon="10.8432717"><ele>53.0</ele><time>2026-04-04T09:23:31.602Z</time></trkpt><trkpt lat="45.3587667" lon="10.8433633"><ele>53.0</ele><time>2026-04-04T09:23:32.602Z</time></trkpt><trkpt lat="45.3587283" lon="10.843455"><ele>53.00000000000001</ele><time>2026-04-04T09:23:33.602Z</time></trkpt><trkpt lat="45.3586917" lon="10.84354"><ele>53.0</ele><time>2026-04-04T09:23:34.602Z</time></trkpt><trkpt lat="45.3586133" lon="10.843685"><ele>52.833333333333336</ele><time>2026-04-04T09:23:36.602Z</time></trkpt><trkpt lat="45.3585583" lon="10.8437583"><ele>52.66666666666667</ele><time>2026-04-04T09:23:37.602Z</time></trkpt><trkpt lat="45.3585" lon="10.8438167"><ele>52.5</ele><time>2026-04-04T09:23:38.603Z</time></trkpt><trkpt lat="45.3584283" lon="10.8438433"><ele>52.33333333333333</ele><time>2026-04-04T09:23:39.602Z</time></trkpt><trkpt lat="45.3583567" lon="10.8438283"><ele>52.166666666666664</ele><time>2026-04-04T09:23:40.602Z</time></trkpt><trkpt lat="45.358275" lon="10.84377"><ele>52.0</ele><time>2026-04-04T09:23:41.602Z</time></trkpt><trkpt lat="45.3581817" lon="10.84369"><ele>52.0</ele><time>2026-04-04T09:23:42.602Z</time></trkpt><trkpt lat="45.358085" lon="10.8435817"><ele>52.0</ele><time>2026-04-04T09:23:43.602Z</time></trkpt><trkpt lat="45.3579817" lon="10.8434667"><ele>52.0</ele><time>2026-04-04T09:23:44.602Z</time></trkpt><trkpt lat="45.357885" lon="10.8433667"><ele>52.0</ele><time>2026-04-04T09:23:45.602Z</time></trkpt><trkpt lat="45.3577867" lon="10.8432733"><ele>52.0</ele><time>2026-04-04T09:23:46.602Z</time></trkpt><trkpt lat="45.3576833" lon="10.84319"><ele>52.0</ele><time>2026-04-04T09:23:47.602Z</time></trkpt><trkpt lat="45.357595" lon="10.843115"><ele>52.0</ele><time>2026-04-04T09:23:48.602Z</time></trkpt><trkpt lat="45.35751" lon="10.8430317"><ele>52.0</ele><time>2026-04-04T09:23:49.602Z</time></trkpt><trkpt lat="45.3574317" lon="10.8429633"><ele>52.0</ele><time>2026-04-04T09:23:50.602Z</time></trkpt><trkpt lat="45.3573517" lon="10.842895"><ele>51.99999999999999</ele><time>2026-04-04T09:23:51.602Z</time></trkpt><trkpt lat="45.3572733" lon="10.84284"><ele>52.0</ele><time>2026-04-04T09:23:52.602Z</time></trkpt><trkpt lat="45.3571833" lon="10.8428383"><ele>52.0</ele><time>2026-04-04T09:23:53.602Z</time></trkpt><trkpt lat="45.3571067" lon="10.84286"><ele>52.0</ele><time>2026-04-04T09:23:54.602Z</time></trkpt><trkpt lat="45.3570483" lon="10.842925"><ele>51.99999999999999</ele><time>2026-04-04T09:23:55.602Z</time></trkpt><trkpt lat="45.3569983" lon="10.8430233"><ele>52.0</ele><time>2026-04-04T09:23:56.602Z</time></trkpt><trkpt lat="45.356955" lon="10.8431483"><ele>52.0</ele><time>2026-04-04T09:23:57.602Z</time></trkpt><trkpt lat="45.3568967" lon="10.8432833"><ele>52.0</ele><time>2026-04-04T09:23:58.602Z</time></trkpt><trkpt lat="45.3568433" lon="10.8434"><ele>52.0</ele><time>2026-04-04T09:23:59.602Z</time></trkpt><trkpt lat="45.3567933" lon="10.8435217"><ele>52.0</ele><time>2026-04-04T09:24:00.602Z</time></trkpt><trkpt lat="45.35674" lon="10.8436283"><ele>52.0</ele><time>2026-04-04T09:24:01.602Z</time></trkpt><trkpt lat="45.3566833" lon="10.8437433"><ele>52.166666666666664</ele><time>2026-04-04T09:24:02.602Z</time></trkpt><trkpt lat="45.3566383" lon="10.8438633"><ele>52.33333333333333</ele><time>2026-04-04T09:24:03.602Z</time></trkpt><trkpt lat="45.356595" lon="10.843965"><ele>52.5</ele><time>2026-04-04T09:24:04.602Z</time></trkpt><trkpt lat="45.3565617" lon="10.844065"><ele>52.66666666666667</ele><time>2026-04-04T09:24:05.602Z</time></trkpt><trkpt lat="45.3565233" lon="10.8441483"><ele>52.833333333333336</ele><time>2026-04-04T09:24:06.602Z</time></trkpt><trkpt lat="45.356485" lon="10.8442333"><ele>53.0</ele><time>2026-04-04T09:24:07.602Z</time></trkpt><trkpt lat="45.356405" lon="10.8443617"><ele>53.0</ele><time>2026-04-04T09:24:09.602Z</time></trkpt><trkpt lat="45.35633" lon="10.8444617"><ele>53.0</ele><time>2026-04-04T09:24:11.602Z</time></trkpt><trkpt lat="45.3562783" lon="10.844625"><ele>53.0</ele><time>2026-04-04T09:24:13.602Z</time></trkpt><trkpt lat="45.3562583" lon="10.8447417"><ele>53.0</ele><time>2026-04-04T09:24:14.602Z</time></trkpt><trkpt lat="45.3562283" lon="10.8448683"><ele>53.0</ele><time>2026-04-04T09:24:15.602Z</time></trkpt><trkpt lat="45.3561817" lon="10.8450217"><ele>52.75</ele><time>2026-04-04T09:24:16.602Z</time></trkpt><trkpt lat="45.3561217" lon="10.8451933"><ele>52.5</ele><time>2026-04-04T09:24:17.602Z</time></trkpt><trkpt lat="45.3560467" lon="10.84536"><ele>52.25</ele><time>2026-04-04T09:24:18.603Z</time></trkpt><trkpt lat="45.35596" lon="10.8455183"><ele>52.0</ele><time>2026-04-04T09:24:19.602Z</time></trkpt><trkpt lat="45.3558867" lon="10.8456667"><ele>52.0</ele><time>2026-04-04T09:24:20.602Z</time></trkpt><trkpt lat="45.3558333" lon="10.845805"><ele>52.0</ele><time>2026-04-04T09:24:21.602Z</time></trkpt><trkpt lat="45.35579" lon="10.8459433"><ele>52.0</ele><time>2026-04-04T09:24:22.602Z</time></trkpt><trkpt lat="45.355745" lon="10.84606"><ele>52.0</ele><time>2026-04-04T09:24:23.602Z</time></trkpt><trkpt lat="45.3557067" lon="10.8461717"><ele>52.0</ele><time>2026-04-04T09:24:24.602Z</time></trkpt><trkpt lat="45.35566" lon="10.846265"><ele>51.99999999999999</ele><time>2026-04-04T09:24:25.602Z</time></trkpt><trkpt lat="45.3556317" lon="10.8463467"><ele>52.0</ele><time>2026-04-04T09:24:26.602Z</time></trkpt><trkpt lat="45.3556017" lon="10.8464367"><ele>52.0</ele><time>2026-04-04T09:24:27.602Z</time></trkpt><trkpt lat="45.3555733" lon="10.8465233"><ele>52.0</ele><time>2026-04-04T09:24:28.602Z</time></trkpt><trkpt lat="45.355525" lon="10.8466917"><ele>51.99999999999999</ele><time>2026-04-04T09:24:30.602Z</time></trkpt><trkpt lat="45.3554917" lon="10.8467783"><ele>52.0</ele><time>2026-04-04T09:24:31.602Z</time></trkpt><trkpt lat="45.3554567" lon="10.846875"><ele>52.14285714285714</ele><time>2026-04-04T09:24:32.603Z</time></trkpt><trkpt lat="45.355415" lon="10.8469733"><ele>52.28571428571429</ele><time>2026-04-04T09:24:33.602Z</time></trkpt><trkpt lat="45.3553667" lon="10.8470633"><ele>52.42857142857143</ele><time>2026-04-04T09:24:34.602Z</time></trkpt><trkpt lat="45.3553333" lon="10.8471467"><ele>52.57142857142857</ele><time>2026-04-04T09:24:35.602Z</time></trkpt><trkpt lat="45.3552933" lon="10.8472183"><ele>52.71428571428571</ele><time>2026-04-04T09:24:36.602Z</time></trkpt><trkpt lat="45.3552517" lon="10.8472933"><ele>52.85714285714286</ele><time>2026-04-04T09:24:37.602Z</time></trkpt><trkpt lat="45.3552133" lon="10.847375"><ele>53.0</ele><time>2026-04-04T09:24:38.602Z</time></trkpt><trkpt lat="45.3551783" lon="10.8474683"><ele>53.0</ele><time>2026-04-04T09:24:39.602Z</time></trkpt><trkpt lat="45.3551483" lon="10.8475717"><ele>53.0</ele><time>2026-04-04T09:24:40.602Z</time></trkpt><trkpt lat="45.3551083" lon="10.8476817"><ele>53.0</ele><time>2026-04-04T09:24:41.602Z</time></trkpt><trkpt lat="45.355065" lon="10.8477933"><ele>53.0</ele><time>2026-04-04T09:24:42.602Z</time></trkpt><trkpt lat="45.3550117" lon="10.8479133"><ele>53.0</ele><time>2026-04-04T09:24:43.602Z</time></trkpt><trkpt lat="45.354955" lon="10.848025"><ele>53.0</ele><time>2026-04-04T09:24:44.602Z</time></trkpt><trkpt lat="45.3549117" lon="10.84815"><ele>53.0</ele><time>2026-04-04T09:24:45.602Z</time></trkpt><trkpt lat="45.3548683" lon="10.8482617"><ele>53.0</ele><time>2026-04-04T09:24:46.602Z</time></trkpt><trkpt lat="45.3548133" lon="10.8483817"><ele>53.0</ele><time>2026-04-04T09:24:47.602Z</time></trkpt><trkpt lat="45.3547617" lon="10.848515"><ele>53.0</ele><time>2026-04-04T09:24:48.602Z</time></trkpt><trkpt lat="45.3547083" lon="10.8486417"><ele>53.2</ele><time>2026-04-04T09:24:49.602Z</time></trkpt><trkpt lat="45.35466" lon="10.848765"><ele>53.4</ele><time>2026-04-04T09:24:50.602Z</time></trkpt><trkpt lat="45.3546183" lon="10.8488817"><ele>53.60000000000001</ele><time>2026-04-04T09:24:51.602Z</time></trkpt><trkpt lat="45.354575" lon="10.849"><ele>53.800000000000004</ele><time>2026-04-04T09:24:52.603Z</time></trkpt><trkpt lat="45.35452" lon="10.8491083"><ele>54.0</ele><time>2026-04-04T09:24:53.602Z</time></trkpt><trkpt lat="45.354475" lon="10.8492183"><ele>54.0</ele><time>2026-04-04T09:24:54.602Z</time></trkpt><trkpt lat="45.354445" lon="10.8493333"><ele>54.00000000000001</ele><time>2026-04-04T09:24:55.602Z</time></trkpt><trkpt lat="45.3544083" lon="10.8494483"><ele>54.00000000000001</ele><time>2026-04-04T09:24:56.602Z</time></trkpt><trkpt lat="45.354365" lon="10.8495683"><ele>54.0</ele><time>2026-04-04T09:24:57.602Z</time></trkpt><trkpt lat="45.3543267" lon="10.8496817"><ele>54.0</ele><time>2026-04-04T09:24:58.602Z</time></trkpt><trkpt lat="45.3542867" lon="10.8498067"><ele>54.0</ele><time>2026-04-04T09:24:59.602Z</time></trkpt><trkpt lat="45.354245" lon="10.8499217"><ele>54.0</ele><time>2026-04-04T09:25:00.602Z</time></trkpt><trkpt lat="45.3541967" lon="10.8500267"><ele>54.0</ele><time>2026-04-04T09:25:01.602Z</time></trkpt><trkpt lat="45.354155" lon="10.85014"><ele>54.0</ele><time>2026-04-04T09:25:02.602Z</time></trkpt><trkpt lat="45.3541117" lon="10.8502333"><ele>54.0</ele><time>2026-04-04T09:25:03.602Z</time></trkpt><trkpt lat="45.3540767" lon="10.85032"><ele>54.0</ele><time>2026-04-04T09:25:04.602Z</time></trkpt><trkpt lat="45.35404" lon="10.8503933"><ele>53.5</ele><time>2026-04-04T09:25:05.602Z</time></trkpt><trkpt lat="45.35399" lon="10.8505067"><ele>53.0</ele><time>2026-04-04T09:25:07.602Z</time></trkpt><trkpt lat="45.3539717" lon="10.8505933"><ele>52.5</ele><time>2026-04-04T09:25:09.602Z</time></trkpt><trkpt lat="45.3539183" lon="10.850685"><ele>52.0</ele><time>2026-04-04T09:25:12.602Z</time></trkpt><trkpt lat="45.3538617" lon="10.8507517"><ele>51.5</ele><time>2026-04-04T09:25:20.602Z</time></trkpt><trkpt lat="45.3538033" lon="10.850845"><ele>51.0</ele><time>2026-04-04T09:25:22.602Z</time></trkpt><trkpt lat="45.3537383" lon="10.8510083"><ele>50.75</ele><time>2026-04-04T09:25:24.602Z</time></trkpt><trkpt lat="45.35369" lon="10.851125"><ele>50.5</ele><time>2026-04-04T09:25:25.602Z</time></trkpt><trkpt lat="45.3536283" lon="10.8512767"><ele>50.25</ele><time>2026-04-04T09:25:26.602Z</time></trkpt><trkpt lat="45.3535467" lon="10.8514433"><ele>50.0</ele><time>2026-04-04T09:25:27.602Z</time></trkpt><trkpt lat="45.3534717" lon="10.8516167"><ele>49.75</ele><time>2026-04-04T09:25:28.602Z</time></trkpt><trkpt lat="45.35338" lon="10.851795"><ele>49.5</ele><time>2026-04-04T09:25:29.602Z</time></trkpt><trkpt lat="45.3532983" lon="10.8519683"><ele>49.25</ele><time>2026-04-04T09:25:30.602Z</time></trkpt><trkpt lat="45.35322" lon="10.8521317"><ele>49.0</ele><time>2026-04-04T09:25:31.603Z</time></trkpt><trkpt lat="45.3531583" lon="10.8522917"><ele>49.0</ele><time>2026-04-04T09:25:32.602Z</time></trkpt><trkpt lat="45.353085" lon="10.8524417"><ele>49.0</ele><time>2026-04-04T09:25:33.602Z</time></trkpt><trkpt lat="45.3530017" lon="10.8526217"><ele>49.0</ele><time>2026-04-04T09:25:34.602Z</time></trkpt><trkpt lat="45.3529167" lon="10.8528"><ele>49.0</ele><time>2026-04-04T09:25:35.602Z</time></trkpt><trkpt lat="45.3528317" lon="10.85298"><ele>49.33333333333333</ele><time>2026-04-04T09:25:36.602Z</time></trkpt><trkpt lat="45.3527383" lon="10.8531583"><ele>49.66666666666667</ele><time>2026-04-04T09:25:37.602Z</time></trkpt><trkpt lat="45.3526483" lon="10.85334"><ele>50.0</ele><time>2026-04-04T09:25:38.602Z</time></trkpt><trkpt lat="45.3525567" lon="10.8535267"><ele>50.0</ele><time>2026-04-04T09:25:39.602Z</time></trkpt><trkpt lat="45.3524567" lon="10.8537217"><ele>50.0</ele><time>2026-04-04T09:25:40.602Z</time></trkpt><trkpt lat="45.35236" lon="10.853905"><ele>50.0</ele><time>2026-04-04T09:25:41.602Z</time></trkpt><trkpt lat="45.352255" lon="10.8540817"><ele>50.0</ele><time>2026-04-04T09:25:42.602Z</time></trkpt><trkpt lat="45.35214" lon="10.8542867"><ele>50.0</ele><time>2026-04-04T09:25:43.602Z</time></trkpt><trkpt lat="45.35203" lon="10.8545"><ele>50.0</ele><time>2026-04-04T09:25:44.602Z</time></trkpt><trkpt lat="45.3519117" lon="10.8547183"><ele>49.66666666666667</ele><time>2026-04-04T09:25:45.602Z</time></trkpt><trkpt lat="45.351795" lon="10.85494"><ele>49.33333333333333</ele><time>2026-04-04T09:25:46.602Z</time></trkpt><trkpt lat="45.3516917" lon="10.8551433"><ele>49.0</ele><time>2026-04-04T09:25:47.602Z</time></trkpt><trkpt lat="45.35159" lon="10.8553333"><ele>48.33333333333333</ele><time>2026-04-04T09:25:48.602Z</time></trkpt><trkpt lat="45.3514933" lon="10.8555117"><ele>47.666666666666664</ele><time>2026-04-04T09:25:49.602Z</time></trkpt><trkpt lat="45.351405" lon="10.8556883"><ele>47.0</ele><time>2026-04-04T09:25:50.602Z</time></trkpt><trkpt lat="45.3513133" lon="10.855865"><ele>47.666666666666664</ele><time>2026-04-04T09:25:51.602Z</time></trkpt><trkpt lat="45.351225" lon="10.85604"><ele>48.33333333333333</ele><time>2026-04-04T09:25:52.602Z</time></trkpt><trkpt lat="45.3511367" lon="10.8562217"><ele>49.0</ele><time>2026-04-04T09:25:53.601Z</time></trkpt><trkpt lat="45.3510533" lon="10.8563917"><ele>49.0</ele><time>2026-04-04T09:25:54.601Z</time></trkpt><trkpt lat="45.350975" lon="10.8565533"><ele>49.0</ele><time>2026-04-04T09:25:55.601Z</time></trkpt><trkpt lat="45.3508983" lon="10.85671"><ele>49.0</ele><time>2026-04-04T09:25:56.601Z</time></trkpt><trkpt lat="45.350825" lon="10.856865"><ele>49.0</ele><time>2026-04-04T09:25:57.601Z</time></trkpt><trkpt lat="45.3507517" lon="10.8570283"><ele>49.0</ele><time>2026-04-04T09:25:58.601Z</time></trkpt><trkpt lat="45.350675" lon="10.8571983"><ele>49.0</ele><time>2026-04-04T09:25:59.601Z</time></trkpt><trkpt lat="45.3505933" lon="10.8573617"><ele>49.0</ele><time>2026-04-04T09:26:00.601Z</time></trkpt><trkpt lat="45.3505033" lon="10.8575267"><ele>49.0</ele><time>2026-04-04T09:26:01.601Z</time></trkpt><trkpt lat="45.3504133" lon="10.8576967"><ele>48.0</ele><time>2026-04-04T09:26:02.601Z</time></trkpt><trkpt lat="45.3503217" lon="10.85787"><ele>47.0</ele><time>2026-04-04T09:26:03.601Z</time></trkpt><trkpt lat="45.3502283" lon="10.85805"><ele>46.0</ele><time>2026-04-04T09:26:04.601Z</time></trkpt><trkpt lat="45.350145" lon="10.8582283"><ele>46.0</ele><time>2026-04-04T09:26:05.601Z</time></trkpt><trkpt lat="45.3500567" lon="10.85841"><ele>46.0</ele><time>2026-04-04T09:26:06.601Z</time></trkpt><trkpt lat="45.349975" lon="10.8585867"><ele>46.0</ele><time>2026-04-04T09:26:07.601Z</time></trkpt><trkpt lat="45.349905" lon="10.858755"><ele>46.0</ele><time>2026-04-04T09:26:08.601Z</time></trkpt><trkpt lat="45.34984" lon="10.8589283"><ele>46.25</ele><time>2026-04-04T09:26:09.601Z</time></trkpt><trkpt lat="45.3497783" lon="10.8591033"><ele>46.5</ele><time>2026-04-04T09:26:10.601Z</time></trkpt><trkpt lat="45.3497267" lon="10.8592833"><ele>46.75</ele><time>2026-04-04T09:26:11.601Z</time></trkpt><trkpt lat="45.3496767" lon="10.8594583"><ele>47.0</ele><time>2026-04-04T09:26:12.601Z</time></trkpt><trkpt lat="45.3496167" lon="10.8596483"><ele>47.0</ele><time>2026-04-04T09:26:13.601Z</time></trkpt><trkpt lat="45.34956" lon="10.8598433"><ele>47.0</ele><time>2026-04-04T09:26:14.601Z</time></trkpt><trkpt lat="45.3495017" lon="10.860045"><ele>47.0</ele><time>2026-04-04T09:26:15.601Z</time></trkpt><trkpt lat="45.34943" lon="10.860235"><ele>47.25</ele><time>2026-04-04T09:26:16.601Z</time></trkpt><trkpt lat="45.3493617" lon="10.8604133"><ele>47.5</ele><time>2026-04-04T09:26:17.601Z</time></trkpt><trkpt lat="45.3493083" lon="10.8605733"><ele>47.75</ele><time>2026-04-04T09:26:18.601Z</time></trkpt><trkpt lat="45.3492417" lon="10.8607217"><ele>48.0</ele><time>2026-04-04T09:26:19.601Z</time></trkpt><trkpt lat="45.3491917" lon="10.8608567"><ele>47.4</ele><time>2026-04-04T09:26:20.601Z</time></trkpt><trkpt lat="45.3491533" lon="10.8609867"><ele>46.8</ele><time>2026-04-04T09:26:21.601Z</time></trkpt><trkpt lat="45.3491117" lon="10.86112"><ele>46.2</ele><time>2026-04-04T09:26:22.601Z</time></trkpt><trkpt lat="45.3490833" lon="10.8612567"><ele>45.6</ele><time>2026-04-04T09:26:23.601Z</time></trkpt><trkpt lat="45.3490717" lon="10.8613967"><ele>45.0</ele><time>2026-04-04T09:26:24.601Z</time></trkpt><trkpt lat="45.3490833" lon="10.86153"><ele>45.0</ele><time>2026-04-04T09:26:25.601Z</time></trkpt><trkpt lat="45.3491033" lon="10.8616567"><ele>45.0</ele><time>2026-04-04T09:26:26.601Z</time></trkpt><trkpt lat="45.349135" lon="10.8617667"><ele>45.0</ele><time>2026-04-04T09:26:27.601Z</time></trkpt><trkpt lat="45.34916" lon="10.8618867"><ele>45.0</ele><time>2026-04-04T09:26:28.601Z</time></trkpt><trkpt lat="45.3491833" lon="10.8620033"><ele>45.0</ele><time>2026-04-04T09:26:29.601Z</time></trkpt><trkpt lat="45.349215" lon="10.862105"><ele>45.0</ele><time>2026-04-04T09:26:30.601Z</time></trkpt><trkpt lat="45.3492517" lon="10.8621833"><ele>45.0</ele><time>2026-04-04T09:26:31.601Z</time></trkpt><trkpt lat="45.34929" lon="10.86234"><ele>45.0</ele><time>2026-04-04T09:26:33.601Z</time></trkpt><trkpt lat="45.3492433" lon="10.86249"><ele>45.0</ele><time>2026-04-04T09:26:35.601Z</time></trkpt><trkpt lat="45.3491783" lon="10.8625683"><ele>45.0</ele><time>2026-04-04T09:26:36.601Z</time></trkpt><trkpt lat="45.3491133" lon="10.86265"><ele>45.0</ele><time>2026-04-04T09:26:37.601Z</time></trkpt><trkpt lat="45.3490583" lon="10.8627283"><ele>45.0</ele><time>2026-04-04T09:26:38.601Z</time></trkpt><trkpt lat="45.3490117" lon="10.8628167"><ele>45.0</ele><time>2026-04-04T09:26:39.601Z</time></trkpt><trkpt lat="45.3489833" lon="10.8629167"><ele>45.0</ele><time>2026-04-04T09:26:40.601Z</time></trkpt><trkpt lat="45.34898" lon="10.8630283"><ele>45.0</ele><time>2026-04-04T09:26:41.601Z</time></trkpt><trkpt lat="45.3490083" lon="10.86315"><ele>45.0</ele><time>2026-04-04T09:26:42.601Z</time></trkpt><trkpt lat="45.3490583" lon="10.8632583"><ele>45.0</ele><time>2026-04-04T09:26:43.601Z</time></trkpt><trkpt lat="45.3491267" lon="10.8633483"><ele>45.0</ele><time>2026-04-04T09:26:44.601Z</time></trkpt><trkpt lat="45.3492033" lon="10.8634083"><ele>45.0</ele><time>2026-04-04T09:26:45.601Z</time></trkpt><trkpt lat="45.3492933" lon="10.8634367"><ele>45.0</ele><time>2026-04-04T09:26:46.601Z</time></trkpt><trkpt lat="45.3494" lon="10.86342"><ele>45.0</ele><time>2026-04-04T09:26:47.601Z</time></trkpt><trkpt lat="45.3495117" lon="10.8633717"><ele>45.0</ele><time>2026-04-04T09:26:48.601Z</time></trkpt><trkpt lat="45.3496183" lon="10.863335"><ele>45.0</ele><time>2026-04-04T09:26:49.601Z</time></trkpt><trkpt lat="45.3497133" lon="10.863325"><ele>45.0</ele><time>2026-04-04T09:26:50.601Z</time></trkpt><trkpt lat="45.3498033" lon="10.8633383"><ele>45.0</ele><time>2026-04-04T09:26:51.601Z</time></trkpt><trkpt lat="45.3499017" lon="10.863375"><ele>45.0</ele><time>2026-04-04T09:26:52.601Z</time></trkpt><trkpt lat="45.35" lon="10.8634217"><ele>45.0</ele><time>2026-04-04T09:26:53.601Z</time></trkpt><trkpt lat="45.3500933" lon="10.86348"><ele>45.0</ele><time>2026-04-04T09:26:54.601Z</time></trkpt><trkpt lat="45.35019" lon="10.863535"><ele>45.0</ele><time>2026-04-04T09:26:55.601Z</time></trkpt><trkpt lat="45.350285" lon="10.8635767"><ele>45.0</ele><time>2026-04-04T09:26:56.602Z</time></trkpt><trkpt lat="45.3503817" lon="10.86361"><ele>45.0</ele><time>2026-04-04T09:26:57.601Z</time></trkpt><trkpt lat="45.3504833" lon="10.8636383"><ele>45.0</ele><time>2026-04-04T09:26:58.601Z</time></trkpt><trkpt lat="45.350595" lon="10.8636583"><ele>45.0</ele><time>2026-04-04T09:26:59.601Z</time></trkpt><trkpt lat="45.3507033" lon="10.8636733"><ele>45.0</ele><time>2026-04-04T09:27:00.601Z</time></trkpt><trkpt lat="45.3508233" lon="10.8636917"><ele>45.0</ele><time>2026-04-04T09:27:01.601Z</time></trkpt><trkpt lat="45.3509317" lon="10.8637033"><ele>45.0</ele><time>2026-04-04T09:27:02.602Z</time></trkpt><trkpt lat="45.35104" lon="10.8637283"><ele>45.0</ele><time>2026-04-04T09:27:03.601Z</time></trkpt><trkpt lat="45.3511433" lon="10.8637517"><ele>45.0</ele><time>2026-04-04T09:27:04.602Z</time></trkpt><trkpt lat="45.3512417" lon="10.8637783"><ele>45.0</ele><time>2026-04-04T09:27:05.601Z</time></trkpt><trkpt lat="45.3513333" lon="10.8638033"><ele>45.0</ele><time>2026-04-04T09:27:06.601Z</time></trkpt><trkpt lat="45.35143" lon="10.8638367"><ele>45.0</ele><time>2026-04-04T09:27:07.601Z</time></trkpt><trkpt lat="45.3515217" lon="10.863865"><ele>45.0</ele><time>2026-04-04T09:27:08.601Z</time></trkpt><trkpt lat="45.3516117" lon="10.8638917"><ele>44.8</ele><time>2026-04-04T09:27:09.601Z</time></trkpt><trkpt lat="45.3516983" lon="10.86393"><ele>44.6</ele><time>2026-04-04T09:27:10.601Z</time></trkpt><trkpt lat="45.3517867" lon="10.8639683"><ele>44.400000000000006</ele><time>2026-04-04T09:27:11.601Z</time></trkpt><trkpt lat="45.351875" lon="10.864005"><ele>44.2</ele><time>2026-04-04T09:27:12.601Z</time></trkpt><trkpt lat="45.3519733" lon="10.8640467"><ele>44.0</ele><time>2026-04-04T09:27:13.601Z</time></trkpt><trkpt lat="45.3520783" lon="10.8640917"><ele>44.0</ele><time>2026-04-04T09:27:14.601Z</time></trkpt><trkpt lat="45.3522067" lon="10.86416"><ele>44.0</ele><time>2026-04-04T09:27:15.601Z</time></trkpt><trkpt lat="45.3523567" lon="10.8642217"><ele>44.0</ele><time>2026-04-04T09:27:16.601Z</time></trkpt><trkpt lat="45.3525133" lon="10.8642967"><ele>44.0</ele><time>2026-04-04T09:27:17.601Z</time></trkpt><trkpt lat="45.3526683" lon="10.864385"><ele>44.0</ele><time>2026-04-04T09:27:18.601Z</time></trkpt><trkpt lat="45.35282" lon="10.8644833"><ele>44.0</ele><time>2026-04-04T09:27:19.601Z</time></trkpt><trkpt lat="45.3529683" lon="10.8645933"><ele>45.0</ele><time>2026-04-04T09:27:20.601Z</time></trkpt><trkpt lat="45.3531067" lon="10.8647083"><ele>46.0</ele><time>2026-04-04T09:27:21.601Z</time></trkpt><trkpt lat="45.35325" lon="10.8648183"><ele>47.0</ele><time>2026-04-04T09:27:22.601Z</time></trkpt><trkpt lat="45.3533917" lon="10.8649267"><ele>47.0</ele><time>2026-04-04T09:27:23.601Z</time></trkpt><trkpt lat="45.35353" lon="10.8650367"><ele>47.0</ele><time>2026-04-04T09:27:24.601Z</time></trkpt><trkpt lat="45.3536633" lon="10.86515"><ele>47.0</ele><time>2026-04-04T09:27:25.601Z</time></trkpt><trkpt lat="45.3538017" lon="10.8652717"><ele>46.666666666666664</ele><time>2026-04-04T09:27:26.601Z</time></trkpt><trkpt lat="45.353935" lon="10.8654117"><ele>46.333333333333336</ele><time>2026-04-04T09:27:27.601Z</time></trkpt><trkpt lat="45.3540683" lon="10.8655533"><ele>46.0</ele><time>2026-04-04T09:27:28.601Z</time></trkpt><trkpt lat="45.3541967" lon="10.865695"><ele>46.0</ele><time>2026-04-04T09:27:29.601Z</time></trkpt><trkpt lat="45.3543217" lon="10.865845"><ele>46.0</ele><time>2026-04-04T09:27:30.601Z</time></trkpt><trkpt lat="45.3544483" lon="10.866"><ele>46.0</ele><time>2026-04-04T09:27:31.601Z</time></trkpt><trkpt lat="45.3545717" lon="10.866165"><ele>45.66666666666667</ele><time>2026-04-04T09:27:32.601Z</time></trkpt><trkpt lat="45.3546933" lon="10.86632"><ele>45.333333333333336</ele><time>2026-04-04T09:27:33.601Z</time></trkpt><trkpt lat="45.35481" lon="10.8664867"><ele>45.0</ele><time>2026-04-04T09:27:34.601Z</time></trkpt><trkpt lat="45.3549233" lon="10.8666483"><ele>45.333333333333336</ele><time>2026-04-04T09:27:35.601Z</time></trkpt><trkpt lat="45.355045" lon="10.866815"><ele>45.66666666666667</ele><time>2026-04-04T09:27:36.601Z</time></trkpt><trkpt lat="45.3551483" lon="10.86698"><ele>46.0</ele><time>2026-04-04T09:27:37.601Z</time></trkpt><trkpt lat="45.3552517" lon="10.8671433"><ele>46.0</ele><time>2026-04-04T09:27:38.601Z</time></trkpt><trkpt lat="45.35536" lon="10.867295"><ele>46.0</ele><time>2026-04-04T09:27:39.601Z</time></trkpt><trkpt lat="45.3554683" lon="10.8674433"><ele>46.0</ele><time>2026-04-04T09:27:40.601Z</time></trkpt><trkpt lat="45.3555633" lon="10.8676"><ele>46.0</ele><time>2026-04-04T09:27:41.601Z</time></trkpt><trkpt lat="45.3556617" lon="10.8677433"><ele>45.5</ele><time>2026-04-04T09:27:42.601Z</time></trkpt><trkpt lat="45.3557483" lon="10.8678867"><ele>45.0</ele><time>2026-04-04T09:27:43.601Z</time></trkpt><trkpt lat="45.3558317" lon="10.8680167"><ele>44.5</ele><time>2026-04-04T09:27:44.601Z</time></trkpt><trkpt lat="45.3559033" lon="10.86814"><ele>44.0</ele><time>2026-04-04T09:27:45.601Z</time></trkpt><trkpt lat="45.3559567" lon="10.86825"><ele>44.0</ele><time>2026-04-04T09:27:46.601Z</time></trkpt><trkpt lat="45.3559917" lon="10.8683633"><ele>44.0</ele><time>2026-04-04T09:27:47.601Z</time></trkpt><trkpt lat="45.356005" lon="10.8684833"><ele>44.0</ele><time>2026-04-04T09:27:48.601Z</time></trkpt><trkpt lat="45.3560017" lon="10.8686083"><ele>44.0</ele><time>2026-04-04T09:27:49.601Z</time></trkpt><trkpt lat="45.356" lon="10.868735"><ele>44.0</ele><time>2026-04-04T09:27:50.601Z</time></trkpt><trkpt lat="45.3560067" lon="10.868855"><ele>44.0</ele><time>2026-04-04T09:27:51.601Z</time></trkpt><trkpt lat="45.3560083" lon="10.8689483"><ele>44.166666666666664</ele><time>2026-04-04T09:27:52.601Z</time></trkpt><trkpt lat="45.3559883" lon="10.8690333"><ele>44.33333333333333</ele><time>2026-04-04T09:27:53.601Z</time></trkpt><trkpt lat="45.35595" lon="10.86911"><ele>44.5</ele><time>2026-04-04T09:27:54.601Z</time></trkpt><trkpt lat="45.3559233" lon="10.869275"><ele>44.666666666666664</ele><time>2026-04-04T09:27:56.601Z</time></trkpt><trkpt lat="45.3559517" lon="10.8693683"><ele>44.833333333333336</ele><time>2026-04-04T09:27:57.601Z</time></trkpt><trkpt lat="45.3560133" lon="10.8694633"><ele>45.0</ele><time>2026-04-04T09:27:58.601Z</time></trkpt><trkpt lat="45.356105" lon="10.869585"><ele>45.0</ele><time>2026-04-04T09:27:59.601Z</time></trkpt><trkpt lat="45.3562317" lon="10.8697317"><ele>45.0</ele><time>2026-04-04T09:28:00.601Z</time></trkpt><trkpt lat="45.356385" lon="10.8699117"><ele>45.0</ele><time>2026-04-04T09:28:01.601Z</time></trkpt><trkpt lat="45.3565667" lon="10.8701333"><ele>45.0</ele><time>2026-04-04T09:28:02.601Z</time></trkpt><trkpt lat="45.3567633" lon="10.8703933"><ele>45.0</ele><time>2026-04-04T09:28:03.601Z</time></trkpt><trkpt lat="45.3569567" lon="10.8706517"><ele>45.0</ele><time>2026-04-04T09:28:04.601Z</time></trkpt><trkpt lat="45.3571233" lon="10.870875"><ele>45.0</ele><time>2026-04-04T09:28:05.601Z</time></trkpt><trkpt lat="45.357255" lon="10.87105"><ele>45.0</ele><time>2026-04-04T09:28:06.601Z</time></trkpt><trkpt lat="45.357365" lon="10.8711917"><ele>45.75</ele><time>2026-04-04T09:28:07.601Z</time></trkpt><trkpt lat="45.3574817" lon="10.8713367"><ele>46.5</ele><time>2026-04-04T09:28:08.601Z</time></trkpt><trkpt lat="45.3575867" lon="10.87148"><ele>47.25</ele><time>2026-04-04T09:28:09.601Z</time></trkpt><trkpt lat="45.35768" lon="10.8716233"><ele>48.0</ele><time>2026-04-04T09:28:10.601Z</time></trkpt><trkpt lat="45.3577867" lon="10.8717883"><ele>48.66666666666667</ele><time>2026-04-04T09:28:11.601Z</time></trkpt><trkpt lat="45.3578967" lon="10.8719733"><ele>49.333333333333336</ele><time>2026-04-04T09:28:12.601Z</time></trkpt><trkpt lat="45.358005" lon="10.872205"><ele>50.0</ele><time>2026-04-04T09:28:13.601Z</time></trkpt><trkpt lat="45.35812" lon="10.872465"><ele>49.333333333333336</ele><time>2026-04-04T09:28:14.601Z</time></trkpt><trkpt lat="45.3582533" lon="10.8727267"><ele>48.66666666666667</ele><time>2026-04-04T09:28:15.601Z</time></trkpt><trkpt lat="45.3583783" lon="10.8729567"><ele>48.0</ele><time>2026-04-04T09:28:16.601Z</time></trkpt><trkpt lat="45.3584867" lon="10.8731733"><ele>48.0</ele><time>2026-04-04T09:28:17.601Z</time></trkpt><trkpt lat="45.3585783" lon="10.8733467"><ele>48.0</ele><time>2026-04-04T09:28:18.601Z</time></trkpt><trkpt lat="45.35867" lon="10.8735117"><ele>48.0</ele><time>2026-04-04T09:28:19.601Z</time></trkpt><trkpt lat="45.3587617" lon="10.8736983"><ele>48.33333333333333</ele><time>2026-04-04T09:28:20.601Z</time></trkpt><trkpt lat="45.358845" lon="10.8739167"><ele>48.666666666666664</ele><time>2026-04-04T09:28:21.601Z</time></trkpt><trkpt lat="45.3589333" lon="10.87416"><ele>49.0</ele><time>2026-04-04T09:28:22.601Z</time></trkpt><trkpt lat="45.3590233" lon="10.8744167"><ele>48.33333333333333</ele><time>2026-04-04T09:28:23.601Z</time></trkpt><trkpt lat="45.3591067" lon="10.874655"><ele>47.666666666666664</ele><time>2026-04-04T09:28:24.601Z</time></trkpt><trkpt lat="45.3591767" lon="10.8748733"><ele>47.0</ele><time>2026-04-04T09:28:25.601Z</time></trkpt><trkpt lat="45.3592417" lon="10.875055"><ele>46.75</ele><time>2026-04-04T09:28:26.601Z</time></trkpt><trkpt lat="45.359295" lon="10.8751983"><ele>46.5</ele><time>2026-04-04T09:28:27.601Z</time></trkpt><trkpt lat="45.3593583" lon="10.8753433"><ele>46.25</ele><time>2026-04-04T09:28:28.601Z</time></trkpt><trkpt lat="45.359425" lon="10.875495"><ele>46.0</ele><time>2026-04-04T09:28:29.601Z</time></trkpt><trkpt lat="45.3594883" lon="10.875645"><ele>46.0</ele><time>2026-04-04T09:28:30.601Z</time></trkpt><trkpt lat="45.3595383" lon="10.8757617"><ele>46.0</ele><time>2026-04-04T09:28:31.601Z</time></trkpt><trkpt lat="45.359575" lon="10.875835"><ele>46.0</ele><time>2026-04-04T09:28:32.601Z</time></trkpt><trkpt lat="45.35962" lon="10.8759117"><ele>46.0</ele><time>2026-04-04T09:28:34.601Z</time></trkpt><trkpt lat="45.3595967" lon="10.8757683"><ele>46.0</ele><time>2026-04-04T09:28:38.601Z</time></trkpt><trkpt lat="45.35955" lon="10.8756783"><ele>46.0</ele><time>2026-04-04T09:28:39.601Z</time></trkpt><trkpt lat="45.3594833" lon="10.8755533"><ele>46.0</ele><time>2026-04-04T09:28:40.601Z</time></trkpt><trkpt lat="45.35941" lon="10.8753933"><ele>46.0</ele><time>2026-04-04T09:28:41.601Z</time></trkpt><trkpt lat="45.359345" lon="10.8752367"><ele>46.0</ele><time>2026-04-04T09:28:42.601Z</time></trkpt><trkpt lat="45.3592967" lon="10.8751083"><ele>46.0</ele><time>2026-04-04T09:28:43.601Z</time></trkpt><trkpt lat="45.3592433" lon="10.87501"><ele>46.0</ele><time>2026-04-04T09:28:44.601Z</time></trkpt><trkpt lat="45.3591933" lon="10.8749467"><ele>46.0</ele><time>2026-04-04T09:28:45.601Z</time></trkpt><trkpt lat="45.359125" lon="10.874915"><ele>46.0</ele><time>2026-04-04T09:28:46.601Z</time></trkpt><trkpt lat="45.35903" lon="10.87491"><ele>46.0</ele><time>2026-04-04T09:28:47.601Z</time></trkpt><trkpt lat="45.3588983" lon="10.87494"><ele>46.0</ele><time>2026-04-04T09:28:48.601Z</time></trkpt><trkpt lat="45.35873" lon="10.874995"><ele>46.0</ele><time>2026-04-04T09:28:49.602Z</time></trkpt><trkpt lat="45.3585467" lon="10.8750833"><ele>46.0</ele><time>2026-04-04T09:28:50.601Z</time></trkpt><trkpt lat="45.3583617" lon="10.8751867"><ele>46.0</ele><time>2026-04-04T09:28:51.601Z</time></trkpt><trkpt lat="45.3581933" lon="10.875285"><ele>46.66666666666667</ele><time>2026-04-04T09:28:52.601Z</time></trkpt><trkpt lat="45.358025" lon="10.8753983"><ele>47.333333333333336</ele><time>2026-04-04T09:28:53.601Z</time></trkpt><trkpt lat="45.3578567" lon="10.8755217"><ele>48.0</ele><time>2026-04-04T09:28:54.601Z</time></trkpt><trkpt lat="45.3576967" lon="10.87565"><ele>48.0</ele><time>2026-04-04T09:28:55.601Z</time></trkpt><trkpt lat="45.3575267" lon="10.8757817"><ele>48.0</ele><time>2026-04-04T09:28:56.601Z</time></trkpt><trkpt lat="45.3573617" lon="10.8758933"><ele>48.0</ele><time>2026-04-04T09:28:57.601Z</time></trkpt><trkpt lat="45.357195" lon="10.8759917"><ele>47.0</ele><time>2026-04-04T09:28:58.601Z</time></trkpt><trkpt lat="45.3570233" lon="10.8760617"><ele>46.0</ele><time>2026-04-04T09:28:59.601Z</time></trkpt><trkpt lat="45.3568333" lon="10.8761217"><ele>45.0</ele><time>2026-04-04T09:29:00.602Z</time></trkpt><trkpt lat="45.3566467" lon="10.87618"><ele>45.0</ele><time>2026-04-04T09:29:01.601Z</time></trkpt><trkpt lat="45.3564917" lon="10.8762083"><ele>45.0</ele><time>2026-04-04T09:29:02.601Z</time></trkpt><trkpt lat="45.35637" lon="10.8762367"><ele>45.0</ele><time>2026-04-04T09:29:03.601Z</time></trkpt><trkpt lat="45.3562733" lon="10.8762533"><ele>45.0</ele><time>2026-04-04T09:29:04.601Z</time></trkpt><trkpt lat="45.3561967" lon="10.87628"><ele>45.14285714285714</ele><time>2026-04-04T09:29:05.601Z</time></trkpt><trkpt lat="45.3561283" lon="10.87632"><ele>45.28571428571429</ele><time>2026-04-04T09:29:06.601Z</time></trkpt><trkpt lat="45.356065" lon="10.8763717"><ele>45.42857142857143</ele><time>2026-04-04T09:29:07.601Z</time></trkpt><trkpt lat="45.35601" lon="10.8764267"><ele>45.57142857142857</ele><time>2026-04-04T09:29:08.601Z</time></trkpt><trkpt lat="45.3559533" lon="10.87648"><ele>45.71428571428571</ele><time>2026-04-04T09:29:09.601Z</time></trkpt><trkpt lat="45.3558983" lon="10.8765317"><ele>45.85714285714286</ele><time>2026-04-04T09:29:10.601Z</time></trkpt><trkpt lat="45.3558383" lon="10.876585"><ele>46.0</ele><time>2026-04-04T09:29:11.601Z</time></trkpt><trkpt lat="45.3557767" lon="10.87664"><ele>46.0</ele><time>2026-04-04T09:29:12.601Z</time></trkpt><trkpt lat="45.3557067" lon="10.8766817"><ele>46.0</ele><time>2026-04-04T09:29:13.601Z</time></trkpt><trkpt lat="45.3556267" lon="10.8767233"><ele>46.0</ele><time>2026-04-04T09:29:14.601Z</time></trkpt><trkpt lat="45.3555367" lon="10.8767683"><ele>46.0</ele><time>2026-04-04T09:29:15.601Z</time></trkpt><trkpt lat="45.3554433" lon="10.8768017"><ele>46.0</ele><time>2026-04-04T09:29:16.601Z</time></trkpt><trkpt lat="45.3553433" lon="10.8768333"><ele>46.5</ele><time>2026-04-04T09:29:17.601Z</time></trkpt><trkpt lat="45.3552317" lon="10.8768717"><ele>47.0</ele><time>2026-04-04T09:29:18.601Z</time></trkpt><trkpt lat="45.355115" lon="10.8769267"><ele>47.5</ele><time>2026-04-04T09:29:19.601Z</time></trkpt><trkpt lat="45.35497" lon="10.8770167"><ele>48.0</ele><time>2026-04-04T09:29:20.601Z</time></trkpt><trkpt lat="45.354805" lon="10.877125"><ele>47.666666666666664</ele><time>2026-04-04T09:29:21.601Z</time></trkpt><trkpt lat="45.3546533" lon="10.8772583"><ele>47.33333333333333</ele><time>2026-04-04T09:29:22.601Z</time></trkpt><trkpt lat="45.3544533" lon="10.8774133"><ele>47.0</ele><time>2026-04-04T09:29:23.601Z</time></trkpt><trkpt lat="45.3542833" lon="10.877555"><ele>46.33333333333333</ele><time>2026-04-04T09:29:24.601Z</time></trkpt><trkpt lat="45.3541417" lon="10.8776717"><ele>45.666666666666664</ele><time>2026-04-04T09:29:25.601Z</time></trkpt><trkpt lat="45.3539967" lon="10.877775"><ele>45.0</ele><time>2026-04-04T09:29:26.601Z</time></trkpt><trkpt lat="45.3538433" lon="10.8778617"><ele>45.0</ele><time>2026-04-04T09:29:27.601Z</time></trkpt><trkpt lat="45.3536733" lon="10.8779533"><ele>45.0</ele><time>2026-04-04T09:29:28.601Z</time></trkpt><trkpt lat="45.3535117" lon="10.8780333"><ele>45.0</ele><time>2026-04-04T09:29:29.601Z</time></trkpt><trkpt lat="45.35334" lon="10.8781"><ele>45.0</ele><time>2026-04-04T09:29:30.601Z</time></trkpt><trkpt lat="45.35317" lon="10.87816"><ele>45.0</ele><time>2026-04-04T09:29:31.601Z</time></trkpt><trkpt lat="45.352995" lon="10.8782267"><ele>45.0</ele><time>2026-04-04T09:29:32.601Z</time></trkpt><trkpt lat="45.352835" lon="10.8782683"><ele>45.333333333333336</ele><time>2026-04-04T09:29:33.601Z</time></trkpt><trkpt lat="45.3526767" lon="10.8783217"><ele>45.66666666666667</ele><time>2026-04-04T09:29:34.601Z</time></trkpt><trkpt lat="45.35252" lon="10.87839"><ele>46.0</ele><time>2026-04-04T09:29:35.601Z</time></trkpt><trkpt lat="45.3523783" lon="10.87846"><ele>46.0</ele><time>2026-04-04T09:29:36.601Z</time></trkpt><trkpt lat="45.35223" lon="10.8785417"><ele>46.0</ele><time>2026-04-04T09:29:37.601Z</time></trkpt><trkpt lat="45.352095" lon="10.8786117"><ele>46.0</ele><time>2026-04-04T09:29:38.601Z</time></trkpt><trkpt lat="45.3519717" lon="10.8786883"><ele>46.0</ele><time>2026-04-04T09:29:39.601Z</time></trkpt><trkpt lat="45.35186" lon="10.87875"><ele>46.0</ele><time>2026-04-04T09:29:40.601Z</time></trkpt><trkpt lat="45.3517733" lon="10.8787933"><ele>46.0</ele><time>2026-04-04T09:29:41.601Z</time></trkpt><trkpt lat="45.3517033" lon="10.8788217"><ele>46.0</ele><time>2026-04-04T09:29:42.601Z</time></trkpt><trkpt lat="45.3516117" lon="10.878875"><ele>46.0</ele><time>2026-04-04T09:29:44.601Z</time></trkpt><trkpt lat="45.351535" lon="10.87886"><ele>46.0</ele><time>2026-04-04T09:29:47.601Z</time></trkpt><trkpt lat="45.3514367" lon="10.8787317"><ele>46.0</ele><time>2026-04-04T09:29:49.602Z</time></trkpt><trkpt lat="45.35137" lon="10.8786367"><ele>46.0</ele><time>2026-04-04T09:29:50.601Z</time></trkpt><trkpt lat="45.3512967" lon="10.87853"><ele>46.0</ele><time>2026-04-04T09:29:51.601Z</time></trkpt><trkpt lat="45.3512217" lon="10.87842"><ele>46.0</ele><time>2026-04-04T09:29:52.601Z</time></trkpt><trkpt lat="45.35115" lon="10.8783283"><ele>46.0</ele><time>2026-04-04T09:29:53.601Z</time></trkpt><trkpt lat="45.3510833" lon="10.8782433"><ele>45.833333333333336</ele><time>2026-04-04T09:29:54.601Z</time></trkpt><trkpt lat="45.35102" lon="10.8781617"><ele>45.66666666666667</ele><time>2026-04-04T09:29:55.601Z</time></trkpt><trkpt lat="45.3509683" lon="10.878095"><ele>45.5</ele><time>2026-04-04T09:29:56.601Z</time></trkpt><trkpt lat="45.35092" lon="10.87803"><ele>45.333333333333336</ele><time>2026-04-04T09:29:58.601Z</time></trkpt><trkpt lat="45.35083" lon="10.878025"><ele>45.166666666666664</ele><time>2026-04-04T09:30:03.601Z</time></trkpt><trkpt lat="45.3507733" lon="10.8780883"><ele>45.0</ele><time>2026-04-04T09:30:04.601Z</time></trkpt><trkpt lat="45.35072" lon="10.8781733"><ele>45.0</ele><time>2026-04-04T09:30:05.601Z</time></trkpt><trkpt lat="45.35066" lon="10.8782817"><ele>45.0</ele><time>2026-04-04T09:30:06.601Z</time></trkpt><trkpt lat="45.350595" lon="10.8783933"><ele>45.0</ele><time>2026-04-04T09:30:07.602Z</time></trkpt><trkpt lat="45.350525" lon="10.878505"><ele>45.0</ele><time>2026-04-04T09:30:08.601Z</time></trkpt><trkpt lat="45.3504633" lon="10.8786167"><ele>45.0</ele><time>2026-04-04T09:30:09.601Z</time></trkpt><trkpt lat="45.3503817" lon="10.8787267"><ele>45.2</ele><time>2026-04-04T09:30:10.601Z</time></trkpt><trkpt lat="45.3503067" lon="10.8788467"><ele>45.4</ele><time>2026-04-04T09:30:11.601Z</time></trkpt><trkpt lat="45.350225" lon="10.8789533"><ele>45.599999999999994</ele><time>2026-04-04T09:30:12.601Z</time></trkpt><trkpt lat="45.3501617" lon="10.87907"><ele>45.8</ele><time>2026-04-04T09:30:13.601Z</time></trkpt><trkpt lat="45.3500867" lon="10.8791833"><ele>46.0</ele><time>2026-04-04T09:30:14.601Z</time></trkpt><trkpt lat="45.3500133" lon="10.87929"><ele>46.0</ele><time>2026-04-04T09:30:15.601Z</time></trkpt><trkpt lat="45.349935" lon="10.8793967"><ele>46.0</ele><time>2026-04-04T09:30:16.601Z</time></trkpt><trkpt lat="45.3498567" lon="10.8795033"><ele>46.0</ele><time>2026-04-04T09:30:17.601Z</time></trkpt><trkpt lat="45.3497833" lon="10.8796067"><ele>46.0</ele><time>2026-04-04T09:30:18.601Z</time></trkpt><trkpt lat="45.349705" lon="10.8796983"><ele>46.0</ele><time>2026-04-04T09:30:19.601Z</time></trkpt><trkpt lat="45.349635" lon="10.879775"><ele>46.0</ele><time>2026-04-04T09:30:20.601Z</time></trkpt><trkpt lat="45.3495717" lon="10.87985"><ele>46.0</ele><time>2026-04-04T09:30:21.601Z</time></trkpt><trkpt lat="45.34948" lon="10.87993"><ele>46.0</ele><time>2026-04-04T09:30:23.601Z</time></trkpt><trkpt lat="45.3494133" lon="10.8799067"><ele>46.0</ele><time>2026-04-04T09:30:27.601Z</time></trkpt><trkpt lat="45.3493267" lon="10.8799733"><ele>46.0</ele><time>2026-04-04T09:30:39.601Z</time></trkpt><trkpt lat="45.34921" lon="10.8800867"><ele>46.199999999999996</ele><time>2026-04-04T09:30:41.601Z</time></trkpt><trkpt lat="45.3491317" lon="10.880165"><ele>46.4</ele><time>2026-04-04T09:30:42.601Z</time></trkpt><trkpt lat="45.34904" lon="10.88025"><ele>46.6</ele><time>2026-04-04T09:30:43.601Z</time></trkpt><trkpt lat="45.3489433" lon="10.8803383"><ele>46.8</ele><time>2026-04-04T09:30:44.601Z</time></trkpt><trkpt lat="45.3488467" lon="10.88042"><ele>47.0</ele><time>2026-04-04T09:30:45.601Z</time></trkpt><trkpt lat="45.3487533" lon="10.8805017"><ele>47.0</ele><time>2026-04-04T09:30:46.601Z</time></trkpt><trkpt lat="45.3486667" lon="10.8805683"><ele>47.0</ele><time>2026-04-04T09:30:47.601Z</time></trkpt><trkpt lat="45.3485933" lon="10.880635"><ele>47.0</ele><time>2026-04-04T09:30:48.601Z</time></trkpt><trkpt lat="45.34853" lon="10.8806983"><ele>47.0</ele><time>2026-04-04T09:30:49.601Z</time></trkpt><trkpt lat="45.3484283" lon="10.8807767"><ele>47.0</ele><time>2026-04-04T09:30:51.602Z</time></trkpt><trkpt lat="45.3483333" lon="10.8808167"><ele>47.0</ele><time>2026-04-04T09:30:53.601Z</time></trkpt><trkpt lat="45.3482333" lon="10.88082"><ele>47.0</ele><time>2026-04-04T09:30:55.601Z</time></trkpt><trkpt lat="45.3481467" lon="10.8808633"><ele>47.0</ele><time>2026-04-04T09:30:57.601Z</time></trkpt><trkpt lat="45.3480433" lon="10.88091"><ele>47.0</ele><time>2026-04-04T09:30:59.601Z</time></trkpt><trkpt lat="45.3479367" lon="10.8809517"><ele>47.0</ele><time>2026-04-04T09:31:01.601Z</time></trkpt><trkpt lat="45.3478183" lon="10.880975"><ele>47.2</ele><time>2026-04-04T09:31:03.601Z</time></trkpt><trkpt lat="45.3476933" lon="10.8809733"><ele>47.400000000000006</ele><time>2026-04-04T09:31:05.601Z</time></trkpt><trkpt lat="45.3475883" lon="10.88099"><ele>47.599999999999994</ele><time>2026-04-04T09:31:07.601Z</time></trkpt><trkpt lat="45.3475083" lon="10.8809767"><ele>47.8</ele><time>2026-04-04T09:31:09.601Z</time></trkpt><trkpt lat="45.3474267" lon="10.8809567"><ele>48.0</ele><time>2026-04-04T09:31:11.601Z</time></trkpt><trkpt lat="45.3473033" lon="10.8809267"><ele>48.0</ele><time>2026-04-04T09:31:13.601Z</time></trkpt><trkpt lat="45.3472267" lon="10.880915"><ele>48.0</ele><time>2026-04-04T09:31:14.601Z</time></trkpt><trkpt lat="45.3471483" lon="10.8808967"><ele>48.0</ele><time>2026-04-04T09:31:15.601Z</time></trkpt><trkpt lat="45.34707" lon="10.880885"><ele>48.0</ele><time>2026-04-04T09:31:16.601Z</time></trkpt><trkpt lat="45.3469983" lon="10.8808817"><ele>48.0</ele><time>2026-04-04T09:31:17.602Z</time></trkpt><trkpt lat="45.346915" lon="10.8808883"><ele>48.0</ele><time>2026-04-04T09:31:18.601Z</time></trkpt><trkpt lat="45.3468367" lon="10.880915"><ele>48.333333333333336</ele><time>2026-04-04T09:31:19.601Z</time></trkpt><trkpt lat="45.3467483" lon="10.8809433"><ele>48.66666666666667</ele><time>2026-04-04T09:31:20.601Z</time></trkpt><trkpt lat="45.34668" lon="10.8809717"><ele>49.0</ele><time>2026-04-04T09:31:21.601Z</time></trkpt><trkpt lat="45.3466117" lon="10.8810033"><ele>49.333333333333336</ele><time>2026-04-04T09:31:22.601Z</time></trkpt><trkpt lat="45.3464983" lon="10.8810567"><ele>49.66666666666667</ele><time>2026-04-04T09:31:24.601Z</time></trkpt><trkpt lat="45.3464383" lon="10.88109"><ele>50.0</ele><time>2026-04-04T09:31:25.601Z</time></trkpt><trkpt lat="45.3463767" lon="10.8811267"><ele>49.0</ele><time>2026-04-04T09:31:26.601Z</time></trkpt><trkpt lat="45.3462683" lon="10.8812117"><ele>48.0</ele><time>2026-04-04T09:31:28.601Z</time></trkpt><trkpt lat="45.34621" lon="10.8812533"><ele>47.0</ele><time>2026-04-04T09:31:29.601Z</time></trkpt><trkpt lat="45.3461017" lon="10.8813383"><ele>46.0</ele><time>2026-04-04T09:31:31.601Z</time></trkpt><trkpt lat="45.346045" lon="10.8813817"><ele>45.0</ele><time>2026-04-04T09:31:32.601Z</time></trkpt><trkpt lat="45.34594" lon="10.881465"><ele>45.0</ele><time>2026-04-04T09:31:34.601Z</time></trkpt><trkpt lat="45.3458783" lon="10.8815017"><ele>45.0</ele><time>2026-04-04T09:31:35.601Z</time></trkpt><trkpt lat="45.3457583" lon="10.8815617"><ele>45.0</ele><time>2026-04-04T09:31:37.601Z</time></trkpt><trkpt lat="45.34565" lon="10.8816183"><ele>45.0</ele><time>2026-04-04T09:31:39.601Z</time></trkpt><trkpt lat="45.3456117" lon="10.8817"><ele>45.0</ele><time>2026-04-04T09:31:41.601Z</time></trkpt><trkpt lat="45.3456183" lon="10.88187"><ele>45.0</ele><time>2026-04-04T09:31:43.601Z</time></trkpt><trkpt lat="45.3456417" lon="10.8819833"><ele>45.0</ele><time>2026-04-04T09:31:44.601Z</time></trkpt><trkpt lat="45.345675" lon="10.882105"><ele>45.0</ele><time>2026-04-04T09:31:45.601Z</time></trkpt><trkpt lat="45.3457183" lon="10.88222"><ele>45.0</ele><time>2026-04-04T09:31:46.601Z</time></trkpt><trkpt lat="45.3457567" lon="10.882325"><ele>45.0</ele><time>2026-04-04T09:31:47.601Z</time></trkpt><trkpt lat="45.3458" lon="10.8824233"><ele>45.0</ele><time>2026-04-04T09:31:48.601Z</time></trkpt><trkpt lat="45.3458283" lon="10.8825233"><ele>45.166666666666664</ele><time>2026-04-04T09:31:49.601Z</time></trkpt><trkpt lat="45.345855" lon="10.8826183"><ele>45.333333333333336</ele><time>2026-04-04T09:31:50.601Z</time></trkpt><trkpt lat="45.3458833" lon="10.88271"><ele>45.5</ele><time>2026-04-04T09:31:51.601Z</time></trkpt><trkpt lat="45.345935" lon="10.8828667"><ele>45.66666666666667</ele><time>2026-04-04T09:31:53.602Z</time></trkpt><trkpt lat="45.3459183" lon="10.8830017"><ele>45.833333333333336</ele><time>2026-04-04T09:31:55.601Z</time></trkpt><trkpt lat="45.3458717" lon="10.8830767"><ele>46.0</ele><time>2026-04-04T09:31:56.601Z</time></trkpt><trkpt lat="45.3458083" lon="10.883145"><ele>46.0</ele><time>2026-04-04T09:31:57.601Z</time></trkpt><trkpt lat="45.3457267" lon="10.88321"><ele>46.0</ele><time>2026-04-04T09:31:58.601Z</time></trkpt><trkpt lat="45.3456333" lon="10.88326"><ele>46.0</ele><time>2026-04-04T09:31:59.601Z</time></trkpt><trkpt lat="45.3455317" lon="10.8833283"><ele>46.0</ele><time>2026-04-04T09:32:00.601Z</time></trkpt><trkpt lat="45.3454317" lon="10.883395"><ele>46.0</ele><time>2026-04-04T09:32:01.601Z</time></trkpt><trkpt lat="45.345325" lon="10.8834583"><ele>45.8</ele><time>2026-04-04T09:32:02.601Z</time></trkpt><trkpt lat="45.3452183" lon="10.88353"><ele>45.599999999999994</ele><time>2026-04-04T09:32:03.601Z</time></trkpt><trkpt lat="45.345125" lon="10.8835983"><ele>45.4</ele><time>2026-04-04T09:32:04.602Z</time></trkpt><trkpt lat="45.3450233" lon="10.8836683"><ele>45.2</ele><time>2026-04-04T09:32:05.601Z</time></trkpt><trkpt lat="45.3449267" lon="10.88374"><ele>45.0</ele><time>2026-04-04T09:32:06.601Z</time></trkpt><trkpt lat="45.3448233" lon="10.8838083"><ele>45.0</ele><time>2026-04-04T09:32:07.601Z</time></trkpt><trkpt lat="45.3447417" lon="10.8838867"><ele>45.0</ele><time>2026-04-04T09:32:08.601Z</time></trkpt><trkpt lat="45.3446667" lon="10.883965"><ele>45.0</ele><time>2026-04-04T09:32:09.601Z</time></trkpt><trkpt lat="45.3445917" lon="10.8840383"><ele>45.0</ele><time>2026-04-04T09:32:10.601Z</time></trkpt><trkpt lat="45.3445217" lon="10.8841283"><ele>45.0</ele><time>2026-04-04T09:32:11.601Z</time></trkpt><trkpt lat="45.3444533" lon="10.88421"><ele>45.0</ele><time>2026-04-04T09:32:12.601Z</time></trkpt><trkpt lat="45.34439" lon="10.884305"><ele>45.0</ele><time>2026-04-04T09:32:13.601Z</time></trkpt><trkpt lat="45.34433" lon="10.88439"><ele>45.0</ele><time>2026-04-04T09:32:14.601Z</time></trkpt><trkpt lat="45.3442717" lon="10.8844683"><ele>45.0</ele><time>2026-04-04T09:32:15.601Z</time></trkpt><trkpt lat="45.3442167" lon="10.8845383"><ele>45.0</ele><time>2026-04-04T09:32:16.601Z</time></trkpt><trkpt lat="45.34417" lon="10.884605"><ele>45.0</ele><time>2026-04-04T09:32:17.601Z</time></trkpt><trkpt lat="45.344115" lon="10.88467"><ele>45.0</ele><time>2026-04-04T09:32:19.601Z</time></trkpt><trkpt lat="45.3440833" lon="10.8848183"><ele>45.0</ele><time>2026-04-04T09:32:21.601Z</time></trkpt><trkpt lat="45.34407" lon="10.8849383"><ele>45.0</ele><time>2026-04-04T09:32:22.601Z</time></trkpt><trkpt lat="45.34406" lon="10.8850767"><ele>45.0</ele><time>2026-04-04T09:32:23.601Z</time></trkpt><trkpt lat="45.3440367" lon="10.88522"><ele>45.0</ele><time>2026-04-04T09:32:24.601Z</time></trkpt><trkpt lat="45.3440267" lon="10.8853467"><ele>45.0</ele><time>2026-04-04T09:32:25.601Z</time></trkpt><trkpt lat="45.344005" lon="10.8854583"><ele>45.0</ele><time>2026-04-04T09:32:26.601Z</time></trkpt><trkpt lat="45.3439583" lon="10.8855533"><ele>45.0</ele><time>2026-04-04T09:32:27.601Z</time></trkpt><trkpt lat="45.3438933" lon="10.8856367"><ele>45.0</ele><time>2026-04-04T09:32:28.601Z</time></trkpt><trkpt lat="45.3438017" lon="10.885715"><ele>45.0</ele><time>2026-04-04T09:32:29.601Z</time></trkpt><trkpt lat="45.3437133" lon="10.885765"><ele>44.75</ele><time>2026-04-04T09:32:30.601Z</time></trkpt><trkpt lat="45.3436017" lon="10.8857883"><ele>44.5</ele><time>2026-04-04T09:32:31.601Z</time></trkpt><trkpt lat="45.3434933" lon="10.8858133"><ele>44.25</ele><time>2026-04-04T09:32:32.601Z</time></trkpt><trkpt lat="45.3433883" lon="10.885825"><ele>44.0</ele><time>2026-04-04T09:32:33.601Z</time></trkpt><trkpt lat="45.3432667" lon="10.8858167"><ele>44.0</ele><time>2026-04-04T09:32:34.601Z</time></trkpt><trkpt lat="45.343155" lon="10.8858217"><ele>44.0</ele><time>2026-04-04T09:32:35.601Z</time></trkpt><trkpt lat="45.3430417" lon="10.8858333"><ele>44.0</ele><time>2026-04-04T09:32:36.601Z</time></trkpt><trkpt lat="45.3429333" lon="10.88584"><ele>44.0</ele><time>2026-04-04T09:32:37.601Z</time></trkpt><trkpt lat="45.3428383" lon="10.8858483"><ele>44.0</ele><time>2026-04-04T09:32:38.601Z</time></trkpt><trkpt lat="45.3427533" lon="10.8858467"><ele>44.0</ele><time>2026-04-04T09:32:39.601Z</time></trkpt><trkpt lat="45.34268" lon="10.88585"><ele>44.0</ele><time>2026-04-04T09:32:40.601Z</time></trkpt><trkpt lat="45.342615" lon="10.8858517"><ele>44.0</ele><time>2026-04-04T09:32:41.6Z</time></trkpt><trkpt lat="45.342555" lon="10.8858933"><ele>44.0</ele><time>2026-04-04T09:32:43.601Z</time></trkpt><trkpt lat="45.34249" lon="10.8860417"><ele>44.0</ele><time>2026-04-04T09:32:45.6Z</time></trkpt><trkpt lat="45.3424517" lon="10.8861517"><ele>44.0</ele><time>2026-04-04T09:32:46.6Z</time></trkpt><trkpt lat="45.3424183" lon="10.886285"><ele>44.166666666666664</ele><time>2026-04-04T09:32:47.6Z</time></trkpt><trkpt lat="45.3423983" lon="10.8864167"><ele>44.33333333333333</ele><time>2026-04-04T09:32:48.6Z</time></trkpt><trkpt lat="45.342375" lon="10.8865317"><ele>44.5</ele><time>2026-04-04T09:32:49.6Z</time></trkpt><trkpt lat="45.342375" lon="10.8866717"><ele>44.666666666666664</ele><time>2026-04-04T09:32:51.6Z</time></trkpt><trkpt lat="45.34242" lon="10.886735"><ele>44.833333333333336</ele><time>2026-04-04T09:32:52.6Z</time></trkpt><trkpt lat="45.34249" lon="10.8868133"><ele>45.0</ele><time>2026-04-04T09:32:53.6Z</time></trkpt><trkpt lat="45.34258" lon="10.8869083"><ele>44.5</ele><time>2026-04-04T09:32:54.6Z</time></trkpt><trkpt lat="45.3426717" lon="10.88702"><ele>44.0</ele><time>2026-04-04T09:32:55.6Z</time></trkpt><trkpt lat="45.34276" lon="10.8871333"><ele>43.5</ele><time>2026-04-04T09:32:56.6Z</time></trkpt><trkpt lat="45.34285" lon="10.8872517"><ele>43.0</ele><time>2026-04-04T09:32:57.6Z</time></trkpt><trkpt lat="45.342935" lon="10.8873433"><ele>43.0</ele><time>2026-04-04T09:32:58.6Z</time></trkpt><trkpt lat="45.3430233" lon="10.8874233"><ele>43.0</ele><time>2026-04-04T09:32:59.6Z</time></trkpt><trkpt lat="45.343125" lon="10.8874733"><ele>43.0</ele><time>2026-04-04T09:33:00.6Z</time></trkpt><trkpt lat="45.3432283" lon="10.8874883"><ele>43.0</ele><time>2026-04-04T09:33:01.6Z</time></trkpt><trkpt lat="45.34335" lon="10.887485"><ele>43.0</ele><time>2026-04-04T09:33:02.6Z</time></trkpt><trkpt lat="45.34347" lon="10.8874783"><ele>43.0</ele><time>2026-04-04T09:33:03.6Z</time></trkpt><trkpt lat="45.3436033" lon="10.8874667"><ele>43.0</ele><time>2026-04-04T09:33:04.6Z</time></trkpt><trkpt lat="45.3437383" lon="10.8874517"><ele>43.0</ele><time>2026-04-04T09:33:05.6Z</time></trkpt><trkpt lat="45.34387" lon="10.8874467"><ele>43.0</ele><time>2026-04-04T09:33:06.6Z</time></trkpt><trkpt lat="45.343995" lon="10.887435"><ele>43.2</ele><time>2026-04-04T09:33:07.6Z</time></trkpt><trkpt lat="45.3441183" lon="10.8874367"><ele>43.4</ele><time>2026-04-04T09:33:08.6Z</time></trkpt><trkpt lat="45.3442333" lon="10.8874317"><ele>43.6</ele><time>2026-04-04T09:33:09.6Z</time></trkpt><trkpt lat="45.344335" lon="10.88742"><ele>43.800000000000004</ele><time>2026-04-04T09:33:10.6Z</time></trkpt><trkpt lat="45.34442" lon="10.88742"><ele>44.0</ele><time>2026-04-04T09:33:11.6Z</time></trkpt><trkpt lat="45.3445167" lon="10.88745"><ele>44.0</ele><time>2026-04-04T09:33:13.6Z</time></trkpt><trkpt lat="45.3445733" lon="10.8875483"><ele>44.0</ele><time>2026-04-04T09:33:15.6Z</time></trkpt><trkpt lat="45.3445933" lon="10.8876417"><ele>44.0</ele><time>2026-04-04T09:33:16.6Z</time></trkpt><trkpt lat="45.3445917" lon="10.8877667"><ele>44.0</ele><time>2026-04-04T09:33:17.6Z</time></trkpt><trkpt lat="45.3445667" lon="10.8879383"><ele>44.0</ele><time>2026-04-04T09:33:18.6Z</time></trkpt><trkpt lat="45.344545" lon="10.888115"><ele>44.0</ele><time>2026-04-04T09:33:19.6Z</time></trkpt><trkpt lat="45.3445233" lon="10.888285"><ele>44.0</ele><time>2026-04-04T09:33:20.6Z</time></trkpt><trkpt lat="45.3445017" lon="10.8884333"><ele>44.0</ele><time>2026-04-04T09:33:21.6Z</time></trkpt><trkpt lat="45.3444883" lon="10.8885633"><ele>44.0</ele><time>2026-04-04T09:33:22.6Z</time></trkpt><trkpt lat="45.34448" lon="10.888675"><ele>44.0</ele><time>2026-04-04T09:33:23.6Z</time></trkpt><trkpt lat="45.34445" lon="10.8887967"><ele>43.83333333333333</ele><time>2026-04-04T09:33:25.6Z</time></trkpt><trkpt lat="45.34439" lon="10.8888583"><ele>43.666666666666664</ele><time>2026-04-04T09:33:28.6Z</time></trkpt><trkpt lat="45.34448" lon="10.8888467"><ele>43.5</ele><time>2026-04-04T09:33:34.6Z</time></trkpt><trkpt lat="45.3445433" lon="10.8888367"><ele>43.333333333333336</ele><time>2026-04-04T09:33:35.6Z</time></trkpt><trkpt lat="45.3446317" lon="10.8888217"><ele>43.16666666666667</ele><time>2026-04-04T09:33:36.6Z</time></trkpt><trkpt lat="45.3447317" lon="10.8888067"><ele>43.0</ele><time>2026-04-04T09:33:37.601Z</time></trkpt><trkpt lat="45.3448417" lon="10.888795"><ele>43.0</ele><time>2026-04-04T09:33:38.6Z</time></trkpt><trkpt lat="45.34494" lon="10.8887967"><ele>43.0</ele><time>2026-04-04T09:33:39.6Z</time></trkpt><trkpt lat="45.3450267" lon="10.888795"><ele>43.0</ele><time>2026-04-04T09:33:40.6Z</time></trkpt><trkpt lat="45.3451033" lon="10.888795"><ele>43.0</ele><time>2026-04-04T09:33:41.6Z</time></trkpt><trkpt lat="45.3451733" lon="10.8887917"><ele>43.0</ele><time>2026-04-04T09:33:42.6Z</time></trkpt><trkpt lat="45.3452467" lon="10.888785"><ele>43.0</ele><time>2026-04-04T09:33:43.6Z</time></trkpt><trkpt lat="45.3453267" lon="10.88878"><ele>43.00000000000001</ele><time>2026-04-04T09:33:44.601Z</time></trkpt><trkpt lat="45.34539" lon="10.8887767"><ele>43.0</ele><time>2026-04-04T09:33:45.6Z</time></trkpt><trkpt lat="45.3454783" lon="10.888805"><ele>43.0</ele><time>2026-04-04T09:33:47.6Z</time></trkpt><trkpt lat="45.3455333" lon="10.8888517"><ele>43.0</ele><time>2026-04-04T09:33:49.6Z</time></trkpt><trkpt lat="45.3456033" lon="10.888895"><ele>43.0</ele><time>2026-04-04T09:33:51.6Z</time></trkpt><trkpt lat="45.3456683" lon="10.8889267"><ele>43.00000000000001</ele><time>2026-04-04T09:33:52.6Z</time></trkpt><trkpt lat="45.34575" lon="10.888945"><ele>43.0</ele><time>2026-04-04T09:33:53.6Z</time></trkpt><trkpt lat="45.345815" lon="10.8889817"><ele>43.0</ele><time>2026-04-04T09:33:54.6Z</time></trkpt><trkpt lat="45.3458867" lon="10.8890817"><ele>43.0</ele><time>2026-04-04T09:33:56.6Z</time></trkpt><trkpt lat="45.3458983" lon="10.8891767"><ele>43.0</ele><time>2026-04-04T09:33:57.6Z</time></trkpt><trkpt lat="45.3458817" lon="10.8893233"><ele>43.0</ele><time>2026-04-04T09:33:58.6Z</time></trkpt><trkpt lat="45.345855" lon="10.8894783"><ele>43.0</ele><time>2026-04-04T09:33:59.6Z</time></trkpt><trkpt lat="45.3458333" lon="10.8896533"><ele>43.0</ele><time>2026-04-04T09:34:00.6Z</time></trkpt><trkpt lat="45.3458033" lon="10.88986"><ele>43.0</ele><time>2026-04-04T09:34:01.6Z</time></trkpt><trkpt lat="45.3457767" lon="10.8900617"><ele>43.0</ele><time>2026-04-04T09:34:02.6Z</time></trkpt><trkpt lat="45.3457483" lon="10.890255"><ele>43.0</ele><time>2026-04-04T09:34:03.6Z</time></trkpt><trkpt lat="45.345735" lon="10.890435"><ele>43.0</ele><time>2026-04-04T09:34:04.6Z</time></trkpt><trkpt lat="45.3457483" lon="10.89059"><ele>43.0</ele><time>2026-04-04T09:34:05.6Z</time></trkpt><trkpt lat="45.3457717" lon="10.8907433"><ele>43.0</ele><time>2026-04-04T09:34:06.6Z</time></trkpt><trkpt lat="45.345825" lon="10.89089"><ele>43.0</ele><time>2026-04-04T09:34:07.6Z</time></trkpt><trkpt lat="45.3458967" lon="10.8910433"><ele>43.0</ele><time>2026-04-04T09:34:08.6Z</time></trkpt><trkpt lat="45.3459833" lon="10.8912067"><ele>43.0</ele><time>2026-04-04T09:34:09.6Z</time></trkpt><trkpt lat="45.3460683" lon="10.8913617"><ele>43.0</ele><time>2026-04-04T09:34:10.601Z</time></trkpt><trkpt lat="45.3461617" lon="10.8915183"><ele>43.0</ele><time>2026-04-04T09:34:11.6Z</time></trkpt><trkpt lat="45.3462333" lon="10.8916483"><ele>42.8</ele><time>2026-04-04T09:34:12.601Z</time></trkpt><trkpt lat="45.3462983" lon="10.89176"><ele>42.599999999999994</ele><time>2026-04-04T09:34:13.6Z</time></trkpt><trkpt lat="45.3463567" lon="10.8918733"><ele>42.400000000000006</ele><time>2026-04-04T09:34:14.6Z</time></trkpt><trkpt lat="45.3464033" lon="10.8920033"><ele>42.2</ele><time>2026-04-04T09:34:15.6Z</time></trkpt><trkpt lat="45.34644" lon="10.8921567"><ele>42.0</ele><time>2026-04-04T09:34:16.6Z</time></trkpt><trkpt lat="45.3464883" lon="10.89231"><ele>42.0</ele><time>2026-04-04T09:34:17.6Z</time></trkpt><trkpt lat="45.34656" lon="10.8924717"><ele>42.0</ele><time>2026-04-04T09:34:18.6Z</time></trkpt><trkpt lat="45.3466517" lon="10.892615"><ele>42.0</ele><time>2026-04-04T09:34:19.6Z</time></trkpt><trkpt lat="45.3467667" lon="10.8927583"><ele>42.0</ele><time>2026-04-04T09:34:20.6Z</time></trkpt><trkpt lat="45.3468767" lon="10.8928917"><ele>42.25</ele><time>2026-04-04T09:34:21.6Z</time></trkpt><trkpt lat="45.34698" lon="10.89301"><ele>42.5</ele><time>2026-04-04T09:34:22.601Z</time></trkpt><trkpt lat="45.3470683" lon="10.8931233"><ele>42.75</ele><time>2026-04-04T09:34:23.6Z</time></trkpt><trkpt lat="45.347145" lon="10.8932267"><ele>43.0</ele><time>2026-04-04T09:34:24.6Z</time></trkpt><trkpt lat="45.3472067" lon="10.8933367"><ele>42.4</ele><time>2026-04-04T09:34:25.6Z</time></trkpt><trkpt lat="45.34725" lon="10.8934667"><ele>41.8</ele><time>2026-04-04T09:34:26.6Z</time></trkpt><trkpt lat="45.34728" lon="10.8936067"><ele>41.2</ele><time>2026-04-04T09:34:27.6Z</time></trkpt><trkpt lat="45.3472817" lon="10.89377"><ele>40.6</ele><time>2026-04-04T09:34:28.6Z</time></trkpt><trkpt lat="45.3472633" lon="10.893935"><ele>40.0</ele><time>2026-04-04T09:34:29.6Z</time></trkpt><trkpt lat="45.347245" lon="10.8940983"><ele>40.0</ele><time>2026-04-04T09:34:30.6Z</time></trkpt><trkpt lat="45.347215" lon="10.8942767"><ele>40.0</ele><time>2026-04-04T09:34:31.6Z</time></trkpt><trkpt lat="45.34719" lon="10.8944583"><ele>40.0</ele><time>2026-04-04T09:34:32.6Z</time></trkpt><trkpt lat="45.347165" lon="10.894635"><ele>40.0</ele><time>2026-04-04T09:34:33.6Z</time></trkpt><trkpt lat="45.347135" lon="10.894815"><ele>40.2</ele><time>2026-04-04T09:34:34.601Z</time></trkpt><trkpt lat="45.347115" lon="10.894985"><ele>40.4</ele><time>2026-04-04T09:34:35.6Z</time></trkpt><trkpt lat="45.3471033" lon="10.895145"><ele>40.599999999999994</ele><time>2026-04-04T09:34:36.6Z</time></trkpt><trkpt lat="45.3470933" lon="10.8952917"><ele>40.8</ele><time>2026-04-04T09:34:37.6Z</time></trkpt><trkpt lat="45.3470883" lon="10.89545"><ele>41.0</ele><time>2026-04-04T09:34:38.601Z</time></trkpt><trkpt lat="45.347085" lon="10.8956117"><ele>41.0</ele><time>2026-04-04T09:34:39.6Z</time></trkpt><trkpt lat="45.3470767" lon="10.8957817"><ele>41.0</ele><time>2026-04-04T09:34:40.6Z</time></trkpt><trkpt lat="45.3470583" lon="10.895965"><ele>41.0</ele><time>2026-04-04T09:34:41.6Z</time></trkpt><trkpt lat="45.347025" lon="10.8961483"><ele>41.0</ele><time>2026-04-04T09:34:42.6Z</time></trkpt><trkpt lat="45.347005" lon="10.8963367"><ele>41.0</ele><time>2026-04-04T09:34:43.6Z</time></trkpt><trkpt lat="45.3469883" lon="10.8965333"><ele>41.0</ele><time>2026-04-04T09:34:44.6Z</time></trkpt><trkpt lat="45.3469733" lon="10.896735"><ele>41.0</ele><time>2026-04-04T09:34:45.6Z</time></trkpt><trkpt lat="45.3469583" lon="10.896935"><ele>41.0</ele><time>2026-04-04T09:34:46.6Z</time></trkpt><trkpt lat="45.3469517" lon="10.8971183"><ele>41.0</ele><time>2026-04-04T09:34:47.6Z</time></trkpt><trkpt lat="45.3469433" lon="10.8973017"><ele>41.0</ele><time>2026-04-04T09:34:48.6Z</time></trkpt><trkpt lat="45.3469217" lon="10.897485"><ele>41.0</ele><time>2026-04-04T09:34:49.6Z</time></trkpt><trkpt lat="45.3469033" lon="10.8976617"><ele>41.0</ele><time>2026-04-04T09:34:50.6Z</time></trkpt><trkpt lat="45.3468917" lon="10.89784"><ele>41.25</ele><time>2026-04-04T09:34:51.6Z</time></trkpt><trkpt lat="45.34687" lon="10.8980183"><ele>41.5</ele><time>2026-04-04T09:34:52.6Z</time></trkpt><trkpt lat="45.3468517" lon="10.89819"><ele>41.75</ele><time>2026-04-04T09:34:53.6Z</time></trkpt><trkpt lat="45.346845" lon="10.8983567"><ele>42.0</ele><time>2026-04-04T09:34:54.601Z</time></trkpt><trkpt lat="45.3468317" lon="10.8985417"><ele>41.5</ele><time>2026-04-04T09:34:55.6Z</time></trkpt><trkpt lat="45.346815" lon="10.89873"><ele>41.0</ele><time>2026-04-04T09:34:56.6Z</time></trkpt><trkpt lat="45.3467967" lon="10.8989283"><ele>40.5</ele><time>2026-04-04T09:34:57.6Z</time></trkpt><trkpt lat="45.34678" lon="10.8991333"><ele>40.0</ele><time>2026-04-04T09:34:58.6Z</time></trkpt><trkpt lat="45.3467667" lon="10.89933"><ele>40.0</ele><time>2026-04-04T09:34:59.6Z</time></trkpt><trkpt lat="45.3467533" lon="10.89953"><ele>40.0</ele><time>2026-04-04T09:35:00.6Z</time></trkpt><trkpt lat="45.3467383" lon="10.8997267"><ele>40.0</ele><time>2026-04-04T09:35:01.6Z</time></trkpt><trkpt lat="45.34672" lon="10.8999167"><ele>40.0</ele><time>2026-04-04T09:35:02.6Z</time></trkpt><trkpt lat="45.3466967" lon="10.90009"><ele>40.2</ele><time>2026-04-04T09:35:03.6Z</time></trkpt><trkpt lat="45.34668" lon="10.90026"><ele>40.4</ele><time>2026-04-04T09:35:04.6Z</time></trkpt><trkpt lat="45.3466683" lon="10.9004117"><ele>40.599999999999994</ele><time>2026-04-04T09:35:05.6Z</time></trkpt><trkpt lat="45.3466517" lon="10.900555"><ele>40.8</ele><time>2026-04-04T09:35:06.6Z</time></trkpt><trkpt lat="45.3466333" lon="10.900695"><ele>41.0</ele><time>2026-04-04T09:35:07.6Z</time></trkpt><trkpt lat="45.3466267" lon="10.9008417"><ele>41.199999999999996</ele><time>2026-04-04T09:35:08.6Z</time></trkpt><trkpt lat="45.34662" lon="10.9009867"><ele>41.4</ele><time>2026-04-04T09:35:09.6Z</time></trkpt><trkpt lat="45.3466083" lon="10.9011283"><ele>41.6</ele><time>2026-04-04T09:35:10.6Z</time></trkpt><trkpt lat="45.3466033" lon="10.9012567"><ele>41.8</ele><time>2026-04-04T09:35:11.601Z</time></trkpt><trkpt lat="45.3465967" lon="10.9013917"><ele>42.0</ele><time>2026-04-04T09:35:12.6Z</time></trkpt><trkpt lat="45.3465883" lon="10.9015333"><ele>42.0</ele><time>2026-04-04T09:35:13.601Z</time></trkpt><trkpt lat="45.3465817" lon="10.90169"><ele>42.0</ele><time>2026-04-04T09:35:14.6Z</time></trkpt><trkpt lat="45.3465633" lon="10.9018467"><ele>42.0</ele><time>2026-04-04T09:35:15.6Z</time></trkpt><trkpt lat="45.34655" lon="10.90201"><ele>42.0</ele><time>2026-04-04T09:35:16.6Z</time></trkpt><trkpt lat="45.3465417" lon="10.9021917"><ele>42.0</ele><time>2026-04-04T09:35:17.6Z</time></trkpt><trkpt lat="45.3465217" lon="10.9023817"><ele>42.0</ele><time>2026-04-04T09:35:18.6Z</time></trkpt><trkpt lat="45.3465117" lon="10.9025733"><ele>42.0</ele><time>2026-04-04T09:35:19.6Z</time></trkpt><trkpt lat="45.3464883" lon="10.9027633"><ele>42.0</ele><time>2026-04-04T09:35:20.6Z</time></trkpt><trkpt lat="45.346465" lon="10.90294"><ele>42.0</ele><time>2026-04-04T09:35:21.6Z</time></trkpt><trkpt lat="45.3464533" lon="10.9030917"><ele>42.0</ele><time>2026-04-04T09:35:22.6Z</time></trkpt><trkpt lat="45.3464483" lon="10.9032467"><ele>42.0</ele><time>2026-04-04T09:35:23.6Z</time></trkpt><trkpt lat="45.3464317" lon="10.903405"><ele>42.0</ele><time>2026-04-04T09:35:24.6Z</time></trkpt><trkpt lat="45.3464367" lon="10.903565"><ele>42.0</ele><time>2026-04-04T09:35:25.6Z</time></trkpt><trkpt lat="45.3464483" lon="10.9037283"><ele>42.0</ele><time>2026-04-04T09:35:26.6Z</time></trkpt><trkpt lat="45.3464783" lon="10.9038817"><ele>42.0</ele><time>2026-04-04T09:35:27.601Z</time></trkpt><trkpt lat="45.3464917" lon="10.90404"><ele>42.0</ele><time>2026-04-04T09:35:28.601Z</time></trkpt><trkpt lat="45.3464917" lon="10.9041967"><ele>42.0</ele><time>2026-04-04T09:35:29.6Z</time></trkpt><trkpt lat="45.3464583" lon="10.904355"><ele>42.0</ele><time>2026-04-04T09:35:30.6Z</time></trkpt><trkpt lat="45.3463983" lon="10.904535"><ele>42.0</ele><time>2026-04-04T09:35:31.6Z</time></trkpt><trkpt lat="45.3463383" lon="10.9047283"><ele>42.0</ele><time>2026-04-04T09:35:32.6Z</time></trkpt><trkpt lat="45.34627" lon="10.9049433"><ele>42.0</ele><time>2026-04-04T09:35:33.6Z</time></trkpt><trkpt lat="45.3461967" lon="10.9051617"><ele>42.0</ele><time>2026-04-04T09:35:34.6Z</time></trkpt><trkpt lat="45.3461267" lon="10.9053883"><ele>42.0</ele><time>2026-04-04T09:35:35.6Z</time></trkpt><trkpt lat="45.3460617" lon="10.9056033"><ele>42.0</ele><time>2026-04-04T09:35:36.6Z</time></trkpt><trkpt lat="45.3460033" lon="10.9058017"><ele>42.0</ele><time>2026-04-04T09:35:37.6Z</time></trkpt><trkpt lat="45.3459517" lon="10.9059717"><ele>42.0</ele><time>2026-04-04T09:35:38.6Z</time></trkpt><trkpt lat="45.3459183" lon="10.9061183"><ele>42.0</ele><time>2026-04-04T09:35:39.6Z</time></trkpt><trkpt lat="45.345875" lon="10.906235"><ele>41.666666666666664</ele><time>2026-04-04T09:35:40.6Z</time></trkpt><trkpt lat="45.34584" lon="10.90633"><ele>41.333333333333336</ele><time>2026-04-04T09:35:41.6Z</time></trkpt><trkpt lat="45.3458133" lon="10.9064133"><ele>41.0</ele><time>2026-04-04T09:35:42.6Z</time></trkpt><trkpt lat="45.34584" lon="10.9065067"><ele>40.66666666666667</ele><time>2026-04-04T09:35:43.6Z</time></trkpt><trkpt lat="45.3458983" lon="10.9065817"><ele>40.333333333333336</ele><time>2026-04-04T09:35:44.6Z</time></trkpt><trkpt lat="45.3459867" lon="10.9066483"><ele>40.0</ele><time>2026-04-04T09:35:45.6Z</time></trkpt><trkpt lat="45.34608" lon="10.9066983"><ele>40.0</ele><time>2026-04-04T09:35:46.6Z</time></trkpt><trkpt lat="45.3461883" lon="10.9067367"><ele>40.0</ele><time>2026-04-04T09:35:47.6Z</time></trkpt><trkpt lat="45.34628" lon="10.906775"><ele>40.0</ele><time>2026-04-04T09:35:48.601Z</time></trkpt><trkpt lat="45.3463467" lon="10.9068083"><ele>40.0</ele><time>2026-04-04T09:35:49.6Z</time></trkpt><trkpt lat="45.3464517" lon="10.9068533"><ele>40.0</ele><time>2026-04-04T09:35:51.6Z</time></trkpt><trkpt lat="45.3465617" lon="10.906925"><ele>40.333333333333336</ele><time>2026-04-04T09:35:53.6Z</time></trkpt><trkpt lat="45.3466367" lon="10.9069917"><ele>40.66666666666667</ele><time>2026-04-04T09:35:55.6Z</time></trkpt><trkpt lat="45.346705" lon="10.9070383"><ele>41.0</ele><time>2026-04-04T09:35:57.6Z</time></trkpt><trkpt lat="45.346645" lon="10.906975"><ele>41.333333333333336</ele><time>2026-04-04T09:36:08.6Z</time></trkpt><trkpt lat="45.3465667" lon="10.90692"><ele>41.666666666666664</ele><time>2026-04-04T09:36:10.6Z</time></trkpt><trkpt lat="45.346495" lon="10.9068383"><ele>42.0</ele><time>2026-04-04T09:36:13.6Z</time></trkpt><trkpt lat="45.346525" lon="10.9069367"><ele>42.0</ele><time>2026-04-04T09:36:25.601Z</time></trkpt><trkpt lat="45.3465617" lon="10.9070167"><ele>42.0</ele><time>2026-04-04T09:36:26.6Z</time></trkpt><trkpt lat="45.346595" lon="10.90711"><ele>42.0</ele><time>2026-04-04T09:36:27.6Z</time></trkpt><trkpt lat="45.346625" lon="10.9072267"><ele>42.0</ele><time>2026-04-04T09:36:28.6Z</time></trkpt><trkpt lat="45.346645" lon="10.9073583"><ele>42.0</ele><time>2026-04-04T09:36:29.6Z</time></trkpt><trkpt lat="45.3466717" lon="10.907505"><ele>42.0</ele><time>2026-04-04T09:36:30.6Z</time></trkpt><trkpt lat="45.3467" lon="10.907655"><ele>41.75</ele><time>2026-04-04T09:36:31.6Z</time></trkpt><trkpt lat="45.3467333" lon="10.907815"><ele>41.5</ele><time>2026-04-04T09:36:32.6Z</time></trkpt><trkpt lat="45.3467733" lon="10.9079717"><ele>41.25</ele><time>2026-04-04T09:36:33.6Z</time></trkpt><trkpt lat="45.3468217" lon="10.908125"><ele>41.0</ele><time>2026-04-04T09:36:34.6Z</time></trkpt><trkpt lat="45.3468567" lon="10.9082767"><ele>41.199999999999996</ele><time>2026-04-04T09:36:35.6Z</time></trkpt><trkpt lat="45.3468933" lon="10.90842"><ele>41.4</ele><time>2026-04-04T09:36:36.6Z</time></trkpt><trkpt lat="45.3469267" lon="10.9085683"><ele>41.6</ele><time>2026-04-04T09:36:37.6Z</time></trkpt><trkpt lat="45.3469617" lon="10.9087217"><ele>41.8</ele><time>2026-04-04T09:36:38.6Z</time></trkpt><trkpt lat="45.3469933" lon="10.9088833"><ele>42.0</ele><time>2026-04-04T09:36:39.6Z</time></trkpt><trkpt lat="45.3470333" lon="10.9090583"><ele>42.0</ele><time>2026-04-04T09:36:40.6Z</time></trkpt><trkpt lat="45.3470767" lon="10.9092283"><ele>42.0</ele><time>2026-04-04T09:36:41.6Z</time></trkpt><trkpt lat="45.34712" lon="10.9094033"><ele>42.0</ele><time>2026-04-04T09:36:42.6Z</time></trkpt><trkpt lat="45.3471683" lon="10.9095717"><ele>42.0</ele><time>2026-04-04T09:36:43.6Z</time></trkpt><trkpt lat="45.3471983" lon="10.90973"><ele>42.2</ele><time>2026-04-04T09:36:44.6Z</time></trkpt><trkpt lat="45.3472417" lon="10.909865"><ele>42.400000000000006</ele><time>2026-04-04T09:36:45.6Z</time></trkpt><trkpt lat="45.3472783" lon="10.9099983"><ele>42.599999999999994</ele><time>2026-04-04T09:36:46.6Z</time></trkpt><trkpt lat="45.3473033" lon="10.910135"><ele>42.8</ele><time>2026-04-04T09:36:47.6Z</time></trkpt><trkpt lat="45.3473133" lon="10.9102767"><ele>43.0</ele><time>2026-04-04T09:36:48.6Z</time></trkpt><trkpt lat="45.347285" lon="10.9104083"><ele>43.0</ele><time>2026-04-04T09:36:49.6Z</time></trkpt><trkpt lat="45.3472483" lon="10.9105617"><ele>43.0</ele><time>2026-04-04T09:36:50.6Z</time></trkpt><trkpt lat="45.3472133" lon="10.91072"><ele>43.0</ele><time>2026-04-04T09:36:51.6Z</time></trkpt><trkpt lat="45.3471683" lon="10.910885"><ele>43.0</ele><time>2026-04-04T09:36:52.6Z</time></trkpt><trkpt lat="45.347125" lon="10.9110583"><ele>42.75</ele><time>2026-04-04T09:36:53.6Z</time></trkpt><trkpt lat="45.3470783" lon="10.911235"><ele>42.5</ele><time>2026-04-04T09:36:54.6Z</time></trkpt><trkpt lat="45.3470317" lon="10.9114083"><ele>42.25</ele><time>2026-04-04T09:36:55.6Z</time></trkpt><trkpt lat="45.34698" lon="10.9115883"><ele>42.0</ele><time>2026-04-04T09:36:56.6Z</time></trkpt><trkpt lat="45.3469417" lon="10.9117667"><ele>42.0</ele><time>2026-04-04T09:36:57.6Z</time></trkpt><trkpt lat="45.346895" lon="10.91195"><ele>42.0</ele><time>2026-04-04T09:36:58.6Z</time></trkpt><trkpt lat="45.3468567" lon="10.91213"><ele>42.0</ele><time>2026-04-04T09:36:59.6Z</time></trkpt><trkpt lat="45.3468233" lon="10.91231"><ele>42.0</ele><time>2026-04-04T09:37:00.6Z</time></trkpt><trkpt lat="45.3467817" lon="10.912475"><ele>42.0</ele><time>2026-04-04T09:37:01.6Z</time></trkpt><trkpt lat="45.34675" lon="10.9126267"><ele>42.0</ele><time>2026-04-04T09:37:02.6Z</time></trkpt><trkpt lat="45.3467117" lon="10.9127683"><ele>42.0</ele><time>2026-04-04T09:37:03.6Z</time></trkpt><trkpt lat="45.3466883" lon="10.912885"><ele>42.0</ele><time>2026-04-04T09:37:04.6Z</time></trkpt><trkpt lat="45.3466833" lon="10.9130133"><ele>42.0</ele><time>2026-04-04T09:37:05.6Z</time></trkpt><trkpt lat="45.3466867" lon="10.9131567"><ele>42.0</ele><time>2026-04-04T09:37:06.6Z</time></trkpt><trkpt lat="45.3467017" lon="10.9133017"><ele>42.0</ele><time>2026-04-04T09:37:07.6Z</time></trkpt><trkpt lat="45.3467367" lon="10.9134517"><ele>42.0</ele><time>2026-04-04T09:37:08.6Z</time></trkpt><trkpt lat="45.3467733" lon="10.9135917"><ele>42.0</ele><time>2026-04-04T09:37:09.6Z</time></trkpt><trkpt lat="45.3468033" lon="10.9137267"><ele>42.0</ele><time>2026-04-04T09:37:10.6Z</time></trkpt><trkpt lat="45.3468317" lon="10.9138383"><ele>42.0</ele><time>2026-04-04T09:37:11.6Z</time></trkpt><trkpt lat="45.3468617" lon="10.9139383"><ele>42.0</ele><time>2026-04-04T09:37:12.6Z</time></trkpt><trkpt lat="45.3468733" lon="10.9140317"><ele>42.0</ele><time>2026-04-04T09:37:13.6Z</time></trkpt><trkpt lat="45.3468933" lon="10.9141267"><ele>42.0</ele><time>2026-04-04T09:37:14.6Z</time></trkpt><trkpt lat="45.34691" lon="10.9142317"><ele>42.0</ele><time>2026-04-04T09:37:15.6Z</time></trkpt><trkpt lat="45.3469183" lon="10.9143317"><ele>42.0</ele><time>2026-04-04T09:37:16.6Z</time></trkpt><trkpt lat="45.3469217" lon="10.9144417"><ele>42.0</ele><time>2026-04-04T09:37:17.6Z</time></trkpt><trkpt lat="45.3469233" lon="10.9145633"><ele>42.0</ele><time>2026-04-04T09:37:18.6Z</time></trkpt><trkpt lat="45.3469217" lon="10.9146967"><ele>42.0</ele><time>2026-04-04T09:37:19.601Z</time></trkpt><trkpt lat="45.3469083" lon="10.9148333"><ele>42.0</ele><time>2026-04-04T09:37:20.6Z</time></trkpt><trkpt lat="45.3468983" lon="10.914975"><ele>42.0</ele><time>2026-04-04T09:37:21.6Z</time></trkpt><trkpt lat="45.3468883" lon="10.915115"><ele>42.0</ele><time>2026-04-04T09:37:22.6Z</time></trkpt><trkpt lat="45.346885" lon="10.91527"><ele>42.0</ele><time>2026-04-04T09:37:23.6Z</time></trkpt><trkpt lat="45.346875" lon="10.9154217"><ele>42.0</ele><time>2026-04-04T09:37:24.6Z</time></trkpt><trkpt lat="45.3468667" lon="10.9155733"><ele>42.0</ele><time>2026-04-04T09:37:25.6Z</time></trkpt><trkpt lat="45.3468517" lon="10.91573"><ele>42.0</ele><time>2026-04-04T09:37:26.6Z</time></trkpt><trkpt lat="45.3468483" lon="10.915895"><ele>42.0</ele><time>2026-04-04T09:37:27.6Z</time></trkpt><trkpt lat="45.3468317" lon="10.91606"><ele>42.0</ele><time>2026-04-04T09:37:28.6Z</time></trkpt><trkpt lat="45.3468233" lon="10.916225"><ele>42.0</ele><time>2026-04-04T09:37:29.6Z</time></trkpt><trkpt lat="45.34682" lon="10.916375"><ele>42.0</ele><time>2026-04-04T09:37:30.6Z</time></trkpt><trkpt lat="45.3468033" lon="10.9165267"><ele>42.0</ele><time>2026-04-04T09:37:31.6Z</time></trkpt><trkpt lat="45.3467817" lon="10.916665"><ele>42.0</ele><time>2026-04-04T09:37:32.6Z</time></trkpt><trkpt lat="45.3467533" lon="10.9168033"><ele>42.0</ele><time>2026-04-04T09:37:33.6Z</time></trkpt><trkpt lat="45.346725" lon="10.91694"><ele>42.0</ele><time>2026-04-04T09:37:34.6Z</time></trkpt><trkpt lat="45.3467033" lon="10.9170733"><ele>42.0</ele><time>2026-04-04T09:37:35.6Z</time></trkpt><trkpt lat="45.3466817" lon="10.9172167"><ele>42.0</ele><time>2026-04-04T09:37:36.6Z</time></trkpt><trkpt lat="45.34666" lon="10.9173567"><ele>42.0</ele><time>2026-04-04T09:37:37.6Z</time></trkpt><trkpt lat="45.3466483" lon="10.9174867"><ele>42.0</ele><time>2026-04-04T09:37:38.6Z</time></trkpt><trkpt lat="45.3466317" lon="10.9176167"><ele>42.0</ele><time>2026-04-04T09:37:39.6Z</time></trkpt><trkpt lat="45.3466233" lon="10.91774"><ele>42.0</ele><time>2026-04-04T09:37:40.6Z</time></trkpt><trkpt lat="45.34661" lon="10.9178483"><ele>42.0</ele><time>2026-04-04T09:37:41.6Z</time></trkpt><trkpt lat="45.3465917" lon="10.9179517"><ele>42.0</ele><time>2026-04-04T09:37:42.6Z</time></trkpt><trkpt lat="45.3465717" lon="10.9180417"><ele>42.0</ele><time>2026-04-04T09:37:43.6Z</time></trkpt><trkpt lat="45.3465483" lon="10.9181283"><ele>42.0</ele><time>2026-04-04T09:37:44.6Z</time></trkpt><trkpt lat="45.346525" lon="10.9182467"><ele>42.0</ele><time>2026-04-04T09:37:46.6Z</time></trkpt><trkpt lat="45.346565" lon="10.9183183"><ele>42.0</ele><time>2026-04-04T09:37:49.6Z</time></trkpt><trkpt lat="45.3465867" lon="10.9181583"><ele>42.0</ele><time>2026-04-04T09:37:52.6Z</time></trkpt><trkpt lat="45.3465833" lon="10.9180433"><ele>42.0</ele><time>2026-04-04T09:37:53.6Z</time></trkpt><trkpt lat="45.34659" lon="10.9179"><ele>42.0</ele><time>2026-04-04T09:37:54.6Z</time></trkpt><trkpt lat="45.3466017" lon="10.9177433"><ele>42.0</ele><time>2026-04-04T09:37:55.6Z</time></trkpt><trkpt lat="45.3466183" lon="10.9175817"><ele>42.0</ele><time>2026-04-04T09:37:56.6Z</time></trkpt><trkpt lat="45.34664" lon="10.9174117"><ele>42.0</ele><time>2026-04-04T09:37:57.6Z</time></trkpt><trkpt lat="45.3466633" lon="10.9172367"><ele>42.0</ele><time>2026-04-04T09:37:58.6Z</time></trkpt><trkpt lat="45.34669" lon="10.917065"><ele>42.0</ele><time>2026-04-04T09:37:59.6Z</time></trkpt><trkpt lat="45.3467117" lon="10.9169083"><ele>42.0</ele><time>2026-04-04T09:38:00.6Z</time></trkpt><trkpt lat="45.3467433" lon="10.9167517"><ele>42.0</ele><time>2026-04-04T09:38:01.6Z</time></trkpt><trkpt lat="45.346775" lon="10.9166067"><ele>42.0</ele><time>2026-04-04T09:38:02.6Z</time></trkpt><trkpt lat="45.34681" lon="10.9164433"><ele>42.0</ele><time>2026-04-04T09:38:03.6Z</time></trkpt><trkpt lat="45.3468233" lon="10.9162817"><ele>42.0</ele><time>2026-04-04T09:38:04.6Z</time></trkpt><trkpt lat="45.346825" lon="10.91612"><ele>42.0</ele><time>2026-04-04T09:38:05.6Z</time></trkpt><trkpt lat="45.3468233" lon="10.9159667"><ele>42.0</ele><time>2026-04-04T09:38:06.6Z</time></trkpt><trkpt lat="45.3468283" lon="10.9158117"><ele>42.0</ele><time>2026-04-04T09:38:07.6Z</time></trkpt><trkpt lat="45.346835" lon="10.915645"><ele>42.0</ele><time>2026-04-04T09:38:08.6Z</time></trkpt><trkpt lat="45.3468433" lon="10.9154767"><ele>42.0</ele><time>2026-04-04T09:38:09.6Z</time></trkpt><trkpt lat="45.3468467" lon="10.9153267"><ele>42.0</ele><time>2026-04-04T09:38:10.6Z</time></trkpt><trkpt lat="45.346855" lon="10.9151583"><ele>42.0</ele><time>2026-04-04T09:38:11.6Z</time></trkpt><trkpt lat="45.3468633" lon="10.9149983"><ele>41.8</ele><time>2026-04-04T09:38:12.6Z</time></trkpt><trkpt lat="45.34687" lon="10.9148333"><ele>41.6</ele><time>2026-04-04T09:38:13.6Z</time></trkpt><trkpt lat="45.3468767" lon="10.91467"><ele>41.4</ele><time>2026-04-04T09:38:14.6Z</time></trkpt><trkpt lat="45.346895" lon="10.9145233"><ele>41.199999999999996</ele><time>2026-04-04T09:38:15.6Z</time></trkpt><trkpt lat="45.3469083" lon="10.914385"><ele>41.0</ele><time>2026-04-04T09:38:16.6Z</time></trkpt><trkpt lat="45.3469067" lon="10.9142483"><ele>41.25</ele><time>2026-04-04T09:38:17.6Z</time></trkpt><trkpt lat="45.3468933" lon="10.9140933"><ele>41.5</ele><time>2026-04-04T09:38:18.6Z</time></trkpt><trkpt lat="45.3468617" lon="10.9139217"><ele>41.75</ele><time>2026-04-04T09:38:19.6Z</time></trkpt><trkpt lat="45.34682" lon="10.9137533"><ele>42.0</ele><time>2026-04-04T09:38:20.6Z</time></trkpt><trkpt lat="45.3467817" lon="10.9135733"><ele>42.0</ele><time>2026-04-04T09:38:21.6Z</time></trkpt><trkpt lat="45.3467467" lon="10.9134017"><ele>42.0</ele><time>2026-04-04T09:38:22.6Z</time></trkpt><trkpt lat="45.3467183" lon="10.9132567"><ele>42.0</ele><time>2026-04-04T09:38:23.6Z</time></trkpt><trkpt lat="45.3466983" lon="10.9131167"><ele>42.0</ele><time>2026-04-04T09:38:24.6Z</time></trkpt><trkpt lat="45.346685" lon="10.9129667"><ele>42.0</ele><time>2026-04-04T09:38:25.6Z</time></trkpt><trkpt lat="45.346685" lon="10.9128183"><ele>42.0</ele><time>2026-04-04T09:38:26.6Z</time></trkpt><trkpt lat="45.3467117" lon="10.9126667"><ele>42.0</ele><time>2026-04-04T09:38:27.6Z</time></trkpt><trkpt lat="45.34675" lon="10.91251"><ele>42.0</ele><time>2026-04-04T09:38:28.6Z</time></trkpt><trkpt lat="45.3468017" lon="10.9123433"><ele>42.0</ele><time>2026-04-04T09:38:29.6Z</time></trkpt><trkpt lat="45.3468483" lon="10.9121683"><ele>42.0</ele><time>2026-04-04T09:38:30.6Z</time></trkpt><trkpt lat="45.3468883" lon="10.9119817"><ele>42.0</ele><time>2026-04-04T09:38:31.6Z</time></trkpt><trkpt lat="45.34693" lon="10.9117983"><ele>42.0</ele><time>2026-04-04T09:38:32.6Z</time></trkpt><trkpt lat="45.3469667" lon="10.91161"><ele>42.0</ele><time>2026-04-04T09:38:33.6Z</time></trkpt><trkpt lat="45.347005" lon="10.9114183"><ele>42.0</ele><time>2026-04-04T09:38:34.6Z</time></trkpt><trkpt lat="45.3470567" lon="10.9112217"><ele>42.0</ele><time>2026-04-04T09:38:35.6Z</time></trkpt><trkpt lat="45.3471083" lon="10.911025"><ele>42.0</ele><time>2026-04-04T09:38:36.6Z</time></trkpt><trkpt lat="45.3471517" lon="10.9108333"><ele>42.0</ele><time>2026-04-04T09:38:37.6Z</time></trkpt><trkpt lat="45.3471883" lon="10.9106517"><ele>42.25</ele><time>2026-04-04T09:38:38.6Z</time></trkpt><trkpt lat="45.34723" lon="10.9104767"><ele>42.5</ele><time>2026-04-04T09:38:39.6Z</time></trkpt><trkpt lat="45.347265" lon="10.9103083"><ele>42.75</ele><time>2026-04-04T09:38:40.6Z</time></trkpt><trkpt lat="45.34729" lon="10.9101333"><ele>43.0</ele><time>2026-04-04T09:38:41.6Z</time></trkpt><trkpt lat="45.3472817" lon="10.9099767"><ele>43.0</ele><time>2026-04-04T09:38:42.6Z</time></trkpt><trkpt lat="45.3472483" lon="10.909805"><ele>43.0</ele><time>2026-04-04T09:38:43.6Z</time></trkpt><trkpt lat="45.3472017" lon="10.9096267"><ele>43.0</ele><time>2026-04-04T09:38:44.6Z</time></trkpt><trkpt lat="45.3471483" lon="10.9094367"><ele>43.0</ele><time>2026-04-04T09:38:45.6Z</time></trkpt><trkpt lat="45.3470967" lon="10.9092333"><ele>42.66666666666667</ele><time>2026-04-04T09:38:46.6Z</time></trkpt><trkpt lat="45.3470417" lon="10.9090267"><ele>42.333333333333336</ele><time>2026-04-04T09:38:47.6Z</time></trkpt><trkpt lat="45.3469883" lon="10.9088183"><ele>42.0</ele><time>2026-04-04T09:38:48.6Z</time></trkpt><trkpt lat="45.3469367" lon="10.9085917"><ele>41.666666666666664</ele><time>2026-04-04T09:38:49.6Z</time></trkpt><trkpt lat="45.34688" lon="10.9083833"><ele>41.33333333333333</ele><time>2026-04-04T09:38:50.6Z</time></trkpt><trkpt lat="45.34683" lon="10.9081733"><ele>41.0</ele><time>2026-04-04T09:38:51.6Z</time></trkpt><trkpt lat="45.3467833" lon="10.9079833"><ele>41.0</ele><time>2026-04-04T09:38:52.6Z</time></trkpt><trkpt lat="45.3467367" lon="10.9077933"><ele>41.0</ele><time>2026-04-04T09:38:53.601Z</time></trkpt><trkpt lat="45.3466883" lon="10.907615"><ele>41.0</ele><time>2026-04-04T09:38:54.6Z</time></trkpt><trkpt lat="45.34665" lon="10.90745"><ele>41.0</ele><time>2026-04-04T09:38:55.6Z</time></trkpt><trkpt lat="45.346615" lon="10.9072983"><ele>41.166666666666664</ele><time>2026-04-04T09:38:56.601Z</time></trkpt><trkpt lat="45.3465883" lon="10.907185"><ele>41.33333333333333</ele><time>2026-04-04T09:38:57.6Z</time></trkpt><trkpt lat="45.346565" lon="10.9070733"><ele>41.5</ele><time>2026-04-04T09:38:58.6Z</time></trkpt><trkpt lat="45.3465383" lon="10.9069883"><ele>41.666666666666664</ele><time>2026-04-04T09:38:59.6Z</time></trkpt><trkpt lat="45.3465067" lon="10.9068917"><ele>41.833333333333336</ele><time>2026-04-04T09:39:00.6Z</time></trkpt><trkpt lat="45.3464183" lon="10.9067933"><ele>42.0</ele><time>2026-04-04T09:39:02.6Z</time></trkpt><trkpt lat="45.3463267" lon="10.90679"><ele>42.0</ele><time>2026-04-04T09:39:04.6Z</time></trkpt><trkpt lat="45.346285" lon="10.906885"><ele>42.0</ele><time>2026-04-04T09:39:06.6Z</time></trkpt><trkpt lat="45.3463067" lon="10.9070033"><ele>42.0</ele><time>2026-04-04T09:39:08.6Z</time></trkpt><trkpt lat="45.3463917" lon="10.907165"><ele>42.0</ele><time>2026-04-04T09:39:10.6Z</time></trkpt><trkpt lat="45.346445" lon="10.907295"><ele>42.0</ele><time>2026-04-04T09:39:11.6Z</time></trkpt><trkpt lat="45.34649" lon="10.90745"><ele>41.75</ele><time>2026-04-04T09:39:12.6Z</time></trkpt><trkpt lat="45.3465267" lon="10.9076167"><ele>41.5</ele><time>2026-04-04T09:39:13.6Z</time></trkpt><trkpt lat="45.3465683" lon="10.9077933"><ele>41.25</ele><time>2026-04-04T09:39:14.599Z</time></trkpt><trkpt lat="45.3466133" lon="10.9079717"><ele>41.0</ele><time>2026-04-04T09:39:15.599Z</time></trkpt><trkpt lat="45.3466517" lon="10.90815"><ele>41.0</ele><time>2026-04-04T09:39:16.599Z</time></trkpt><trkpt lat="45.3466867" lon="10.9083167"><ele>41.0</ele><time>2026-04-04T09:39:17.599Z</time></trkpt><trkpt lat="45.3467183" lon="10.908495"><ele>41.0</ele><time>2026-04-04T09:39:18.599Z</time></trkpt><trkpt lat="45.346755" lon="10.9086717"><ele>41.0</ele><time>2026-04-04T09:39:19.599Z</time></trkpt><trkpt lat="45.346795" lon="10.9088483"><ele>41.25</ele><time>2026-04-04T09:39:20.599Z</time></trkpt><trkpt lat="45.3468383" lon="10.909025"><ele>41.5</ele><time>2026-04-04T09:39:21.599Z</time></trkpt><trkpt lat="45.3468767" lon="10.9092017"><ele>41.75</ele><time>2026-04-04T09:39:22.599Z</time></trkpt><trkpt lat="45.3469267" lon="10.909375"><ele>42.0</ele><time>2026-04-04T09:39:23.599Z</time></trkpt><trkpt lat="45.34698" lon="10.9095417"><ele>42.0</ele><time>2026-04-04T09:39:24.599Z</time></trkpt><trkpt lat="45.3470267" lon="10.909705"><ele>42.0</ele><time>2026-04-04T09:39:25.599Z</time></trkpt><trkpt lat="45.3470617" lon="10.9098583"><ele>42.0</ele><time>2026-04-04T09:39:26.599Z</time></trkpt><trkpt lat="45.3471017" lon="10.9100067"><ele>42.0</ele><time>2026-04-04T09:39:27.599Z</time></trkpt><trkpt lat="45.347125" lon="10.9101567"><ele>42.0</ele><time>2026-04-04T09:39:28.599Z</time></trkpt><trkpt lat="45.347125" lon="10.9103017"><ele>42.0</ele><time>2026-04-04T09:39:29.599Z</time></trkpt><trkpt lat="45.347095" lon="10.9104383"><ele>42.0</ele><time>2026-04-04T09:39:30.599Z</time></trkpt><trkpt lat="45.3470533" lon="10.9105783"><ele>42.0</ele><time>2026-04-04T09:39:31.599Z</time></trkpt><trkpt lat="45.34701" lon="10.9107233"><ele>42.0</ele><time>2026-04-04T09:39:32.599Z</time></trkpt><trkpt lat="45.346965" lon="10.9108733"><ele>42.0</ele><time>2026-04-04T09:39:33.599Z</time></trkpt><trkpt lat="45.346925" lon="10.91103"><ele>42.0</ele><time>2026-04-04T09:39:34.599Z</time></trkpt><trkpt lat="45.3468883" lon="10.9111833"><ele>42.0</ele><time>2026-04-04T09:39:35.599Z</time></trkpt><trkpt lat="45.3468583" lon="10.91134"><ele>42.0</ele><time>2026-04-04T09:39:36.599Z</time></trkpt><trkpt lat="45.346825" lon="10.9114967"><ele>42.0</ele><time>2026-04-04T09:39:37.599Z</time></trkpt><trkpt lat="45.3467917" lon="10.91165"><ele>42.0</ele><time>2026-04-04T09:39:38.6Z</time></trkpt><trkpt lat="45.346755" lon="10.9118"><ele>42.0</ele><time>2026-04-04T09:39:39.599Z</time></trkpt><trkpt lat="45.3467167" lon="10.91195"><ele>42.0</ele><time>2026-04-04T09:39:40.599Z</time></trkpt><trkpt lat="45.346685" lon="10.912095"><ele>42.0</ele><time>2026-04-04T09:39:41.599Z</time></trkpt><trkpt lat="45.346655" lon="10.912235"><ele>42.0</ele><time>2026-04-04T09:39:42.599Z</time></trkpt><trkpt lat="45.3466217" lon="10.9123833"><ele>42.0</ele><time>2026-04-04T09:39:43.599Z</time></trkpt><trkpt lat="45.3465933" lon="10.9125267"><ele>42.0</ele><time>2026-04-04T09:39:44.599Z</time></trkpt><trkpt lat="45.3465633" lon="10.91267"><ele>42.0</ele><time>2026-04-04T09:39:45.599Z</time></trkpt><trkpt lat="45.3465383" lon="10.9128083"><ele>42.0</ele><time>2026-04-04T09:39:46.599Z</time></trkpt><trkpt lat="45.3465233" lon="10.9129433"><ele>42.0</ele><time>2026-04-04T09:39:47.599Z</time></trkpt><trkpt lat="45.3465183" lon="10.9130833"><ele>42.0</ele><time>2026-04-04T09:39:48.599Z</time></trkpt><trkpt lat="45.3465283" lon="10.9132217"><ele>42.0</ele><time>2026-04-04T09:39:49.599Z</time></trkpt><trkpt lat="45.346555" lon="10.9133517"><ele>42.0</ele><time>2026-04-04T09:39:50.599Z</time></trkpt><trkpt lat="45.3465983" lon="10.913495"><ele>42.0</ele><time>2026-04-04T09:39:51.6Z</time></trkpt><trkpt lat="45.3466233" lon="10.91363"><ele>42.0</ele><time>2026-04-04T09:39:52.599Z</time></trkpt><trkpt lat="45.3466467" lon="10.9137667"><ele>42.0</ele><time>2026-04-04T09:39:53.599Z</time></trkpt><trkpt lat="45.3466717" lon="10.9139017"><ele>42.0</ele><time>2026-04-04T09:39:54.599Z</time></trkpt><trkpt lat="45.3466983" lon="10.9140367"><ele>42.0</ele><time>2026-04-04T09:39:55.599Z</time></trkpt><trkpt lat="45.34672" lon="10.9141717"><ele>42.0</ele><time>2026-04-04T09:39:56.599Z</time></trkpt><trkpt lat="45.3467317" lon="10.9143017"><ele>41.833333333333336</ele><time>2026-04-04T09:39:57.599Z</time></trkpt><trkpt lat="45.346735" lon="10.91442"><ele>41.666666666666664</ele><time>2026-04-04T09:39:58.599Z</time></trkpt><trkpt lat="45.3467317" lon="10.91453"><ele>41.5</ele><time>2026-04-04T09:39:59.599Z</time></trkpt><trkpt lat="45.346725" lon="10.9146417"><ele>41.33333333333333</ele><time>2026-04-04T09:40:00.599Z</time></trkpt><trkpt lat="45.3467217" lon="10.9147483"><ele>41.166666666666664</ele><time>2026-04-04T09:40:01.599Z</time></trkpt><trkpt lat="45.3467167" lon="10.91487"><ele>41.0</ele><time>2026-04-04T09:40:02.599Z</time></trkpt><trkpt lat="45.3467133" lon="10.915"><ele>41.199999999999996</ele><time>2026-04-04T09:40:03.599Z</time></trkpt><trkpt lat="45.3467067" lon="10.9151367"><ele>41.4</ele><time>2026-04-04T09:40:04.599Z</time></trkpt><trkpt lat="45.3466983" lon="10.9152783"><ele>41.6</ele><time>2026-04-04T09:40:05.599Z</time></trkpt><trkpt lat="45.34669" lon="10.9154333"><ele>41.8</ele><time>2026-04-04T09:40:06.599Z</time></trkpt><trkpt lat="45.3466817" lon="10.91559"><ele>42.0</ele><time>2026-04-04T09:40:07.599Z</time></trkpt><trkpt lat="45.346675" lon="10.9157517"><ele>42.0</ele><time>2026-04-04T09:40:08.599Z</time></trkpt><trkpt lat="45.3466717" lon="10.9159083"><ele>42.0</ele><time>2026-04-04T09:40:09.599Z</time></trkpt><trkpt lat="45.346665" lon="10.9160717"><ele>42.0</ele><time>2026-04-04T09:40:10.599Z</time></trkpt><trkpt lat="45.34665" lon="10.916235"><ele>42.0</ele><time>2026-04-04T09:40:11.599Z</time></trkpt><trkpt lat="45.3466383" lon="10.9164"><ele>42.0</ele><time>2026-04-04T09:40:12.599Z</time></trkpt><trkpt lat="45.34661" lon="10.9165567"><ele>42.0</ele><time>2026-04-04T09:40:13.6Z</time></trkpt><trkpt lat="45.3465883" lon="10.91671"><ele>42.0</ele><time>2026-04-04T09:40:14.599Z</time></trkpt><trkpt lat="45.346575" lon="10.9168567"><ele>42.0</ele><time>2026-04-04T09:40:15.599Z</time></trkpt><trkpt lat="45.3465517" lon="10.916985"><ele>42.0</ele><time>2026-04-04T09:40:16.6Z</time></trkpt><trkpt lat="45.34653" lon="10.9171033"><ele>42.0</ele><time>2026-04-04T09:40:17.599Z</time></trkpt><trkpt lat="45.3465067" lon="10.9172167"><ele>42.0</ele><time>2026-04-04T09:40:18.599Z</time></trkpt><trkpt lat="45.3464917" lon="10.91732"><ele>42.0</ele><time>2026-04-04T09:40:19.599Z</time></trkpt><trkpt lat="45.346475" lon="10.91742"><ele>42.0</ele><time>2026-04-04T09:40:20.599Z</time></trkpt><trkpt lat="45.3464583" lon="10.9175233"><ele>42.0</ele><time>2026-04-04T09:40:21.6Z</time></trkpt><trkpt lat="45.3464433" lon="10.917615"><ele>42.0</ele><time>2026-04-04T09:40:22.599Z</time></trkpt><trkpt lat="45.3464317" lon="10.9177067"><ele>42.0</ele><time>2026-04-04T09:40:23.599Z</time></trkpt><trkpt lat="45.3464083" lon="10.917875"><ele>42.0</ele><time>2026-04-04T09:40:25.6Z</time></trkpt><trkpt lat="45.3463967" lon="10.9179633"><ele>42.0</ele><time>2026-04-04T09:40:26.599Z</time></trkpt><trkpt lat="45.34639" lon="10.9180533"><ele>42.0</ele><time>2026-04-04T09:40:27.6Z</time></trkpt><trkpt lat="45.3463767" lon="10.918145"><ele>42.0</ele><time>2026-04-04T09:40:28.599Z</time></trkpt><trkpt lat="45.3463683" lon="10.9183067"><ele>42.0</ele><time>2026-04-04T09:40:30.599Z</time></trkpt><trkpt lat="45.3464" lon="10.9184767"><ele>42.0</ele><time>2026-04-04T09:40:32.599Z</time></trkpt><trkpt lat="45.3464033" lon="10.9186367"><ele>42.0</ele><time>2026-04-04T09:40:34.599Z</time></trkpt><trkpt lat="45.3464017" lon="10.9187783"><ele>42.0</ele><time>2026-04-04T09:40:36.599Z</time></trkpt><trkpt lat="45.3463867" lon="10.9188783"><ele>42.0</ele><time>2026-04-04T09:40:37.599Z</time></trkpt><trkpt lat="45.346325" lon="10.9190167"><ele>42.0</ele><time>2026-04-04T09:40:39.599Z</time></trkpt><trkpt lat="45.346245" lon="10.9191683"><ele>42.0</ele><time>2026-04-04T09:40:41.599Z</time></trkpt><trkpt lat="45.34621" lon="10.9192817"><ele>41.8</ele><time>2026-04-04T09:40:42.599Z</time></trkpt><trkpt lat="45.3461867" lon="10.9194183"><ele>41.6</ele><time>2026-04-04T09:40:43.599Z</time></trkpt><trkpt lat="45.3461667" lon="10.9195717"><ele>41.4</ele><time>2026-04-04T09:40:44.599Z</time></trkpt><trkpt lat="45.34615" lon="10.91973"><ele>41.199999999999996</ele><time>2026-04-04T09:40:45.599Z</time></trkpt><trkpt lat="45.3461217" lon="10.9198933"><ele>41.0</ele><time>2026-04-04T09:40:46.599Z</time></trkpt><trkpt lat="45.3460833" lon="10.9200683"><ele>41.0</ele><time>2026-04-04T09:40:47.6Z</time></trkpt><trkpt lat="45.3460517" lon="10.92025"><ele>41.0</ele><time>2026-04-04T09:40:48.599Z</time></trkpt><trkpt lat="45.3460183" lon="10.92044"><ele>41.0</ele><time>2026-04-04T09:40:49.599Z</time></trkpt><trkpt lat="45.3459917" lon="10.9206283"><ele>41.0</ele><time>2026-04-04T09:40:50.599Z</time></trkpt><trkpt lat="45.3459717" lon="10.9208117"><ele>40.75</ele><time>2026-04-04T09:40:51.599Z</time></trkpt><trkpt lat="45.345955" lon="10.921005"><ele>40.5</ele><time>2026-04-04T09:40:52.599Z</time></trkpt><trkpt lat="45.3459317" lon="10.9211967"><ele>40.25</ele><time>2026-04-04T09:40:53.599Z</time></trkpt><trkpt lat="45.3459" lon="10.9213917"><ele>40.0</ele><time>2026-04-04T09:40:54.599Z</time></trkpt><trkpt lat="45.3458733" lon="10.9215833"><ele>40.0</ele><time>2026-04-04T09:40:55.599Z</time></trkpt><trkpt lat="45.3458483" lon="10.9217633"><ele>40.0</ele><time>2026-04-04T09:40:56.599Z</time></trkpt><trkpt lat="45.3458183" lon="10.9219433"><ele>40.0</ele><time>2026-04-04T09:40:57.599Z</time></trkpt><trkpt lat="45.3457967" lon="10.9221183"><ele>40.0</ele><time>2026-04-04T09:40:58.599Z</time></trkpt><trkpt lat="45.3457683" lon="10.9223017"><ele>40.0</ele><time>2026-04-04T09:40:59.599Z</time></trkpt><trkpt lat="45.3457583" lon="10.9224833"><ele>40.0</ele><time>2026-04-04T09:41:00.597Z</time></trkpt><trkpt lat="45.3457433" lon="10.9226667"><ele>40.0</ele><time>2026-04-04T09:41:01.599Z</time></trkpt><trkpt lat="45.3457283" lon="10.9228467"><ele>40.0</ele><time>2026-04-04T09:41:02.599Z</time></trkpt><trkpt lat="45.3457" lon="10.92303"><ele>40.25</ele><time>2026-04-04T09:41:03.599Z</time></trkpt><trkpt lat="45.3456683" lon="10.9232067"><ele>40.5</ele><time>2026-04-04T09:41:04.6Z</time></trkpt><trkpt lat="45.3456333" lon="10.923385"><ele>40.75</ele><time>2026-04-04T09:41:05.599Z</time></trkpt><trkpt lat="45.3455967" lon="10.9235667"><ele>41.0</ele><time>2026-04-04T09:41:06.599Z</time></trkpt><trkpt lat="45.3455533" lon="10.923755"><ele>40.75</ele><time>2026-04-04T09:41:07.599Z</time></trkpt><trkpt lat="45.345515" lon="10.9239367"><ele>40.5</ele><time>2026-04-04T09:41:08.599Z</time></trkpt><trkpt lat="45.3454833" lon="10.9241117"><ele>40.25</ele><time>2026-04-04T09:41:09.599Z</time></trkpt><trkpt lat="45.3454533" lon="10.9242733"><ele>40.0</ele><time>2026-04-04T09:41:10.599Z</time></trkpt><trkpt lat="45.3454183" lon="10.9244317"><ele>40.0</ele><time>2026-04-04T09:41:11.599Z</time></trkpt><trkpt lat="45.34538" lon="10.9245917"><ele>40.0</ele><time>2026-04-04T09:41:12.599Z</time></trkpt><trkpt lat="45.3453417" lon="10.92473"><ele>40.0</ele><time>2026-04-04T09:41:13.6Z</time></trkpt><trkpt lat="45.34531" lon="10.9248633"><ele>40.0</ele><time>2026-04-04T09:41:14.599Z</time></trkpt><trkpt lat="45.3452783" lon="10.9249883"><ele>40.0</ele><time>2026-04-04T09:41:15.599Z</time></trkpt><trkpt lat="45.3452567" lon="10.925095"><ele>40.16666666666667</ele><time>2026-04-04T09:41:16.599Z</time></trkpt><trkpt lat="45.345235" lon="10.92519"><ele>40.333333333333336</ele><time>2026-04-04T09:41:17.599Z</time></trkpt><trkpt lat="45.34519" lon="10.92529"><ele>40.5</ele><time>2026-04-04T09:41:19.599Z</time></trkpt><trkpt lat="45.34512" lon="10.9252733"><ele>40.666666666666664</ele><time>2026-04-04T09:41:21.599Z</time></trkpt><trkpt lat="45.3450267" lon="10.925245"><ele>40.83333333333333</ele><time>2026-04-04T09:41:22.599Z</time></trkpt><trkpt lat="45.3449033" lon="10.9252"><ele>41.0</ele><time>2026-04-04T09:41:23.599Z</time></trkpt><trkpt lat="45.3447333" lon="10.9251317"><ele>40.0</ele><time>2026-04-04T09:41:24.599Z</time></trkpt><trkpt lat="45.34456" lon="10.9250833"><ele>39.0</ele><time>2026-04-04T09:41:25.599Z</time></trkpt><trkpt lat="45.3443783" lon="10.9250433"><ele>38.0</ele><time>2026-04-04T09:41:26.599Z</time></trkpt><trkpt lat="45.344205" lon="10.9249933"><ele>38.0</ele><time>2026-04-04T09:41:27.599Z</time></trkpt><trkpt lat="45.3440267" lon="10.924935"><ele>38.0</ele><time>2026-04-04T09:41:28.599Z</time></trkpt><trkpt lat="45.3438517" lon="10.9248783"><ele>38.0</ele><time>2026-04-04T09:41:29.599Z</time></trkpt><trkpt lat="45.3436717" lon="10.924825"><ele>38.666666666666664</ele><time>2026-04-04T09:41:30.599Z</time></trkpt><trkpt lat="45.343485" lon="10.9247817"><ele>39.333333333333336</ele><time>2026-04-04T09:41:31.599Z</time></trkpt><trkpt lat="45.3433083" lon="10.9247217"><ele>40.0</ele><time>2026-04-04T09:41:32.599Z</time></trkpt><trkpt lat="45.3431267" lon="10.92468"><ele>40.333333333333336</ele><time>2026-04-04T09:41:33.599Z</time></trkpt><trkpt lat="45.3429617" lon="10.9246183"><ele>40.666666666666664</ele><time>2026-04-04T09:41:34.599Z</time></trkpt><trkpt lat="45.34279" lon="10.924565"><ele>41.0</ele><time>2026-04-04T09:41:35.599Z</time></trkpt><trkpt lat="45.342615" lon="10.92451"><ele>41.0</ele><time>2026-04-04T09:41:36.599Z</time></trkpt><trkpt lat="45.3424517" lon="10.9244483"><ele>41.0</ele><time>2026-04-04T09:41:37.599Z</time></trkpt><trkpt lat="45.3422983" lon="10.924345"><ele>41.0</ele><time>2026-04-04T09:41:38.599Z</time></trkpt><trkpt lat="45.34216" lon="10.9242117"><ele>40.25</ele><time>2026-04-04T09:41:39.599Z</time></trkpt><trkpt lat="45.34204" lon="10.92408"><ele>39.5</ele><time>2026-04-04T09:41:40.599Z</time></trkpt><trkpt lat="45.3419183" lon="10.9239567"><ele>38.75</ele><time>2026-04-04T09:41:41.599Z</time></trkpt><trkpt lat="45.3417883" lon="10.9238617"><ele>38.0</ele><time>2026-04-04T09:41:42.599Z</time></trkpt><trkpt lat="45.341645" lon="10.92379"><ele>38.0</ele><time>2026-04-04T09:41:43.599Z</time></trkpt><trkpt lat="45.3414917" lon="10.923735"><ele>38.0</ele><time>2026-04-04T09:41:44.599Z</time></trkpt><trkpt lat="45.3413283" lon="10.92368"><ele>38.0</ele><time>2026-04-04T09:41:45.599Z</time></trkpt><trkpt lat="45.341165" lon="10.9236267"><ele>38.33333333333333</ele><time>2026-04-04T09:41:46.599Z</time></trkpt><trkpt lat="45.3410067" lon="10.92358"><ele>38.666666666666664</ele><time>2026-04-04T09:41:47.599Z</time></trkpt><trkpt lat="45.3408633" lon="10.9235267"><ele>39.0</ele><time>2026-04-04T09:41:48.599Z</time></trkpt><trkpt lat="45.3407217" lon="10.9234683"><ele>39.0</ele><time>2026-04-04T09:41:49.599Z</time></trkpt><trkpt lat="45.3405917" lon="10.923415"><ele>39.0</ele><time>2026-04-04T09:41:50.599Z</time></trkpt><trkpt lat="45.34047" lon="10.9233617"><ele>39.0</ele><time>2026-04-04T09:41:51.599Z</time></trkpt><trkpt lat="45.3403633" lon="10.9233017"><ele>39.0</ele><time>2026-04-04T09:41:52.599Z</time></trkpt><trkpt lat="45.340275" lon="10.9232133"><ele>39.5</ele><time>2026-04-04T09:41:53.599Z</time></trkpt><trkpt lat="45.3402017" lon="10.9231167"><ele>40.0</ele><time>2026-04-04T09:41:54.599Z</time></trkpt><trkpt lat="45.3401417" lon="10.92302"><ele>40.5</ele><time>2026-04-04T09:41:55.599Z</time></trkpt><trkpt lat="45.3401033" lon="10.9229317"><ele>41.0</ele><time>2026-04-04T09:41:56.599Z</time></trkpt><trkpt lat="45.3400633" lon="10.922825"><ele>41.5</ele><time>2026-04-04T09:41:58.599Z</time></trkpt><trkpt lat="45.3400517" lon="10.9227183"><ele>42.0</ele><time>2026-04-04T09:42:00.599Z</time></trkpt><trkpt lat="45.3400383" lon="10.922625"><ele>42.2</ele><time>2026-04-04T09:42:01.599Z</time></trkpt><trkpt lat="45.3400317" lon="10.9224917"><ele>42.400000000000006</ele><time>2026-04-04T09:42:02.599Z</time></trkpt><trkpt lat="45.340025" lon="10.9223217"><ele>42.599999999999994</ele><time>2026-04-04T09:42:03.599Z</time></trkpt><trkpt lat="45.34001" lon="10.922175"><ele>42.8</ele><time>2026-04-04T09:42:04.599Z</time></trkpt><trkpt lat="45.3399767" lon="10.9220417"><ele>43.0</ele><time>2026-04-04T09:42:05.599Z</time></trkpt><trkpt lat="45.33993" lon="10.921935"><ele>43.0</ele><time>2026-04-04T09:42:06.599Z</time></trkpt><trkpt lat="45.33987" lon="10.9218483"><ele>43.0</ele><time>2026-04-04T09:42:07.599Z</time></trkpt><trkpt lat="45.3397933" lon="10.92179"><ele>43.0</ele><time>2026-04-04T09:42:08.599Z</time></trkpt><trkpt lat="45.3396883" lon="10.9217483"><ele>43.0</ele><time>2026-04-04T09:42:09.599Z</time></trkpt><trkpt lat="45.3395667" lon="10.9217383"><ele>43.0</ele><time>2026-04-04T09:42:10.599Z</time></trkpt><trkpt lat="45.3394267" lon="10.921755"><ele>44.0</ele><time>2026-04-04T09:42:11.599Z</time></trkpt><trkpt lat="45.3392733" lon="10.9217717"><ele>45.0</ele><time>2026-04-04T09:42:12.599Z</time></trkpt><trkpt lat="45.3391133" lon="10.9217767"><ele>46.0</ele><time>2026-04-04T09:42:13.599Z</time></trkpt><trkpt lat="45.3389567" lon="10.9217833"><ele>45.5</ele><time>2026-04-04T09:42:14.599Z</time></trkpt><trkpt lat="45.3388217" lon="10.92178"><ele>45.0</ele><time>2026-04-04T09:42:15.599Z</time></trkpt><trkpt lat="45.3387167" lon="10.92176"><ele>44.5</ele><time>2026-04-04T09:42:16.599Z</time></trkpt><trkpt lat="45.338595" lon="10.9217567"><ele>44.0</ele><time>2026-04-04T09:42:17.599Z</time></trkpt><trkpt lat="45.338485" lon="10.921765"><ele>44.0</ele><time>2026-04-04T09:42:18.599Z</time></trkpt><trkpt lat="45.3383783" lon="10.92177"><ele>44.0</ele><time>2026-04-04T09:42:19.599Z</time></trkpt><trkpt lat="45.33827" lon="10.9217617"><ele>44.0</ele><time>2026-04-04T09:42:20.599Z</time></trkpt><trkpt lat="45.3381633" lon="10.921755"><ele>44.0</ele><time>2026-04-04T09:42:21.599Z</time></trkpt><trkpt lat="45.338065" lon="10.9217317"><ele>44.0</ele><time>2026-04-04T09:42:22.599Z</time></trkpt><trkpt lat="45.3379767" lon="10.921705"><ele>43.6</ele><time>2026-04-04T09:42:23.599Z</time></trkpt><trkpt lat="45.3378383" lon="10.9216417"><ele>43.2</ele><time>2026-04-04T09:42:25.599Z</time></trkpt><trkpt lat="45.3377617" lon="10.9216367"><ele>42.800000000000004</ele><time>2026-04-04T09:42:27.599Z</time></trkpt><trkpt lat="45.3376933" lon="10.9217167"><ele>42.400000000000006</ele><time>2026-04-04T09:42:29.599Z</time></trkpt><trkpt lat="45.3376467" lon="10.9218183"><ele>42.0</ele><time>2026-04-04T09:42:30.599Z</time></trkpt><trkpt lat="45.3375867" lon="10.9219533"><ele>42.0</ele><time>2026-04-04T09:42:31.599Z</time></trkpt><trkpt lat="45.3375133" lon="10.9221167"><ele>42.0</ele><time>2026-04-04T09:42:32.599Z</time></trkpt><trkpt lat="45.33744" lon="10.9222917"><ele>42.0</ele><time>2026-04-04T09:42:33.599Z</time></trkpt><trkpt lat="45.3373517" lon="10.92247"><ele>42.0</ele><time>2026-04-04T09:42:34.599Z</time></trkpt><trkpt lat="45.337265" lon="10.922635"><ele>41.8</ele><time>2026-04-04T09:42:35.6Z</time></trkpt><trkpt lat="45.337195" lon="10.9227667"><ele>41.6</ele><time>2026-04-04T09:42:36.599Z</time></trkpt><trkpt lat="45.3371317" lon="10.922875"><ele>41.4</ele><time>2026-04-04T09:42:37.599Z</time></trkpt><trkpt lat="45.3370517" lon="10.92296"><ele>41.199999999999996</ele><time>2026-04-04T09:42:38.599Z</time></trkpt><trkpt lat="45.336975" lon="10.9230267"><ele>41.0</ele><time>2026-04-04T09:42:39.599Z</time></trkpt><trkpt lat="45.336895" lon="10.9230767"><ele>41.0</ele><time>2026-04-04T09:42:40.599Z</time></trkpt><trkpt lat="45.3368117" lon="10.9231217"><ele>41.0</ele><time>2026-04-04T09:42:41.6Z</time></trkpt><trkpt lat="45.336725" lon="10.9231483"><ele>41.0</ele><time>2026-04-04T09:42:42.599Z</time></trkpt><trkpt lat="45.3366317" lon="10.9231533"><ele>41.0</ele><time>2026-04-04T09:42:43.599Z</time></trkpt><trkpt lat="45.3365217" lon="10.9231517"><ele>41.0</ele><time>2026-04-04T09:42:44.599Z</time></trkpt><trkpt lat="45.3364033" lon="10.9231333"><ele>40.75</ele><time>2026-04-04T09:42:45.599Z</time></trkpt><trkpt lat="45.3362983" lon="10.9231017"><ele>40.5</ele><time>2026-04-04T09:42:46.599Z</time></trkpt><trkpt lat="45.3361867" lon="10.9230583"><ele>40.25</ele><time>2026-04-04T09:42:47.599Z</time></trkpt><trkpt lat="45.3360767" lon="10.923"><ele>40.0</ele><time>2026-04-04T09:42:48.599Z</time></trkpt><trkpt lat="45.3359633" lon="10.92292"><ele>40.0</ele><time>2026-04-04T09:42:49.599Z</time></trkpt><trkpt lat="45.3358633" lon="10.9228283"><ele>40.0</ele><time>2026-04-04T09:42:50.599Z</time></trkpt><trkpt lat="45.3357633" lon="10.9227167"><ele>40.0</ele><time>2026-04-04T09:42:51.599Z</time></trkpt><trkpt lat="45.3356483" lon="10.9226067"><ele>40.0</ele><time>2026-04-04T09:42:52.599Z</time></trkpt><trkpt lat="45.33553" lon="10.922485"><ele>40.25</ele><time>2026-04-04T09:42:53.599Z</time></trkpt><trkpt lat="45.3354167" lon="10.9223617"><ele>40.5</ele><time>2026-04-04T09:42:54.599Z</time></trkpt><trkpt lat="45.3352967" lon="10.92225"><ele>40.75</ele><time>2026-04-04T09:42:55.599Z</time></trkpt><trkpt lat="45.33519" lon="10.9221217"><ele>41.0</ele><time>2026-04-04T09:42:56.599Z</time></trkpt><trkpt lat="45.3350867" lon="10.9219983"><ele>41.0</ele><time>2026-04-04T09:42:57.599Z</time></trkpt><trkpt lat="45.334975" lon="10.9218817"><ele>41.0</ele><time>2026-04-04T09:42:58.599Z</time></trkpt><trkpt lat="45.3348467" lon="10.9217633"><ele>41.0</ele><time>2026-04-04T09:42:59.599Z</time></trkpt><trkpt lat="45.3347317" lon="10.921635"><ele>41.0</ele><time>2026-04-04T09:43:00.599Z</time></trkpt><trkpt lat="45.3346067" lon="10.9215167"><ele>40.75</ele><time>2026-04-04T09:43:01.599Z</time></trkpt><trkpt lat="45.33448" lon="10.9213967"><ele>40.5</ele><time>2026-04-04T09:43:02.599Z</time></trkpt><trkpt lat="45.3343583" lon="10.92129"><ele>40.25</ele><time>2026-04-04T09:43:03.599Z</time></trkpt><trkpt lat="45.3342383" lon="10.9211817"><ele>40.0</ele><time>2026-04-04T09:43:04.599Z</time></trkpt><trkpt lat="45.3341367" lon="10.92109"><ele>40.0</ele><time>2026-04-04T09:43:05.599Z</time></trkpt><trkpt lat="45.33404" lon="10.9209983"><ele>40.0</ele><time>2026-04-04T09:43:06.599Z</time></trkpt><trkpt lat="45.3339417" lon="10.9209167"><ele>40.0</ele><time>2026-04-04T09:43:07.599Z</time></trkpt><trkpt lat="45.3338483" lon="10.92082"><ele>40.0</ele><time>2026-04-04T09:43:08.599Z</time></trkpt><trkpt lat="45.33377" lon="10.9207233"><ele>40.0</ele><time>2026-04-04T09:43:09.599Z</time></trkpt><trkpt lat="45.3337167" lon="10.9206133"><ele>39.6</ele><time>2026-04-04T09:43:10.599Z</time></trkpt><trkpt lat="45.3336767" lon="10.9204783"><ele>39.2</ele><time>2026-04-04T09:43:11.599Z</time></trkpt><trkpt lat="45.3336567" lon="10.92036"><ele>38.8</ele><time>2026-04-04T09:43:12.599Z</time></trkpt><trkpt lat="45.3336483" lon="10.92025"><ele>38.4</ele><time>2026-04-04T09:43:13.599Z</time></trkpt><trkpt lat="45.3336267" lon="10.9200983"><ele>38.0</ele><time>2026-04-04T09:43:15.599Z</time></trkpt><trkpt lat="45.3335683" lon="10.9200317"><ele>37.8</ele><time>2026-04-04T09:43:17.599Z</time></trkpt><trkpt lat="45.3334633" lon="10.9200217"><ele>37.599999999999994</ele><time>2026-04-04T09:43:19.599Z</time></trkpt><trkpt lat="45.3333833" lon="10.9200167"><ele>37.400000000000006</ele><time>2026-04-04T09:43:20.599Z</time></trkpt><trkpt lat="45.33328" lon="10.9200133"><ele>37.2</ele><time>2026-04-04T09:43:21.599Z</time></trkpt><trkpt lat="45.333135" lon="10.9200083"><ele>37.0</ele><time>2026-04-04T09:43:22.599Z</time></trkpt><trkpt lat="45.33298" lon="10.9200067"><ele>37.0</ele><time>2026-04-04T09:43:23.599Z</time></trkpt><trkpt lat="45.3328083" lon="10.920015"><ele>37.0</ele><time>2026-04-04T09:43:24.599Z</time></trkpt><trkpt lat="45.3326483" lon="10.9200133"><ele>37.0</ele><time>2026-04-04T09:43:25.599Z</time></trkpt><trkpt lat="45.3324933" lon="10.9200133"><ele>37.0</ele><time>2026-04-04T09:43:26.599Z</time></trkpt><trkpt lat="45.332345" lon="10.92"><ele>37.0</ele><time>2026-04-04T09:43:27.599Z</time></trkpt><trkpt lat="45.3322033" lon="10.9199433"><ele>37.0</ele><time>2026-04-04T09:43:28.599Z</time></trkpt><trkpt lat="45.3320683" lon="10.9198667"><ele>37.0</ele><time>2026-04-04T09:43:29.599Z</time></trkpt><trkpt lat="45.3319383" lon="10.9197783"><ele>37.0</ele><time>2026-04-04T09:43:30.599Z</time></trkpt><trkpt lat="45.3318283" lon="10.9196917"><ele>37.0</ele><time>2026-04-04T09:43:31.599Z</time></trkpt><trkpt lat="45.3317167" lon="10.9196083"><ele>37.0</ele><time>2026-04-04T09:43:32.599Z</time></trkpt><trkpt lat="45.3315883" lon="10.91956"><ele>37.0</ele><time>2026-04-04T09:43:33.599Z</time></trkpt><trkpt lat="45.331445" lon="10.9195367"><ele>37.0</ele><time>2026-04-04T09:43:34.599Z</time></trkpt><trkpt lat="45.3313" lon="10.91954"><ele>37.0</ele><time>2026-04-04T09:43:35.599Z</time></trkpt><trkpt lat="45.3311633" lon="10.9195633"><ele>37.0</ele><time>2026-04-04T09:43:36.599Z</time></trkpt><trkpt lat="45.3310183" lon="10.919625"><ele>37.0</ele><time>2026-04-04T09:43:37.599Z</time></trkpt><trkpt lat="45.3308867" lon="10.9197167"><ele>37.0</ele><time>2026-04-04T09:43:38.599Z</time></trkpt><trkpt lat="45.330765" lon="10.91983"><ele>37.0</ele><time>2026-04-04T09:43:39.599Z</time></trkpt><trkpt lat="45.330655" lon="10.91997"><ele>37.0</ele><time>2026-04-04T09:43:40.599Z</time></trkpt><trkpt lat="45.3305533" lon="10.920125"><ele>37.0</ele><time>2026-04-04T09:43:41.599Z</time></trkpt><trkpt lat="45.3304433" lon="10.920295"><ele>36.66666666666667</ele><time>2026-04-04T09:43:42.599Z</time></trkpt><trkpt lat="45.33034" lon="10.9204733"><ele>36.333333333333336</ele><time>2026-04-04T09:43:43.599Z</time></trkpt><trkpt lat="45.3302367" lon="10.9206433"><ele>36.0</ele><time>2026-04-04T09:43:44.599Z</time></trkpt><trkpt lat="45.33012" lon="10.9208117"><ele>36.333333333333336</ele><time>2026-04-04T09:43:45.599Z</time></trkpt><trkpt lat="45.3300017" lon="10.9209833"><ele>36.66666666666667</ele><time>2026-04-04T09:43:46.599Z</time></trkpt><trkpt lat="45.32988" lon="10.9211683"><ele>37.0</ele><time>2026-04-04T09:43:47.599Z</time></trkpt><trkpt lat="45.3297617" lon="10.9213733"><ele>37.0</ele><time>2026-04-04T09:43:48.599Z</time></trkpt><trkpt lat="45.3296583" lon="10.92158"><ele>37.0</ele><time>2026-04-04T09:43:49.599Z</time></trkpt><trkpt lat="45.3295633" lon="10.9217917"><ele>37.0</ele><time>2026-04-04T09:43:50.599Z</time></trkpt><trkpt lat="45.3294817" lon="10.9219917"><ele>37.0</ele><time>2026-04-04T09:43:51.599Z</time></trkpt><trkpt lat="45.329395" lon="10.9222017"><ele>37.0</ele><time>2026-04-04T09:43:52.599Z</time></trkpt><trkpt lat="45.32931" lon="10.9224017"><ele>37.0</ele><time>2026-04-04T09:43:53.599Z</time></trkpt><trkpt lat="45.329225" lon="10.9226017"><ele>36.66666666666667</ele><time>2026-04-04T09:43:54.599Z</time></trkpt><trkpt lat="45.3291433" lon="10.9227983"><ele>36.333333333333336</ele><time>2026-04-04T09:43:55.599Z</time></trkpt><trkpt lat="45.329055" lon="10.923005"><ele>36.0</ele><time>2026-04-04T09:43:56.599Z</time></trkpt><trkpt lat="45.3289733" lon="10.9232033"><ele>35.666666666666664</ele><time>2026-04-04T09:43:57.599Z</time></trkpt><trkpt lat="45.3288817" lon="10.9234083"><ele>35.33333333333333</ele><time>2026-04-04T09:43:58.599Z</time></trkpt><trkpt lat="45.3287883" lon="10.9236167"><ele>35.0</ele><time>2026-04-04T09:43:59.599Z</time></trkpt><trkpt lat="45.3287017" lon="10.9238167"><ele>35.0</ele><time>2026-04-04T09:44:00.599Z</time></trkpt><trkpt lat="45.3286183" lon="10.92401"><ele>35.0</ele><time>2026-04-04T09:44:01.6Z</time></trkpt><trkpt lat="45.3285267" lon="10.9242133"><ele>35.0</ele><time>2026-04-04T09:44:02.599Z</time></trkpt><trkpt lat="45.3284367" lon="10.924415"><ele>35.33333333333333</ele><time>2026-04-04T09:44:03.599Z</time></trkpt><trkpt lat="45.328345" lon="10.924615"><ele>35.666666666666664</ele><time>2026-04-04T09:44:04.6Z</time></trkpt><trkpt lat="45.328255" lon="10.9248033"><ele>36.0</ele><time>2026-04-04T09:44:05.599Z</time></trkpt><trkpt lat="45.3281517" lon="10.9249867"><ele>35.666666666666664</ele><time>2026-04-04T09:44:06.599Z</time></trkpt><trkpt lat="45.3280333" lon="10.9251483"><ele>35.33333333333333</ele><time>2026-04-04T09:44:07.599Z</time></trkpt><trkpt lat="45.3278967" lon="10.925295"><ele>35.0</ele><time>2026-04-04T09:44:08.599Z</time></trkpt><trkpt lat="45.3277567" lon="10.92543"><ele>35.0</ele><time>2026-04-04T09:44:09.599Z</time></trkpt><trkpt lat="45.3276217" lon="10.9255533"><ele>35.0</ele><time>2026-04-04T09:44:10.599Z</time></trkpt><trkpt lat="45.327485" lon="10.9256733"><ele>35.0</ele><time>2026-04-04T09:44:11.599Z</time></trkpt><trkpt lat="45.3273583" lon="10.925775"><ele>35.0</ele><time>2026-04-04T09:44:12.599Z</time></trkpt><trkpt lat="45.327235" lon="10.9258633"><ele>35.0</ele><time>2026-04-04T09:44:13.599Z</time></trkpt><trkpt lat="45.32712" lon="10.9259433"><ele>35.0</ele><time>2026-04-04T09:44:14.599Z</time></trkpt><trkpt lat="45.3270233" lon="10.9260217"><ele>35.0</ele><time>2026-04-04T09:44:15.599Z</time></trkpt><trkpt lat="45.3269267" lon="10.926065"><ele>35.0</ele><time>2026-04-04T09:44:16.599Z</time></trkpt><trkpt lat="45.326835" lon="10.926075"><ele>35.0</ele><time>2026-04-04T09:44:17.6Z</time></trkpt><trkpt lat="45.3267517" lon="10.926055"><ele>35.0</ele><time>2026-04-04T09:44:18.599Z</time></trkpt><trkpt lat="45.32666" lon="10.9260083"><ele>35.0</ele><time>2026-04-04T09:44:19.599Z</time></trkpt><trkpt lat="45.3265767" lon="10.92595"><ele>35.0</ele><time>2026-04-04T09:44:20.599Z</time></trkpt><trkpt lat="45.32648" lon="10.9259017"><ele>35.6</ele><time>2026-04-04T09:44:21.599Z</time></trkpt><trkpt lat="45.32638" lon="10.9258967"><ele>36.2</ele><time>2026-04-04T09:44:22.599Z</time></trkpt><trkpt lat="45.3262817" lon="10.9259417"><ele>36.8</ele><time>2026-04-04T09:44:23.599Z</time></trkpt><trkpt lat="45.3261917" lon="10.9260217"><ele>37.4</ele><time>2026-04-04T09:44:24.599Z</time></trkpt><trkpt lat="45.3261333" lon="10.9261367"><ele>38.0</ele><time>2026-04-04T09:44:25.599Z</time></trkpt><trkpt lat="45.3261167" lon="10.9262817"><ele>38.0</ele><time>2026-04-04T09:44:26.599Z</time></trkpt><trkpt lat="45.3261333" lon="10.9264267"><ele>38.0</ele><time>2026-04-04T09:44:27.599Z</time></trkpt><trkpt lat="45.3261783" lon="10.9265667"><ele>38.0</ele><time>2026-04-04T09:44:28.599Z</time></trkpt><trkpt lat="45.326235" lon="10.926695"><ele>38.0</ele><time>2026-04-04T09:44:29.599Z</time></trkpt><trkpt lat="45.326295" lon="10.92683"><ele>38.0</ele><time>2026-04-04T09:44:30.599Z</time></trkpt><trkpt lat="45.32634" lon="10.9269867"><ele>37.5</ele><time>2026-04-04T09:44:31.599Z</time></trkpt><trkpt lat="45.3263567" lon="10.9271483"><ele>37.0</ele><time>2026-04-04T09:44:32.599Z</time></trkpt><trkpt lat="45.3263567" lon="10.9273083"><ele>36.5</ele><time>2026-04-04T09:44:33.599Z</time></trkpt><trkpt lat="45.3263467" lon="10.9274833"><ele>36.0</ele><time>2026-04-04T09:44:34.599Z</time></trkpt><trkpt lat="45.3263317" lon="10.9276667"><ele>36.0</ele><time>2026-04-04T09:44:35.599Z</time></trkpt><trkpt lat="45.32631" lon="10.9278667"><ele>36.0</ele><time>2026-04-04T09:44:36.599Z</time></trkpt><trkpt lat="45.3263017" lon="10.9280617"><ele>36.0</ele><time>2026-04-04T09:44:37.599Z</time></trkpt><trkpt lat="45.326285" lon="10.9282517"><ele>36.0</ele><time>2026-04-04T09:44:38.599Z</time></trkpt><trkpt lat="45.3262667" lon="10.9284533"><ele>36.0</ele><time>2026-04-04T09:44:39.599Z</time></trkpt><trkpt lat="45.32625" lon="10.9286633"><ele>36.0</ele><time>2026-04-04T09:44:40.599Z</time></trkpt><trkpt lat="45.326235" lon="10.9288733"><ele>36.0</ele><time>2026-04-04T09:44:41.599Z</time></trkpt><trkpt lat="45.3262133" lon="10.9290833"><ele>36.0</ele><time>2026-04-04T09:44:42.599Z</time></trkpt><trkpt lat="45.3261933" lon="10.92929"><ele>36.333333333333336</ele><time>2026-04-04T09:44:43.599Z</time></trkpt><trkpt lat="45.3261733" lon="10.9295"><ele>36.66666666666667</ele><time>2026-04-04T09:44:44.599Z</time></trkpt><trkpt lat="45.3261517" lon="10.9297217"><ele>37.0</ele><time>2026-04-04T09:44:45.599Z</time></trkpt><trkpt lat="45.3261367" lon="10.9299317"><ele>36.66666666666667</ele><time>2026-04-04T09:44:46.599Z</time></trkpt><trkpt lat="45.3261" lon="10.930145"><ele>36.333333333333336</ele><time>2026-04-04T09:44:47.599Z</time></trkpt><trkpt lat="45.3260483" lon="10.9303533"><ele>36.0</ele><time>2026-04-04T09:44:48.599Z</time></trkpt><trkpt lat="45.32598" lon="10.9305583"><ele>36.0</ele><time>2026-04-04T09:44:49.599Z</time></trkpt><trkpt lat="45.3259083" lon="10.9307617"><ele>36.0</ele><time>2026-04-04T09:44:50.599Z</time></trkpt><trkpt lat="45.32583" lon="10.930965"><ele>36.0</ele><time>2026-04-04T09:44:51.599Z</time></trkpt><trkpt lat="45.3257483" lon="10.9311583"><ele>36.0</ele><time>2026-04-04T09:44:52.599Z</time></trkpt><trkpt lat="45.32567" lon="10.9313383"><ele>36.0</ele><time>2026-04-04T09:44:53.599Z</time></trkpt><trkpt lat="45.3255783" lon="10.9315033"><ele>36.0</ele><time>2026-04-04T09:44:54.599Z</time></trkpt><trkpt lat="45.3254733" lon="10.9316683"><ele>35.666666666666664</ele><time>2026-04-04T09:44:55.599Z</time></trkpt><trkpt lat="45.3253533" lon="10.9318333"><ele>35.33333333333333</ele><time>2026-04-04T09:44:56.599Z</time></trkpt><trkpt lat="45.3252283" lon="10.9319967"><ele>35.0</ele><time>2026-04-04T09:44:57.599Z</time></trkpt><trkpt lat="45.325115" lon="10.93216"><ele>35.0</ele><time>2026-04-04T09:44:58.599Z</time></trkpt><trkpt lat="45.3250067" lon="10.9323183"><ele>35.0</ele><time>2026-04-04T09:44:59.599Z</time></trkpt><trkpt lat="45.3249033" lon="10.9324783"><ele>35.0</ele><time>2026-04-04T09:45:00.599Z</time></trkpt><trkpt lat="45.32479" lon="10.932635"><ele>36.0</ele><time>2026-04-04T09:45:01.599Z</time></trkpt><trkpt lat="45.32468" lon="10.9328033"><ele>37.0</ele><time>2026-04-04T09:45:02.599Z</time></trkpt><trkpt lat="45.32457" lon="10.9329617"><ele>38.0</ele><time>2026-04-04T09:45:03.599Z</time></trkpt><trkpt lat="45.32446" lon="10.933125"><ele>38.0</ele><time>2026-04-04T09:45:04.599Z</time></trkpt><trkpt lat="45.3243533" lon="10.93329"><ele>38.0</ele><time>2026-04-04T09:45:05.599Z</time></trkpt><trkpt lat="45.3242433" lon="10.93346"><ele>38.0</ele><time>2026-04-04T09:45:06.599Z</time></trkpt><trkpt lat="45.3241367" lon="10.9336217"><ele>37.33333333333333</ele><time>2026-04-04T09:45:07.599Z</time></trkpt><trkpt lat="45.324025" lon="10.9337917"><ele>36.666666666666664</ele><time>2026-04-04T09:45:08.6Z</time></trkpt><trkpt lat="45.323915" lon="10.9339533"><ele>36.0</ele><time>2026-04-04T09:45:09.599Z</time></trkpt><trkpt lat="45.323805" lon="10.9341183"><ele>35.666666666666664</ele><time>2026-04-04T09:45:10.599Z</time></trkpt><trkpt lat="45.3236917" lon="10.9342767"><ele>35.33333333333333</ele><time>2026-04-04T09:45:11.599Z</time></trkpt><trkpt lat="45.323575" lon="10.93443"><ele>35.0</ele><time>2026-04-04T09:45:12.599Z</time></trkpt><trkpt lat="45.3234583" lon="10.934575"><ele>35.0</ele><time>2026-04-04T09:45:13.599Z</time></trkpt><trkpt lat="45.323345" lon="10.934715"><ele>35.0</ele><time>2026-04-04T09:45:14.599Z</time></trkpt><trkpt lat="45.3232317" lon="10.934855"><ele>35.0</ele><time>2026-04-04T09:45:15.599Z</time></trkpt><trkpt lat="45.323125" lon="10.9350033"><ele>35.0</ele><time>2026-04-04T09:45:16.599Z</time></trkpt><trkpt lat="45.3230217" lon="10.9351417"><ele>34.5</ele><time>2026-04-04T09:45:17.599Z</time></trkpt><trkpt lat="45.3229117" lon="10.9352733"><ele>34.0</ele><time>2026-04-04T09:45:18.599Z</time></trkpt><trkpt lat="45.3227983" lon="10.9354067"><ele>33.5</ele><time>2026-04-04T09:45:19.599Z</time></trkpt><trkpt lat="45.3226867" lon="10.9355383"><ele>33.0</ele><time>2026-04-04T09:45:20.599Z</time></trkpt><trkpt lat="45.3225833" lon="10.9356717"><ele>33.0</ele><time>2026-04-04T09:45:21.599Z</time></trkpt><trkpt lat="45.3224733" lon="10.9358"><ele>33.0</ele><time>2026-04-04T09:45:22.599Z</time></trkpt><trkpt lat="45.3223533" lon="10.93593"><ele>33.0</ele><time>2026-04-04T09:45:23.599Z</time></trkpt><trkpt lat="45.322235" lon="10.936065"><ele>33.0</ele><time>2026-04-04T09:45:24.599Z</time></trkpt><trkpt lat="45.3221183" lon="10.9362033"><ele>33.75</ele><time>2026-04-04T09:45:25.599Z</time></trkpt><trkpt lat="45.3219933" lon="10.9363283"><ele>34.5</ele><time>2026-04-04T09:45:26.599Z</time></trkpt><trkpt lat="45.3218733" lon="10.9364467"><ele>35.25</ele><time>2026-04-04T09:45:27.599Z</time></trkpt><trkpt lat="45.321755" lon="10.9365617"><ele>36.0</ele><time>2026-04-04T09:45:28.599Z</time></trkpt><trkpt lat="45.3216367" lon="10.9366833"><ele>35.75</ele><time>2026-04-04T09:45:29.599Z</time></trkpt><trkpt lat="45.3215117" lon="10.93681"><ele>35.5</ele><time>2026-04-04T09:45:30.599Z</time></trkpt><trkpt lat="45.3213933" lon="10.9369317"><ele>35.25</ele><time>2026-04-04T09:45:31.599Z</time></trkpt><trkpt lat="45.321285" lon="10.9370483"><ele>35.0</ele><time>2026-04-04T09:45:32.599Z</time></trkpt><trkpt lat="45.3211733" lon="10.9371767"><ele>35.0</ele><time>2026-04-04T09:45:33.599Z</time></trkpt><trkpt lat="45.3210633" lon="10.9373017"><ele>35.0</ele><time>2026-04-04T09:45:34.6Z</time></trkpt><trkpt lat="45.3209583" lon="10.93743"><ele>35.0</ele><time>2026-04-04T09:45:35.599Z</time></trkpt><trkpt lat="45.320855" lon="10.937565"><ele>35.0</ele><time>2026-04-04T09:45:36.599Z</time></trkpt><trkpt lat="45.32075" lon="10.9376967"><ele>34.75</ele><time>2026-04-04T09:45:37.599Z</time></trkpt><trkpt lat="45.3206517" lon="10.937835"><ele>34.5</ele><time>2026-04-04T09:45:38.598Z</time></trkpt><trkpt lat="45.3205433" lon="10.93798"><ele>34.25</ele><time>2026-04-04T09:45:39.598Z</time></trkpt><trkpt lat="45.3204483" lon="10.9381217"><ele>34.0</ele><time>2026-04-04T09:45:40.599Z</time></trkpt><trkpt lat="45.3203483" lon="10.9382583"><ele>34.25</ele><time>2026-04-04T09:45:41.598Z</time></trkpt><trkpt lat="45.3202517" lon="10.9383917"><ele>34.5</ele><time>2026-04-04T09:45:42.598Z</time></trkpt><trkpt lat="45.32015" lon="10.9385183"><ele>34.75</ele><time>2026-04-04T09:45:43.598Z</time></trkpt><trkpt lat="45.320055" lon="10.93865"><ele>35.0</ele><time>2026-04-04T09:45:44.598Z</time></trkpt><trkpt lat="45.319965" lon="10.9387883"><ele>35.0</ele><time>2026-04-04T09:45:45.598Z</time></trkpt><trkpt lat="45.3198617" lon="10.93892"><ele>35.0</ele><time>2026-04-04T09:45:46.598Z</time></trkpt><trkpt lat="45.3197683" lon="10.9390467"><ele>35.0</ele><time>2026-04-04T09:45:47.598Z</time></trkpt><trkpt lat="45.3196733" lon="10.9391617"><ele>35.0</ele><time>2026-04-04T09:45:48.598Z</time></trkpt><trkpt lat="45.3195767" lon="10.939275"><ele>35.2</ele><time>2026-04-04T09:45:49.598Z</time></trkpt><trkpt lat="45.319485" lon="10.9393767"><ele>35.4</ele><time>2026-04-04T09:45:50.598Z</time></trkpt><trkpt lat="45.3193967" lon="10.9394683"><ele>35.6</ele><time>2026-04-04T09:45:51.598Z</time></trkpt><trkpt lat="45.31931" lon="10.939565"><ele>35.8</ele><time>2026-04-04T09:45:52.598Z</time></trkpt><trkpt lat="45.3192217" lon="10.9396617"><ele>36.0</ele><time>2026-04-04T09:45:53.598Z</time></trkpt><trkpt lat="45.3191317" lon="10.9397467"><ele>36.0</ele><time>2026-04-04T09:45:54.598Z</time></trkpt><trkpt lat="45.319045" lon="10.9398417"><ele>36.0</ele><time>2026-04-04T09:45:55.598Z</time></trkpt><trkpt lat="45.3189583" lon="10.93994"><ele>36.0</ele><time>2026-04-04T09:45:56.598Z</time></trkpt><trkpt lat="45.3188767" lon="10.9400367"><ele>36.0</ele><time>2026-04-04T09:45:57.598Z</time></trkpt><trkpt lat="45.3187917" lon="10.9401433"><ele>36.0</ele><time>2026-04-04T09:45:58.598Z</time></trkpt><trkpt lat="45.3187067" lon="10.9402417"><ele>36.2</ele><time>2026-04-04T09:45:59.598Z</time></trkpt><trkpt lat="45.31861" lon="10.9403317"><ele>36.400000000000006</ele><time>2026-04-04T09:46:00.598Z</time></trkpt><trkpt lat="45.31853" lon="10.9404167"><ele>36.6</ele><time>2026-04-04T09:46:01.599Z</time></trkpt><trkpt lat="45.3184517" lon="10.9404983"><ele>36.800000000000004</ele><time>2026-04-04T09:46:02.598Z</time></trkpt><trkpt lat="45.31837" lon="10.9405817"><ele>37.0</ele><time>2026-04-04T09:46:03.598Z</time></trkpt><trkpt lat="45.3182883" lon="10.9406617"><ele>37.0</ele><time>2026-04-04T09:46:04.598Z</time></trkpt><trkpt lat="45.318215" lon="10.940745"><ele>37.0</ele><time>2026-04-04T09:46:05.598Z</time></trkpt><trkpt lat="45.3181333" lon="10.9408283"><ele>37.0</ele><time>2026-04-04T09:46:06.598Z</time></trkpt><trkpt lat="45.3180567" lon="10.9409217"><ele>37.0</ele><time>2026-04-04T09:46:07.598Z</time></trkpt><trkpt lat="45.3179767" lon="10.9410183"><ele>37.0</ele><time>2026-04-04T09:46:08.598Z</time></trkpt><trkpt lat="45.3178933" lon="10.9411133"><ele>37.0</ele><time>2026-04-04T09:46:09.598Z</time></trkpt><trkpt lat="45.3178133" lon="10.94121"><ele>37.0</ele><time>2026-04-04T09:46:10.598Z</time></trkpt><trkpt lat="45.317735" lon="10.94131"><ele>37.0</ele><time>2026-04-04T09:46:11.598Z</time></trkpt><trkpt lat="45.3176533" lon="10.9414067"><ele>37.0</ele><time>2026-04-04T09:46:12.599Z</time></trkpt><trkpt lat="45.31757" lon="10.9414983"><ele>37.0</ele><time>2026-04-04T09:46:13.598Z</time></trkpt><trkpt lat="45.317495" lon="10.941575"><ele>37.0</ele><time>2026-04-04T09:46:14.598Z</time></trkpt><trkpt lat="45.3174433" lon="10.94164"><ele>37.0</ele><time>2026-04-04T09:46:15.598Z</time></trkpt><trkpt lat="45.31736" lon="10.9417217"><ele>37.0</ele><time>2026-04-04T09:46:17.598Z</time></trkpt><trkpt lat="45.317295" lon="10.9417883"><ele>37.0</ele><time>2026-04-04T09:46:19.598Z</time></trkpt><trkpt lat="45.3172317" lon="10.94184"><ele>37.0</ele><time>2026-04-04T09:46:22.598Z</time></trkpt><trkpt lat="45.3171533" lon="10.941905"><ele>37.0</ele><time>2026-04-04T09:46:26.598Z</time></trkpt><trkpt lat="45.31709" lon="10.941955"><ele>37.0</ele><time>2026-04-04T09:46:28.598Z</time></trkpt><trkpt lat="45.3170283" lon="10.942"><ele>37.0</ele><time>2026-04-04T09:46:30.598Z</time></trkpt><trkpt lat="45.31694" lon="10.9420467"><ele>37.0</ele><time>2026-04-04T09:46:33.598Z</time></trkpt><trkpt lat="45.3168783" lon="10.9421183"><ele>37.0</ele><time>2026-04-04T09:46:35.598Z</time></trkpt><trkpt lat="45.3168917" lon="10.9422317"><ele>37.0</ele><time>2026-04-04T09:46:37.598Z</time></trkpt><trkpt lat="45.3169833" lon="10.94237"><ele>37.0</ele><time>2026-04-04T09:46:39.598Z</time></trkpt><trkpt lat="45.317035" lon="10.9424533"><ele>37.0</ele><time>2026-04-04T09:46:40.598Z</time></trkpt><trkpt lat="45.3170867" lon="10.942535"><ele>37.0</ele><time>2026-04-04T09:46:41.598Z</time></trkpt><trkpt lat="45.317145" lon="10.94264"><ele>37.0</ele><time>2026-04-04T09:46:42.598Z</time></trkpt><trkpt lat="45.3171967" lon="10.9427433"><ele>37.0</ele><time>2026-04-04T09:46:43.598Z</time></trkpt><trkpt lat="45.3172367" lon="10.9428417"><ele>37.0</ele><time>2026-04-04T09:46:44.598Z</time></trkpt><trkpt lat="45.3172833" lon="10.9429367"><ele>36.6</ele><time>2026-04-04T09:46:45.598Z</time></trkpt><trkpt lat="45.317345" lon="10.943055"><ele>36.2</ele><time>2026-04-04T09:46:46.598Z</time></trkpt><trkpt lat="45.3174033" lon="10.9431533"><ele>35.8</ele><time>2026-04-04T09:46:47.598Z</time></trkpt><trkpt lat="45.3174667" lon="10.9432517"><ele>35.4</ele><time>2026-04-04T09:46:48.598Z</time></trkpt><trkpt lat="45.317525" lon="10.943355"><ele>35.0</ele><time>2026-04-04T09:46:49.598Z</time></trkpt><trkpt lat="45.3175817" lon="10.94348"><ele>35.0</ele><time>2026-04-04T09:46:50.598Z</time></trkpt><trkpt lat="45.3176467" lon="10.94359"><ele>35.0</ele><time>2026-04-04T09:46:51.598Z</time></trkpt><trkpt lat="45.3177083" lon="10.94371"><ele>35.0</ele><time>2026-04-04T09:46:52.598Z</time></trkpt><trkpt lat="45.3177717" lon="10.9438283"><ele>35.0</ele><time>2026-04-04T09:46:53.598Z</time></trkpt><trkpt lat="45.3178333" lon="10.9439567"><ele>35.0</ele><time>2026-04-04T09:46:54.598Z</time></trkpt><trkpt lat="45.3178933" lon="10.9440867"><ele>35.0</ele><time>2026-04-04T09:46:55.598Z</time></trkpt><trkpt lat="45.3179567" lon="10.9442167"><ele>35.0</ele><time>2026-04-04T09:46:56.598Z</time></trkpt><trkpt lat="45.3180233" lon="10.94434"><ele>35.0</ele><time>2026-04-04T09:46:57.598Z</time></trkpt><trkpt lat="45.318085" lon="10.9444533"><ele>35.0</ele><time>2026-04-04T09:46:58.598Z</time></trkpt><trkpt lat="45.3181417" lon="10.9445733"><ele>35.0</ele><time>2026-04-04T09:46:59.598Z</time></trkpt><trkpt lat="45.318205" lon="10.94469"><ele>35.25</ele><time>2026-04-04T09:47:00.598Z</time></trkpt><trkpt lat="45.31827" lon="10.944815"><ele>35.5</ele><time>2026-04-04T09:47:01.598Z</time></trkpt><trkpt lat="45.3183317" lon="10.9449467"><ele>35.75</ele><time>2026-04-04T09:47:02.599Z</time></trkpt><trkpt lat="45.3184" lon="10.9450717"><ele>36.0</ele><time>2026-04-04T09:47:03.598Z</time></trkpt><trkpt lat="45.31848" lon="10.9451967"><ele>36.25</ele><time>2026-04-04T09:47:04.598Z</time></trkpt><trkpt lat="45.3185567" lon="10.9453217"><ele>36.5</ele><time>2026-04-04T09:47:05.598Z</time></trkpt><trkpt lat="45.3186417" lon="10.945455"><ele>36.75</ele><time>2026-04-04T09:47:06.598Z</time></trkpt><trkpt lat="45.31873" lon="10.9455633"><ele>37.0</ele><time>2026-04-04T09:47:07.598Z</time></trkpt><trkpt lat="45.3188283" lon="10.9456467"><ele>37.0</ele><time>2026-04-04T09:47:08.599Z</time></trkpt><trkpt lat="45.3189333" lon="10.94572"><ele>37.0</ele><time>2026-04-04T09:47:09.598Z</time></trkpt><trkpt lat="45.31904" lon="10.9457717"><ele>37.0</ele><time>2026-04-04T09:47:10.598Z</time></trkpt><trkpt lat="45.319155" lon="10.9458333"><ele>37.0</ele><time>2026-04-04T09:47:11.598Z</time></trkpt><trkpt lat="45.3192683" lon="10.9458917"><ele>36.75</ele><time>2026-04-04T09:47:12.598Z</time></trkpt><trkpt lat="45.3193783" lon="10.9459467"><ele>36.5</ele><time>2026-04-04T09:47:13.598Z</time></trkpt><trkpt lat="45.3194967" lon="10.94602"><ele>36.25</ele><time>2026-04-04T09:47:14.598Z</time></trkpt><trkpt lat="45.31961" lon="10.946065"><ele>36.0</ele><time>2026-04-04T09:47:15.598Z</time></trkpt><trkpt lat="45.3197183" lon="10.9461133"><ele>36.5</ele><time>2026-04-04T09:47:16.598Z</time></trkpt><trkpt lat="45.3198333" lon="10.94616"><ele>37.0</ele><time>2026-04-04T09:47:17.598Z</time></trkpt><trkpt lat="45.31994" lon="10.9462067"><ele>37.5</ele><time>2026-04-04T09:47:18.598Z</time></trkpt><trkpt lat="45.32005" lon="10.9463033"><ele>38.0</ele><time>2026-04-04T09:47:19.599Z</time></trkpt><trkpt lat="45.32016" lon="10.946355"><ele>38.0</ele><time>2026-04-04T09:47:20.598Z</time></trkpt><trkpt lat="45.3202767" lon="10.9463983"><ele>38.0</ele><time>2026-04-04T09:47:21.598Z</time></trkpt><trkpt lat="45.32039" lon="10.9464417"><ele>38.0</ele><time>2026-04-04T09:47:22.598Z</time></trkpt><trkpt lat="45.3205017" lon="10.9464933"><ele>38.0</ele><time>2026-04-04T09:47:23.598Z</time></trkpt><trkpt lat="45.3206017" lon="10.9465483"><ele>37.83333333333333</ele><time>2026-04-04T09:47:24.599Z</time></trkpt><trkpt lat="45.320695" lon="10.9465933"><ele>37.666666666666664</ele><time>2026-04-04T09:47:25.598Z</time></trkpt><trkpt lat="45.3207733" lon="10.94663"><ele>37.5</ele><time>2026-04-04T09:47:26.598Z</time></trkpt><trkpt lat="45.3208433" lon="10.946655"><ele>37.333333333333336</ele><time>2026-04-04T09:47:27.598Z</time></trkpt><trkpt lat="45.3209033" lon="10.9466883"><ele>37.16666666666667</ele><time>2026-04-04T09:47:28.598Z</time></trkpt><trkpt lat="45.3209867" lon="10.9467317"><ele>37.0</ele><time>2026-04-04T09:47:30.598Z</time></trkpt><trkpt lat="45.32103" lon="10.9468283"><ele>36.833333333333336</ele><time>2026-04-04T09:47:33.598Z</time></trkpt><trkpt lat="45.3210233" lon="10.9469333"><ele>36.66666666666667</ele><time>2026-04-04T09:47:35.598Z</time></trkpt><trkpt lat="45.3209783" lon="10.947025"><ele>36.5</ele><time>2026-04-04T09:47:37.599Z</time></trkpt><trkpt lat="45.3210467" lon="10.9469467"><ele>36.333333333333336</ele><time>2026-04-04T09:56:13.597Z</time></trkpt><trkpt lat="45.3211333" lon="10.9468767"><ele>36.166666666666664</ele><time>2026-04-04T09:56:15.597Z</time></trkpt><trkpt lat="45.3212333" lon="10.9468717"><ele>36.0</ele><time>2026-04-04T09:56:17.597Z</time></trkpt><trkpt lat="45.3213083" lon="10.946895"><ele>36.0</ele><time>2026-04-04T09:56:18.597Z</time></trkpt><trkpt lat="45.3213967" lon="10.9469283"><ele>36.0</ele><time>2026-04-04T09:56:19.597Z</time></trkpt><trkpt lat="45.3215033" lon="10.9469567"><ele>36.0</ele><time>2026-04-04T09:56:20.597Z</time></trkpt><trkpt lat="45.3216117" lon="10.94698"><ele>36.0</ele><time>2026-04-04T09:56:21.597Z</time></trkpt><trkpt lat="45.32173" lon="10.9469917"><ele>36.0</ele><time>2026-04-04T09:56:22.597Z</time></trkpt><trkpt lat="45.3218483" lon="10.9470017"><ele>36.5</ele><time>2026-04-04T09:56:23.597Z</time></trkpt><trkpt lat="45.3219633" lon="10.9470017"><ele>37.0</ele><time>2026-04-04T09:56:24.597Z</time></trkpt><trkpt lat="45.3220783" lon="10.947005"><ele>37.5</ele><time>2026-04-04T09:56:25.597Z</time></trkpt><trkpt lat="45.32221" lon="10.9470167"><ele>38.0</ele><time>2026-04-04T09:56:26.597Z</time></trkpt><trkpt lat="45.32235" lon="10.9470283"><ele>38.25</ele><time>2026-04-04T09:56:27.597Z</time></trkpt><trkpt lat="45.3224833" lon="10.9470417"><ele>38.5</ele><time>2026-04-04T09:56:28.597Z</time></trkpt><trkpt lat="45.3226117" lon="10.947045"><ele>38.75</ele><time>2026-04-04T09:56:29.597Z</time></trkpt><trkpt lat="45.32273" lon="10.947065"><ele>39.0</ele><time>2026-04-04T09:56:30.597Z</time></trkpt><trkpt lat="45.3228533" lon="10.9470917"><ele>39.0</ele><time>2026-04-04T09:56:31.597Z</time></trkpt><trkpt lat="45.3229817" lon="10.9471183"><ele>39.0</ele><time>2026-04-04T09:56:32.597Z</time></trkpt><trkpt lat="45.3230983" lon="10.9471517"><ele>39.0</ele><time>2026-04-04T09:56:33.597Z</time></trkpt><trkpt lat="45.3232117" lon="10.9471917"><ele>39.0</ele><time>2026-04-04T09:56:34.597Z</time></trkpt><trkpt lat="45.3233217" lon="10.9472267"><ele>38.8</ele><time>2026-04-04T09:56:35.597Z</time></trkpt><trkpt lat="45.3234233" lon="10.9472633"><ele>38.599999999999994</ele><time>2026-04-04T09:56:36.597Z</time></trkpt><trkpt lat="45.323515" lon="10.9473"><ele>38.4</ele><time>2026-04-04T09:56:37.597Z</time></trkpt><trkpt lat="45.323595" lon="10.94732"><ele>38.199999999999996</ele><time>2026-04-04T09:56:38.597Z</time></trkpt><trkpt lat="45.3236667" lon="10.947335"><ele>38.0</ele><time>2026-04-04T09:56:39.597Z</time></trkpt><trkpt lat="45.3237733" lon="10.9473767"><ele>38.0</ele><time>2026-04-04T09:56:41.598Z</time></trkpt><trkpt lat="45.32386" lon="10.947415"><ele>38.0</ele><time>2026-04-04T09:56:43.597Z</time></trkpt><trkpt lat="45.323965" lon="10.9474433"><ele>38.0</ele><time>2026-04-04T09:56:45.597Z</time></trkpt><trkpt lat="45.3240417" lon="10.9474583"><ele>38.0</ele><time>2026-04-04T09:56:46.597Z</time></trkpt><trkpt lat="45.32414" lon="10.94748"><ele>38.0</ele><time>2026-04-04T09:56:47.597Z</time></trkpt><trkpt lat="45.3242517" lon="10.947515"><ele>38.0</ele><time>2026-04-04T09:56:48.597Z</time></trkpt><trkpt lat="45.3243667" lon="10.9475517"><ele>38.0</ele><time>2026-04-04T09:56:49.597Z</time></trkpt><trkpt lat="45.3245" lon="10.94759"><ele>38.0</ele><time>2026-04-04T09:56:50.597Z</time></trkpt><trkpt lat="45.3246367" lon="10.9476217"><ele>38.0</ele><time>2026-04-04T09:56:51.597Z</time></trkpt><trkpt lat="45.3247733" lon="10.94766"><ele>38.0</ele><time>2026-04-04T09:56:52.597Z</time></trkpt><trkpt lat="45.32492" lon="10.9477017"><ele>38.0</ele><time>2026-04-04T09:56:53.597Z</time></trkpt><trkpt lat="45.3250717" lon="10.9477433"><ele>38.0</ele><time>2026-04-04T09:56:54.597Z</time></trkpt><trkpt lat="45.325215" lon="10.947805"><ele>38.0</ele><time>2026-04-04T09:56:55.597Z</time></trkpt><trkpt lat="45.3253633" lon="10.9478517"><ele>38.0</ele><time>2026-04-04T09:56:56.597Z</time></trkpt><trkpt lat="45.325515" lon="10.94789"><ele>38.0</ele><time>2026-04-04T09:56:57.597Z</time></trkpt><trkpt lat="45.325665" lon="10.9479383"><ele>38.0</ele><time>2026-04-04T09:56:58.597Z</time></trkpt><trkpt lat="45.3258167" lon="10.9479833"><ele>38.0</ele><time>2026-04-04T09:56:59.597Z</time></trkpt><trkpt lat="45.3259667" lon="10.948025"><ele>38.0</ele><time>2026-04-04T09:57:00.597Z</time></trkpt><trkpt lat="45.3261167" lon="10.948065"><ele>38.0</ele><time>2026-04-04T09:57:01.597Z</time></trkpt><trkpt lat="45.3262833" lon="10.9481017"><ele>38.0</ele><time>2026-04-04T09:57:02.597Z</time></trkpt><trkpt lat="45.32644" lon="10.948155"><ele>38.0</ele><time>2026-04-04T09:57:03.597Z</time></trkpt><trkpt lat="45.3265917" lon="10.9482033"><ele>38.0</ele><time>2026-04-04T09:57:04.597Z</time></trkpt><trkpt lat="45.32674" lon="10.9482633"><ele>38.0</ele><time>2026-04-04T09:57:05.597Z</time></trkpt><trkpt lat="45.3268867" lon="10.9483417"><ele>38.0</ele><time>2026-04-04T09:57:06.597Z</time></trkpt><trkpt lat="45.327045" lon="10.94841"><ele>38.0</ele><time>2026-04-04T09:57:07.597Z</time></trkpt><trkpt lat="45.32719" lon="10.9484933"><ele>38.0</ele><time>2026-04-04T09:57:08.597Z</time></trkpt><trkpt lat="45.3273267" lon="10.9485767"><ele>38.0</ele><time>2026-04-04T09:57:09.597Z</time></trkpt><trkpt lat="45.3274633" lon="10.94866"><ele>38.0</ele><time>2026-04-04T09:57:10.597Z</time></trkpt><trkpt lat="45.3276117" lon="10.9487317"><ele>38.0</ele><time>2026-04-04T09:57:11.597Z</time></trkpt><trkpt lat="45.3277583" lon="10.9488033"><ele>38.0</ele><time>2026-04-04T09:57:12.597Z</time></trkpt><trkpt lat="45.3279083" lon="10.94887"><ele>38.0</ele><time>2026-04-04T09:57:13.597Z</time></trkpt><trkpt lat="45.3280567" lon="10.9489383"><ele>38.0</ele><time>2026-04-04T09:57:14.597Z</time></trkpt><trkpt lat="45.3282" lon="10.94901"><ele>38.0</ele><time>2026-04-04T09:57:15.597Z</time></trkpt><trkpt lat="45.3283483" lon="10.9490767"><ele>38.0</ele><time>2026-04-04T09:57:16.597Z</time></trkpt><trkpt lat="45.3284867" lon="10.9491467"><ele>38.0</ele><time>2026-04-04T09:57:17.597Z</time></trkpt><trkpt lat="45.3286317" lon="10.9492067"><ele>38.0</ele><time>2026-04-04T09:57:18.597Z</time></trkpt><trkpt lat="45.3287617" lon="10.9492733"><ele>38.0</ele><time>2026-04-04T09:57:19.597Z</time></trkpt><trkpt lat="45.3288883" lon="10.9493483"><ele>37.75</ele><time>2026-04-04T09:57:20.597Z</time></trkpt><trkpt lat="45.32901" lon="10.9494133"><ele>37.5</ele><time>2026-04-04T09:57:21.597Z</time></trkpt><trkpt lat="45.3291317" lon="10.949475"><ele>37.25</ele><time>2026-04-04T09:57:22.597Z</time></trkpt><trkpt lat="45.329255" lon="10.949545"><ele>37.0</ele><time>2026-04-04T09:57:23.597Z</time></trkpt><trkpt lat="45.3293783" lon="10.9496117"><ele>37.0</ele><time>2026-04-04T09:57:24.597Z</time></trkpt><trkpt lat="45.3294933" lon="10.9496967"><ele>37.0</ele><time>2026-04-04T09:57:25.597Z</time></trkpt><trkpt lat="45.3295967" lon="10.949795"><ele>37.0</ele><time>2026-04-04T09:57:26.597Z</time></trkpt><trkpt lat="45.3296867" lon="10.9498967"><ele>37.0</ele><time>2026-04-04T09:57:27.597Z</time></trkpt><trkpt lat="45.3297583" lon="10.9499917"><ele>37.0</ele><time>2026-04-04T09:57:28.597Z</time></trkpt><trkpt lat="45.329835" lon="10.95009"><ele>37.0</ele><time>2026-04-04T09:57:29.597Z</time></trkpt><trkpt lat="45.3299167" lon="10.9501583"><ele>37.0</ele><time>2026-04-04T09:57:30.597Z</time></trkpt><trkpt lat="45.3300067" lon="10.950185"><ele>37.0</ele><time>2026-04-04T09:57:31.597Z</time></trkpt><trkpt lat="45.3300933" lon="10.950215"><ele>37.0</ele><time>2026-04-04T09:57:32.597Z</time></trkpt><trkpt lat="45.3301833" lon="10.9502683"><ele>37.0</ele><time>2026-04-04T09:57:33.597Z</time></trkpt><trkpt lat="45.330285" lon="10.950345"><ele>37.0</ele><time>2026-04-04T09:57:34.597Z</time></trkpt><trkpt lat="45.3304017" lon="10.95042"><ele>37.0</ele><time>2026-04-04T09:57:35.597Z</time></trkpt><trkpt lat="45.3305283" lon="10.9504933"><ele>37.0</ele><time>2026-04-04T09:57:36.597Z</time></trkpt><trkpt lat="45.3306567" lon="10.9505533"><ele>36.75</ele><time>2026-04-04T09:57:37.597Z</time></trkpt><trkpt lat="45.33078" lon="10.9506283"><ele>36.5</ele><time>2026-04-04T09:57:38.597Z</time></trkpt><trkpt lat="45.3308917" lon="10.9506967"><ele>36.25</ele><time>2026-04-04T09:57:39.597Z</time></trkpt><trkpt lat="45.3310083" lon="10.9507833"><ele>36.0</ele><time>2026-04-04T09:57:40.597Z</time></trkpt><trkpt lat="45.3311133" lon="10.9508333"><ele>35.8</ele><time>2026-04-04T09:57:41.597Z</time></trkpt><trkpt lat="45.3312017" lon="10.95089"><ele>35.6</ele><time>2026-04-04T09:57:42.597Z</time></trkpt><trkpt lat="45.3312667" lon="10.95095"><ele>35.4</ele><time>2026-04-04T09:57:43.597Z</time></trkpt><trkpt lat="45.3313317" lon="10.9510733"><ele>35.2</ele><time>2026-04-04T09:57:45.597Z</time></trkpt><trkpt lat="45.33138" lon="10.9511583"><ele>35.0</ele><time>2026-04-04T09:57:48.597Z</time></trkpt><trkpt lat="45.3314717" lon="10.95121"><ele>35.0</ele><time>2026-04-04T10:00:37.596Z</time></trkpt><trkpt lat="45.3315533" lon="10.9512233"><ele>35.0</ele><time>2026-04-04T10:00:39.596Z</time></trkpt><trkpt lat="45.33164" lon="10.951255"><ele>35.0</ele><time>2026-04-04T10:00:41.596Z</time></trkpt><trkpt lat="45.3317083" lon="10.9512817"><ele>35.0</ele><time>2026-04-04T10:00:42.596Z</time></trkpt><trkpt lat="45.331785" lon="10.95132"><ele>35.0</ele><time>2026-04-04T10:00:43.596Z</time></trkpt><trkpt lat="45.33187" lon="10.9513767"><ele>35.0</ele><time>2026-04-04T10:00:44.596Z</time></trkpt><trkpt lat="45.3319567" lon="10.9514417"><ele>35.0</ele><time>2026-04-04T10:00:45.596Z</time></trkpt><trkpt lat="45.33205" lon="10.95151"><ele>35.0</ele><time>2026-04-04T10:00:46.596Z</time></trkpt><trkpt lat="45.33214" lon="10.9515717"><ele>35.0</ele><time>2026-04-04T10:00:47.596Z</time></trkpt><trkpt lat="45.3322267" lon="10.9516417"><ele>35.0</ele><time>2026-04-04T10:00:48.596Z</time></trkpt><trkpt lat="45.3323033" lon="10.9517233"><ele>35.0</ele><time>2026-04-04T10:00:49.596Z</time></trkpt><trkpt lat="45.3323733" lon="10.9517983"><ele>35.2</ele><time>2026-04-04T10:00:50.596Z</time></trkpt><trkpt lat="45.3324217" lon="10.951865"><ele>35.4</ele><time>2026-04-04T10:00:51.596Z</time></trkpt><trkpt lat="45.33245" lon="10.9519683"><ele>35.6</ele><time>2026-04-04T10:00:53.596Z</time></trkpt><trkpt lat="45.332485" lon="10.952085"><ele>35.8</ele><time>2026-04-04T10:00:58.596Z</time></trkpt><trkpt lat="45.3326" lon="10.95216"><ele>36.0</ele><time>2026-04-04T10:01:00.596Z</time></trkpt><trkpt lat="45.3327033" lon="10.95219"><ele>36.0</ele><time>2026-04-04T10:01:01.596Z</time></trkpt><trkpt lat="45.3328217" lon="10.952225"><ele>36.0</ele><time>2026-04-04T10:01:02.596Z</time></trkpt><trkpt lat="45.3329533" lon="10.952255"><ele>36.0</ele><time>2026-04-04T10:01:03.596Z</time></trkpt><trkpt lat="45.3330933" lon="10.952295"><ele>36.0</ele><time>2026-04-04T10:01:04.596Z</time></trkpt><trkpt lat="45.33321" lon="10.9523517"><ele>35.75</ele><time>2026-04-04T10:01:05.596Z</time></trkpt><trkpt lat="45.33334" lon="10.9523817"><ele>35.5</ele><time>2026-04-04T10:01:06.596Z</time></trkpt><trkpt lat="45.3334567" lon="10.95243"><ele>35.25</ele><time>2026-04-04T10:01:07.596Z</time></trkpt><trkpt lat="45.3335767" lon="10.95247"><ele>35.0</ele><time>2026-04-04T10:01:08.596Z</time></trkpt><trkpt lat="45.3336933" lon="10.952515"><ele>35.0</ele><time>2026-04-04T10:01:09.596Z</time></trkpt><trkpt lat="45.33382" lon="10.9525517"><ele>35.0</ele><time>2026-04-04T10:01:10.597Z</time></trkpt><trkpt lat="45.3339467" lon="10.9525883"><ele>35.0</ele><time>2026-04-04T10:01:11.596Z</time></trkpt><trkpt lat="45.3340833" lon="10.9526367"><ele>35.0</ele><time>2026-04-04T10:01:12.596Z</time></trkpt><trkpt lat="45.3342233" lon="10.9526833"><ele>35.33333333333333</ele><time>2026-04-04T10:01:13.596Z</time></trkpt><trkpt lat="45.33437" lon="10.952725"><ele>35.666666666666664</ele><time>2026-04-04T10:01:14.596Z</time></trkpt><trkpt lat="45.334525" lon="10.9527717"><ele>36.0</ele><time>2026-04-04T10:01:15.596Z</time></trkpt><trkpt lat="45.334685" lon="10.9528167"><ele>35.666666666666664</ele><time>2026-04-04T10:01:16.596Z</time></trkpt><trkpt lat="45.3348467" lon="10.952855"><ele>35.33333333333333</ele><time>2026-04-04T10:01:17.596Z</time></trkpt><trkpt lat="45.3350033" lon="10.9528917"><ele>35.0</ele><time>2026-04-04T10:01:18.596Z</time></trkpt><trkpt lat="45.3351667" lon="10.9529417"><ele>35.0</ele><time>2026-04-04T10:01:19.596Z</time></trkpt><trkpt lat="45.3353317" lon="10.9529833"><ele>35.0</ele><time>2026-04-04T10:01:20.596Z</time></trkpt><trkpt lat="45.33549" lon="10.9530383"><ele>35.0</ele><time>2026-04-04T10:01:21.596Z</time></trkpt><trkpt lat="45.3356483" lon="10.95309"><ele>35.0</ele><time>2026-04-04T10:01:22.596Z</time></trkpt><trkpt lat="45.3358183" lon="10.953145"><ele>35.0</ele><time>2026-04-04T10:01:23.596Z</time></trkpt><trkpt lat="45.3359817" lon="10.95319"><ele>35.0</ele><time>2026-04-04T10:01:24.596Z</time></trkpt><trkpt lat="45.3361433" lon="10.9532367"><ele>35.0</ele><time>2026-04-04T10:01:25.596Z</time></trkpt><trkpt lat="45.3363133" lon="10.9532817"><ele>35.0</ele><time>2026-04-04T10:01:26.596Z</time></trkpt><trkpt lat="45.3364733" lon="10.95332"><ele>35.0</ele><time>2026-04-04T10:01:27.596Z</time></trkpt><trkpt lat="45.3366217" lon="10.9533667"><ele>35.25</ele><time>2026-04-04T10:01:28.596Z</time></trkpt><trkpt lat="45.3367567" lon="10.953425"><ele>35.5</ele><time>2026-04-04T10:01:29.596Z</time></trkpt><trkpt lat="45.3368933" lon="10.9534867"><ele>35.75</ele><time>2026-04-04T10:01:30.596Z</time></trkpt><trkpt lat="45.337045" lon="10.9535633"><ele>36.0</ele><time>2026-04-04T10:01:31.596Z</time></trkpt><trkpt lat="45.33718" lon="10.95367"><ele>35.333333333333336</ele><time>2026-04-04T10:01:32.596Z</time></trkpt><trkpt lat="45.3373217" lon="10.9537983"><ele>34.66666666666667</ele><time>2026-04-04T10:01:33.596Z</time></trkpt><trkpt lat="45.337465" lon="10.953925"><ele>34.0</ele><time>2026-04-04T10:01:34.596Z</time></trkpt><trkpt lat="45.3376" lon="10.954055"><ele>34.0</ele><time>2026-04-04T10:01:35.596Z</time></trkpt><trkpt lat="45.3377117" lon="10.9541933"><ele>34.0</ele><time>2026-04-04T10:01:36.597Z</time></trkpt><trkpt lat="45.3378033" lon="10.95433"><ele>34.0</ele><time>2026-04-04T10:01:37.596Z</time></trkpt><trkpt lat="45.3379033" lon="10.9544533"><ele>34.0</ele><time>2026-04-04T10:01:38.596Z</time></trkpt><trkpt lat="45.338" lon="10.954575"><ele>34.5</ele><time>2026-04-04T10:01:39.596Z</time></trkpt><trkpt lat="45.3380883" lon="10.9546967"><ele>35.0</ele><time>2026-04-04T10:01:40.596Z</time></trkpt><trkpt lat="45.33817" lon="10.9548033"><ele>35.5</ele><time>2026-04-04T10:01:41.596Z</time></trkpt><trkpt lat="45.3382533" lon="10.9549117"><ele>36.0</ele><time>2026-04-04T10:01:42.596Z</time></trkpt><trkpt lat="45.3383383" lon="10.95503"><ele>35.75</ele><time>2026-04-04T10:01:43.596Z</time></trkpt><trkpt lat="45.3384317" lon="10.9551483"><ele>35.5</ele><time>2026-04-04T10:01:44.596Z</time></trkpt><trkpt lat="45.3385267" lon="10.955275"><ele>35.25</ele><time>2026-04-04T10:01:45.596Z</time></trkpt><trkpt lat="45.3386233" lon="10.9554067"><ele>35.0</ele><time>2026-04-04T10:01:46.596Z</time></trkpt><trkpt lat="45.3387283" lon="10.955525"><ele>35.0</ele><time>2026-04-04T10:01:47.596Z</time></trkpt><trkpt lat="45.3388333" lon="10.9556517"><ele>35.0</ele><time>2026-04-04T10:01:48.596Z</time></trkpt><trkpt lat="45.3389417" lon="10.955765"><ele>35.0</ele><time>2026-04-04T10:01:49.596Z</time></trkpt><trkpt lat="45.3390517" lon="10.9558683"><ele>35.0</ele><time>2026-04-04T10:01:50.596Z</time></trkpt><trkpt lat="45.339165" lon="10.955955"><ele>35.2</ele><time>2026-04-04T10:01:51.596Z</time></trkpt><trkpt lat="45.339275" lon="10.95604"><ele>35.4</ele><time>2026-04-04T10:01:52.596Z</time></trkpt><trkpt lat="45.339375" lon="10.9561133"><ele>35.6</ele><time>2026-04-04T10:01:53.596Z</time></trkpt><trkpt lat="45.3394717" lon="10.9561717"><ele>35.8</ele><time>2026-04-04T10:01:54.596Z</time></trkpt><trkpt lat="45.3395583" lon="10.9562233"><ele>36.0</ele><time>2026-04-04T10:01:55.596Z</time></trkpt><trkpt lat="45.339635" lon="10.9562767"><ele>36.0</ele><time>2026-04-04T10:01:56.596Z</time></trkpt><trkpt lat="45.33969" lon="10.9563367"><ele>36.0</ele><time>2026-04-04T10:01:59.596Z</time></trkpt><trkpt lat="45.3397717" lon="10.9563583"><ele>36.0</ele><time>2026-04-04T10:02:03.596Z</time></trkpt><trkpt lat="45.3398867" lon="10.956435"><ele>36.0</ele><time>2026-04-04T10:02:05.597Z</time></trkpt><trkpt lat="45.3399683" lon="10.9565117"><ele>36.0</ele><time>2026-04-04T10:02:07.596Z</time></trkpt><trkpt lat="45.3399383" lon="10.956645"><ele>35.8</ele><time>2026-04-04T10:02:10.596Z</time></trkpt><trkpt lat="45.3398817" lon="10.95682"><ele>35.6</ele><time>2026-04-04T10:02:12.596Z</time></trkpt><trkpt lat="45.339855" lon="10.9569317"><ele>35.4</ele><time>2026-04-04T10:02:13.596Z</time></trkpt><trkpt lat="45.3398233" lon="10.957055"><ele>35.2</ele><time>2026-04-04T10:02:14.596Z</time></trkpt><trkpt lat="45.339795" lon="10.9571917"><ele>35.0</ele><time>2026-04-04T10:02:15.596Z</time></trkpt><trkpt lat="45.3397667" lon="10.957335"><ele>35.0</ele><time>2026-04-04T10:02:16.596Z</time></trkpt><trkpt lat="45.3397467" lon="10.9574683"><ele>35.0</ele><time>2026-04-04T10:02:17.596Z</time></trkpt><trkpt lat="45.3397267" lon="10.957585"><ele>35.0</ele><time>2026-04-04T10:02:18.596Z</time></trkpt><trkpt lat="45.3397" lon="10.9576967"><ele>35.0</ele><time>2026-04-04T10:02:19.596Z</time></trkpt><trkpt lat="45.33966" lon="10.957805"><ele>35.0</ele><time>2026-04-04T10:02:20.596Z</time></trkpt><trkpt lat="45.33962" lon="10.9579067"><ele>35.0</ele><time>2026-04-04T10:02:21.596Z</time></trkpt><trkpt lat="45.3395733" lon="10.9580117"><ele>35.166666666666664</ele><time>2026-04-04T10:02:22.596Z</time></trkpt><trkpt lat="45.33952" lon="10.9581017"><ele>35.33333333333333</ele><time>2026-04-04T10:02:23.596Z</time></trkpt><trkpt lat="45.339465" lon="10.95819"><ele>35.5</ele><time>2026-04-04T10:02:24.596Z</time></trkpt><trkpt lat="45.3393983" lon="10.95825"><ele>35.666666666666664</ele><time>2026-04-04T10:02:25.596Z</time></trkpt><trkpt lat="45.3393317" lon="10.9583167"><ele>35.833333333333336</ele><time>2026-04-04T10:02:26.596Z</time></trkpt><trkpt lat="45.3392667" lon="10.9583683"><ele>36.0</ele><time>2026-04-04T10:02:27.597Z</time></trkpt><trkpt lat="45.3391817" lon="10.95843"><ele>36.0</ele><time>2026-04-04T10:02:29.596Z</time></trkpt><trkpt lat="45.33911" lon="10.95848"><ele>36.0</ele><time>2026-04-04T10:03:56.596Z</time></trkpt><trkpt lat="45.3390017" lon="10.958575"><ele>36.0</ele><time>2026-04-04T10:03:58.596Z</time></trkpt><trkpt lat="45.33892" lon="10.9586283"><ele>36.0</ele><time>2026-04-04T10:03:59.596Z</time></trkpt><trkpt lat="45.3388333" lon="10.9586867"><ele>36.0</ele><time>2026-04-04T10:04:00.596Z</time></trkpt><trkpt lat="45.3387433" lon="10.9587517"><ele>35.75</ele><time>2026-04-04T10:04:01.596Z</time></trkpt><trkpt lat="45.338635" lon="10.9588233"><ele>35.5</ele><time>2026-04-04T10:04:02.596Z</time></trkpt><trkpt lat="45.3385267" lon="10.9588867"><ele>35.25</ele><time>2026-04-04T10:04:03.596Z</time></trkpt><trkpt lat="45.338415" lon="10.95895"><ele>35.0</ele><time>2026-04-04T10:04:04.596Z</time></trkpt><trkpt lat="45.3382967" lon="10.9590183"><ele>35.0</ele><time>2026-04-04T10:04:05.596Z</time></trkpt><trkpt lat="45.3381767" lon="10.9590817"><ele>35.0</ele><time>2026-04-04T10:04:06.596Z</time></trkpt><trkpt lat="45.3380583" lon="10.95914"><ele>35.0</ele><time>2026-04-04T10:04:07.596Z</time></trkpt><trkpt lat="45.3379367" lon="10.9591983"><ele>35.0</ele><time>2026-04-04T10:04:08.596Z</time></trkpt><trkpt lat="45.3378217" lon="10.9592467"><ele>35.0</ele><time>2026-04-04T10:04:09.596Z</time></trkpt><trkpt lat="45.3376983" lon="10.9593033"><ele>35.0</ele><time>2026-04-04T10:04:10.596Z</time></trkpt><trkpt lat="45.3375833" lon="10.95935"><ele>35.0</ele><time>2026-04-04T10:04:11.596Z</time></trkpt><trkpt lat="45.3374667" lon="10.9594017"><ele>35.0</ele><time>2026-04-04T10:04:12.596Z</time></trkpt><trkpt lat="45.3373417" lon="10.9594517"><ele>35.0</ele><time>2026-04-04T10:04:13.596Z</time></trkpt><trkpt lat="45.3372317" lon="10.9594867"><ele>35.0</ele><time>2026-04-04T10:04:14.596Z</time></trkpt><trkpt lat="45.337125" lon="10.9595133"><ele>35.0</ele><time>2026-04-04T10:04:15.596Z</time></trkpt><trkpt lat="45.337015" lon="10.9595483"><ele>35.0</ele><time>2026-04-04T10:04:16.596Z</time></trkpt><trkpt lat="45.3369083" lon="10.95957"><ele>35.0</ele><time>2026-04-04T10:04:17.596Z</time></trkpt><trkpt lat="45.3368017" lon="10.959595"><ele>35.0</ele><time>2026-04-04T10:04:18.596Z</time></trkpt><trkpt lat="45.3366917" lon="10.959625"><ele>35.0</ele><time>2026-04-04T10:04:19.596Z</time></trkpt><trkpt lat="45.33658" lon="10.959655"><ele>35.0</ele><time>2026-04-04T10:04:20.595Z</time></trkpt><trkpt lat="45.3364667" lon="10.9596967"><ele>35.0</ele><time>2026-04-04T10:04:21.595Z</time></trkpt><trkpt lat="45.3363667" lon="10.959725"><ele>35.0</ele><time>2026-04-04T10:04:22.595Z</time></trkpt><trkpt lat="45.336265" lon="10.9597583"><ele>35.2</ele><time>2026-04-04T10:04:23.595Z</time></trkpt><trkpt lat="45.33616" lon="10.95981"><ele>35.4</ele><time>2026-04-04T10:04:24.595Z</time></trkpt><trkpt lat="45.3360567" lon="10.959845"><ele>35.6</ele><time>2026-04-04T10:04:25.595Z</time></trkpt><trkpt lat="45.3359533" lon="10.9598867"><ele>35.8</ele><time>2026-04-04T10:04:26.595Z</time></trkpt><trkpt lat="45.33585" lon="10.9599183"><ele>36.0</ele><time>2026-04-04T10:04:27.595Z</time></trkpt><trkpt lat="45.335755" lon="10.9599417"><ele>36.0</ele><time>2026-04-04T10:04:28.595Z</time></trkpt><trkpt lat="45.33566" lon="10.95997"><ele>36.0</ele><time>2026-04-04T10:04:29.595Z</time></trkpt><trkpt lat="45.3355667" lon="10.9599983"><ele>36.0</ele><time>2026-04-04T10:04:30.595Z</time></trkpt><trkpt lat="45.3354833" lon="10.9600167"><ele>36.0</ele><time>2026-04-04T10:04:31.595Z</time></trkpt><trkpt lat="45.3354067" lon="10.9600483"><ele>36.0</ele><time>2026-04-04T10:04:32.595Z</time></trkpt><trkpt lat="45.335345" lon="10.9600733"><ele>36.0</ele><time>2026-04-04T10:04:33.595Z</time></trkpt><trkpt lat="45.335245" lon="10.96013"><ele>36.0</ele><time>2026-04-04T10:04:35.595Z</time></trkpt><trkpt lat="45.3351783" lon="10.96015"><ele>36.0</ele><time>2026-04-04T10:04:38.595Z</time></trkpt><trkpt lat="45.3351367" lon="10.96001"><ele>36.0</ele><time>2026-04-04T10:04:42.595Z</time></trkpt><trkpt lat="45.3351067" lon="10.9598767"><ele>36.0</ele><time>2026-04-04T10:04:44.596Z</time></trkpt><trkpt lat="45.3350967" lon="10.9597233"><ele>36.0</ele><time>2026-04-04T10:04:46.595Z</time></trkpt><trkpt lat="45.33507" lon="10.959585"><ele>36.0</ele><time>2026-04-04T10:04:48.596Z</time></trkpt><trkpt lat="45.3350283" lon="10.9594967"><ele>36.0</ele><time>2026-04-04T10:04:50.595Z</time></trkpt><trkpt lat="45.334935" lon="10.9595133"><ele>36.0</ele><time>2026-04-04T10:04:52.595Z</time></trkpt><trkpt lat="45.3348633" lon="10.959545"><ele>36.0</ele><time>2026-04-04T10:04:53.595Z</time></trkpt><trkpt lat="45.3347867" lon="10.9595883"><ele>36.0</ele><time>2026-04-04T10:04:54.595Z</time></trkpt><trkpt lat="45.3347067" lon="10.9596233"><ele>36.0</ele><time>2026-04-04T10:04:55.595Z</time></trkpt><trkpt lat="45.3346217" lon="10.9596633"><ele>36.0</ele><time>2026-04-04T10:04:56.595Z</time></trkpt><trkpt lat="45.3345433" lon="10.9596983"><ele>36.0</ele><time>2026-04-04T10:04:57.595Z</time></trkpt><trkpt lat="45.3344667" lon="10.959735"><ele>36.0</ele><time>2026-04-04T10:04:58.595Z</time></trkpt><trkpt lat="45.33437" lon="10.959775"><ele>36.0</ele><time>2026-04-04T10:05:00.595Z</time></trkpt><trkpt lat="45.33442" lon="10.9597167"><ele>36.0</ele><time>2026-04-04T10:05:48.595Z</time></trkpt><trkpt lat="45.3345283" lon="10.95968"><ele>36.0</ele><time>2026-04-04T10:05:50.595Z</time></trkpt><trkpt lat="45.3346533" lon="10.9596433"><ele>36.0</ele><time>2026-04-04T10:05:52.595Z</time></trkpt><trkpt lat="45.33472" lon="10.95962"><ele>36.0</ele><time>2026-04-04T10:05:53.595Z</time></trkpt><trkpt lat="45.3347883" lon="10.9595967"><ele>36.0</ele><time>2026-04-04T10:05:54.595Z</time></trkpt><trkpt lat="45.3348517" lon="10.9595783"><ele>36.0</ele><time>2026-04-04T10:05:55.595Z</time></trkpt><trkpt lat="45.3349567" lon="10.95955"><ele>36.0</ele><time>2026-04-04T10:05:57.595Z</time></trkpt><trkpt lat="45.33503" lon="10.9595767"><ele>36.0</ele><time>2026-04-04T10:06:00.595Z</time></trkpt><trkpt lat="45.33506" lon="10.9596967"><ele>36.0</ele><time>2026-04-04T10:06:02.595Z</time></trkpt><trkpt lat="45.3350933" lon="10.9598317"><ele>36.0</ele><time>2026-04-04T10:06:04.595Z</time></trkpt><trkpt lat="45.3351217" lon="10.959995"><ele>36.0</ele><time>2026-04-04T10:06:06.596Z</time></trkpt><trkpt lat="45.335135" lon="10.9601233"><ele>36.0</ele><time>2026-04-04T10:06:08.595Z</time></trkpt><trkpt lat="45.335155" lon="10.9602183"><ele>36.0</ele><time>2026-04-04T10:06:11.595Z</time></trkpt><trkpt lat="45.33508" lon="10.9602733"><ele>35.8</ele><time>2026-04-04T10:06:14.595Z</time></trkpt><trkpt lat="45.335005" lon="10.96031"><ele>35.6</ele><time>2026-04-04T10:06:16.595Z</time></trkpt><trkpt lat="45.3349117" lon="10.9603533"><ele>35.4</ele><time>2026-04-04T10:06:18.595Z</time></trkpt><trkpt lat="45.3348167" lon="10.9603617"><ele>35.2</ele><time>2026-04-04T10:06:20.595Z</time></trkpt><trkpt lat="45.3347283" lon="10.9603433"><ele>35.0</ele><time>2026-04-04T10:06:22.595Z</time></trkpt><trkpt lat="45.3346367" lon="10.960365"><ele>35.0</ele><time>2026-04-04T10:06:24.595Z</time></trkpt><trkpt lat="45.3345367" lon="10.9604133"><ele>35.0</ele><time>2026-04-04T10:06:26.595Z</time></trkpt><trkpt lat="45.3344333" lon="10.96048"><ele>35.0</ele><time>2026-04-04T10:06:28.595Z</time></trkpt><trkpt lat="45.3343733" lon="10.9605283"><ele>35.0</ele><time>2026-04-04T10:06:29.595Z</time></trkpt><trkpt lat="45.3343067" lon="10.960575"><ele>35.0</ele><time>2026-04-04T10:06:30.595Z</time></trkpt><trkpt lat="45.334235" lon="10.9606217"><ele>35.0</ele><time>2026-04-04T10:06:31.595Z</time></trkpt><trkpt lat="45.3341567" lon="10.9606717"><ele>35.0</ele><time>2026-04-04T10:06:32.595Z</time></trkpt><trkpt lat="45.3340683" lon="10.96073"><ele>35.0</ele><time>2026-04-04T10:06:33.595Z</time></trkpt><trkpt lat="45.3339733" lon="10.960795"><ele>35.0</ele><time>2026-04-04T10:06:34.595Z</time></trkpt><trkpt lat="45.3338767" lon="10.9608517"><ele>35.0</ele><time>2026-04-04T10:06:35.595Z</time></trkpt><trkpt lat="45.333785" lon="10.9609067"><ele>35.0</ele><time>2026-04-04T10:06:36.595Z</time></trkpt><trkpt lat="45.3336917" lon="10.96096"><ele>35.2</ele><time>2026-04-04T10:06:37.595Z</time></trkpt><trkpt lat="45.3335983" lon="10.961015"><ele>35.4</ele><time>2026-04-04T10:06:38.595Z</time></trkpt><trkpt lat="45.3335033" lon="10.961075"><ele>35.6</ele><time>2026-04-04T10:06:39.595Z</time></trkpt><trkpt lat="45.33341" lon="10.961135"><ele>35.8</ele><time>2026-04-04T10:06:40.595Z</time></trkpt><trkpt lat="45.33331" lon="10.9611967"><ele>36.0</ele><time>2026-04-04T10:06:41.595Z</time></trkpt><trkpt lat="45.33321" lon="10.9612583"><ele>36.0</ele><time>2026-04-04T10:06:42.595Z</time></trkpt><trkpt lat="45.3331083" lon="10.9613133"><ele>36.0</ele><time>2026-04-04T10:06:43.595Z</time></trkpt><trkpt lat="45.3330133" lon="10.9613683"><ele>36.0</ele><time>2026-04-04T10:06:44.595Z</time></trkpt><trkpt lat="45.332925" lon="10.9614167"><ele>36.0</ele><time>2026-04-04T10:06:45.595Z</time></trkpt><trkpt lat="45.3328383" lon="10.9614683"><ele>36.0</ele><time>2026-04-04T10:06:46.595Z</time></trkpt><trkpt lat="45.332745" lon="10.96152"><ele>36.0</ele><time>2026-04-04T10:06:47.595Z</time></trkpt><trkpt lat="45.3326517" lon="10.9615683"><ele>36.0</ele><time>2026-04-04T10:06:48.595Z</time></trkpt><trkpt lat="45.33255" lon="10.961625"><ele>36.0</ele><time>2026-04-04T10:06:49.595Z</time></trkpt><trkpt lat="45.3324483" lon="10.961675"><ele>36.0</ele><time>2026-04-04T10:06:50.595Z</time></trkpt><trkpt lat="45.33235" lon="10.9617367"><ele>36.0</ele><time>2026-04-04T10:06:51.595Z</time></trkpt><trkpt lat="45.3322517" lon="10.961795"><ele>35.5</ele><time>2026-04-04T10:06:52.596Z</time></trkpt><trkpt lat="45.3321467" lon="10.9618583"><ele>35.0</ele><time>2026-04-04T10:06:53.595Z</time></trkpt><trkpt lat="45.3320483" lon="10.9619267"><ele>34.5</ele><time>2026-04-04T10:06:54.595Z</time></trkpt><trkpt lat="45.33194" lon="10.9620017"><ele>34.0</ele><time>2026-04-04T10:06:55.595Z</time></trkpt><trkpt lat="45.3318367" lon="10.962085"><ele>34.0</ele><time>2026-04-04T10:06:56.595Z</time></trkpt><trkpt lat="45.3317417" lon="10.9621567"><ele>34.0</ele><time>2026-04-04T10:06:57.595Z</time></trkpt><trkpt lat="45.3316433" lon="10.9622283"><ele>34.0</ele><time>2026-04-04T10:06:58.595Z</time></trkpt><trkpt lat="45.3315267" lon="10.9623083"><ele>34.0</ele><time>2026-04-04T10:06:59.595Z</time></trkpt><trkpt lat="45.3314067" lon="10.96238"><ele>34.25</ele><time>2026-04-04T10:07:00.595Z</time></trkpt><trkpt lat="45.3312933" lon="10.9624433"><ele>34.5</ele><time>2026-04-04T10:07:01.595Z</time></trkpt><trkpt lat="45.3311783" lon="10.9625083"><ele>34.75</ele><time>2026-04-04T10:07:02.595Z</time></trkpt><trkpt lat="45.3310617" lon="10.9625717"><ele>35.0</ele><time>2026-04-04T10:07:03.595Z</time></trkpt><trkpt lat="45.3309483" lon="10.9626283"><ele>35.166666666666664</ele><time>2026-04-04T10:07:04.595Z</time></trkpt><trkpt lat="45.3308567" lon="10.9626733"><ele>35.33333333333333</ele><time>2026-04-04T10:07:05.595Z</time></trkpt><trkpt lat="45.33077" lon="10.96272"><ele>35.5</ele><time>2026-04-04T10:07:06.595Z</time></trkpt><trkpt lat="45.3306917" lon="10.9627583"><ele>35.666666666666664</ele><time>2026-04-04T10:07:07.595Z</time></trkpt><trkpt lat="45.330625" lon="10.9627967"><ele>35.833333333333336</ele><time>2026-04-04T10:07:08.595Z</time></trkpt><trkpt lat="45.33053" lon="10.962855"><ele>36.0</ele><time>2026-04-04T10:07:10.595Z</time></trkpt><trkpt lat="45.3304667" lon="10.962885"><ele>36.0</ele><time>2026-04-04T10:07:12.595Z</time></trkpt><trkpt lat="45.330405" lon="10.962915"><ele>36.0</ele><time>2026-04-04T10:07:15.595Z</time></trkpt><trkpt lat="45.3303033" lon="10.9629733"><ele>36.0</ele><time>2026-04-04T10:07:17.595Z</time></trkpt><trkpt lat="45.3302333" lon="10.9630133"><ele>36.0</ele><time>2026-04-04T10:07:18.595Z</time></trkpt><trkpt lat="45.3301533" lon="10.963065"><ele>36.0</ele><time>2026-04-04T10:07:19.595Z</time></trkpt><trkpt lat="45.3300867" lon="10.963115"><ele>36.0</ele><time>2026-04-04T10:07:20.596Z</time></trkpt><trkpt lat="45.330025" lon="10.9631533"><ele>36.0</ele><time>2026-04-04T10:07:21.595Z</time></trkpt><trkpt lat="45.3299233" lon="10.963205"><ele>36.0</ele><time>2026-04-04T10:07:23.595Z</time></trkpt><trkpt lat="45.329855" lon="10.96324"><ele>36.0</ele><time>2026-04-04T10:07:25.595Z</time></trkpt><trkpt lat="45.3299983" lon="10.9631817"><ele>36.0</ele><time>2026-04-04T10:07:32.595Z</time></trkpt><trkpt lat="45.3301083" lon="10.9631167"><ele>36.0</ele><time>2026-04-04T10:07:33.595Z</time></trkpt><trkpt lat="45.3302283" lon="10.9630383"><ele>36.0</ele><time>2026-04-04T10:07:34.595Z</time></trkpt><trkpt lat="45.3303633" lon="10.9629667"><ele>36.0</ele><time>2026-04-04T10:07:35.595Z</time></trkpt><trkpt lat="45.3305133" lon="10.9628817"><ele>36.0</ele><time>2026-04-04T10:07:36.595Z</time></trkpt><trkpt lat="45.3306633" lon="10.962795"><ele>36.0</ele><time>2026-04-04T10:07:37.595Z</time></trkpt><trkpt lat="45.3308117" lon="10.962715"><ele>36.0</ele><time>2026-04-04T10:07:38.595Z</time></trkpt><trkpt lat="45.33094" lon="10.9626417"><ele>36.0</ele><time>2026-04-04T10:07:39.595Z</time></trkpt><trkpt lat="45.3310617" lon="10.96258"><ele>36.0</ele><time>2026-04-04T10:07:40.595Z</time></trkpt><trkpt lat="45.3311767" lon="10.9625133"><ele>35.75</ele><time>2026-04-04T10:07:41.595Z</time></trkpt><trkpt lat="45.33129" lon="10.9624483"><ele>35.5</ele><time>2026-04-04T10:07:42.595Z</time></trkpt><trkpt lat="45.3314067" lon="10.9623767"><ele>35.25</ele><time>2026-04-04T10:07:43.595Z</time></trkpt><trkpt lat="45.3315217" lon="10.9623067"><ele>35.0</ele><time>2026-04-04T10:07:44.595Z</time></trkpt><trkpt lat="45.331635" lon="10.9622283"><ele>34.75</ele><time>2026-04-04T10:07:45.595Z</time></trkpt><trkpt lat="45.331755" lon="10.96214"><ele>34.5</ele><time>2026-04-04T10:07:46.595Z</time></trkpt><trkpt lat="45.3318783" lon="10.9620533"><ele>34.25</ele><time>2026-04-04T10:07:47.595Z</time></trkpt><trkpt lat="45.332" lon="10.9619683"><ele>34.0</ele><time>2026-04-04T10:07:48.595Z</time></trkpt><trkpt lat="45.33212" lon="10.9618933"><ele>34.25</ele><time>2026-04-04T10:07:49.595Z</time></trkpt><trkpt lat="45.3322333" lon="10.961815"><ele>34.5</ele><time>2026-04-04T10:07:50.595Z</time></trkpt><trkpt lat="45.33235" lon="10.961745"><ele>34.75</ele><time>2026-04-04T10:07:51.595Z</time></trkpt><trkpt lat="45.33248" lon="10.961665"><ele>35.0</ele><time>2026-04-04T10:07:52.596Z</time></trkpt><trkpt lat="45.332605" lon="10.9615967"><ele>35.0</ele><time>2026-04-04T10:07:53.595Z</time></trkpt><trkpt lat="45.332725" lon="10.96153"><ele>35.0</ele><time>2026-04-04T10:07:54.595Z</time></trkpt><trkpt lat="45.332855" lon="10.9614583"><ele>35.0</ele><time>2026-04-04T10:07:55.595Z</time></trkpt><trkpt lat="45.3329867" lon="10.9613833"><ele>35.0</ele><time>2026-04-04T10:07:56.595Z</time></trkpt><trkpt lat="45.3331217" lon="10.9613117"><ele>35.25</ele><time>2026-04-04T10:07:57.595Z</time></trkpt><trkpt lat="45.3332567" lon="10.96124"><ele>35.5</ele><time>2026-04-04T10:07:58.595Z</time></trkpt><trkpt lat="45.333395" lon="10.9611533"><ele>35.75</ele><time>2026-04-04T10:07:59.595Z</time></trkpt><trkpt lat="45.333525" lon="10.96108"><ele>36.0</ele><time>2026-04-04T10:08:00.595Z</time></trkpt><trkpt lat="45.3336633" lon="10.96101"><ele>36.0</ele><time>2026-04-04T10:08:01.595Z</time></trkpt><trkpt lat="45.3337967" lon="10.9609317"><ele>36.0</ele><time>2026-04-04T10:08:02.595Z</time></trkpt><trkpt lat="45.3339183" lon="10.96085"><ele>36.0</ele><time>2026-04-04T10:08:03.595Z</time></trkpt><trkpt lat="45.3340283" lon="10.960775"><ele>36.0</ele><time>2026-04-04T10:08:04.595Z</time></trkpt><trkpt lat="45.3341467" lon="10.9607067"><ele>35.8</ele><time>2026-04-04T10:08:05.595Z</time></trkpt><trkpt lat="45.3342467" lon="10.9606467"><ele>35.6</ele><time>2026-04-04T10:08:06.595Z</time></trkpt><trkpt lat="45.3343433" lon="10.9605783"><ele>35.4</ele><time>2026-04-04T10:08:07.595Z</time></trkpt><trkpt lat="45.3344433" lon="10.96051"><ele>35.2</ele><time>2026-04-04T10:08:08.595Z</time></trkpt><trkpt lat="45.3345283" lon="10.96045"><ele>35.0</ele><time>2026-04-04T10:08:09.595Z</time></trkpt><trkpt lat="45.3346133" lon="10.9604017"><ele>35.0</ele><time>2026-04-04T10:08:10.595Z</time></trkpt><trkpt lat="45.3347017" lon="10.96036"><ele>35.0</ele><time>2026-04-04T10:08:11.595Z</time></trkpt><trkpt lat="45.3347867" lon="10.960335"><ele>35.0</ele><time>2026-04-04T10:08:12.595Z</time></trkpt><trkpt lat="45.334865" lon="10.9603267"><ele>35.0</ele><time>2026-04-04T10:08:13.595Z</time></trkpt><trkpt lat="45.3349417" lon="10.960315"><ele>35.0</ele><time>2026-04-04T10:08:14.595Z</time></trkpt><trkpt lat="45.3350083" lon="10.9603"><ele>35.0</ele><time>2026-04-04T10:08:15.595Z</time></trkpt><trkpt lat="45.3350717" lon="10.9602733"><ele>35.0</ele><time>2026-04-04T10:08:16.595Z</time></trkpt><trkpt lat="45.3351333" lon="10.9602333"><ele>35.0</ele><time>2026-04-04T10:08:17.595Z</time></trkpt><trkpt lat="45.3352083" lon="10.960175"><ele>35.0</ele><time>2026-04-04T10:08:18.595Z</time></trkpt><trkpt lat="45.335295" lon="10.960115"><ele>35.0</ele><time>2026-04-04T10:08:19.595Z</time></trkpt><trkpt lat="45.3353733" lon="10.9600767"><ele>35.0</ele><time>2026-04-04T10:08:20.595Z</time></trkpt><trkpt lat="45.3354583" lon="10.960045"><ele>35.0</ele><time>2026-04-04T10:08:21.595Z</time></trkpt><trkpt lat="45.3355433" lon="10.96001"><ele>35.166666666666664</ele><time>2026-04-04T10:08:22.595Z</time></trkpt><trkpt lat="45.33563" lon="10.9599883"><ele>35.33333333333333</ele><time>2026-04-04T10:08:23.595Z</time></trkpt><trkpt lat="45.3357133" lon="10.9599617"><ele>35.5</ele><time>2026-04-04T10:08:24.595Z</time></trkpt><trkpt lat="45.335785" lon="10.9599367"><ele>35.666666666666664</ele><time>2026-04-04T10:08:25.595Z</time></trkpt><trkpt lat="45.3358517" lon="10.9599167"><ele>35.833333333333336</ele><time>2026-04-04T10:08:26.595Z</time></trkpt><trkpt lat="45.335925" lon="10.9598983"><ele>36.0</ele><time>2026-04-04T10:08:27.595Z</time></trkpt><trkpt lat="45.336005" lon="10.9598767"><ele>36.0</ele><time>2026-04-04T10:08:28.595Z</time></trkpt><trkpt lat="45.3361" lon="10.9598417"><ele>36.0</ele><time>2026-04-04T10:08:29.595Z</time></trkpt><trkpt lat="45.3362067" lon="10.9598033"><ele>36.0</ele><time>2026-04-04T10:08:30.595Z</time></trkpt><trkpt lat="45.3363217" lon="10.9597667"><ele>36.0</ele><time>2026-04-04T10:08:31.595Z</time></trkpt><trkpt lat="45.3364383" lon="10.9597233"><ele>36.0</ele><time>2026-04-04T10:08:32.595Z</time></trkpt><trkpt lat="45.33655" lon="10.9596933"><ele>35.75</ele><time>2026-04-04T10:08:33.595Z</time></trkpt><trkpt lat="45.3366683" lon="10.9596583"><ele>35.5</ele><time>2026-04-04T10:08:34.595Z</time></trkpt><trkpt lat="45.3367983" lon="10.95962"><ele>35.25</ele><time>2026-04-04T10:08:35.595Z</time></trkpt><trkpt lat="45.3369383" lon="10.9595833"><ele>35.0</ele><time>2026-04-04T10:08:36.595Z</time></trkpt><trkpt lat="45.3370817" lon="10.9595383"><ele>35.0</ele><time>2026-04-04T10:08:37.595Z</time></trkpt><trkpt lat="45.3372233" lon="10.959485"><ele>35.0</ele><time>2026-04-04T10:08:38.595Z</time></trkpt><trkpt lat="45.3373717" lon="10.9594233"><ele>35.0</ele><time>2026-04-04T10:08:39.595Z</time></trkpt><trkpt lat="45.3375183" lon="10.95937"><ele>35.0</ele><time>2026-04-04T10:08:40.595Z</time></trkpt><trkpt lat="45.3376533" lon="10.959325"><ele>35.0</ele><time>2026-04-04T10:08:41.595Z</time></trkpt><trkpt lat="45.3377883" lon="10.95928"><ele>35.0</ele><time>2026-04-04T10:08:42.595Z</time></trkpt><trkpt lat="45.337925" lon="10.959225"><ele>35.0</ele><time>2026-04-04T10:08:43.595Z</time></trkpt><trkpt lat="45.338075" lon="10.9591533"><ele>35.0</ele><time>2026-04-04T10:08:44.595Z</time></trkpt><trkpt lat="45.338215" lon="10.959085"><ele>35.0</ele><time>2026-04-04T10:08:45.595Z</time></trkpt><trkpt lat="45.3383517" lon="10.9590067"><ele>35.0</ele><time>2026-04-04T10:08:46.595Z</time></trkpt><trkpt lat="45.3384883" lon="10.9589283"><ele>35.0</ele><time>2026-04-04T10:08:47.595Z</time></trkpt><trkpt lat="45.3386167" lon="10.9588433"><ele>35.0</ele><time>2026-04-04T10:08:48.595Z</time></trkpt><trkpt lat="45.3387417" lon="10.9587617"><ele>35.0</ele><time>2026-04-04T10:08:49.595Z</time></trkpt><trkpt lat="45.3388733" lon="10.95867"><ele>35.0</ele><time>2026-04-04T10:08:50.596Z</time></trkpt><trkpt lat="45.3389883" lon="10.95858"><ele>35.0</ele><time>2026-04-04T10:08:51.595Z</time></trkpt><trkpt lat="45.3390983" lon="10.9585033"><ele>35.2</ele><time>2026-04-04T10:08:52.595Z</time></trkpt><trkpt lat="45.3391983" lon="10.9584283"><ele>35.4</ele><time>2026-04-04T10:08:53.595Z</time></trkpt><trkpt lat="45.33929" lon="10.95834"><ele>35.6</ele><time>2026-04-04T10:08:54.595Z</time></trkpt><trkpt lat="45.3393783" lon="10.958245"><ele>35.8</ele><time>2026-04-04T10:08:55.595Z</time></trkpt><trkpt lat="45.339455" lon="10.9581317"><ele>36.0</ele><time>2026-04-04T10:08:56.595Z</time></trkpt><trkpt lat="45.3395233" lon="10.9580167"><ele>36.0</ele><time>2026-04-04T10:08:57.595Z</time></trkpt><trkpt lat="45.33958" lon="10.9578817"><ele>36.0</ele><time>2026-04-04T10:08:58.595Z</time></trkpt><trkpt lat="45.3396317" lon="10.95773"><ele>36.0</ele><time>2026-04-04T10:08:59.595Z</time></trkpt><trkpt lat="45.339675" lon="10.957575"><ele>36.0</ele><time>2026-04-04T10:09:00.595Z</time></trkpt><trkpt lat="45.33971" lon="10.9573967"><ele>35.75</ele><time>2026-04-04T10:09:01.595Z</time></trkpt><trkpt lat="45.3397467" lon="10.9572067"><ele>35.5</ele><time>2026-04-04T10:09:02.595Z</time></trkpt><trkpt lat="45.3397767" lon="10.9570317"><ele>35.25</ele><time>2026-04-04T10:09:03.595Z</time></trkpt><trkpt lat="45.3398067" lon="10.9568917"><ele>35.0</ele><time>2026-04-04T10:09:04.595Z</time></trkpt><trkpt lat="45.3398317" lon="10.9567717"><ele>35.0</ele><time>2026-04-04T10:09:05.595Z</time></trkpt><trkpt lat="45.3398517" lon="10.95667"><ele>35.0</ele><time>2026-04-04T10:09:06.595Z</time></trkpt><trkpt lat="45.3398833" lon="10.9565483"><ele>35.0</ele><time>2026-04-04T10:09:08.595Z</time></trkpt><trkpt lat="45.3398983" lon="10.9564417"><ele>35.0</ele><time>2026-04-04T10:09:11.595Z</time></trkpt><trkpt lat="45.3398317" lon="10.9563433"><ele>35.0</ele><time>2026-04-04T10:09:13.596Z</time></trkpt><trkpt lat="45.3397667" lon="10.9562933"><ele>35.0</ele><time>2026-04-04T10:09:14.595Z</time></trkpt><trkpt lat="45.3396817" lon="10.9562367"><ele>35.25</ele><time>2026-04-04T10:09:15.595Z</time></trkpt><trkpt lat="45.33958" lon="10.9561767"><ele>35.5</ele><time>2026-04-04T10:09:16.595Z</time></trkpt><trkpt lat="45.3394767" lon="10.9561167"><ele>35.75</ele><time>2026-04-04T10:09:17.595Z</time></trkpt><trkpt lat="45.3393683" lon="10.9560467"><ele>36.0</ele><time>2026-04-04T10:09:18.595Z</time></trkpt><trkpt lat="45.3392667" lon="10.9559683"><ele>36.0</ele><time>2026-04-04T10:09:19.595Z</time></trkpt><trkpt lat="45.3391667" lon="10.9558867"><ele>36.0</ele><time>2026-04-04T10:09:20.595Z</time></trkpt><trkpt lat="45.3390733" lon="10.9557967"><ele>36.0</ele><time>2026-04-04T10:09:21.595Z</time></trkpt><trkpt lat="45.3389833" lon="10.9557133"><ele>36.0</ele><time>2026-04-04T10:09:22.595Z</time></trkpt><trkpt lat="45.3388917" lon="10.9556283"><ele>36.0</ele><time>2026-04-04T10:09:23.595Z</time></trkpt><trkpt lat="45.3388" lon="10.9555317"><ele>35.75</ele><time>2026-04-04T10:09:24.595Z</time></trkpt><trkpt lat="45.3387133" lon="10.9554333"><ele>35.5</ele><time>2026-04-04T10:09:25.595Z</time></trkpt><trkpt lat="45.3386333" lon="10.9553317"><ele>35.25</ele><time>2026-04-04T10:09:26.595Z</time></trkpt><trkpt lat="45.33854" lon="10.9552367"><ele>35.0</ele><time>2026-04-04T10:09:27.595Z</time></trkpt><trkpt lat="45.3384383" lon="10.9551233"><ele>35.33333333333333</ele><time>2026-04-04T10:09:28.595Z</time></trkpt><trkpt lat="45.3383317" lon="10.954985"><ele>35.666666666666664</ele><time>2026-04-04T10:09:29.595Z</time></trkpt><trkpt lat="45.3382083" lon="10.954855"><ele>36.0</ele><time>2026-04-04T10:09:30.595Z</time></trkpt><trkpt lat="45.33809" lon="10.95471"><ele>35.666666666666664</ele><time>2026-04-04T10:09:31.595Z</time></trkpt><trkpt lat="45.3379767" lon="10.95457"><ele>35.33333333333333</ele><time>2026-04-04T10:09:32.595Z</time></trkpt><trkpt lat="45.3378567" lon="10.95442"><ele>35.0</ele><time>2026-04-04T10:09:33.595Z</time></trkpt><trkpt lat="45.3377417" lon="10.95426"><ele>34.666666666666664</ele><time>2026-04-04T10:09:34.595Z</time></trkpt><trkpt lat="45.3376233" lon="10.9541133"><ele>34.333333333333336</ele><time>2026-04-04T10:09:35.595Z</time></trkpt><trkpt lat="45.3375017" lon="10.9539683"><ele>34.0</ele><time>2026-04-04T10:09:36.595Z</time></trkpt><trkpt lat="45.3373733" lon="10.9538333"><ele>34.0</ele><time>2026-04-04T10:09:37.595Z</time></trkpt><trkpt lat="45.33725" lon="10.9537067"><ele>34.0</ele><time>2026-04-04T10:09:38.595Z</time></trkpt><trkpt lat="45.3371167" lon="10.9535967"><ele>34.0</ele><time>2026-04-04T10:09:39.595Z</time></trkpt><trkpt lat="45.3369767" lon="10.9535033"><ele>34.0</ele><time>2026-04-04T10:09:40.595Z</time></trkpt><trkpt lat="45.3368283" lon="10.95343"><ele>34.0</ele><time>2026-04-04T10:09:41.595Z</time></trkpt><trkpt lat="45.3366767" lon="10.9533617"><ele>34.0</ele><time>2026-04-04T10:09:42.595Z</time></trkpt><trkpt lat="45.336525" lon="10.95332"><ele>34.333333333333336</ele><time>2026-04-04T10:09:43.595Z</time></trkpt><trkpt lat="45.336375" lon="10.95328"><ele>34.666666666666664</ele><time>2026-04-04T10:09:44.595Z</time></trkpt><trkpt lat="45.3362117" lon="10.95324"><ele>35.0</ele><time>2026-04-04T10:09:45.595Z</time></trkpt><trkpt lat="45.33606" lon="10.953195"><ele>35.0</ele><time>2026-04-04T10:09:46.595Z</time></trkpt><trkpt lat="45.3359083" lon="10.9531483"><ele>35.0</ele><time>2026-04-04T10:09:47.596Z</time></trkpt><trkpt lat="45.335735" lon="10.9531033"><ele>35.0</ele><time>2026-04-04T10:09:48.595Z</time></trkpt><trkpt lat="45.3355683" lon="10.9530567"><ele>35.0</ele><time>2026-04-04T10:09:49.595Z</time></trkpt><trkpt lat="45.3354067" lon="10.9529933"><ele>35.0</ele><time>2026-04-04T10:09:50.596Z</time></trkpt><trkpt lat="45.33525" lon="10.95294"><ele>35.0</ele><time>2026-04-04T10:09:51.595Z</time></trkpt><trkpt lat="45.3350983" lon="10.9528883"><ele>35.0</ele><time>2026-04-04T10:09:52.596Z</time></trkpt><trkpt lat="45.334935" lon="10.9528367"><ele>35.0</ele><time>2026-04-04T10:09:53.595Z</time></trkpt><trkpt lat="45.3347667" lon="10.95279"><ele>35.0</ele><time>2026-04-04T10:09:54.595Z</time></trkpt><trkpt lat="45.3346067" lon="10.9527433"><ele>35.33333333333333</ele><time>2026-04-04T10:09:55.595Z</time></trkpt><trkpt lat="45.334445" lon="10.9526817"><ele>35.666666666666664</ele><time>2026-04-04T10:09:56.595Z</time></trkpt><trkpt lat="45.334285" lon="10.95263"><ele>36.0</ele><time>2026-04-04T10:09:57.595Z</time></trkpt><trkpt lat="45.3341283" lon="10.95258"><ele>35.666666666666664</ele><time>2026-04-04T10:09:58.595Z</time></trkpt><trkpt lat="45.3339583" lon="10.9525267"><ele>35.33333333333333</ele><time>2026-04-04T10:09:59.595Z</time></trkpt><trkpt lat="45.3337967" lon="10.9524783"><ele>35.0</ele><time>2026-04-04T10:10:00.595Z</time></trkpt><trkpt lat="45.3336383" lon="10.952435"><ele>35.0</ele><time>2026-04-04T10:10:01.594Z</time></trkpt><trkpt lat="45.3334767" lon="10.95237"><ele>35.0</ele><time>2026-04-04T10:10:02.594Z</time></trkpt><trkpt lat="45.333325" lon="10.9523083"><ele>35.0</ele><time>2026-04-04T10:10:03.594Z</time></trkpt><trkpt lat="45.3331683" lon="10.95227"><ele>35.25</ele><time>2026-04-04T10:10:04.594Z</time></trkpt><trkpt lat="45.3330383" lon="10.9522067"><ele>35.5</ele><time>2026-04-04T10:10:05.594Z</time></trkpt><trkpt lat="45.3329167" lon="10.952155"><ele>35.75</ele><time>2026-04-04T10:10:06.594Z</time></trkpt><trkpt lat="45.332805" lon="10.9520817"><ele>36.0</ele><time>2026-04-04T10:10:07.594Z</time></trkpt><trkpt lat="45.332675" lon="10.95201"><ele>36.0</ele><time>2026-04-04T10:10:08.594Z</time></trkpt><trkpt lat="45.3325483" lon="10.9519183"><ele>36.0</ele><time>2026-04-04T10:10:09.594Z</time></trkpt><trkpt lat="45.3324283" lon="10.9518083"><ele>36.0</ele><time>2026-04-04T10:10:10.594Z</time></trkpt><trkpt lat="45.3323083" lon="10.95169"><ele>36.0</ele><time>2026-04-04T10:10:11.594Z</time></trkpt><trkpt lat="45.3321883" lon="10.9515683"><ele>35.666666666666664</ele><time>2026-04-04T10:10:12.594Z</time></trkpt><trkpt lat="45.3320533" lon="10.9514633"><ele>35.33333333333333</ele><time>2026-04-04T10:10:13.594Z</time></trkpt><trkpt lat="45.3319167" lon="10.9513633"><ele>35.0</ele><time>2026-04-04T10:10:14.594Z</time></trkpt><trkpt lat="45.3317817" lon="10.95126"><ele>35.0</ele><time>2026-04-04T10:10:15.594Z</time></trkpt><trkpt lat="45.3316367" lon="10.951165"><ele>35.0</ele><time>2026-04-04T10:10:16.594Z</time></trkpt><trkpt lat="45.33151" lon="10.9510583"><ele>35.0</ele><time>2026-04-04T10:10:17.594Z</time></trkpt><trkpt lat="45.3313867" lon="10.9509467"><ele>35.33333333333333</ele><time>2026-04-04T10:10:18.594Z</time></trkpt><trkpt lat="45.33125" lon="10.950845"><ele>35.666666666666664</ele><time>2026-04-04T10:10:19.594Z</time></trkpt><trkpt lat="45.3311" lon="10.9507667"><ele>36.0</ele><time>2026-04-04T10:10:20.594Z</time></trkpt><trkpt lat="45.330955" lon="10.9507017"><ele>36.0</ele><time>2026-04-04T10:10:21.595Z</time></trkpt><trkpt lat="45.3308133" lon="10.95064"><ele>36.0</ele><time>2026-04-04T10:10:22.594Z</time></trkpt><trkpt lat="45.3306767" lon="10.9505783"><ele>36.0</ele><time>2026-04-04T10:10:23.594Z</time></trkpt><trkpt lat="45.330545" lon="10.95049"><ele>36.0</ele><time>2026-04-04T10:10:24.594Z</time></trkpt><trkpt lat="45.33042" lon="10.95041"><ele>36.2</ele><time>2026-04-04T10:10:25.594Z</time></trkpt><trkpt lat="45.3302917" lon="10.9503433"><ele>36.400000000000006</ele><time>2026-04-04T10:10:26.594Z</time></trkpt><trkpt lat="45.3301967" lon="10.95028"><ele>36.6</ele><time>2026-04-04T10:10:27.594Z</time></trkpt><trkpt lat="45.3301183" lon="10.9501967"><ele>36.800000000000004</ele><time>2026-04-04T10:10:28.594Z</time></trkpt><trkpt lat="45.33006" lon="10.9501233"><ele>37.0</ele><time>2026-04-04T10:10:29.594Z</time></trkpt><trkpt lat="45.3300183" lon="10.950045"><ele>37.16666666666667</ele><time>2026-04-04T10:10:30.595Z</time></trkpt><trkpt lat="45.3299983" lon="10.9499467"><ele>37.333333333333336</ele><time>2026-04-04T10:10:31.594Z</time></trkpt><trkpt lat="45.3299933" lon="10.9498433"><ele>37.5</ele><time>2026-04-04T10:10:32.594Z</time></trkpt><trkpt lat="45.32998" lon="10.949755"><ele>37.666666666666664</ele><time>2026-04-04T10:10:33.594Z</time></trkpt><trkpt lat="45.3299083" lon="10.9496583"><ele>37.83333333333333</ele><time>2026-04-04T10:10:35.595Z</time></trkpt><trkpt lat="45.329835" lon="10.949655"><ele>38.0</ele><time>2026-04-04T10:10:36.594Z</time></trkpt><trkpt lat="45.3297433" lon="10.949645"><ele>37.8</ele><time>2026-04-04T10:10:37.594Z</time></trkpt><trkpt lat="45.3296433" lon="10.949615"><ele>37.599999999999994</ele><time>2026-04-04T10:10:38.594Z</time></trkpt><trkpt lat="45.329555" lon="10.949575"><ele>37.400000000000006</ele><time>2026-04-04T10:10:39.594Z</time></trkpt><trkpt lat="45.329485" lon="10.949545"><ele>37.2</ele><time>2026-04-04T10:10:40.594Z</time></trkpt><trkpt lat="45.3294167" lon="10.9495683"><ele>37.0</ele><time>2026-04-04T10:10:43.594Z</time></trkpt><trkpt lat="45.329505" lon="10.949665"><ele>37.0</ele><time>2026-04-04T10:10:45.594Z</time></trkpt><trkpt lat="45.3295833" lon="10.9497333"><ele>37.0</ele><time>2026-04-04T10:10:46.594Z</time></trkpt><trkpt lat="45.3296467" lon="10.9498133"><ele>37.0</ele><time>2026-04-04T10:10:47.594Z</time></trkpt><trkpt lat="45.3297067" lon="10.9499183"><ele>37.0</ele><time>2026-04-04T10:10:48.594Z</time></trkpt><trkpt lat="45.3297567" lon="10.9500417"><ele>37.0</ele><time>2026-04-04T10:10:49.594Z</time></trkpt><trkpt lat="45.329785" lon="10.950165"><ele>37.0</ele><time>2026-04-04T10:10:50.594Z</time></trkpt><trkpt lat="45.3297617" lon="10.9502817"><ele>37.0</ele><time>2026-04-04T10:10:51.594Z</time></trkpt><trkpt lat="45.3297533" lon="10.9504533"><ele>37.0</ele><time>2026-04-04T10:10:52.594Z</time></trkpt><trkpt lat="45.3297317" lon="10.9506133"><ele>37.0</ele><time>2026-04-04T10:10:53.594Z</time></trkpt><trkpt lat="45.3297017" lon="10.9507667"><ele>37.0</ele><time>2026-04-04T10:10:54.594Z</time></trkpt><trkpt lat="45.3296733" lon="10.9509133"><ele>36.66666666666667</ele><time>2026-04-04T10:10:55.594Z</time></trkpt><trkpt lat="45.3296383" lon="10.951035"><ele>36.333333333333336</ele><time>2026-04-04T10:10:56.594Z</time></trkpt><trkpt lat="45.3296233" lon="10.9511267"><ele>36.0</ele><time>2026-04-04T10:10:57.594Z</time></trkpt><trkpt lat="45.3295983" lon="10.9512433"><ele>35.666666666666664</ele><time>2026-04-04T10:10:59.594Z</time></trkpt><trkpt lat="45.3295717" lon="10.9513367"><ele>35.33333333333333</ele><time>2026-04-04T10:11:02.594Z</time></trkpt><trkpt lat="45.3294733" lon="10.9513883"><ele>35.0</ele><time>2026-04-04T10:11:05.594Z</time></trkpt><trkpt lat="45.3293933" lon="10.9513817"><ele>35.0</ele><time>2026-04-04T10:11:06.594Z</time></trkpt><trkpt lat="45.3292883" lon="10.95136"><ele>35.0</ele><time>2026-04-04T10:11:07.595Z</time></trkpt><trkpt lat="45.3291567" lon="10.9513283"><ele>35.0</ele><time>2026-04-04T10:11:08.594Z</time></trkpt><trkpt lat="45.329" lon="10.951305"><ele>35.0</ele><time>2026-04-04T10:11:09.594Z</time></trkpt><trkpt lat="45.3288467" lon="10.95128"><ele>35.666666666666664</ele><time>2026-04-04T10:11:10.594Z</time></trkpt><trkpt lat="45.3287" lon="10.9512517"><ele>36.333333333333336</ele><time>2026-04-04T10:11:11.594Z</time></trkpt><trkpt lat="45.3285533" lon="10.951225"><ele>37.0</ele><time>2026-04-04T10:11:12.594Z</time></trkpt><trkpt lat="45.3283983" lon="10.951205"><ele>37.0</ele><time>2026-04-04T10:11:13.595Z</time></trkpt><trkpt lat="45.3282433" lon="10.9511883"><ele>37.0</ele><time>2026-04-04T10:11:14.594Z</time></trkpt><trkpt lat="45.3280917" lon="10.95117"><ele>37.0</ele><time>2026-04-04T10:11:15.594Z</time></trkpt><trkpt lat="45.3279383" lon="10.951155"><ele>36.0</ele><time>2026-04-04T10:11:16.594Z</time></trkpt><trkpt lat="45.3277783" lon="10.95115"><ele>35.0</ele><time>2026-04-04T10:11:17.594Z</time></trkpt><trkpt lat="45.3276183" lon="10.9511367"><ele>34.0</ele><time>2026-04-04T10:11:18.594Z</time></trkpt><trkpt lat="45.327455" lon="10.95113"><ele>34.0</ele><time>2026-04-04T10:11:19.594Z</time></trkpt><trkpt lat="45.3272883" lon="10.9511217"><ele>34.0</ele><time>2026-04-04T10:11:20.594Z</time></trkpt><trkpt lat="45.32712" lon="10.9511083"><ele>34.0</ele><time>2026-04-04T10:11:21.594Z</time></trkpt><trkpt lat="45.326945" lon="10.9510967"><ele>34.0</ele><time>2026-04-04T10:11:22.594Z</time></trkpt><trkpt lat="45.32677" lon="10.95108"><ele>34.0</ele><time>2026-04-04T10:11:23.594Z</time></trkpt><trkpt lat="45.3266083" lon="10.95106"><ele>34.0</ele><time>2026-04-04T10:11:24.594Z</time></trkpt><trkpt lat="45.3264433" lon="10.9510433"><ele>34.66666666666667</ele><time>2026-04-04T10:11:25.594Z</time></trkpt><trkpt lat="45.3262717" lon="10.951015"><ele>35.333333333333336</ele><time>2026-04-04T10:11:26.594Z</time></trkpt><trkpt lat="45.326115" lon="10.9509883"><ele>36.0</ele><time>2026-04-04T10:11:27.594Z</time></trkpt><trkpt lat="45.3259467" lon="10.9509533"><ele>36.0</ele><time>2026-04-04T10:11:28.594Z</time></trkpt><trkpt lat="45.3257917" lon="10.9509083"><ele>36.0</ele><time>2026-04-04T10:11:29.594Z</time></trkpt><trkpt lat="45.3256283" lon="10.950865"><ele>36.0</ele><time>2026-04-04T10:11:30.594Z</time></trkpt><trkpt lat="45.3254617" lon="10.95083"><ele>35.666666666666664</ele><time>2026-04-04T10:11:31.594Z</time></trkpt><trkpt lat="45.3253" lon="10.9508033"><ele>35.33333333333333</ele><time>2026-04-04T10:11:32.594Z</time></trkpt><trkpt lat="45.3251383" lon="10.9507683"><ele>35.0</ele><time>2026-04-04T10:11:33.594Z</time></trkpt><trkpt lat="45.324985" lon="10.9507233"><ele>35.0</ele><time>2026-04-04T10:11:34.594Z</time></trkpt><trkpt lat="45.32482" lon="10.950685"><ele>35.0</ele><time>2026-04-04T10:11:35.594Z</time></trkpt><trkpt lat="45.3246567" lon="10.9506533"><ele>35.0</ele><time>2026-04-04T10:11:36.594Z</time></trkpt><trkpt lat="45.3245033" lon="10.9506033"><ele>35.0</ele><time>2026-04-04T10:11:37.594Z</time></trkpt><trkpt lat="45.3243467" lon="10.9505717"><ele>35.0</ele><time>2026-04-04T10:11:38.594Z</time></trkpt><trkpt lat="45.3241783" lon="10.9505583"><ele>35.0</ele><time>2026-04-04T10:11:39.594Z</time></trkpt><trkpt lat="45.3240167" lon="10.95054"><ele>35.33333333333333</ele><time>2026-04-04T10:11:40.594Z</time></trkpt><trkpt lat="45.32385" lon="10.9505167"><ele>35.666666666666664</ele><time>2026-04-04T10:11:41.594Z</time></trkpt><trkpt lat="45.323685" lon="10.9505033"><ele>36.0</ele><time>2026-04-04T10:11:42.594Z</time></trkpt><trkpt lat="45.323525" lon="10.9504817"><ele>36.0</ele><time>2026-04-04T10:11:43.594Z</time></trkpt><trkpt lat="45.3233717" lon="10.9504767"><ele>36.0</ele><time>2026-04-04T10:11:44.594Z</time></trkpt><trkpt lat="45.3232217" lon="10.95047"><ele>36.0</ele><time>2026-04-04T10:11:45.594Z</time></trkpt><trkpt lat="45.3230683" lon="10.95046"><ele>35.75</ele><time>2026-04-04T10:11:46.594Z</time></trkpt><trkpt lat="45.32294" lon="10.9504583"><ele>35.5</ele><time>2026-04-04T10:11:47.594Z</time></trkpt><trkpt lat="45.3228217" lon="10.9504483"><ele>35.25</ele><time>2026-04-04T10:11:48.594Z</time></trkpt><trkpt lat="45.3227033" lon="10.9504367"><ele>35.0</ele><time>2026-04-04T10:11:49.594Z</time></trkpt><trkpt lat="45.3226" lon="10.9504217"><ele>35.0</ele><time>2026-04-04T10:11:50.594Z</time></trkpt><trkpt lat="45.3225233" lon="10.95041"><ele>35.0</ele><time>2026-04-04T10:11:51.594Z</time></trkpt><trkpt lat="45.3224583" lon="10.9504067"><ele>35.0</ele><time>2026-04-04T10:11:52.594Z</time></trkpt><trkpt lat="45.3223783" lon="10.95041"><ele>35.0</ele><time>2026-04-04T10:11:54.594Z</time></trkpt><trkpt lat="45.3222617" lon="10.9504233"><ele>35.0</ele><time>2026-04-04T10:12:08.594Z</time></trkpt><trkpt lat="45.3221833" lon="10.9504767"><ele>35.0</ele><time>2026-04-04T10:12:09.594Z</time></trkpt><trkpt lat="45.3221067" lon="10.950575"><ele>35.25</ele><time>2026-04-04T10:12:10.594Z</time></trkpt><trkpt lat="45.3220517" lon="10.9507083"><ele>35.5</ele><time>2026-04-04T10:12:11.594Z</time></trkpt><trkpt lat="45.3220483" lon="10.95086"><ele>35.75</ele><time>2026-04-04T10:12:12.594Z</time></trkpt><trkpt lat="45.32208" lon="10.9510333"><ele>36.0</ele><time>2026-04-04T10:12:13.594Z</time></trkpt><trkpt lat="45.3221583" lon="10.9512233"><ele>36.0</ele><time>2026-04-04T10:12:14.594Z</time></trkpt><trkpt lat="45.32225" lon="10.9514283"><ele>36.0</ele><time>2026-04-04T10:12:15.594Z</time></trkpt><trkpt lat="45.3223317" lon="10.951625"><ele>36.0</ele><time>2026-04-04T10:12:16.594Z</time></trkpt><trkpt lat="45.3223867" lon="10.951835"><ele>35.666666666666664</ele><time>2026-04-04T10:12:17.594Z</time></trkpt><trkpt lat="45.32242" lon="10.9520683"><ele>35.33333333333333</ele><time>2026-04-04T10:12:18.594Z</time></trkpt><trkpt lat="45.3224633" lon="10.9523"><ele>35.0</ele><time>2026-04-04T10:12:19.594Z</time></trkpt><trkpt lat="45.3225083" lon="10.95253"><ele>35.0</ele><time>2026-04-04T10:12:20.595Z</time></trkpt><trkpt lat="45.3225483" lon="10.9527583"><ele>35.0</ele><time>2026-04-04T10:12:21.594Z</time></trkpt><trkpt lat="45.322575" lon="10.953"><ele>35.0</ele><time>2026-04-04T10:12:22.594Z</time></trkpt><trkpt lat="45.322605" lon="10.9532367"><ele>34.33333333333333</ele><time>2026-04-04T10:12:23.594Z</time></trkpt><trkpt lat="45.3226383" lon="10.9534667"><ele>33.666666666666664</ele><time>2026-04-04T10:12:24.594Z</time></trkpt><trkpt lat="45.322655" lon="10.9537117"><ele>33.0</ele><time>2026-04-04T10:12:25.594Z</time></trkpt><trkpt lat="45.3226883" lon="10.9539483"><ele>33.0</ele><time>2026-04-04T10:12:26.594Z</time></trkpt><trkpt lat="45.3227133" lon="10.9541817"><ele>33.0</ele><time>2026-04-04T10:12:27.594Z</time></trkpt><trkpt lat="45.32275" lon="10.9544033"><ele>33.0</ele><time>2026-04-04T10:12:28.594Z</time></trkpt><trkpt lat="45.322795" lon="10.9546317"><ele>33.0</ele><time>2026-04-04T10:12:29.594Z</time></trkpt><trkpt lat="45.3228367" lon="10.95486"><ele>33.0</ele><time>2026-04-04T10:12:30.594Z</time></trkpt><trkpt lat="45.32287" lon="10.955085"><ele>33.0</ele><time>2026-04-04T10:12:31.594Z</time></trkpt><trkpt lat="45.3229183" lon="10.9553033"><ele>33.0</ele><time>2026-04-04T10:12:32.594Z</time></trkpt><trkpt lat="45.3229617" lon="10.9555217"><ele>33.0</ele><time>2026-04-04T10:12:33.594Z</time></trkpt><trkpt lat="45.32299" lon="10.95573"><ele>33.0</ele><time>2026-04-04T10:12:34.594Z</time></trkpt><trkpt lat="45.3230083" lon="10.95595"><ele>33.333333333333336</ele><time>2026-04-04T10:12:35.594Z</time></trkpt><trkpt lat="45.3230267" lon="10.956165"><ele>33.66666666666667</ele><time>2026-04-04T10:12:36.594Z</time></trkpt><trkpt lat="45.32304" lon="10.95639"><ele>34.0</ele><time>2026-04-04T10:12:37.594Z</time></trkpt><trkpt lat="45.3230433" lon="10.9566233"><ele>33.66666666666667</ele><time>2026-04-04T10:12:38.594Z</time></trkpt><trkpt lat="45.3230467" lon="10.9568767"><ele>33.333333333333336</ele><time>2026-04-04T10:12:39.594Z</time></trkpt><trkpt lat="45.3230633" lon="10.95711"><ele>33.0</ele><time>2026-04-04T10:12:40.594Z</time></trkpt><trkpt lat="45.3230733" lon="10.9573617"><ele>33.666666666666664</ele><time>2026-04-04T10:12:41.594Z</time></trkpt><trkpt lat="45.3230983" lon="10.95761"><ele>34.33333333333333</ele><time>2026-04-04T10:12:42.594Z</time></trkpt><trkpt lat="45.3231233" lon="10.9578583"><ele>35.0</ele><time>2026-04-04T10:12:43.594Z</time></trkpt><trkpt lat="45.323125" lon="10.9581033"><ele>35.0</ele><time>2026-04-04T10:12:44.594Z</time></trkpt><trkpt lat="45.3231433" lon="10.9583583"><ele>35.0</ele><time>2026-04-04T10:12:45.594Z</time></trkpt><trkpt lat="45.3231683" lon="10.9586133"><ele>35.0</ele><time>2026-04-04T10:12:46.594Z</time></trkpt><trkpt lat="45.3231933" lon="10.9588533"><ele>34.666666666666664</ele><time>2026-04-04T10:12:47.594Z</time></trkpt><trkpt lat="45.3232167" lon="10.9590917"><ele>34.333333333333336</ele><time>2026-04-04T10:12:48.594Z</time></trkpt><trkpt lat="45.3232433" lon="10.9593333"><ele>34.0</ele><time>2026-04-04T10:12:49.594Z</time></trkpt><trkpt lat="45.3232767" lon="10.959575"><ele>34.0</ele><time>2026-04-04T10:12:50.594Z</time></trkpt><trkpt lat="45.3232967" lon="10.9598233"><ele>34.0</ele><time>2026-04-04T10:12:51.594Z</time></trkpt><trkpt lat="45.3233267" lon="10.96007"><ele>34.0</ele><time>2026-04-04T10:12:52.594Z</time></trkpt><trkpt lat="45.3233467" lon="10.9603217"><ele>34.333333333333336</ele><time>2026-04-04T10:12:53.594Z</time></trkpt><trkpt lat="45.3233533" lon="10.9605767"><ele>34.666666666666664</ele><time>2026-04-04T10:12:54.594Z</time></trkpt><trkpt lat="45.3233817" lon="10.96082"><ele>35.0</ele><time>2026-04-04T10:12:55.594Z</time></trkpt><trkpt lat="45.3234017" lon="10.961075"><ele>35.0</ele><time>2026-04-04T10:12:56.594Z</time></trkpt><trkpt lat="45.3234233" lon="10.96133"><ele>35.0</ele><time>2026-04-04T10:12:57.595Z</time></trkpt><trkpt lat="45.323455" lon="10.961585"><ele>35.0</ele><time>2026-04-04T10:12:58.594Z</time></trkpt><trkpt lat="45.323465" lon="10.96183"><ele>35.33333333333333</ele><time>2026-04-04T10:12:59.594Z</time></trkpt><trkpt lat="45.3234833" lon="10.9620933"><ele>35.666666666666664</ele><time>2026-04-04T10:13:00.594Z</time></trkpt><trkpt lat="45.323505" lon="10.9623467"><ele>36.0</ele><time>2026-04-04T10:13:01.594Z</time></trkpt><trkpt lat="45.3235217" lon="10.9626"><ele>36.333333333333336</ele><time>2026-04-04T10:13:02.594Z</time></trkpt><trkpt lat="45.323545" lon="10.9628483"><ele>36.66666666666667</ele><time>2026-04-04T10:13:03.594Z</time></trkpt><trkpt lat="45.3235667" lon="10.96309"><ele>37.0</ele><time>2026-04-04T10:13:04.594Z</time></trkpt><trkpt lat="45.3235917" lon="10.9633333"><ele>36.333333333333336</ele><time>2026-04-04T10:13:05.594Z</time></trkpt><trkpt lat="45.3236167" lon="10.9635717"><ele>35.666666666666664</ele><time>2026-04-04T10:13:06.594Z</time></trkpt><trkpt lat="45.3236467" lon="10.9638083"><ele>35.0</ele><time>2026-04-04T10:13:07.594Z</time></trkpt><trkpt lat="45.3236567" lon="10.96406"><ele>35.666666666666664</ele><time>2026-04-04T10:13:08.594Z</time></trkpt><trkpt lat="45.32368" lon="10.9643"><ele>36.333333333333336</ele><time>2026-04-04T10:13:09.594Z</time></trkpt><trkpt lat="45.3237" lon="10.9645367"><ele>37.0</ele><time>2026-04-04T10:13:10.594Z</time></trkpt><trkpt lat="45.323725" lon="10.9647617"><ele>37.0</ele><time>2026-04-04T10:13:11.594Z</time></trkpt><trkpt lat="45.32374" lon="10.9649683"><ele>37.0</ele><time>2026-04-04T10:13:12.594Z</time></trkpt><trkpt lat="45.323755" lon="10.965145"><ele>37.0</ele><time>2026-04-04T10:13:13.594Z</time></trkpt><trkpt lat="45.3237733" lon="10.9653317"><ele>37.0</ele><time>2026-04-04T10:13:14.594Z</time></trkpt><trkpt lat="45.3237867" lon="10.9655417"><ele>37.333333333333336</ele><time>2026-04-04T10:13:15.594Z</time></trkpt><trkpt lat="45.32381" lon="10.9657583"><ele>37.666666666666664</ele><time>2026-04-04T10:13:16.594Z</time></trkpt><trkpt lat="45.3238267" lon="10.9659833"><ele>38.0</ele><time>2026-04-04T10:13:17.594Z</time></trkpt><trkpt lat="45.323845" lon="10.9662167"><ele>38.0</ele><time>2026-04-04T10:13:18.594Z</time></trkpt><trkpt lat="45.3238767" lon="10.9664633"><ele>38.0</ele><time>2026-04-04T10:13:19.594Z</time></trkpt><trkpt lat="45.3239033" lon="10.9667183"><ele>38.0</ele><time>2026-04-04T10:13:20.594Z</time></trkpt><trkpt lat="45.3239317" lon="10.9669767"><ele>37.33333333333333</ele><time>2026-04-04T10:13:21.594Z</time></trkpt><trkpt lat="45.3239517" lon="10.9672367"><ele>36.666666666666664</ele><time>2026-04-04T10:13:22.594Z</time></trkpt><trkpt lat="45.3239683" lon="10.9675083"><ele>36.0</ele><time>2026-04-04T10:13:23.594Z</time></trkpt><trkpt lat="45.32399" lon="10.967775"><ele>36.0</ele><time>2026-04-04T10:13:24.594Z</time></trkpt><trkpt lat="45.3240067" lon="10.9680383"><ele>36.0</ele><time>2026-04-04T10:13:25.594Z</time></trkpt><trkpt lat="45.3240267" lon="10.9683"><ele>36.0</ele><time>2026-04-04T10:13:26.594Z</time></trkpt><trkpt lat="45.3240533" lon="10.9685617"><ele>36.333333333333336</ele><time>2026-04-04T10:13:27.594Z</time></trkpt><trkpt lat="45.324065" lon="10.9688"><ele>36.66666666666667</ele><time>2026-04-04T10:13:28.594Z</time></trkpt><trkpt lat="45.3240817" lon="10.9690183"><ele>37.0</ele><time>2026-04-04T10:13:29.594Z</time></trkpt><trkpt lat="45.3241033" lon="10.969225"><ele>36.6</ele><time>2026-04-04T10:13:30.594Z</time></trkpt><trkpt lat="45.324125" lon="10.969405"><ele>36.2</ele><time>2026-04-04T10:13:31.594Z</time></trkpt><trkpt lat="45.3241783" lon="10.9695517"><ele>35.8</ele><time>2026-04-04T10:13:32.595Z</time></trkpt><trkpt lat="45.3242433" lon="10.9696617"><ele>35.4</ele><time>2026-04-04T10:13:33.594Z</time></trkpt><trkpt lat="45.3243283" lon="10.9697083"><ele>35.0</ele><time>2026-04-04T10:13:34.594Z</time></trkpt><trkpt lat="45.324415" lon="10.9697033"><ele>35.0</ele><time>2026-04-04T10:13:35.594Z</time></trkpt><trkpt lat="45.3244983" lon="10.969655"><ele>35.0</ele><time>2026-04-04T10:13:36.594Z</time></trkpt><trkpt lat="45.3246033" lon="10.9695417"><ele>35.0</ele><time>2026-04-04T10:13:37.594Z</time></trkpt><trkpt lat="45.3247317" lon="10.9693767"><ele>35.0</ele><time>2026-04-04T10:13:38.595Z</time></trkpt><trkpt lat="45.324875" lon="10.96921"><ele>35.0</ele><time>2026-04-04T10:13:39.594Z</time></trkpt><trkpt lat="45.32503" lon="10.969045"><ele>35.0</ele><time>2026-04-04T10:13:40.594Z</time></trkpt><trkpt lat="45.3251833" lon="10.96887"><ele>35.0</ele><time>2026-04-04T10:13:41.594Z</time></trkpt><trkpt lat="45.32534" lon="10.9686983"><ele>35.0</ele><time>2026-04-04T10:13:42.594Z</time></trkpt><trkpt lat="45.3255117" lon="10.9685317"><ele>35.0</ele><time>2026-04-04T10:13:43.595Z</time></trkpt><trkpt lat="45.3256917" lon="10.9683583"><ele>35.0</ele><time>2026-04-04T10:13:44.594Z</time></trkpt><trkpt lat="45.3258567" lon="10.968195"><ele>34.666666666666664</ele><time>2026-04-04T10:13:45.594Z</time></trkpt><trkpt lat="45.3260117" lon="10.968035"><ele>34.333333333333336</ele><time>2026-04-04T10:13:46.594Z</time></trkpt><trkpt lat="45.32616" lon="10.9678833"><ele>34.0</ele><time>2026-04-04T10:13:47.594Z</time></trkpt><trkpt lat="45.3263117" lon="10.96773"><ele>34.0</ele><time>2026-04-04T10:13:48.594Z</time></trkpt><trkpt lat="45.32646" lon="10.9675783"><ele>34.0</ele><time>2026-04-04T10:13:49.594Z</time></trkpt><trkpt lat="45.3265933" lon="10.967435"><ele>34.0</ele><time>2026-04-04T10:13:50.594Z</time></trkpt><trkpt lat="45.3267317" lon="10.9673083"><ele>34.0</ele><time>2026-04-04T10:13:51.594Z</time></trkpt><trkpt lat="45.3268683" lon="10.967195"><ele>34.0</ele><time>2026-04-04T10:13:52.594Z</time></trkpt><trkpt lat="45.3270083" lon="10.9670983"><ele>34.0</ele><time>2026-04-04T10:13:53.594Z</time></trkpt><trkpt lat="45.3271583" lon="10.96702"><ele>33.66666666666667</ele><time>2026-04-04T10:13:54.594Z</time></trkpt><trkpt lat="45.3273167" lon="10.9669683"><ele>33.333333333333336</ele><time>2026-04-04T10:13:55.594Z</time></trkpt><trkpt lat="45.32748" lon="10.966945"><ele>33.0</ele><time>2026-04-04T10:13:56.594Z</time></trkpt><trkpt lat="45.32764" lon="10.9669567"><ele>33.0</ele><time>2026-04-04T10:13:57.594Z</time></trkpt><trkpt lat="45.327795" lon="10.9670067"><ele>33.0</ele><time>2026-04-04T10:13:58.594Z</time></trkpt><trkpt lat="45.3279433" lon="10.9670767"><ele>33.0</ele><time>2026-04-04T10:13:59.594Z</time></trkpt><trkpt lat="45.3280717" lon="10.9672033"><ele>33.0</ele><time>2026-04-04T10:14:00.594Z</time></trkpt><trkpt lat="45.3281933" lon="10.9673667"><ele>33.0</ele><time>2026-04-04T10:14:01.594Z</time></trkpt><trkpt lat="45.3282933" lon="10.9675683"><ele>33.0</ele><time>2026-04-04T10:14:02.594Z</time></trkpt><trkpt lat="45.3283817" lon="10.9677733"><ele>33.0</ele><time>2026-04-04T10:14:03.594Z</time></trkpt><trkpt lat="45.3284683" lon="10.9679883"><ele>33.0</ele><time>2026-04-04T10:14:04.594Z</time></trkpt><trkpt lat="45.32855" lon="10.9682183"><ele>33.0</ele><time>2026-04-04T10:14:05.594Z</time></trkpt><trkpt lat="45.3286233" lon="10.968455"><ele>33.333333333333336</ele><time>2026-04-04T10:14:06.594Z</time></trkpt><trkpt lat="45.3287033" lon="10.9686833"><ele>33.66666666666667</ele><time>2026-04-04T10:14:07.594Z</time></trkpt><trkpt lat="45.3287967" lon="10.96891"><ele>34.0</ele><time>2026-04-04T10:14:08.594Z</time></trkpt><trkpt lat="45.3288783" lon="10.9691617"><ele>34.66666666666667</ele><time>2026-04-04T10:14:09.594Z</time></trkpt><trkpt lat="45.3289583" lon="10.9694133"><ele>35.333333333333336</ele><time>2026-04-04T10:14:10.594Z</time></trkpt><trkpt lat="45.3290433" lon="10.9696567"><ele>36.0</ele><time>2026-04-04T10:14:11.594Z</time></trkpt><trkpt lat="45.3291283" lon="10.9699033"><ele>36.0</ele><time>2026-04-04T10:14:12.594Z</time></trkpt><trkpt lat="45.3292183" lon="10.9701433"><ele>36.0</ele><time>2026-04-04T10:14:13.594Z</time></trkpt><trkpt lat="45.3293217" lon="10.9703783"><ele>36.0</ele><time>2026-04-04T10:14:14.594Z</time></trkpt><trkpt lat="45.3294117" lon="10.9706183"><ele>36.0</ele><time>2026-04-04T10:14:15.594Z</time></trkpt><trkpt lat="45.3295083" lon="10.970855"><ele>36.0</ele><time>2026-04-04T10:14:16.594Z</time></trkpt><trkpt lat="45.3295983" lon="10.9710933"><ele>36.0</ele><time>2026-04-04T10:14:17.594Z</time></trkpt><trkpt lat="45.3296917" lon="10.971345"><ele>34.666666666666664</ele><time>2026-04-04T10:14:18.594Z</time></trkpt><trkpt lat="45.3297817" lon="10.9715917"><ele>33.33333333333333</ele><time>2026-04-04T10:14:19.594Z</time></trkpt><trkpt lat="45.329875" lon="10.97183"><ele>32.0</ele><time>2026-04-04T10:14:20.594Z</time></trkpt><trkpt lat="45.329955" lon="10.97208"><ele>32.0</ele><time>2026-04-04T10:14:21.594Z</time></trkpt><trkpt lat="45.3300467" lon="10.9723067"><ele>32.0</ele><time>2026-04-04T10:14:22.594Z</time></trkpt><trkpt lat="45.3301417" lon="10.9725417"><ele>32.0</ele><time>2026-04-04T10:14:23.594Z</time></trkpt><trkpt lat="45.33023" lon="10.9727767"><ele>32.666666666666664</ele><time>2026-04-04T10:14:24.594Z</time></trkpt><trkpt lat="45.330315" lon="10.9730133"><ele>33.333333333333336</ele><time>2026-04-04T10:14:25.594Z</time></trkpt><trkpt lat="45.3304" lon="10.9732317"><ele>34.0</ele><time>2026-04-04T10:14:26.594Z</time></trkpt><trkpt lat="45.3304833" lon="10.9734667"><ele>34.333333333333336</ele><time>2026-04-04T10:14:27.594Z</time></trkpt><trkpt lat="45.3305667" lon="10.9736883"><ele>34.666666666666664</ele><time>2026-04-04T10:14:28.594Z</time></trkpt><trkpt lat="45.33065" lon="10.9739233"><ele>35.0</ele><time>2026-04-04T10:14:29.595Z</time></trkpt><trkpt lat="45.3307283" lon="10.9741517"><ele>35.33333333333333</ele><time>2026-04-04T10:14:30.594Z</time></trkpt><trkpt lat="45.3308133" lon="10.9743767"><ele>35.666666666666664</ele><time>2026-04-04T10:14:31.594Z</time></trkpt><trkpt lat="45.3309" lon="10.9746033"><ele>36.0</ele><time>2026-04-04T10:14:32.594Z</time></trkpt><trkpt lat="45.3309833" lon="10.9748283"><ele>35.333333333333336</ele><time>2026-04-04T10:14:33.594Z</time></trkpt><trkpt lat="45.3310833" lon="10.9750417"><ele>34.66666666666667</ele><time>2026-04-04T10:14:34.594Z</time></trkpt><trkpt lat="45.3311783" lon="10.9752667"><ele>34.0</ele><time>2026-04-04T10:14:35.594Z</time></trkpt><trkpt lat="45.3312683" lon="10.97548"><ele>34.0</ele><time>2026-04-04T10:14:36.594Z</time></trkpt><trkpt lat="45.3313483" lon="10.97571"><ele>34.0</ele><time>2026-04-04T10:14:37.594Z</time></trkpt><trkpt lat="45.33144" lon="10.97595"><ele>34.0</ele><time>2026-04-04T10:14:38.594Z</time></trkpt><trkpt lat="45.3315233" lon="10.9761767"><ele>34.0</ele><time>2026-04-04T10:14:39.594Z</time></trkpt><trkpt lat="45.33161" lon="10.9764083"><ele>34.0</ele><time>2026-04-04T10:14:40.594Z</time></trkpt><trkpt lat="45.3316917" lon="10.976635"><ele>34.0</ele><time>2026-04-04T10:14:41.594Z</time></trkpt><trkpt lat="45.331775" lon="10.9768467"><ele>34.0</ele><time>2026-04-04T10:14:42.594Z</time></trkpt><trkpt lat="45.3318517" lon="10.9770583"><ele>34.0</ele><time>2026-04-04T10:14:43.594Z</time></trkpt><trkpt lat="45.3319283" lon="10.977255"><ele>34.0</ele><time>2026-04-04T10:14:44.594Z</time></trkpt><trkpt lat="45.332" lon="10.9774483"><ele>33.75</ele><time>2026-04-04T10:14:45.594Z</time></trkpt><trkpt lat="45.3320683" lon="10.9776267"><ele>33.5</ele><time>2026-04-04T10:14:46.594Z</time></trkpt><trkpt lat="45.3321283" lon="10.9777933"><ele>33.25</ele><time>2026-04-04T10:14:47.594Z</time></trkpt><trkpt lat="45.33219" lon="10.9779567"><ele>33.0</ele><time>2026-04-04T10:14:48.594Z</time></trkpt><trkpt lat="45.3322433" lon="10.97809"><ele>32.833333333333336</ele><time>2026-04-04T10:14:49.594Z</time></trkpt><trkpt lat="45.3322983" lon="10.9782167"><ele>32.666666666666664</ele><time>2026-04-04T10:14:50.594Z</time></trkpt><trkpt lat="45.3323517" lon="10.9783233"><ele>32.5</ele><time>2026-04-04T10:14:51.594Z</time></trkpt><trkpt lat="45.3323817" lon="10.9784183"><ele>32.33333333333333</ele><time>2026-04-04T10:14:52.594Z</time></trkpt><trkpt lat="45.3323733" lon="10.978565"><ele>32.166666666666664</ele><time>2026-04-04T10:14:54.594Z</time></trkpt><trkpt lat="45.3323333" lon="10.97864"><ele>32.0</ele><time>2026-04-04T10:14:55.594Z</time></trkpt><trkpt lat="45.332265" lon="10.97869"><ele>32.0</ele><time>2026-04-04T10:14:56.594Z</time></trkpt><trkpt lat="45.3321633" lon="10.9787267"><ele>32.0</ele><time>2026-04-04T10:14:57.594Z</time></trkpt><trkpt lat="45.3320217" lon="10.9787667"><ele>32.0</ele><time>2026-04-04T10:14:58.594Z</time></trkpt><trkpt lat="45.3318733" lon="10.9788117"><ele>32.0</ele><time>2026-04-04T10:14:59.594Z</time></trkpt><trkpt lat="45.331715" lon="10.9788633"><ele>32.0</ele><time>2026-04-04T10:15:00.594Z</time></trkpt><trkpt lat="45.331565" lon="10.9789283"><ele>32.0</ele><time>2026-04-04T10:15:01.594Z</time></trkpt><trkpt lat="45.331415" lon="10.978985"><ele>32.0</ele><time>2026-04-04T10:15:02.594Z</time></trkpt><trkpt lat="45.3312567" lon="10.9790483"><ele>32.0</ele><time>2026-04-04T10:15:03.594Z</time></trkpt><trkpt lat="45.3311" lon="10.97911"><ele>32.0</ele><time>2026-04-04T10:15:04.594Z</time></trkpt><trkpt lat="45.3309333" lon="10.9791767"><ele>32.0</ele><time>2026-04-04T10:15:05.594Z</time></trkpt><trkpt lat="45.3307683" lon="10.9792483"><ele>32.33333333333333</ele><time>2026-04-04T10:15:06.594Z</time></trkpt><trkpt lat="45.3306017" lon="10.9793233"><ele>32.666666666666664</ele><time>2026-04-04T10:15:07.594Z</time></trkpt><trkpt lat="45.3304333" lon="10.97939"><ele>33.0</ele><time>2026-04-04T10:15:08.594Z</time></trkpt><trkpt lat="45.3302717" lon="10.9794533"><ele>33.0</ele><time>2026-04-04T10:15:09.594Z</time></trkpt><trkpt lat="45.3301167" lon="10.97952"><ele>33.0</ele><time>2026-04-04T10:15:10.594Z</time></trkpt><trkpt lat="45.3299633" lon="10.9795817"><ele>33.0</ele><time>2026-04-04T10:15:11.594Z</time></trkpt><trkpt lat="45.3298083" lon="10.9796383"><ele>33.333333333333336</ele><time>2026-04-04T10:15:12.594Z</time></trkpt><trkpt lat="45.3296517" lon="10.97971"><ele>33.66666666666667</ele><time>2026-04-04T10:15:13.594Z</time></trkpt><trkpt lat="45.3294967" lon="10.97977"><ele>34.0</ele><time>2026-04-04T10:15:14.594Z</time></trkpt><trkpt lat="45.3293433" lon="10.9798433"><ele>34.0</ele><time>2026-04-04T10:15:15.594Z</time></trkpt><trkpt lat="45.3291783" lon="10.9799017"><ele>34.0</ele><time>2026-04-04T10:15:16.594Z</time></trkpt><trkpt lat="45.329015" lon="10.9799683"><ele>34.0</ele><time>2026-04-04T10:15:17.594Z</time></trkpt><trkpt lat="45.32885" lon="10.980035"><ele>34.66666666666667</ele><time>2026-04-04T10:15:18.594Z</time></trkpt><trkpt lat="45.3286817" lon="10.9801017"><ele>35.333333333333336</ele><time>2026-04-04T10:15:19.594Z</time></trkpt><trkpt lat="45.328515" lon="10.9801733"><ele>36.0</ele><time>2026-04-04T10:15:20.594Z</time></trkpt><trkpt lat="45.3283567" lon="10.980235"><ele>36.0</ele><time>2026-04-04T10:15:21.594Z</time></trkpt><trkpt lat="45.3282033" lon="10.980295"><ele>36.0</ele><time>2026-04-04T10:15:22.594Z</time></trkpt><trkpt lat="45.3280467" lon="10.9803567"><ele>36.0</ele><time>2026-04-04T10:15:23.594Z</time></trkpt><trkpt lat="45.327895" lon="10.980425"><ele>35.75</ele><time>2026-04-04T10:15:24.594Z</time></trkpt><trkpt lat="45.3277567" lon="10.980475"><ele>35.5</ele><time>2026-04-04T10:15:25.595Z</time></trkpt><trkpt lat="45.327625" lon="10.98053"><ele>35.25</ele><time>2026-04-04T10:15:26.594Z</time></trkpt><trkpt lat="45.32751" lon="10.9805833"><ele>35.0</ele><time>2026-04-04T10:15:27.594Z</time></trkpt><trkpt lat="45.3273967" lon="10.9806333"><ele>35.0</ele><time>2026-04-04T10:15:28.594Z</time></trkpt><trkpt lat="45.3272867" lon="10.9806817"><ele>35.0</ele><time>2026-04-04T10:15:29.594Z</time></trkpt><trkpt lat="45.32718" lon="10.980725"><ele>35.0</ele><time>2026-04-04T10:15:30.594Z</time></trkpt><trkpt lat="45.3270883" lon="10.9807933"><ele>35.0</ele><time>2026-04-04T10:15:31.594Z</time></trkpt><trkpt lat="45.32702" lon="10.98089"><ele>35.0</ele><time>2026-04-04T10:15:32.594Z</time></trkpt><trkpt lat="45.3269833" lon="10.9810233"><ele>34.75</ele><time>2026-04-04T10:15:33.594Z</time></trkpt><trkpt lat="45.3269967" lon="10.9811783"><ele>34.5</ele><time>2026-04-04T10:15:34.594Z</time></trkpt><trkpt lat="45.3270317" lon="10.9813667"><ele>34.25</ele><time>2026-04-04T10:15:35.595Z</time></trkpt><trkpt lat="45.3270783" lon="10.9815583"><ele>34.0</ele><time>2026-04-04T10:15:36.594Z</time></trkpt><trkpt lat="45.3271267" lon="10.9817633"><ele>34.0</ele><time>2026-04-04T10:15:37.594Z</time></trkpt><trkpt lat="45.327175" lon="10.98198"><ele>34.0</ele><time>2026-04-04T10:15:38.594Z</time></trkpt><trkpt lat="45.3272267" lon="10.982195"><ele>34.0</ele><time>2026-04-04T10:15:39.594Z</time></trkpt><trkpt lat="45.3272767" lon="10.9824117"><ele>33.333333333333336</ele><time>2026-04-04T10:15:40.594Z</time></trkpt><trkpt lat="45.3273183" lon="10.982635"><ele>32.666666666666664</ele><time>2026-04-04T10:15:41.594Z</time></trkpt><trkpt lat="45.3273617" lon="10.982865"><ele>32.0</ele><time>2026-04-04T10:15:42.594Z</time></trkpt><trkpt lat="45.3274133" lon="10.9830883"><ele>32.0</ele><time>2026-04-04T10:15:43.594Z</time></trkpt><trkpt lat="45.32746" lon="10.983325"><ele>32.0</ele><time>2026-04-04T10:15:44.594Z</time></trkpt><trkpt lat="45.32751" lon="10.9835517"><ele>32.0</ele><time>2026-04-04T10:15:45.594Z</time></trkpt><trkpt lat="45.32756" lon="10.9837817"><ele>32.0</ele><time>2026-04-04T10:15:46.593Z</time></trkpt><trkpt lat="45.327615" lon="10.9840217"><ele>32.0</ele><time>2026-04-04T10:15:47.593Z</time></trkpt><trkpt lat="45.3276683" lon="10.9842717"><ele>32.0</ele><time>2026-04-04T10:15:48.593Z</time></trkpt><trkpt lat="45.327715" lon="10.9845117"><ele>32.0</ele><time>2026-04-04T10:15:49.593Z</time></trkpt><trkpt lat="45.3277683" lon="10.9847433"><ele>32.0</ele><time>2026-04-04T10:15:50.593Z</time></trkpt><trkpt lat="45.3278217" lon="10.984975"><ele>32.0</ele><time>2026-04-04T10:15:51.593Z</time></trkpt><trkpt lat="45.3278633" lon="10.985215"><ele>32.0</ele><time>2026-04-04T10:15:52.593Z</time></trkpt><trkpt lat="45.3279083" lon="10.9854467"><ele>32.0</ele><time>2026-04-04T10:15:53.593Z</time></trkpt><trkpt lat="45.32795" lon="10.9856817"><ele>32.0</ele><time>2026-04-04T10:15:54.593Z</time></trkpt><trkpt lat="45.3279983" lon="10.9859017"><ele>32.0</ele><time>2026-04-04T10:15:55.593Z</time></trkpt><trkpt lat="45.3280483" lon="10.9861267"><ele>32.0</ele><time>2026-04-04T10:15:56.593Z</time></trkpt><trkpt lat="45.328095" lon="10.9863483"><ele>32.0</ele><time>2026-04-04T10:15:57.593Z</time></trkpt><trkpt lat="45.32814" lon="10.9865633"><ele>31.666666666666664</ele><time>2026-04-04T10:15:58.593Z</time></trkpt><trkpt lat="45.3281767" lon="10.986785"><ele>31.333333333333336</ele><time>2026-04-04T10:15:59.593Z</time></trkpt><trkpt lat="45.3282167" lon="10.987005"><ele>31.0</ele><time>2026-04-04T10:16:00.593Z</time></trkpt><trkpt lat="45.328255" lon="10.987225"><ele>31.0</ele><time>2026-04-04T10:16:01.593Z</time></trkpt><trkpt lat="45.3282933" lon="10.9874483"><ele>31.0</ele><time>2026-04-04T10:16:02.593Z</time></trkpt><trkpt lat="45.3283367" lon="10.9876717"><ele>31.0</ele><time>2026-04-04T10:16:03.594Z</time></trkpt><trkpt lat="45.328385" lon="10.987895"><ele>31.0</ele><time>2026-04-04T10:16:04.593Z</time></trkpt><trkpt lat="45.3284317" lon="10.9881217"><ele>31.0</ele><time>2026-04-04T10:16:05.593Z</time></trkpt><trkpt lat="45.3284883" lon="10.9883433"><ele>31.0</ele><time>2026-04-04T10:16:06.594Z</time></trkpt><trkpt lat="45.3285333" lon="10.98857"><ele>31.0</ele><time>2026-04-04T10:16:07.593Z</time></trkpt><trkpt lat="45.3285833" lon="10.9887883"><ele>31.0</ele><time>2026-04-04T10:16:08.593Z</time></trkpt><trkpt lat="45.3286267" lon="10.9890283"><ele>31.0</ele><time>2026-04-04T10:16:09.593Z</time></trkpt><trkpt lat="45.3286733" lon="10.98926"><ele>31.0</ele><time>2026-04-04T10:16:10.593Z</time></trkpt><trkpt lat="45.32872" lon="10.9894867"><ele>31.0</ele><time>2026-04-04T10:16:11.593Z</time></trkpt><trkpt lat="45.3287733" lon="10.9897117"><ele>31.0</ele><time>2026-04-04T10:16:12.593Z</time></trkpt><trkpt lat="45.328825" lon="10.9899383"><ele>31.333333333333336</ele><time>2026-04-04T10:16:13.593Z</time></trkpt><trkpt lat="45.3288717" lon="10.99017"><ele>31.666666666666664</ele><time>2026-04-04T10:16:14.593Z</time></trkpt><trkpt lat="45.32891" lon="10.99038"><ele>32.0</ele><time>2026-04-04T10:16:15.593Z</time></trkpt><trkpt lat="45.3289517" lon="10.9905983"><ele>32.33333333333333</ele><time>2026-04-04T10:16:16.593Z</time></trkpt><trkpt lat="45.3289917" lon="10.9908233"><ele>32.666666666666664</ele><time>2026-04-04T10:16:17.593Z</time></trkpt><trkpt lat="45.329035" lon="10.99104"><ele>33.0</ele><time>2026-04-04T10:16:18.593Z</time></trkpt><trkpt lat="45.3290733" lon="10.99125"><ele>33.0</ele><time>2026-04-04T10:16:19.593Z</time></trkpt><trkpt lat="45.3291083" lon="10.9914717"><ele>33.0</ele><time>2026-04-04T10:16:20.593Z</time></trkpt><trkpt lat="45.3291533" lon="10.99168"><ele>33.0</ele><time>2026-04-04T10:16:21.593Z</time></trkpt><trkpt lat="45.329185" lon="10.9919017"><ele>33.0</ele><time>2026-04-04T10:16:22.593Z</time></trkpt><trkpt lat="45.3292317" lon="10.992125"><ele>33.0</ele><time>2026-04-04T10:16:23.593Z</time></trkpt><trkpt lat="45.329275" lon="10.992335"><ele>33.0</ele><time>2026-04-04T10:16:24.593Z</time></trkpt><trkpt lat="45.3293167" lon="10.9925433"><ele>33.333333333333336</ele><time>2026-04-04T10:16:25.593Z</time></trkpt><trkpt lat="45.3293533" lon="10.9927567"><ele>33.66666666666667</ele><time>2026-04-04T10:16:26.593Z</time></trkpt><trkpt lat="45.3293933" lon="10.99297"><ele>34.0</ele><time>2026-04-04T10:16:27.593Z</time></trkpt><trkpt lat="45.3294417" lon="10.993185"><ele>34.66666666666667</ele><time>2026-04-04T10:16:28.593Z</time></trkpt><trkpt lat="45.3294883" lon="10.9933967"><ele>35.333333333333336</ele><time>2026-04-04T10:16:29.593Z</time></trkpt><trkpt lat="45.3295533" lon="10.9936067"><ele>36.0</ele><time>2026-04-04T10:16:30.593Z</time></trkpt><trkpt lat="45.32964" lon="10.9938033"><ele>36.0</ele><time>2026-04-04T10:16:31.593Z</time></trkpt><trkpt lat="45.3297483" lon="10.99399"><ele>36.0</ele><time>2026-04-04T10:16:32.593Z</time></trkpt><trkpt lat="45.3298717" lon="10.9941433"><ele>36.0</ele><time>2026-04-04T10:16:33.593Z</time></trkpt><trkpt lat="45.3300167" lon="10.9942633"><ele>35.0</ele><time>2026-04-04T10:16:34.593Z</time></trkpt><trkpt lat="45.330155" lon="10.9943833"><ele>34.0</ele><time>2026-04-04T10:16:35.593Z</time></trkpt><trkpt lat="45.330295" lon="10.9945083"><ele>33.0</ele><time>2026-04-04T10:16:36.593Z</time></trkpt><trkpt lat="45.3304317" lon="10.99461"><ele>32.666666666666664</ele><time>2026-04-04T10:16:37.593Z</time></trkpt><trkpt lat="45.3305867" lon="10.9947217"><ele>32.33333333333333</ele><time>2026-04-04T10:16:38.593Z</time></trkpt><trkpt lat="45.3307333" lon="10.9948267"><ele>32.0</ele><time>2026-04-04T10:16:39.593Z</time></trkpt><trkpt lat="45.3308917" lon="10.994935"><ele>32.0</ele><time>2026-04-04T10:16:40.593Z</time></trkpt><trkpt lat="45.331045" lon="10.9950433"><ele>32.0</ele><time>2026-04-04T10:16:41.593Z</time></trkpt><trkpt lat="45.3312" lon="10.99514"><ele>32.0</ele><time>2026-04-04T10:16:42.593Z</time></trkpt><trkpt lat="45.3313517" lon="10.99524"><ele>33.0</ele><time>2026-04-04T10:16:43.593Z</time></trkpt><trkpt lat="45.3315017" lon="10.99534"><ele>34.0</ele><time>2026-04-04T10:16:44.593Z</time></trkpt><trkpt lat="45.331655" lon="10.9954433"><ele>35.0</ele><time>2026-04-04T10:16:45.593Z</time></trkpt><trkpt lat="45.331795" lon="10.9955583"><ele>35.0</ele><time>2026-04-04T10:16:46.593Z</time></trkpt><trkpt lat="45.33195" lon="10.9956617"><ele>35.0</ele><time>2026-04-04T10:16:47.593Z</time></trkpt><trkpt lat="45.332105" lon="10.995765"><ele>35.0</ele><time>2026-04-04T10:16:48.593Z</time></trkpt><trkpt lat="45.3322533" lon="10.99587"><ele>34.666666666666664</ele><time>2026-04-04T10:16:49.593Z</time></trkpt><trkpt lat="45.332405" lon="10.9959717"><ele>34.333333333333336</ele><time>2026-04-04T10:16:50.593Z</time></trkpt><trkpt lat="45.3325533" lon="10.9960633"><ele>34.0</ele><time>2026-04-04T10:16:51.593Z</time></trkpt><trkpt lat="45.332705" lon="10.9961583"><ele>34.0</ele><time>2026-04-04T10:16:52.593Z</time></trkpt><trkpt lat="45.3328483" lon="10.99626"><ele>34.0</ele><time>2026-04-04T10:16:53.593Z</time></trkpt><trkpt lat="45.3329817" lon="10.9963417"><ele>34.0</ele><time>2026-04-04T10:16:54.593Z</time></trkpt><trkpt lat="45.3330967" lon="10.9964283"><ele>34.0</ele><time>2026-04-04T10:16:55.593Z</time></trkpt><trkpt lat="45.3332117" lon="10.9965183"><ele>34.0</ele><time>2026-04-04T10:16:56.593Z</time></trkpt><trkpt lat="45.33332" lon="10.9966017"><ele>34.0</ele><time>2026-04-04T10:16:57.593Z</time></trkpt><trkpt lat="45.3334067" lon="10.99673"><ele>34.0</ele><time>2026-04-04T10:16:58.593Z</time></trkpt><trkpt lat="45.3334767" lon="10.9968617"><ele>34.0</ele><time>2026-04-04T10:16:59.593Z</time></trkpt><trkpt lat="45.3335067" lon="10.9970533"><ele>34.0</ele><time>2026-04-04T10:17:00.593Z</time></trkpt><trkpt lat="45.3335183" lon="10.9972317"><ele>34.0</ele><time>2026-04-04T10:17:01.593Z</time></trkpt><trkpt lat="45.3335133" lon="10.9974383"><ele>34.0</ele><time>2026-04-04T10:17:02.593Z</time></trkpt><trkpt lat="45.3335233" lon="10.99765"><ele>34.0</ele><time>2026-04-04T10:17:03.593Z</time></trkpt><trkpt lat="45.33353" lon="10.9978717"><ele>33.66666666666667</ele><time>2026-04-04T10:17:04.593Z</time></trkpt><trkpt lat="45.333535" lon="10.9980967"><ele>33.333333333333336</ele><time>2026-04-04T10:17:05.593Z</time></trkpt><trkpt lat="45.3335367" lon="10.99834"><ele>33.0</ele><time>2026-04-04T10:17:06.593Z</time></trkpt><trkpt lat="45.3335467" lon="10.9985717"><ele>33.0</ele><time>2026-04-04T10:17:07.593Z</time></trkpt><trkpt lat="45.3335533" lon="10.9988067"><ele>33.0</ele><time>2026-04-04T10:17:08.593Z</time></trkpt><trkpt lat="45.3335617" lon="10.9990467"><ele>33.0</ele><time>2026-04-04T10:17:09.593Z</time></trkpt><trkpt lat="45.3335617" lon="10.9992817"><ele>32.666666666666664</ele><time>2026-04-04T10:17:10.593Z</time></trkpt><trkpt lat="45.3335767" lon="10.999525"><ele>32.33333333333333</ele><time>2026-04-04T10:17:11.593Z</time></trkpt><trkpt lat="45.33358" lon="10.9997583"><ele>32.0</ele><time>2026-04-04T10:17:12.593Z</time></trkpt><trkpt lat="45.3336017" lon="10.9999817"><ele>32.0</ele><time>2026-04-04T10:17:13.593Z</time></trkpt><trkpt lat="45.333615" lon="11.0002017"><ele>32.0</ele><time>2026-04-04T10:17:14.593Z</time></trkpt><trkpt lat="45.3336217" lon="11.00041"><ele>32.0</ele><time>2026-04-04T10:17:15.593Z</time></trkpt><trkpt lat="45.3336417" lon="11.0006117"><ele>32.0</ele><time>2026-04-04T10:17:16.594Z</time></trkpt><trkpt lat="45.333665" lon="11.0007917"><ele>32.2</ele><time>2026-04-04T10:17:17.594Z</time></trkpt><trkpt lat="45.3336917" lon="11.0009583"><ele>32.400000000000006</ele><time>2026-04-04T10:17:18.593Z</time></trkpt><trkpt lat="45.333705" lon="11.0011183"><ele>32.599999999999994</ele><time>2026-04-04T10:17:19.593Z</time></trkpt><trkpt lat="45.3337117" lon="11.00127"><ele>32.8</ele><time>2026-04-04T10:17:20.593Z</time></trkpt><trkpt lat="45.3337083" lon="11.0014167"><ele>33.0</ele><time>2026-04-04T10:17:21.593Z</time></trkpt><trkpt lat="45.3336883" lon="11.0015433"><ele>33.199999999999996</ele><time>2026-04-04T10:17:22.593Z</time></trkpt><trkpt lat="45.333645" lon="11.0016733"><ele>33.4</ele><time>2026-04-04T10:17:23.593Z</time></trkpt><trkpt lat="45.333595" lon="11.0018117"><ele>33.599999999999994</ele><time>2026-04-04T10:17:24.594Z</time></trkpt><trkpt lat="45.333575" lon="11.0019483"><ele>33.8</ele><time>2026-04-04T10:17:25.593Z</time></trkpt><trkpt lat="45.3335967" lon="11.00208"><ele>34.0</ele><time>2026-04-04T10:17:26.593Z</time></trkpt><trkpt lat="45.3336433" lon="11.002205"><ele>34.0</ele><time>2026-04-04T10:17:27.593Z</time></trkpt><trkpt lat="45.333685" lon="11.0023517"><ele>34.0</ele><time>2026-04-04T10:17:28.593Z</time></trkpt><trkpt lat="45.3337283" lon="11.00251"><ele>34.0</ele><time>2026-04-04T10:17:29.593Z</time></trkpt><trkpt lat="45.333775" lon="11.0026917"><ele>34.0</ele><time>2026-04-04T10:17:30.593Z</time></trkpt><trkpt lat="45.3337967" lon="11.0028733"><ele>34.0</ele><time>2026-04-04T10:17:31.593Z</time></trkpt><trkpt lat="45.3338283" lon="11.003055"><ele>34.0</ele><time>2026-04-04T10:17:32.593Z</time></trkpt><trkpt lat="45.33384" lon="11.0032633"><ele>34.0</ele><time>2026-04-04T10:17:33.593Z</time></trkpt><trkpt lat="45.333855" lon="11.0034717"><ele>34.0</ele><time>2026-04-04T10:17:34.593Z</time></trkpt><trkpt lat="45.333875" lon="11.003685"><ele>34.66666666666667</ele><time>2026-04-04T10:17:35.593Z</time></trkpt><trkpt lat="45.3338933" lon="11.0038933"><ele>35.333333333333336</ele><time>2026-04-04T10:17:36.593Z</time></trkpt><trkpt lat="45.3339083" lon="11.0041033"><ele>36.0</ele><time>2026-04-04T10:17:37.593Z</time></trkpt><trkpt lat="45.333925" lon="11.0043317"><ele>36.0</ele><time>2026-04-04T10:17:38.593Z</time></trkpt><trkpt lat="45.3339467" lon="11.004545"><ele>36.0</ele><time>2026-04-04T10:17:39.593Z</time></trkpt><trkpt lat="45.3339633" lon="11.0047667"><ele>36.0</ele><time>2026-04-04T10:17:40.593Z</time></trkpt><trkpt lat="45.3339883" lon="11.004985"><ele>35.666666666666664</ele><time>2026-04-04T10:17:41.593Z</time></trkpt><trkpt lat="45.3340083" lon="11.0051967"><ele>35.33333333333333</ele><time>2026-04-04T10:17:42.593Z</time></trkpt><trkpt lat="45.3340233" lon="11.0054083"><ele>35.0</ele><time>2026-04-04T10:17:43.593Z</time></trkpt><trkpt lat="45.3340317" lon="11.0056217"><ele>35.0</ele><time>2026-04-04T10:17:44.593Z</time></trkpt><trkpt lat="45.3340333" lon="11.0058133"><ele>35.0</ele><time>2026-04-04T10:17:45.593Z</time></trkpt><trkpt lat="45.3340117" lon="11.0060167"><ele>35.0</ele><time>2026-04-04T10:17:46.593Z</time></trkpt><trkpt lat="45.333995" lon="11.0062117"><ele>35.0</ele><time>2026-04-04T10:17:47.593Z</time></trkpt><trkpt lat="45.3339367" lon="11.0064067"><ele>35.0</ele><time>2026-04-04T10:17:48.593Z</time></trkpt><trkpt lat="45.3338717" lon="11.00659"><ele>35.0</ele><time>2026-04-04T10:17:49.593Z</time></trkpt><trkpt lat="45.3338017" lon="11.00677"><ele>35.0</ele><time>2026-04-04T10:17:50.593Z</time></trkpt><trkpt lat="45.3337217" lon="11.0069417"><ele>35.0</ele><time>2026-04-04T10:17:51.593Z</time></trkpt><trkpt lat="45.333645" lon="11.00712"><ele>35.33333333333333</ele><time>2026-04-04T10:17:52.593Z</time></trkpt><trkpt lat="45.33356" lon="11.0073017"><ele>35.666666666666664</ele><time>2026-04-04T10:17:53.593Z</time></trkpt><trkpt lat="45.3334833" lon="11.007475"><ele>36.0</ele><time>2026-04-04T10:17:54.593Z</time></trkpt><trkpt lat="45.3334033" lon="11.0076767"><ele>36.0</ele><time>2026-04-04T10:17:55.594Z</time></trkpt><trkpt lat="45.3333117" lon="11.007865"><ele>36.0</ele><time>2026-04-04T10:17:56.593Z</time></trkpt><trkpt lat="45.3332233" lon="11.008065"><ele>36.0</ele><time>2026-04-04T10:17:57.593Z</time></trkpt><trkpt lat="45.3331267" lon="11.0082433"><ele>35.333333333333336</ele><time>2026-04-04T10:17:58.593Z</time></trkpt><trkpt lat="45.3330267" lon="11.00842"><ele>34.66666666666667</ele><time>2026-04-04T10:17:59.593Z</time></trkpt><trkpt lat="45.33293" lon="11.0086017"><ele>34.0</ele><time>2026-04-04T10:18:00.593Z</time></trkpt><trkpt lat="45.3328333" lon="11.0087883"><ele>34.0</ele><time>2026-04-04T10:18:01.593Z</time></trkpt><trkpt lat="45.332735" lon="11.0089767"><ele>34.0</ele><time>2026-04-04T10:18:02.593Z</time></trkpt><trkpt lat="45.33264" lon="11.0091467"><ele>34.0</ele><time>2026-04-04T10:18:03.593Z</time></trkpt><trkpt lat="45.33255" lon="11.0093267"><ele>34.333333333333336</ele><time>2026-04-04T10:18:04.593Z</time></trkpt><trkpt lat="45.3324467" lon="11.0095183"><ele>34.666666666666664</ele><time>2026-04-04T10:18:05.593Z</time></trkpt><trkpt lat="45.3323683" lon="11.0097033"><ele>35.0</ele><time>2026-04-04T10:18:06.593Z</time></trkpt><trkpt lat="45.3322767" lon="11.00989"><ele>35.33333333333333</ele><time>2026-04-04T10:18:07.593Z</time></trkpt><trkpt lat="45.3321967" lon="11.01008"><ele>35.666666666666664</ele><time>2026-04-04T10:18:08.593Z</time></trkpt><trkpt lat="45.3321017" lon="11.010275"><ele>36.0</ele><time>2026-04-04T10:18:09.593Z</time></trkpt><trkpt lat="45.3320117" lon="11.01047"><ele>36.0</ele><time>2026-04-04T10:18:10.593Z</time></trkpt><trkpt lat="45.331925" lon="11.0106617"><ele>36.0</ele><time>2026-04-04T10:18:11.593Z</time></trkpt><trkpt lat="45.3318417" lon="11.0108517"><ele>36.0</ele><time>2026-04-04T10:18:12.593Z</time></trkpt><trkpt lat="45.33175" lon="11.0110367"><ele>35.666666666666664</ele><time>2026-04-04T10:18:13.593Z</time></trkpt><trkpt lat="45.331665" lon="11.01123"><ele>35.33333333333333</ele><time>2026-04-04T10:18:14.593Z</time></trkpt><trkpt lat="45.3315633" lon="11.0114267"><ele>35.0</ele><time>2026-04-04T10:18:15.593Z</time></trkpt><trkpt lat="45.33147" lon="11.011605"><ele>35.33333333333333</ele><time>2026-04-04T10:18:16.593Z</time></trkpt><trkpt lat="45.33138" lon="11.01178"><ele>35.666666666666664</ele><time>2026-04-04T10:18:17.593Z</time></trkpt><trkpt lat="45.331285" lon="11.0119583"><ele>36.0</ele><time>2026-04-04T10:18:18.593Z</time></trkpt><trkpt lat="45.3311833" lon="11.0121267"><ele>36.0</ele><time>2026-04-04T10:18:19.593Z</time></trkpt><trkpt lat="45.3310783" lon="11.012305"><ele>36.0</ele><time>2026-04-04T10:18:20.593Z</time></trkpt><trkpt lat="45.3309767" lon="11.0124817"><ele>36.0</ele><time>2026-04-04T10:18:21.593Z</time></trkpt><trkpt lat="45.3308717" lon="11.012655"><ele>36.0</ele><time>2026-04-04T10:18:22.593Z</time></trkpt><trkpt lat="45.330765" lon="11.0128267"><ele>36.0</ele><time>2026-04-04T10:18:23.593Z</time></trkpt><trkpt lat="45.3306617" lon="11.0130017"><ele>36.0</ele><time>2026-04-04T10:18:24.593Z</time></trkpt><trkpt lat="45.3305533" lon="11.013185"><ele>36.666666666666664</ele><time>2026-04-04T10:18:25.593Z</time></trkpt><trkpt lat="45.3304367" lon="11.01337"><ele>37.33333333333333</ele><time>2026-04-04T10:18:26.593Z</time></trkpt><trkpt lat="45.3303283" lon="11.013545"><ele>38.0</ele><time>2026-04-04T10:18:27.593Z</time></trkpt><trkpt lat="45.3302167" lon="11.0137283"><ele>38.0</ele><time>2026-04-04T10:18:28.593Z</time></trkpt><trkpt lat="45.3301" lon="11.0139117"><ele>38.0</ele><time>2026-04-04T10:18:29.593Z</time></trkpt><trkpt lat="45.3299867" lon="11.01409"><ele>38.0</ele><time>2026-04-04T10:18:30.593Z</time></trkpt><trkpt lat="45.32987" lon="11.014265"><ele>37.33333333333333</ele><time>2026-04-04T10:18:31.593Z</time></trkpt><trkpt lat="45.3297533" lon="11.01444"><ele>36.666666666666664</ele><time>2026-04-04T10:18:32.593Z</time></trkpt><trkpt lat="45.3296367" lon="11.0146083"><ele>36.0</ele><time>2026-04-04T10:18:33.593Z</time></trkpt><trkpt lat="45.3295283" lon="11.01478"><ele>35.666666666666664</ele><time>2026-04-04T10:18:34.593Z</time></trkpt><trkpt lat="45.329415" lon="11.0149483"><ele>35.33333333333333</ele><time>2026-04-04T10:18:35.593Z</time></trkpt><trkpt lat="45.3293083" lon="11.0151183"><ele>35.0</ele><time>2026-04-04T10:18:36.593Z</time></trkpt><trkpt lat="45.3291883" lon="11.0152933"><ele>35.0</ele><time>2026-04-04T10:18:37.593Z</time></trkpt><trkpt lat="45.3290683" lon="11.0154667"><ele>35.0</ele><time>2026-04-04T10:18:38.593Z</time></trkpt><trkpt lat="45.3289517" lon="11.0156333"><ele>35.0</ele><time>2026-04-04T10:18:39.593Z</time></trkpt><trkpt lat="45.3288317" lon="11.0158067"><ele>34.0</ele><time>2026-04-04T10:18:40.593Z</time></trkpt><trkpt lat="45.3287167" lon="11.0159833"><ele>33.0</ele><time>2026-04-04T10:18:41.593Z</time></trkpt><trkpt lat="45.3286033" lon="11.0161583"><ele>32.0</ele><time>2026-04-04T10:18:42.593Z</time></trkpt><trkpt lat="45.32849" lon="11.0163367"><ele>32.0</ele><time>2026-04-04T10:18:43.593Z</time></trkpt><trkpt lat="45.328375" lon="11.0165117"><ele>32.0</ele><time>2026-04-04T10:18:44.593Z</time></trkpt><trkpt lat="45.328255" lon="11.016685"><ele>32.0</ele><time>2026-04-04T10:18:45.593Z</time></trkpt><trkpt lat="45.3281383" lon="11.01686"><ele>32.33333333333333</ele><time>2026-04-04T10:18:46.593Z</time></trkpt><trkpt lat="45.3280233" lon="11.017035"><ele>32.666666666666664</ele><time>2026-04-04T10:18:47.593Z</time></trkpt><trkpt lat="45.3279033" lon="11.0172083"><ele>33.0</ele><time>2026-04-04T10:18:48.593Z</time></trkpt><trkpt lat="45.3277883" lon="11.0173817"><ele>33.0</ele><time>2026-04-04T10:18:49.593Z</time></trkpt><trkpt lat="45.3276717" lon="11.0175567"><ele>33.0</ele><time>2026-04-04T10:18:50.593Z</time></trkpt><trkpt lat="45.327545" lon="11.0177417"><ele>33.0</ele><time>2026-04-04T10:18:51.593Z</time></trkpt><trkpt lat="45.327425" lon="11.0179217"><ele>33.0</ele><time>2026-04-04T10:18:52.593Z</time></trkpt><trkpt lat="45.3273067" lon="11.0181017"><ele>33.0</ele><time>2026-04-04T10:18:53.593Z</time></trkpt><trkpt lat="45.3271867" lon="11.018285"><ele>33.0</ele><time>2026-04-04T10:18:54.594Z</time></trkpt><trkpt lat="45.3270717" lon="11.01847"><ele>32.666666666666664</ele><time>2026-04-04T10:18:55.593Z</time></trkpt><trkpt lat="45.3269533" lon="11.01865"><ele>32.33333333333333</ele><time>2026-04-04T10:18:56.593Z</time></trkpt><trkpt lat="45.32683" lon="11.018835"><ele>32.0</ele><time>2026-04-04T10:18:57.593Z</time></trkpt><trkpt lat="45.326705" lon="11.0190117"><ele>32.0</ele><time>2026-04-04T10:18:58.593Z</time></trkpt><trkpt lat="45.3265833" lon="11.0191867"><ele>32.0</ele><time>2026-04-04T10:18:59.593Z</time></trkpt><trkpt lat="45.3264617" lon="11.0193633"><ele>32.0</ele><time>2026-04-04T10:19:00.593Z</time></trkpt><trkpt lat="45.3263433" lon="11.0195383"><ele>32.0</ele><time>2026-04-04T10:19:01.593Z</time></trkpt><trkpt lat="45.3262283" lon="11.01971"><ele>32.0</ele><time>2026-04-04T10:19:02.593Z</time></trkpt><trkpt lat="45.32611" lon="11.0198733"><ele>32.0</ele><time>2026-04-04T10:19:03.593Z</time></trkpt><trkpt lat="45.325995" lon="11.0200217"><ele>32.0</ele><time>2026-04-04T10:19:04.593Z</time></trkpt><trkpt lat="45.32587" lon="11.0201517"><ele>32.0</ele><time>2026-04-04T10:19:05.593Z</time></trkpt><trkpt lat="45.3257383" lon="11.0202617"><ele>32.0</ele><time>2026-04-04T10:19:06.593Z</time></trkpt><trkpt lat="45.3255967" lon="11.02036"><ele>32.0</ele><time>2026-04-04T10:19:07.593Z</time></trkpt><trkpt lat="45.3254517" lon="11.0204483"><ele>32.0</ele><time>2026-04-04T10:19:08.593Z</time></trkpt><trkpt lat="45.3252983" lon="11.0205283"><ele>32.0</ele><time>2026-04-04T10:19:09.593Z</time></trkpt><trkpt lat="45.3251467" lon="11.0206017"><ele>32.0</ele><time>2026-04-04T10:19:10.593Z</time></trkpt><trkpt lat="45.3249867" lon="11.020685"><ele>32.0</ele><time>2026-04-04T10:19:11.593Z</time></trkpt><trkpt lat="45.3248317" lon="11.02077"><ele>32.0</ele><time>2026-04-04T10:19:12.593Z</time></trkpt><trkpt lat="45.3246783" lon="11.02085"><ele>33.0</ele><time>2026-04-04T10:19:13.593Z</time></trkpt><trkpt lat="45.3245233" lon="11.02093"><ele>34.0</ele><time>2026-04-04T10:19:14.593Z</time></trkpt><trkpt lat="45.324375" lon="11.0210117"><ele>35.0</ele><time>2026-04-04T10:19:15.593Z</time></trkpt><trkpt lat="45.3242217" lon="11.0210917"><ele>35.0</ele><time>2026-04-04T10:19:16.593Z</time></trkpt><trkpt lat="45.3240733" lon="11.0211833"><ele>35.0</ele><time>2026-04-04T10:19:17.593Z</time></trkpt><trkpt lat="45.323925" lon="11.0212767"><ele>35.0</ele><time>2026-04-04T10:19:18.593Z</time></trkpt><trkpt lat="45.3237867" lon="11.0213783"><ele>35.33333333333333</ele><time>2026-04-04T10:19:19.593Z</time></trkpt><trkpt lat="45.32363" lon="11.0214933"><ele>35.666666666666664</ele><time>2026-04-04T10:19:20.593Z</time></trkpt><trkpt lat="45.323485" lon="11.0216183"><ele>36.0</ele><time>2026-04-04T10:19:21.593Z</time></trkpt><trkpt lat="45.3233433" lon="11.0217483"><ele>36.0</ele><time>2026-04-04T10:19:22.593Z</time></trkpt><trkpt lat="45.3231983" lon="11.0218983"><ele>36.0</ele><time>2026-04-04T10:19:23.593Z</time></trkpt><trkpt lat="45.3230633" lon="11.0220517"><ele>36.0</ele><time>2026-04-04T10:19:24.593Z</time></trkpt><trkpt lat="45.32293" lon="11.0222283"><ele>36.0</ele><time>2026-04-04T10:19:25.593Z</time></trkpt><trkpt lat="45.3227967" lon="11.022405"><ele>36.0</ele><time>2026-04-04T10:19:26.593Z</time></trkpt><trkpt lat="45.322665" lon="11.0225767"><ele>36.0</ele><time>2026-04-04T10:19:27.593Z</time></trkpt><trkpt lat="45.3225283" lon="11.0227483"><ele>35.666666666666664</ele><time>2026-04-04T10:19:28.593Z</time></trkpt><trkpt lat="45.3223883" lon="11.0229217"><ele>35.33333333333333</ele><time>2026-04-04T10:19:29.593Z</time></trkpt><trkpt lat="45.32225" lon="11.0230917"><ele>35.0</ele><time>2026-04-04T10:19:30.594Z</time></trkpt><trkpt lat="45.3221133" lon="11.0232617"><ele>34.666666666666664</ele><time>2026-04-04T10:19:31.593Z</time></trkpt><trkpt lat="45.3219817" lon="11.0234217"><ele>34.333333333333336</ele><time>2026-04-04T10:19:32.593Z</time></trkpt><trkpt lat="45.3218417" lon="11.02358"><ele>34.0</ele><time>2026-04-04T10:19:33.593Z</time></trkpt><trkpt lat="45.321705" lon="11.02373"><ele>34.0</ele><time>2026-04-04T10:19:34.593Z</time></trkpt><trkpt lat="45.321565" lon="11.02387"><ele>34.0</ele><time>2026-04-04T10:19:35.593Z</time></trkpt><trkpt lat="45.3214217" lon="11.024"><ele>34.0</ele><time>2026-04-04T10:19:36.593Z</time></trkpt><trkpt lat="45.321275" lon="11.0241283"><ele>34.333333333333336</ele><time>2026-04-04T10:19:37.593Z</time></trkpt><trkpt lat="45.321125" lon="11.0242617"><ele>34.666666666666664</ele><time>2026-04-04T10:19:38.593Z</time></trkpt><trkpt lat="45.3209783" lon="11.0243867"><ele>35.0</ele><time>2026-04-04T10:19:39.593Z</time></trkpt><trkpt lat="45.32084" lon="11.0245067"><ele>35.0</ele><time>2026-04-04T10:19:40.593Z</time></trkpt><trkpt lat="45.320705" lon="11.0246183"><ele>35.0</ele><time>2026-04-04T10:19:41.593Z</time></trkpt><trkpt lat="45.3205633" lon="11.0247217"><ele>35.0</ele><time>2026-04-04T10:19:42.593Z</time></trkpt><trkpt lat="45.3204217" lon="11.0248183"><ele>35.0</ele><time>2026-04-04T10:19:43.593Z</time></trkpt><trkpt lat="45.32027" lon="11.0249"><ele>35.0</ele><time>2026-04-04T10:19:44.593Z</time></trkpt><trkpt lat="45.3201167" lon="11.0249717"><ele>35.0</ele><time>2026-04-04T10:19:45.593Z</time></trkpt><trkpt lat="45.3199683" lon="11.0250417"><ele>35.0</ele><time>2026-04-04T10:19:46.593Z</time></trkpt><trkpt lat="45.3198233" lon="11.02512"><ele>35.0</ele><time>2026-04-04T10:19:47.593Z</time></trkpt><trkpt lat="45.319675" lon="11.0251983"><ele>35.0</ele><time>2026-04-04T10:19:48.593Z</time></trkpt><trkpt lat="45.3195133" lon="11.0252717"><ele>35.0</ele><time>2026-04-04T10:19:49.593Z</time></trkpt><trkpt lat="45.3193483" lon="11.0253417"><ele>35.0</ele><time>2026-04-04T10:19:50.593Z</time></trkpt><trkpt lat="45.3191917" lon="11.0254183"><ele>35.0</ele><time>2026-04-04T10:19:51.593Z</time></trkpt><trkpt lat="45.31903" lon="11.0254967"><ele>35.666666666666664</ele><time>2026-04-04T10:19:52.594Z</time></trkpt><trkpt lat="45.3188667" lon="11.025585"><ele>36.333333333333336</ele><time>2026-04-04T10:19:53.593Z</time></trkpt><trkpt lat="45.3187017" lon="11.0256683"><ele>37.0</ele><time>2026-04-04T10:19:54.593Z</time></trkpt><trkpt lat="45.3185267" lon="11.0257533"><ele>36.333333333333336</ele><time>2026-04-04T10:19:55.593Z</time></trkpt><trkpt lat="45.3183483" lon="11.025835"><ele>35.666666666666664</ele><time>2026-04-04T10:19:56.593Z</time></trkpt><trkpt lat="45.3181783" lon="11.0259217"><ele>35.0</ele><time>2026-04-04T10:19:57.593Z</time></trkpt><trkpt lat="45.31801" lon="11.0260017"><ele>34.0</ele><time>2026-04-04T10:19:58.593Z</time></trkpt><trkpt lat="45.3178317" lon="11.0260917"><ele>33.0</ele><time>2026-04-04T10:19:59.593Z</time></trkpt><trkpt lat="45.3176617" lon="11.0261783"><ele>32.0</ele><time>2026-04-04T10:20:00.593Z</time></trkpt><trkpt lat="45.3174883" lon="11.026265"><ele>32.0</ele><time>2026-04-04T10:20:01.593Z</time></trkpt><trkpt lat="45.317315" lon="11.0263483"><ele>32.0</ele><time>2026-04-04T10:20:02.593Z</time></trkpt><trkpt lat="45.317145" lon="11.02644"><ele>32.0</ele><time>2026-04-04T10:20:03.593Z</time></trkpt><trkpt lat="45.3169733" lon="11.0265233"><ele>32.33333333333333</ele><time>2026-04-04T10:20:04.593Z</time></trkpt><trkpt lat="45.3168017" lon="11.026605"><ele>32.666666666666664</ele><time>2026-04-04T10:20:05.593Z</time></trkpt><trkpt lat="45.3166317" lon="11.0266867"><ele>33.0</ele><time>2026-04-04T10:20:06.593Z</time></trkpt><trkpt lat="45.3164683" lon="11.02677"><ele>32.666666666666664</ele><time>2026-04-04T10:20:07.593Z</time></trkpt><trkpt lat="45.31631" lon="11.0268517"><ele>32.33333333333333</ele><time>2026-04-04T10:20:08.593Z</time></trkpt><trkpt lat="45.3161417" lon="11.026935"><ele>32.0</ele><time>2026-04-04T10:20:09.593Z</time></trkpt><trkpt lat="45.31598" lon="11.0270217"><ele>32.0</ele><time>2026-04-04T10:20:10.593Z</time></trkpt><trkpt lat="45.3158217" lon="11.02711"><ele>32.0</ele><time>2026-04-04T10:20:11.593Z</time></trkpt><trkpt lat="45.315665" lon="11.027195"><ele>32.0</ele><time>2026-04-04T10:20:12.593Z</time></trkpt><trkpt lat="45.3155033" lon="11.027295"><ele>32.33333333333333</ele><time>2026-04-04T10:20:13.593Z</time></trkpt><trkpt lat="45.3153483" lon="11.0274117"><ele>32.666666666666664</ele><time>2026-04-04T10:20:14.593Z</time></trkpt><trkpt lat="45.3152" lon="11.02754"><ele>33.0</ele><time>2026-04-04T10:20:15.593Z</time></trkpt><trkpt lat="45.315055" lon="11.027675"><ele>33.0</ele><time>2026-04-04T10:20:16.593Z</time></trkpt><trkpt lat="45.314915" lon="11.0278217"><ele>33.0</ele><time>2026-04-04T10:20:17.593Z</time></trkpt><trkpt lat="45.3147783" lon="11.027975"><ele>33.0</ele><time>2026-04-04T10:20:18.593Z</time></trkpt><trkpt lat="45.3146367" lon="11.0281283"><ele>33.0</ele><time>2026-04-04T10:20:19.593Z</time></trkpt><trkpt lat="45.3144883" lon="11.0282617"><ele>33.0</ele><time>2026-04-04T10:20:20.593Z</time></trkpt><trkpt lat="45.3143433" lon="11.0283867"><ele>33.0</ele><time>2026-04-04T10:20:21.593Z</time></trkpt><trkpt lat="45.3141917" lon="11.0284967"><ele>33.0</ele><time>2026-04-04T10:20:22.593Z</time></trkpt><trkpt lat="45.314035" lon="11.0286067"><ele>33.0</ele><time>2026-04-04T10:20:23.593Z</time></trkpt><trkpt lat="45.313875" lon="11.02871"><ele>33.0</ele><time>2026-04-04T10:20:24.593Z</time></trkpt><trkpt lat="45.3137217" lon="11.0287867"><ele>33.0</ele><time>2026-04-04T10:20:25.593Z</time></trkpt><trkpt lat="45.3135633" lon="11.028865"><ele>33.0</ele><time>2026-04-04T10:20:26.593Z</time></trkpt><trkpt lat="45.3134017" lon="11.0289283"><ele>33.0</ele><time>2026-04-04T10:20:27.593Z</time></trkpt><trkpt lat="45.3132367" lon="11.0289883"><ele>33.0</ele><time>2026-04-04T10:20:28.593Z</time></trkpt><trkpt lat="45.3130733" lon="11.0290433"><ele>33.0</ele><time>2026-04-04T10:20:29.593Z</time></trkpt><trkpt lat="45.3129017" lon="11.0291083"><ele>33.0</ele><time>2026-04-04T10:20:30.593Z</time></trkpt><trkpt lat="45.3127367" lon="11.0291717"><ele>33.0</ele><time>2026-04-04T10:20:31.593Z</time></trkpt><trkpt lat="45.3125717" lon="11.0292433"><ele>33.0</ele><time>2026-04-04T10:20:32.593Z</time></trkpt><trkpt lat="45.31241" lon="11.0293167"><ele>33.0</ele><time>2026-04-04T10:20:33.594Z</time></trkpt><trkpt lat="45.3122483" lon="11.0294017"><ele>33.333333333333336</ele><time>2026-04-04T10:20:34.593Z</time></trkpt><trkpt lat="45.312085" lon="11.0294883"><ele>33.66666666666667</ele><time>2026-04-04T10:20:35.593Z</time></trkpt><trkpt lat="45.31192" lon="11.0295783"><ele>34.0</ele><time>2026-04-04T10:20:36.593Z</time></trkpt><trkpt lat="45.3117433" lon="11.0296767"><ele>34.0</ele><time>2026-04-04T10:20:37.593Z</time></trkpt><trkpt lat="45.3115717" lon="11.029775"><ele>34.0</ele><time>2026-04-04T10:20:38.593Z</time></trkpt><trkpt lat="45.31141" lon="11.0298667"><ele>34.0</ele><time>2026-04-04T10:20:39.593Z</time></trkpt><trkpt lat="45.3112483" lon="11.0299567"><ele>34.333333333333336</ele><time>2026-04-04T10:20:40.593Z</time></trkpt><trkpt lat="45.3110883" lon="11.030035"><ele>34.666666666666664</ele><time>2026-04-04T10:20:41.593Z</time></trkpt><trkpt lat="45.31092" lon="11.0301317"><ele>35.0</ele><time>2026-04-04T10:20:42.594Z</time></trkpt><trkpt lat="45.3107467" lon="11.030215"><ele>35.0</ele><time>2026-04-04T10:20:43.593Z</time></trkpt><trkpt lat="45.310575" lon="11.0302967"><ele>35.0</ele><time>2026-04-04T10:20:44.593Z</time></trkpt><trkpt lat="45.3104" lon="11.0303783"><ele>35.0</ele><time>2026-04-04T10:20:45.593Z</time></trkpt><trkpt lat="45.3102333" lon="11.03046"><ele>34.666666666666664</ele><time>2026-04-04T10:20:46.593Z</time></trkpt><trkpt lat="45.3100633" lon="11.0305467"><ele>34.333333333333336</ele><time>2026-04-04T10:20:47.593Z</time></trkpt><trkpt lat="45.3098917" lon="11.03063"><ele>34.0</ele><time>2026-04-04T10:20:48.593Z</time></trkpt><trkpt lat="45.3097267" lon="11.0307083"><ele>33.333333333333336</ele><time>2026-04-04T10:20:49.593Z</time></trkpt><trkpt lat="45.3095633" lon="11.0307883"><ele>32.666666666666664</ele><time>2026-04-04T10:20:50.593Z</time></trkpt><trkpt lat="45.3094017" lon="11.0308667"><ele>32.0</ele><time>2026-04-04T10:20:51.593Z</time></trkpt><trkpt lat="45.30924" lon="11.03095"><ele>32.0</ele><time>2026-04-04T10:20:52.593Z</time></trkpt><trkpt lat="45.3090767" lon="11.031025"><ele>32.0</ele><time>2026-04-04T10:20:53.593Z</time></trkpt><trkpt lat="45.30891" lon="11.0311017"><ele>32.0</ele><time>2026-04-04T10:20:54.593Z</time></trkpt><trkpt lat="45.3087517" lon="11.0311767"><ele>32.0</ele><time>2026-04-04T10:20:55.593Z</time></trkpt><trkpt lat="45.308595" lon="11.0312517"><ele>32.0</ele><time>2026-04-04T10:20:56.594Z</time></trkpt><trkpt lat="45.30845" lon="11.0313167"><ele>32.0</ele><time>2026-04-04T10:20:57.593Z</time></trkpt><trkpt lat="45.308295" lon="11.0313817"><ele>32.0</ele><time>2026-04-04T10:20:58.593Z</time></trkpt><trkpt lat="45.3081517" lon="11.0314433"><ele>32.0</ele><time>2026-04-04T10:20:59.593Z</time></trkpt><trkpt lat="45.308005" lon="11.0315033"><ele>32.0</ele><time>2026-04-04T10:21:00.593Z</time></trkpt><trkpt lat="45.3078633" lon="11.0315617"><ele>32.0</ele><time>2026-04-04T10:21:01.593Z</time></trkpt><trkpt lat="45.3077033" lon="11.031605"><ele>32.0</ele><time>2026-04-04T10:21:02.594Z</time></trkpt><trkpt lat="45.3075483" lon="11.031655"><ele>32.0</ele><time>2026-04-04T10:21:03.593Z</time></trkpt><trkpt lat="45.3074" lon="11.03169"><ele>32.0</ele><time>2026-04-04T10:21:04.593Z</time></trkpt><trkpt lat="45.3072433" lon="11.0317517"><ele>32.0</ele><time>2026-04-04T10:21:05.593Z</time></trkpt><trkpt lat="45.3070817" lon="11.0317967"><ele>32.0</ele><time>2026-04-04T10:21:06.593Z</time></trkpt><trkpt lat="45.3069317" lon="11.0318317"><ele>32.0</ele><time>2026-04-04T10:21:07.593Z</time></trkpt><trkpt lat="45.3067833" lon="11.0318667"><ele>32.0</ele><time>2026-04-04T10:21:08.593Z</time></trkpt><trkpt lat="45.3066367" lon="11.031895"><ele>32.0</ele><time>2026-04-04T10:21:09.593Z</time></trkpt><trkpt lat="45.3064833" lon="11.0319233"><ele>32.666666666666664</ele><time>2026-04-04T10:21:10.593Z</time></trkpt><trkpt lat="45.3063317" lon="11.03195"><ele>33.333333333333336</ele><time>2026-04-04T10:21:11.594Z</time></trkpt><trkpt lat="45.3061817" lon="11.0319833"><ele>34.0</ele><time>2026-04-04T10:21:12.593Z</time></trkpt><trkpt lat="45.306035" lon="11.0320167"><ele>34.0</ele><time>2026-04-04T10:21:13.593Z</time></trkpt><trkpt lat="45.30588" lon="11.0320467"><ele>34.0</ele><time>2026-04-04T10:21:14.593Z</time></trkpt><trkpt lat="45.3057333" lon="11.0320867"><ele>34.0</ele><time>2026-04-04T10:21:15.593Z</time></trkpt><trkpt lat="45.3055967" lon="11.0321317"><ele>34.0</ele><time>2026-04-04T10:21:16.593Z</time></trkpt><trkpt lat="45.3054583" lon="11.03217"><ele>33.66666666666667</ele><time>2026-04-04T10:21:17.593Z</time></trkpt><trkpt lat="45.305315" lon="11.0322"><ele>33.333333333333336</ele><time>2026-04-04T10:21:18.594Z</time></trkpt><trkpt lat="45.305165" lon="11.03224"><ele>33.0</ele><time>2026-04-04T10:21:19.593Z</time></trkpt><trkpt lat="45.30501" lon="11.0322717"><ele>33.0</ele><time>2026-04-04T10:21:20.593Z</time></trkpt><trkpt lat="45.3048567" lon="11.032305"><ele>33.0</ele><time>2026-04-04T10:21:21.593Z</time></trkpt><trkpt lat="45.3046983" lon="11.03234"><ele>33.0</ele><time>2026-04-04T10:21:22.594Z</time></trkpt><trkpt lat="45.3045533" lon="11.0323833"><ele>33.333333333333336</ele><time>2026-04-04T10:21:23.593Z</time></trkpt><trkpt lat="45.3044017" lon="11.0324333"><ele>33.66666666666667</ele><time>2026-04-04T10:21:24.593Z</time></trkpt><trkpt lat="45.304265" lon="11.0325"><ele>34.0</ele><time>2026-04-04T10:21:25.594Z</time></trkpt><trkpt lat="45.30412" lon="11.03259"><ele>33.66666666666667</ele><time>2026-04-04T10:21:26.593Z</time></trkpt><trkpt lat="45.30398" lon="11.0326867"><ele>33.333333333333336</ele><time>2026-04-04T10:21:27.593Z</time></trkpt><trkpt lat="45.3038367" lon="11.0328"><ele>33.0</ele><time>2026-04-04T10:21:28.593Z</time></trkpt><trkpt lat="45.3036933" lon="11.0329067"><ele>33.0</ele><time>2026-04-04T10:21:29.593Z</time></trkpt><trkpt lat="45.3035517" lon="11.03301"><ele>33.0</ele><time>2026-04-04T10:21:30.593Z</time></trkpt><trkpt lat="45.3034067" lon="11.0331217"><ele>33.0</ele><time>2026-04-04T10:21:31.593Z</time></trkpt><trkpt lat="45.3032767" lon="11.0332267"><ele>32.0</ele><time>2026-04-04T10:21:32.593Z</time></trkpt><trkpt lat="45.3031333" lon="11.0333283"><ele>31.0</ele><time>2026-04-04T10:21:33.593Z</time></trkpt><trkpt lat="45.3029933" lon="11.0334267"><ele>30.0</ele><time>2026-04-04T10:21:34.593Z</time></trkpt><trkpt lat="45.30285" lon="11.0335283"><ele>30.0</ele><time>2026-04-04T10:21:35.593Z</time></trkpt><trkpt lat="45.3027083" lon="11.0336367"><ele>30.0</ele><time>2026-04-04T10:21:36.594Z</time></trkpt><trkpt lat="45.3025667" lon="11.033745"><ele>30.0</ele><time>2026-04-04T10:21:37.593Z</time></trkpt><trkpt lat="45.3024217" lon="11.0338467"><ele>30.0</ele><time>2026-04-04T10:21:38.593Z</time></trkpt><trkpt lat="45.3022817" lon="11.03395"><ele>30.0</ele><time>2026-04-04T10:21:39.593Z</time></trkpt><trkpt lat="45.3021417" lon="11.0340483"><ele>30.0</ele><time>2026-04-04T10:21:40.593Z</time></trkpt><trkpt lat="45.3019967" lon="11.0341567"><ele>30.0</ele><time>2026-04-04T10:21:41.594Z</time></trkpt><trkpt lat="45.3018583" lon="11.0342667"><ele>30.0</ele><time>2026-04-04T10:21:42.593Z</time></trkpt><trkpt lat="45.3017117" lon="11.0343617"><ele>30.0</ele><time>2026-04-04T10:21:43.593Z</time></trkpt><trkpt lat="45.301565" lon="11.0344667"><ele>30.0</ele><time>2026-04-04T10:21:44.593Z</time></trkpt><trkpt lat="45.30142" lon="11.0345767"><ele>30.0</ele><time>2026-04-04T10:21:45.593Z</time></trkpt><trkpt lat="45.3012783" lon="11.0346883"><ele>30.0</ele><time>2026-04-04T10:21:46.593Z</time></trkpt><trkpt lat="45.30114" lon="11.0347967"><ele>30.0</ele><time>2026-04-04T10:21:47.593Z</time></trkpt><trkpt lat="45.3010017" lon="11.0349033"><ele>30.0</ele><time>2026-04-04T10:21:48.593Z</time></trkpt><trkpt lat="45.3008583" lon="11.0350067"><ele>30.0</ele><time>2026-04-04T10:21:49.593Z</time></trkpt><trkpt lat="45.300715" lon="11.0351133"><ele>30.0</ele><time>2026-04-04T10:21:50.593Z</time></trkpt><trkpt lat="45.3005617" lon="11.0352183"><ele>30.0</ele><time>2026-04-04T10:21:51.593Z</time></trkpt><trkpt lat="45.3004183" lon="11.0353217"><ele>30.0</ele><time>2026-04-04T10:21:52.593Z</time></trkpt><trkpt lat="45.300275" lon="11.0354267"><ele>30.0</ele><time>2026-04-04T10:21:53.593Z</time></trkpt><trkpt lat="45.30013" lon="11.0355333"><ele>30.0</ele><time>2026-04-04T10:21:54.593Z</time></trkpt><trkpt lat="45.29999" lon="11.0356317"><ele>30.0</ele><time>2026-04-04T10:21:55.593Z</time></trkpt><trkpt lat="45.29985" lon="11.0357383"><ele>30.0</ele><time>2026-04-04T10:21:56.593Z</time></trkpt><trkpt lat="45.29971" lon="11.0358333"><ele>30.0</ele><time>2026-04-04T10:21:57.593Z</time></trkpt><trkpt lat="45.2995683" lon="11.03593"><ele>30.0</ele><time>2026-04-04T10:21:58.593Z</time></trkpt><trkpt lat="45.2994283" lon="11.0360333"><ele>30.0</ele><time>2026-04-04T10:21:59.593Z</time></trkpt><trkpt lat="45.29929" lon="11.036135"><ele>30.0</ele><time>2026-04-04T10:22:00.593Z</time></trkpt><trkpt lat="45.2991517" lon="11.0362417"><ele>30.0</ele><time>2026-04-04T10:22:01.593Z</time></trkpt><trkpt lat="45.29901" lon="11.0363533"><ele>29.666666666666664</ele><time>2026-04-04T10:22:02.593Z</time></trkpt><trkpt lat="45.2988633" lon="11.0364583"><ele>29.333333333333332</ele><time>2026-04-04T10:22:03.593Z</time></trkpt><trkpt lat="45.2987167" lon="11.03656"><ele>29.0</ele><time>2026-04-04T10:22:04.593Z</time></trkpt><trkpt lat="45.2985667" lon="11.03667"><ele>29.0</ele><time>2026-04-04T10:22:05.593Z</time></trkpt><trkpt lat="45.298425" lon="11.0367817"><ele>29.0</ele><time>2026-04-04T10:22:06.593Z</time></trkpt><trkpt lat="45.2982783" lon="11.0368867"><ele>29.0</ele><time>2026-04-04T10:22:07.593Z</time></trkpt><trkpt lat="45.2981317" lon="11.0369917"><ele>28.666666666666664</ele><time>2026-04-04T10:22:08.593Z</time></trkpt><trkpt lat="45.297985" lon="11.0370967"><ele>28.333333333333336</ele><time>2026-04-04T10:22:09.593Z</time></trkpt><trkpt lat="45.2978367" lon="11.0372033"><ele>28.0</ele><time>2026-04-04T10:22:10.593Z</time></trkpt><trkpt lat="45.29769" lon="11.0373083"><ele>28.0</ele><time>2026-04-04T10:22:11.593Z</time></trkpt><trkpt lat="45.2975467" lon="11.037415"><ele>28.0</ele><time>2026-04-04T10:22:12.593Z</time></trkpt><trkpt lat="45.2974" lon="11.0375233"><ele>28.0</ele><time>2026-04-04T10:22:13.593Z</time></trkpt><trkpt lat="45.29726" lon="11.0376317"><ele>28.0</ele><time>2026-04-04T10:22:14.593Z</time></trkpt><trkpt lat="45.29712" lon="11.0377367"><ele>28.0</ele><time>2026-04-04T10:22:15.593Z</time></trkpt><trkpt lat="45.29698" lon="11.037845"><ele>28.0</ele><time>2026-04-04T10:22:16.593Z</time></trkpt><trkpt lat="45.2968467" lon="11.03794"><ele>28.0</ele><time>2026-04-04T10:22:17.593Z</time></trkpt><trkpt lat="45.2967017" lon="11.0380433"><ele>28.0</ele><time>2026-04-04T10:22:18.593Z</time></trkpt><trkpt lat="45.2965617" lon="11.0381533"><ele>28.0</ele><time>2026-04-04T10:22:19.593Z</time></trkpt><trkpt lat="45.2964167" lon="11.0382617"><ele>28.0</ele><time>2026-04-04T10:22:20.593Z</time></trkpt><trkpt lat="45.2962683" lon="11.0383683"><ele>28.0</ele><time>2026-04-04T10:22:21.593Z</time></trkpt><trkpt lat="45.29612" lon="11.0384817"><ele>28.0</ele><time>2026-04-04T10:22:22.593Z</time></trkpt><trkpt lat="45.2959767" lon="11.03859"><ele>28.0</ele><time>2026-04-04T10:22:23.593Z</time></trkpt><trkpt lat="45.2958217" lon="11.038705"><ele>28.0</ele><time>2026-04-04T10:22:24.593Z</time></trkpt><trkpt lat="45.2956783" lon="11.038805"><ele>28.0</ele><time>2026-04-04T10:22:25.593Z</time></trkpt><trkpt lat="45.2955317" lon="11.03891"><ele>28.0</ele><time>2026-04-04T10:22:26.593Z</time></trkpt><trkpt lat="45.29539" lon="11.03902"><ele>28.0</ele><time>2026-04-04T10:22:27.593Z</time></trkpt><trkpt lat="45.29525" lon="11.0391283"><ele>28.0</ele><time>2026-04-04T10:22:28.593Z</time></trkpt><trkpt lat="45.29511" lon="11.0392433"><ele>27.666666666666668</ele><time>2026-04-04T10:22:29.593Z</time></trkpt><trkpt lat="45.2949667" lon="11.0393633"><ele>27.333333333333336</ele><time>2026-04-04T10:22:30.593Z</time></trkpt><trkpt lat="45.294825" lon="11.0394817"><ele>27.0</ele><time>2026-04-04T10:22:31.593Z</time></trkpt><trkpt lat="45.2946767" lon="11.0396117"><ele>27.0</ele><time>2026-04-04T10:22:32.594Z</time></trkpt><trkpt lat="45.2945333" lon="11.039745"><ele>27.0</ele><time>2026-04-04T10:22:33.593Z</time></trkpt><trkpt lat="45.2943867" lon="11.039875"><ele>27.0</ele><time>2026-04-04T10:22:34.593Z</time></trkpt><trkpt lat="45.2942433" lon="11.0400067"><ele>27.333333333333336</ele><time>2026-04-04T10:22:35.594Z</time></trkpt><trkpt lat="45.2941" lon="11.0401417"><ele>27.666666666666668</ele><time>2026-04-04T10:22:36.593Z</time></trkpt><trkpt lat="45.29395" lon="11.0402783"><ele>28.0</ele><time>2026-04-04T10:22:37.593Z</time></trkpt><trkpt lat="45.2937983" lon="11.0404267"><ele>28.0</ele><time>2026-04-04T10:22:38.593Z</time></trkpt><trkpt lat="45.293645" lon="11.0405733"><ele>28.0</ele><time>2026-04-04T10:22:39.594Z</time></trkpt><trkpt lat="45.2934967" lon="11.04072"><ele>28.0</ele><time>2026-04-04T10:22:40.593Z</time></trkpt><trkpt lat="45.29335" lon="11.040875"><ele>28.0</ele><time>2026-04-04T10:22:41.592Z</time></trkpt><trkpt lat="45.2931917" lon="11.0410183"><ele>28.0</ele><time>2026-04-04T10:22:42.592Z</time></trkpt><trkpt lat="45.2930383" lon="11.0411733"><ele>28.0</ele><time>2026-04-04T10:22:43.592Z</time></trkpt><trkpt lat="45.2928867" lon="11.04132"><ele>27.666666666666668</ele><time>2026-04-04T10:22:44.592Z</time></trkpt><trkpt lat="45.2927333" lon="11.041475"><ele>27.333333333333336</ele><time>2026-04-04T10:22:45.592Z</time></trkpt><trkpt lat="45.2925817" lon="11.041625"><ele>27.0</ele><time>2026-04-04T10:22:46.592Z</time></trkpt><trkpt lat="45.29243" lon="11.0417767"><ele>27.0</ele><time>2026-04-04T10:22:47.592Z</time></trkpt><trkpt lat="45.29228" lon="11.0419317"><ele>27.0</ele><time>2026-04-04T10:22:48.592Z</time></trkpt><trkpt lat="45.2921283" lon="11.04209"><ele>27.0</ele><time>2026-04-04T10:22:49.592Z</time></trkpt><trkpt lat="45.2919733" lon="11.04224"><ele>27.0</ele><time>2026-04-04T10:22:50.592Z</time></trkpt><trkpt lat="45.2918217" lon="11.0423917"><ele>27.0</ele><time>2026-04-04T10:22:51.592Z</time></trkpt><trkpt lat="45.2916733" lon="11.0425433"><ele>27.0</ele><time>2026-04-04T10:22:52.592Z</time></trkpt><trkpt lat="45.291525" lon="11.0426933"><ele>27.333333333333336</ele><time>2026-04-04T10:22:53.592Z</time></trkpt><trkpt lat="45.2913767" lon="11.0428367"><ele>27.666666666666668</ele><time>2026-04-04T10:22:54.592Z</time></trkpt><trkpt lat="45.2912367" lon="11.0429817"><ele>28.0</ele><time>2026-04-04T10:22:55.592Z</time></trkpt><trkpt lat="45.2911017" lon="11.04312"><ele>28.0</ele><time>2026-04-04T10:22:56.592Z</time></trkpt><trkpt lat="45.29097" lon="11.0432417"><ele>28.0</ele><time>2026-04-04T10:22:57.593Z</time></trkpt><trkpt lat="45.290855" lon="11.0433667"><ele>28.0</ele><time>2026-04-04T10:22:58.592Z</time></trkpt><trkpt lat="45.2907517" lon="11.0434767"><ele>28.0</ele><time>2026-04-04T10:22:59.592Z</time></trkpt><trkpt lat="45.2906433" lon="11.0435717"><ele>27.5</ele><time>2026-04-04T10:23:00.592Z</time></trkpt><trkpt lat="45.2905533" lon="11.0436567"><ele>27.0</ele><time>2026-04-04T10:23:01.592Z</time></trkpt><trkpt lat="45.2904467" lon="11.0437217"><ele>26.5</ele><time>2026-04-04T10:23:02.592Z</time></trkpt><trkpt lat="45.2903383" lon="11.04378"><ele>26.0</ele><time>2026-04-04T10:23:03.592Z</time></trkpt><trkpt lat="45.2902317" lon="11.0438717"><ele>26.0</ele><time>2026-04-04T10:23:04.592Z</time></trkpt><trkpt lat="45.2901267" lon="11.0439833"><ele>26.0</ele><time>2026-04-04T10:23:05.592Z</time></trkpt><trkpt lat="45.2900467" lon="11.0441133"><ele>26.0</ele><time>2026-04-04T10:23:06.592Z</time></trkpt><trkpt lat="45.2899567" lon="11.0442467"><ele>26.0</ele><time>2026-04-04T10:23:07.592Z</time></trkpt><trkpt lat="45.2898617" lon="11.0443683"><ele>26.0</ele><time>2026-04-04T10:23:08.592Z</time></trkpt><trkpt lat="45.289765" lon="11.04448"><ele>26.0</ele><time>2026-04-04T10:23:09.592Z</time></trkpt><trkpt lat="45.2896567" lon="11.0445933"><ele>26.0</ele><time>2026-04-04T10:23:10.592Z</time></trkpt><trkpt lat="45.2895483" lon="11.0447067"><ele>26.0</ele><time>2026-04-04T10:23:11.592Z</time></trkpt><trkpt lat="45.289445" lon="11.044825"><ele>26.0</ele><time>2026-04-04T10:23:12.592Z</time></trkpt><trkpt lat="45.289335" lon="11.0449517"><ele>26.0</ele><time>2026-04-04T10:23:13.592Z</time></trkpt><trkpt lat="45.2892183" lon="11.04508"><ele>26.0</ele><time>2026-04-04T10:23:14.592Z</time></trkpt><trkpt lat="45.2891033" lon="11.0452283"><ele>26.0</ele><time>2026-04-04T10:23:15.592Z</time></trkpt><trkpt lat="45.2890067" lon="11.045365"><ele>26.333333333333332</ele><time>2026-04-04T10:23:16.592Z</time></trkpt><trkpt lat="45.2889017" lon="11.0455183"><ele>26.666666666666664</ele><time>2026-04-04T10:23:17.592Z</time></trkpt><trkpt lat="45.2887883" lon="11.04567"><ele>27.0</ele><time>2026-04-04T10:23:18.592Z</time></trkpt><trkpt lat="45.288675" lon="11.0458267"><ele>27.0</ele><time>2026-04-04T10:23:19.592Z</time></trkpt><trkpt lat="45.28856" lon="11.04598"><ele>27.0</ele><time>2026-04-04T10:23:20.592Z</time></trkpt><trkpt lat="45.2884483" lon="11.0461233"><ele>27.0</ele><time>2026-04-04T10:23:21.592Z</time></trkpt><trkpt lat="45.2883283" lon="11.0462583"><ele>27.0</ele><time>2026-04-04T10:23:22.592Z</time></trkpt><trkpt lat="45.2882083" lon="11.0463867"><ele>27.0</ele><time>2026-04-04T10:23:23.592Z</time></trkpt><trkpt lat="45.2880817" lon="11.046505"><ele>27.0</ele><time>2026-04-04T10:23:24.592Z</time></trkpt><trkpt lat="45.2879533" lon="11.0466117"><ele>27.0</ele><time>2026-04-04T10:23:25.592Z</time></trkpt><trkpt lat="45.2878183" lon="11.0467133"><ele>27.0</ele><time>2026-04-04T10:23:26.592Z</time></trkpt><trkpt lat="45.2876883" lon="11.04683"><ele>27.0</ele><time>2026-04-04T10:23:27.592Z</time></trkpt><trkpt lat="45.287545" lon="11.0469483"><ele>27.0</ele><time>2026-04-04T10:23:28.592Z</time></trkpt><trkpt lat="45.2873983" lon="11.0470533"><ele>27.0</ele><time>2026-04-04T10:23:29.592Z</time></trkpt><trkpt lat="45.2872467" lon="11.0471567"><ele>27.0</ele><time>2026-04-04T10:23:30.592Z</time></trkpt><trkpt lat="45.2871" lon="11.0472483"><ele>27.0</ele><time>2026-04-04T10:23:31.592Z</time></trkpt><trkpt lat="45.2869467" lon="11.0473283"><ele>27.0</ele><time>2026-04-04T10:23:32.592Z</time></trkpt><trkpt lat="45.2867933" lon="11.047405"><ele>27.0</ele><time>2026-04-04T10:23:33.592Z</time></trkpt><trkpt lat="45.2866333" lon="11.0474767"><ele>27.0</ele><time>2026-04-04T10:23:34.592Z</time></trkpt><trkpt lat="45.2864783" lon="11.0475483"><ele>27.0</ele><time>2026-04-04T10:23:35.592Z</time></trkpt><trkpt lat="45.2863167" lon="11.0476233"><ele>27.0</ele><time>2026-04-04T10:23:36.592Z</time></trkpt><trkpt lat="45.286155" lon="11.0476967"><ele>27.0</ele><time>2026-04-04T10:23:37.592Z</time></trkpt><trkpt lat="45.2859967" lon="11.0477667"><ele>27.0</ele><time>2026-04-04T10:23:38.592Z</time></trkpt><trkpt lat="45.28584" lon="11.0478467"><ele>27.0</ele><time>2026-04-04T10:23:39.592Z</time></trkpt><trkpt lat="45.285675" lon="11.047925"><ele>27.333333333333336</ele><time>2026-04-04T10:23:40.592Z</time></trkpt><trkpt lat="45.2855117" lon="11.0479983"><ele>27.666666666666668</ele><time>2026-04-04T10:23:41.592Z</time></trkpt><trkpt lat="45.2853467" lon="11.0480667"><ele>28.0</ele><time>2026-04-04T10:23:42.592Z</time></trkpt><trkpt lat="45.2851783" lon="11.0481433"><ele>28.0</ele><time>2026-04-04T10:23:43.592Z</time></trkpt><trkpt lat="45.28501" lon="11.0482183"><ele>28.0</ele><time>2026-04-04T10:23:44.592Z</time></trkpt><trkpt lat="45.2848433" lon="11.0482967"><ele>28.0</ele><time>2026-04-04T10:23:45.592Z</time></trkpt><trkpt lat="45.28468" lon="11.0483733"><ele>27.666666666666668</ele><time>2026-04-04T10:23:46.592Z</time></trkpt><trkpt lat="45.2845233" lon="11.0484483"><ele>27.333333333333336</ele><time>2026-04-04T10:23:47.592Z</time></trkpt><trkpt lat="45.28436" lon="11.0485117"><ele>27.0</ele><time>2026-04-04T10:23:48.592Z</time></trkpt><trkpt lat="45.284195" lon="11.04859"><ele>27.0</ele><time>2026-04-04T10:23:49.592Z</time></trkpt><trkpt lat="45.28403" lon="11.0486667"><ele>27.0</ele><time>2026-04-04T10:23:50.592Z</time></trkpt><trkpt lat="45.2838633" lon="11.048745"><ele>27.0</ele><time>2026-04-04T10:23:51.592Z</time></trkpt><trkpt lat="45.283695" lon="11.04882"><ele>27.0</ele><time>2026-04-04T10:23:52.592Z</time></trkpt><trkpt lat="45.2835233" lon="11.0489017"><ele>27.0</ele><time>2026-04-04T10:23:53.592Z</time></trkpt><trkpt lat="45.2833583" lon="11.0489767"><ele>27.0</ele><time>2026-04-04T10:23:54.592Z</time></trkpt><trkpt lat="45.283195" lon="11.0490517"><ele>27.333333333333336</ele><time>2026-04-04T10:23:55.592Z</time></trkpt><trkpt lat="45.2830317" lon="11.0491183"><ele>27.666666666666668</ele><time>2026-04-04T10:23:56.592Z</time></trkpt><trkpt lat="45.282865" lon="11.049185"><ele>28.0</ele><time>2026-04-04T10:23:57.592Z</time></trkpt><trkpt lat="45.2827033" lon="11.0492517"><ele>28.0</ele><time>2026-04-04T10:23:58.592Z</time></trkpt><trkpt lat="45.2825383" lon="11.0493217"><ele>28.0</ele><time>2026-04-04T10:23:59.592Z</time></trkpt><trkpt lat="45.2823733" lon="11.0493917"><ele>28.0</ele><time>2026-04-04T10:24:00.592Z</time></trkpt><trkpt lat="45.2822083" lon="11.0494583"><ele>27.333333333333336</ele><time>2026-04-04T10:24:01.592Z</time></trkpt><trkpt lat="45.282045" lon="11.0495233"><ele>26.666666666666664</ele><time>2026-04-04T10:24:02.592Z</time></trkpt><trkpt lat="45.2818833" lon="11.0495833"><ele>26.0</ele><time>2026-04-04T10:24:03.592Z</time></trkpt><trkpt lat="45.2817167" lon="11.04964"><ele>26.0</ele><time>2026-04-04T10:24:04.592Z</time></trkpt><trkpt lat="45.28155" lon="11.0497133"><ele>26.0</ele><time>2026-04-04T10:24:05.592Z</time></trkpt><trkpt lat="45.2813883" lon="11.049785"><ele>26.0</ele><time>2026-04-04T10:24:06.592Z</time></trkpt><trkpt lat="45.281225" lon="11.049855"><ele>26.0</ele><time>2026-04-04T10:24:07.592Z</time></trkpt><trkpt lat="45.2810667" lon="11.049925"><ele>26.0</ele><time>2026-04-04T10:24:08.592Z</time></trkpt><trkpt lat="45.2809" lon="11.0499883"><ele>26.0</ele><time>2026-04-04T10:24:09.592Z</time></trkpt><trkpt lat="45.2807367" lon="11.0500567"><ele>26.333333333333332</ele><time>2026-04-04T10:24:10.592Z</time></trkpt><trkpt lat="45.2805717" lon="11.05012"><ele>26.666666666666664</ele><time>2026-04-04T10:24:11.592Z</time></trkpt><trkpt lat="45.2804067" lon="11.05019"><ele>27.0</ele><time>2026-04-04T10:24:12.592Z</time></trkpt><trkpt lat="45.280245" lon="11.0502583"><ele>27.0</ele><time>2026-04-04T10:24:13.592Z</time></trkpt><trkpt lat="45.2800867" lon="11.0503333"><ele>27.0</ele><time>2026-04-04T10:24:14.592Z</time></trkpt><trkpt lat="45.2799283" lon="11.050415"><ele>27.0</ele><time>2026-04-04T10:24:15.592Z</time></trkpt><trkpt lat="45.2797667" lon="11.0504917"><ele>27.0</ele><time>2026-04-04T10:24:16.592Z</time></trkpt><trkpt lat="45.2795967" lon="11.050565"><ele>27.0</ele><time>2026-04-04T10:24:17.592Z</time></trkpt><trkpt lat="45.2794333" lon="11.0506367"><ele>27.0</ele><time>2026-04-04T10:24:18.592Z</time></trkpt><trkpt lat="45.2792667" lon="11.05071"><ele>27.0</ele><time>2026-04-04T10:24:19.592Z</time></trkpt><trkpt lat="45.2791" lon="11.0507817"><ele>27.0</ele><time>2026-04-04T10:24:20.592Z</time></trkpt><trkpt lat="45.2789433" lon="11.050865"><ele>27.0</ele><time>2026-04-04T10:24:21.592Z</time></trkpt><trkpt lat="45.2787833" lon="11.0509467"><ele>27.0</ele><time>2026-04-04T10:24:22.592Z</time></trkpt><trkpt lat="45.2786183" lon="11.05102"><ele>27.0</ele><time>2026-04-04T10:24:23.592Z</time></trkpt><trkpt lat="45.2784567" lon="11.0510933"><ele>27.0</ele><time>2026-04-04T10:24:24.592Z</time></trkpt><trkpt lat="45.2783" lon="11.05117"><ele>27.0</ele><time>2026-04-04T10:24:25.592Z</time></trkpt><trkpt lat="45.2781367" lon="11.051235"><ele>27.0</ele><time>2026-04-04T10:24:26.592Z</time></trkpt><trkpt lat="45.27798" lon="11.0513133"><ele>27.0</ele><time>2026-04-04T10:24:27.592Z</time></trkpt><trkpt lat="45.277815" lon="11.0513867"><ele>26.333333333333336</ele><time>2026-04-04T10:24:28.592Z</time></trkpt><trkpt lat="45.27765" lon="11.0514567"><ele>25.666666666666668</ele><time>2026-04-04T10:24:29.592Z</time></trkpt><trkpt lat="45.2774883" lon="11.0515317"><ele>25.0</ele><time>2026-04-04T10:24:30.592Z</time></trkpt><trkpt lat="45.277325" lon="11.0516033"><ele>25.666666666666668</ele><time>2026-04-04T10:24:31.592Z</time></trkpt><trkpt lat="45.2771633" lon="11.0516767"><ele>26.333333333333336</ele><time>2026-04-04T10:24:32.592Z</time></trkpt><trkpt lat="45.2770083" lon="11.0517433"><ele>27.0</ele><time>2026-04-04T10:24:33.592Z</time></trkpt><trkpt lat="45.2768533" lon="11.051815"><ele>27.0</ele><time>2026-04-04T10:24:34.592Z</time></trkpt><trkpt lat="45.2767033" lon="11.0518833"><ele>27.0</ele><time>2026-04-04T10:24:35.592Z</time></trkpt><trkpt lat="45.2765533" lon="11.051965"><ele>27.0</ele><time>2026-04-04T10:24:36.592Z</time></trkpt><trkpt lat="45.2764017" lon="11.0520533"><ele>26.333333333333336</ele><time>2026-04-04T10:24:37.592Z</time></trkpt><trkpt lat="45.27626" lon="11.052165"><ele>25.666666666666668</ele><time>2026-04-04T10:24:38.592Z</time></trkpt><trkpt lat="45.2761167" lon="11.0522817"><ele>25.0</ele><time>2026-04-04T10:24:39.592Z</time></trkpt><trkpt lat="45.275975" lon="11.052405"><ele>25.0</ele><time>2026-04-04T10:24:40.592Z</time></trkpt><trkpt lat="45.2758333" lon="11.0525233"><ele>25.0</ele><time>2026-04-04T10:24:41.592Z</time></trkpt><trkpt lat="45.275695" lon="11.05265"><ele>25.0</ele><time>2026-04-04T10:24:42.592Z</time></trkpt><trkpt lat="45.27556" lon="11.0527667"><ele>25.0</ele><time>2026-04-04T10:24:43.592Z</time></trkpt><trkpt lat="45.27542" lon="11.0528883"><ele>25.0</ele><time>2026-04-04T10:24:44.592Z</time></trkpt><trkpt lat="45.275275" lon="11.05302"><ele>25.0</ele><time>2026-04-04T10:24:45.592Z</time></trkpt><trkpt lat="45.2751317" lon="11.0531433"><ele>25.0</ele><time>2026-04-04T10:24:46.592Z</time></trkpt><trkpt lat="45.2749817" lon="11.0532667"><ele>25.0</ele><time>2026-04-04T10:24:47.592Z</time></trkpt><trkpt lat="45.2748317" lon="11.0533833"><ele>25.0</ele><time>2026-04-04T10:24:48.592Z</time></trkpt><trkpt lat="45.2746883" lon="11.0535067"><ele>26.0</ele><time>2026-04-04T10:24:49.592Z</time></trkpt><trkpt lat="45.2745517" lon="11.0536283"><ele>27.0</ele><time>2026-04-04T10:24:50.592Z</time></trkpt><trkpt lat="45.274415" lon="11.0537483"><ele>28.0</ele><time>2026-04-04T10:24:51.592Z</time></trkpt><trkpt lat="45.27428" lon="11.05386"><ele>28.0</ele><time>2026-04-04T10:24:52.592Z</time></trkpt><trkpt lat="45.274145" lon="11.0539883"><ele>28.0</ele><time>2026-04-04T10:24:53.592Z</time></trkpt><trkpt lat="45.2740117" lon="11.0540967"><ele>28.0</ele><time>2026-04-04T10:24:54.592Z</time></trkpt><trkpt lat="45.273885" lon="11.05421"><ele>27.666666666666668</ele><time>2026-04-04T10:24:55.592Z</time></trkpt><trkpt lat="45.2737533" lon="11.05433"><ele>27.333333333333336</ele><time>2026-04-04T10:24:56.592Z</time></trkpt><trkpt lat="45.2736267" lon="11.05445"><ele>27.0</ele><time>2026-04-04T10:24:57.592Z</time></trkpt><trkpt lat="45.273495" lon="11.05457"><ele>27.0</ele><time>2026-04-04T10:24:58.593Z</time></trkpt><trkpt lat="45.27336" lon="11.0546983"><ele>27.0</ele><time>2026-04-04T10:24:59.592Z</time></trkpt><trkpt lat="45.27321" lon="11.0548017"><ele>27.0</ele><time>2026-04-04T10:25:00.592Z</time></trkpt><trkpt lat="45.2730667" lon="11.054905"><ele>26.75</ele><time>2026-04-04T10:25:01.592Z</time></trkpt><trkpt lat="45.2729283" lon="11.0549867"><ele>26.5</ele><time>2026-04-04T10:25:02.592Z</time></trkpt><trkpt lat="45.2727883" lon="11.0550433"><ele>26.25</ele><time>2026-04-04T10:25:03.592Z</time></trkpt><trkpt lat="45.2726417" lon="11.0551033"><ele>26.0</ele><time>2026-04-04T10:25:04.592Z</time></trkpt><trkpt lat="45.2725" lon="11.0551667"><ele>26.0</ele><time>2026-04-04T10:25:05.592Z</time></trkpt><trkpt lat="45.2723583" lon="11.0552283"><ele>26.0</ele><time>2026-04-04T10:25:06.592Z</time></trkpt><trkpt lat="45.2722233" lon="11.0552867"><ele>26.0</ele><time>2026-04-04T10:25:07.592Z</time></trkpt><trkpt lat="45.2721" lon="11.0553483"><ele>26.0</ele><time>2026-04-04T10:25:08.592Z</time></trkpt><trkpt lat="45.2719917" lon="11.0554083"><ele>26.200000000000003</ele><time>2026-04-04T10:25:09.592Z</time></trkpt><trkpt lat="45.271885" lon="11.05546"><ele>26.400000000000002</ele><time>2026-04-04T10:25:10.592Z</time></trkpt><trkpt lat="45.2717783" lon="11.055485"><ele>26.6</ele><time>2026-04-04T10:25:11.593Z</time></trkpt><trkpt lat="45.2716833" lon="11.0554717"><ele>26.8</ele><time>2026-04-04T10:25:12.592Z</time></trkpt><trkpt lat="45.2715933" lon="11.055415"><ele>27.0</ele><time>2026-04-04T10:25:13.592Z</time></trkpt><trkpt lat="45.271505" lon="11.0553617"><ele>27.0</ele><time>2026-04-04T10:25:14.592Z</time></trkpt><trkpt lat="45.2714233" lon="11.0553483"><ele>27.000000000000004</ele><time>2026-04-04T10:25:15.592Z</time></trkpt><trkpt lat="45.2713433" lon="11.0553717"><ele>27.000000000000004</ele><time>2026-04-04T10:25:16.592Z</time></trkpt><trkpt lat="45.2712783" lon="11.05544"><ele>27.0</ele><time>2026-04-04T10:25:17.592Z</time></trkpt><trkpt lat="45.2712133" lon="11.0555517"><ele>27.0</ele><time>2026-04-04T10:25:18.592Z</time></trkpt><trkpt lat="45.2711583" lon="11.0557083"><ele>27.25</ele><time>2026-04-04T10:25:19.592Z</time></trkpt><trkpt lat="45.2710933" lon="11.0558667"><ele>27.5</ele><time>2026-04-04T10:25:20.592Z</time></trkpt><trkpt lat="45.2710167" lon="11.0560017"><ele>27.75</ele><time>2026-04-04T10:25:21.592Z</time></trkpt><trkpt lat="45.27093" lon="11.05612"><ele>28.0</ele><time>2026-04-04T10:25:22.592Z</time></trkpt><trkpt lat="45.2708367" lon="11.0562333"><ele>28.0</ele><time>2026-04-04T10:25:23.592Z</time></trkpt><trkpt lat="45.2707317" lon="11.056335"><ele>28.0</ele><time>2026-04-04T10:25:24.592Z</time></trkpt><trkpt lat="45.270615" lon="11.0564367"><ele>28.0</ele><time>2026-04-04T10:25:25.592Z</time></trkpt><trkpt lat="45.270505" lon="11.05655"><ele>28.0</ele><time>2026-04-04T10:25:26.592Z</time></trkpt><trkpt lat="45.2703883" lon="11.0566567"><ele>28.0</ele><time>2026-04-04T10:25:27.592Z</time></trkpt><trkpt lat="45.2702733" lon="11.05676"><ele>28.0</ele><time>2026-04-04T10:25:28.593Z</time></trkpt><trkpt lat="45.2701617" lon="11.05687"><ele>28.0</ele><time>2026-04-04T10:25:29.592Z</time></trkpt><trkpt lat="45.2700433" lon="11.05698"><ele>28.0</ele><time>2026-04-04T10:25:30.592Z</time></trkpt><trkpt lat="45.2699367" lon="11.0570933"><ele>28.0</ele><time>2026-04-04T10:25:31.592Z</time></trkpt><trkpt lat="45.26982" lon="11.0571933"><ele>28.0</ele><time>2026-04-04T10:25:32.592Z</time></trkpt><trkpt lat="45.269715" lon="11.05731"><ele>28.0</ele><time>2026-04-04T10:25:33.592Z</time></trkpt><trkpt lat="45.2696117" lon="11.0574083"><ele>28.0</ele><time>2026-04-04T10:25:34.592Z</time></trkpt><trkpt lat="45.2695117" lon="11.057495"><ele>27.5</ele><time>2026-04-04T10:25:35.592Z</time></trkpt><trkpt lat="45.2694183" lon="11.0575967"><ele>27.0</ele><time>2026-04-04T10:25:36.592Z</time></trkpt><trkpt lat="45.2693183" lon="11.057705"><ele>26.5</ele><time>2026-04-04T10:25:37.592Z</time></trkpt><trkpt lat="45.2692217" lon="11.0577983"><ele>26.0</ele><time>2026-04-04T10:25:38.592Z</time></trkpt><trkpt lat="45.26913" lon="11.0578983"><ele>26.0</ele><time>2026-04-04T10:25:39.592Z</time></trkpt><trkpt lat="45.2690367" lon="11.058005"><ele>26.0</ele><time>2026-04-04T10:25:40.592Z</time></trkpt><trkpt lat="45.268945" lon="11.058115"><ele>26.0</ele><time>2026-04-04T10:25:41.592Z</time></trkpt><trkpt lat="45.2688633" lon="11.0582267"><ele>26.0</ele><time>2026-04-04T10:25:42.592Z</time></trkpt><trkpt lat="45.2687717" lon="11.0583367"><ele>26.0</ele><time>2026-04-04T10:25:43.592Z</time></trkpt><trkpt lat="45.2686767" lon="11.0584483"><ele>26.0</ele><time>2026-04-04T10:25:44.592Z</time></trkpt><trkpt lat="45.2685767" lon="11.0585617"><ele>26.0</ele><time>2026-04-04T10:25:45.593Z</time></trkpt><trkpt lat="45.2684667" lon="11.0586733"><ele>26.0</ele><time>2026-04-04T10:25:46.592Z</time></trkpt><trkpt lat="45.2683633" lon="11.0587833"><ele>26.0</ele><time>2026-04-04T10:25:47.592Z</time></trkpt><trkpt lat="45.26826" lon="11.0588967"><ele>26.0</ele><time>2026-04-04T10:25:48.592Z</time></trkpt><trkpt lat="45.2681517" lon="11.059"><ele>26.0</ele><time>2026-04-04T10:25:49.592Z</time></trkpt><trkpt lat="45.26805" lon="11.059105"><ele>26.0</ele><time>2026-04-04T10:25:50.592Z</time></trkpt><trkpt lat="45.267955" lon="11.0592233"><ele>26.0</ele><time>2026-04-04T10:25:51.592Z</time></trkpt><trkpt lat="45.2678517" lon="11.0593383"><ele>26.0</ele><time>2026-04-04T10:25:52.592Z</time></trkpt><trkpt lat="45.2677433" lon="11.05945"><ele>26.0</ele><time>2026-04-04T10:25:53.592Z</time></trkpt><trkpt lat="45.2676367" lon="11.05957"><ele>26.0</ele><time>2026-04-04T10:25:54.592Z</time></trkpt><trkpt lat="45.2675417" lon="11.0597017"><ele>26.0</ele><time>2026-04-04T10:25:55.592Z</time></trkpt><trkpt lat="45.26744" lon="11.05983"><ele>26.0</ele><time>2026-04-04T10:25:56.592Z</time></trkpt><trkpt lat="45.267325" lon="11.059975"><ele>26.0</ele><time>2026-04-04T10:25:57.592Z</time></trkpt><trkpt lat="45.2672267" lon="11.06013"><ele>26.0</ele><time>2026-04-04T10:25:58.592Z</time></trkpt><trkpt lat="45.26714" lon="11.0602883"><ele>26.0</ele><time>2026-04-04T10:25:59.592Z</time></trkpt><trkpt lat="45.2670467" lon="11.0604517"><ele>26.0</ele><time>2026-04-04T10:26:00.592Z</time></trkpt><trkpt lat="45.2669583" lon="11.0606133"><ele>26.0</ele><time>2026-04-04T10:26:01.592Z</time></trkpt><trkpt lat="45.2668667" lon="11.060775"><ele>26.0</ele><time>2026-04-04T10:26:02.592Z</time></trkpt><trkpt lat="45.2667867" lon="11.0609433"><ele>26.0</ele><time>2026-04-04T10:26:03.592Z</time></trkpt><trkpt lat="45.26671" lon="11.0611133"><ele>26.0</ele><time>2026-04-04T10:26:04.592Z</time></trkpt><trkpt lat="45.2666367" lon="11.0612817"><ele>26.0</ele><time>2026-04-04T10:26:05.592Z</time></trkpt><trkpt lat="45.2665583" lon="11.0614533"><ele>26.0</ele><time>2026-04-04T10:26:06.592Z</time></trkpt><trkpt lat="45.2664767" lon="11.061625"><ele>25.75</ele><time>2026-04-04T10:26:07.592Z</time></trkpt><trkpt lat="45.2663967" lon="11.0617983"><ele>25.5</ele><time>2026-04-04T10:26:08.592Z</time></trkpt><trkpt lat="45.266315" lon="11.0619683"><ele>25.25</ele><time>2026-04-04T10:26:09.592Z</time></trkpt><trkpt lat="45.266235" lon="11.062135"><ele>25.0</ele><time>2026-04-04T10:26:10.592Z</time></trkpt><trkpt lat="45.26616" lon="11.0622983"><ele>25.0</ele><time>2026-04-04T10:26:11.592Z</time></trkpt><trkpt lat="45.2660917" lon="11.062445"><ele>25.0</ele><time>2026-04-04T10:26:12.592Z</time></trkpt><trkpt lat="45.2660367" lon="11.06258"><ele>25.0</ele><time>2026-04-04T10:26:13.592Z</time></trkpt><trkpt lat="45.2659833" lon="11.0627117"><ele>25.0</ele><time>2026-04-04T10:26:14.592Z</time></trkpt><trkpt lat="45.2659317" lon="11.062825"><ele>25.0</ele><time>2026-04-04T10:26:15.593Z</time></trkpt><trkpt lat="45.26588" lon="11.0629133"><ele>24.833333333333336</ele><time>2026-04-04T10:26:16.592Z</time></trkpt><trkpt lat="45.2658467" lon="11.0630017"><ele>24.666666666666668</ele><time>2026-04-04T10:26:17.592Z</time></trkpt><trkpt lat="45.265875" lon="11.063155"><ele>24.5</ele><time>2026-04-04T10:26:19.592Z</time></trkpt><trkpt lat="45.2659233" lon="11.063235"><ele>24.333333333333336</ele><time>2026-04-04T10:26:20.592Z</time></trkpt><trkpt lat="45.2659933" lon="11.063315"><ele>24.166666666666668</ele><time>2026-04-04T10:26:21.592Z</time></trkpt><trkpt lat="45.266075" lon="11.0634"><ele>24.0</ele><time>2026-04-04T10:26:22.592Z</time></trkpt><trkpt lat="45.2661817" lon="11.0634967"><ele>24.0</ele><time>2026-04-04T10:26:23.592Z</time></trkpt><trkpt lat="45.266285" lon="11.063595"><ele>24.0</ele><time>2026-04-04T10:26:24.592Z</time></trkpt><trkpt lat="45.2664017" lon="11.063695"><ele>24.0</ele><time>2026-04-04T10:26:25.592Z</time></trkpt><trkpt lat="45.2664933" lon="11.0638017"><ele>24.0</ele><time>2026-04-04T10:26:26.592Z</time></trkpt><trkpt lat="45.2665867" lon="11.063905"><ele>24.25</ele><time>2026-04-04T10:26:27.592Z</time></trkpt><trkpt lat="45.2666817" lon="11.0640067"><ele>24.5</ele><time>2026-04-04T10:26:28.592Z</time></trkpt><trkpt lat="45.2667783" lon="11.0641083"><ele>24.75</ele><time>2026-04-04T10:26:29.592Z</time></trkpt><trkpt lat="45.26688" lon="11.064205"><ele>25.0</ele><time>2026-04-04T10:26:30.592Z</time></trkpt><trkpt lat="45.266975" lon="11.0643083"><ele>25.4</ele><time>2026-04-04T10:26:31.592Z</time></trkpt><trkpt lat="45.26707" lon="11.0644033"><ele>25.8</ele><time>2026-04-04T10:26:32.592Z</time></trkpt><trkpt lat="45.267155" lon="11.06449"><ele>26.200000000000003</ele><time>2026-04-04T10:26:33.592Z</time></trkpt><trkpt lat="45.26723" lon="11.064565"><ele>26.6</ele><time>2026-04-04T10:26:34.592Z</time></trkpt><trkpt lat="45.2673083" lon="11.0646433"><ele>27.0</ele><time>2026-04-04T10:26:35.592Z</time></trkpt><trkpt lat="45.2673683" lon="11.06474"><ele>27.0</ele><time>2026-04-04T10:26:36.592Z</time></trkpt><trkpt lat="45.2674117" lon="11.064835"><ele>27.000000000000004</ele><time>2026-04-04T10:26:37.592Z</time></trkpt><trkpt lat="45.267435" lon="11.0649533"><ele>27.000000000000004</ele><time>2026-04-04T10:26:38.592Z</time></trkpt><trkpt lat="45.26745" lon="11.0651017"><ele>27.0</ele><time>2026-04-04T10:26:39.592Z</time></trkpt><trkpt lat="45.2674417" lon="11.065265"><ele>27.0</ele><time>2026-04-04T10:26:40.592Z</time></trkpt><trkpt lat="45.26743" lon="11.0654283"><ele>27.0</ele><time>2026-04-04T10:26:41.592Z</time></trkpt><trkpt lat="45.2674083" lon="11.0655983"><ele>27.0</ele><time>2026-04-04T10:26:42.592Z</time></trkpt><trkpt lat="45.2673817" lon="11.0657833"><ele>27.0</ele><time>2026-04-04T10:26:43.592Z</time></trkpt><trkpt lat="45.2673617" lon="11.065985"><ele>27.0</ele><time>2026-04-04T10:26:44.592Z</time></trkpt><trkpt lat="45.2673383" lon="11.0661867"><ele>27.0</ele><time>2026-04-04T10:26:45.592Z</time></trkpt><trkpt lat="45.2673017" lon="11.0664083"><ele>27.0</ele><time>2026-04-04T10:26:46.592Z</time></trkpt><trkpt lat="45.267285" lon="11.0666"><ele>27.0</ele><time>2026-04-04T10:26:47.592Z</time></trkpt><trkpt lat="45.2672717" lon="11.0667867"><ele>27.0</ele><time>2026-04-04T10:26:48.592Z</time></trkpt><trkpt lat="45.267255" lon="11.0669617"><ele>26.6</ele><time>2026-04-04T10:26:49.592Z</time></trkpt><trkpt lat="45.2672267" lon="11.0671167"><ele>26.200000000000003</ele><time>2026-04-04T10:26:50.592Z</time></trkpt><trkpt lat="45.2672233" lon="11.067235"><ele>25.8</ele><time>2026-04-04T10:26:51.592Z</time></trkpt><trkpt lat="45.2672467" lon="11.06736"><ele>25.4</ele><time>2026-04-04T10:26:52.592Z</time></trkpt><trkpt lat="45.2672967" lon="11.067485"><ele>25.0</ele><time>2026-04-04T10:26:53.592Z</time></trkpt><trkpt lat="45.2673783" lon="11.0676183"><ele>26.0</ele><time>2026-04-04T10:26:54.592Z</time></trkpt><trkpt lat="45.2674633" lon="11.0677683"><ele>27.0</ele><time>2026-04-04T10:26:55.592Z</time></trkpt><trkpt lat="45.2675283" lon="11.067915"><ele>28.0</ele><time>2026-04-04T10:26:56.592Z</time></trkpt><trkpt lat="45.2675667" lon="11.06806"><ele>29.0</ele><time>2026-04-04T10:26:57.593Z</time></trkpt><trkpt lat="45.2675833" lon="11.0682083"><ele>28.25</ele><time>2026-04-04T10:26:58.592Z</time></trkpt><trkpt lat="45.2675767" lon="11.0683717"><ele>27.5</ele><time>2026-04-04T10:26:59.592Z</time></trkpt><trkpt lat="45.2675583" lon="11.0685617"><ele>26.75</ele><time>2026-04-04T10:27:00.592Z</time></trkpt><trkpt lat="45.2675417" lon="11.06876"><ele>26.0</ele><time>2026-04-04T10:27:01.592Z</time></trkpt><trkpt lat="45.2675317" lon="11.0689383"><ele>26.0</ele><time>2026-04-04T10:27:02.592Z</time></trkpt><trkpt lat="45.26752" lon="11.069095"><ele>26.0</ele><time>2026-04-04T10:27:03.592Z</time></trkpt><trkpt lat="45.2675217" lon="11.0692433"><ele>26.0</ele><time>2026-04-04T10:27:04.592Z</time></trkpt><trkpt lat="45.26752" lon="11.06939"><ele>26.0</ele><time>2026-04-04T10:27:05.592Z</time></trkpt><trkpt lat="45.2675183" lon="11.0695317"><ele>26.0</ele><time>2026-04-04T10:27:06.592Z</time></trkpt><trkpt lat="45.267505" lon="11.06967"><ele>25.8</ele><time>2026-04-04T10:27:07.592Z</time></trkpt><trkpt lat="45.267485" lon="11.069805"><ele>25.6</ele><time>2026-04-04T10:27:08.592Z</time></trkpt><trkpt lat="45.267475" lon="11.069945"><ele>25.4</ele><time>2026-04-04T10:27:09.592Z</time></trkpt><trkpt lat="45.26745" lon="11.070105"><ele>25.2</ele><time>2026-04-04T10:27:10.592Z</time></trkpt><trkpt lat="45.2674167" lon="11.0702533"><ele>25.0</ele><time>2026-04-04T10:27:11.592Z</time></trkpt><trkpt lat="45.2673567" lon="11.0704083"><ele>25.0</ele><time>2026-04-04T10:27:12.592Z</time></trkpt><trkpt lat="45.2673217" lon="11.0705817"><ele>25.0</ele><time>2026-04-04T10:27:13.592Z</time></trkpt><trkpt lat="45.2672983" lon="11.0707633"><ele>25.0</ele><time>2026-04-04T10:27:14.592Z</time></trkpt><trkpt lat="45.2672733" lon="11.0709467"><ele>25.0</ele><time>2026-04-04T10:27:15.592Z</time></trkpt><trkpt lat="45.26725" lon="11.0711383"><ele>25.0</ele><time>2026-04-04T10:27:16.592Z</time></trkpt><trkpt lat="45.2672283" lon="11.0713367"><ele>25.0</ele><time>2026-04-04T10:27:17.592Z</time></trkpt><trkpt lat="45.26721" lon="11.0715233"><ele>25.0</ele><time>2026-04-04T10:27:18.592Z</time></trkpt><trkpt lat="45.2672033" lon="11.0717267"><ele>25.0</ele><time>2026-04-04T10:27:19.592Z</time></trkpt><trkpt lat="45.267195" lon="11.0719333"><ele>25.0</ele><time>2026-04-04T10:27:20.592Z</time></trkpt><trkpt lat="45.2671917" lon="11.072145"><ele>25.0</ele><time>2026-04-04T10:27:21.592Z</time></trkpt><trkpt lat="45.2671867" lon="11.07236"><ele>25.0</ele><time>2026-04-04T10:27:22.592Z</time></trkpt><trkpt lat="45.2671917" lon="11.0725717"><ele>25.0</ele><time>2026-04-04T10:27:23.592Z</time></trkpt><trkpt lat="45.2671833" lon="11.072795"><ele>25.25</ele><time>2026-04-04T10:27:24.592Z</time></trkpt><trkpt lat="45.2671667" lon="11.0730017"><ele>25.5</ele><time>2026-04-04T10:27:25.592Z</time></trkpt><trkpt lat="45.2671667" lon="11.073215"><ele>25.75</ele><time>2026-04-04T10:27:26.592Z</time></trkpt><trkpt lat="45.267175" lon="11.0734167"><ele>26.0</ele><time>2026-04-04T10:27:27.592Z</time></trkpt><trkpt lat="45.267195" lon="11.07361"><ele>25.75</ele><time>2026-04-04T10:27:28.592Z</time></trkpt><trkpt lat="45.2672083" lon="11.0738"><ele>25.5</ele><time>2026-04-04T10:27:29.592Z</time></trkpt><trkpt lat="45.2672317" lon="11.0739783"><ele>25.25</ele><time>2026-04-04T10:27:30.592Z</time></trkpt><trkpt lat="45.2672483" lon="11.0741367"><ele>25.0</ele><time>2026-04-04T10:27:31.592Z</time></trkpt><trkpt lat="45.2672617" lon="11.0743017"><ele>25.0</ele><time>2026-04-04T10:27:32.592Z</time></trkpt><trkpt lat="45.26727" lon="11.074455"><ele>25.0</ele><time>2026-04-04T10:27:33.592Z</time></trkpt><trkpt lat="45.267265" lon="11.0745933"><ele>25.0</ele><time>2026-04-04T10:27:34.592Z</time></trkpt><trkpt lat="45.2672367" lon="11.0747317"><ele>25.0</ele><time>2026-04-04T10:27:35.592Z</time></trkpt><trkpt lat="45.2672033" lon="11.0748767"><ele>25.0</ele><time>2026-04-04T10:27:36.592Z</time></trkpt><trkpt lat="45.2671767" lon="11.07503"><ele>25.25</ele><time>2026-04-04T10:27:37.592Z</time></trkpt><trkpt lat="45.2671483" lon="11.075195"><ele>25.5</ele><time>2026-04-04T10:27:38.593Z</time></trkpt><trkpt lat="45.2671233" lon="11.0753717"><ele>25.75</ele><time>2026-04-04T10:27:39.592Z</time></trkpt><trkpt lat="45.267085" lon="11.0755733"><ele>26.0</ele><time>2026-04-04T10:27:40.592Z</time></trkpt><trkpt lat="45.2670417" lon="11.0757883"><ele>25.0</ele><time>2026-04-04T10:27:41.592Z</time></trkpt><trkpt lat="45.266995" lon="11.07601"><ele>24.0</ele><time>2026-04-04T10:27:42.592Z</time></trkpt><trkpt lat="45.26693" lon="11.0762583"><ele>23.0</ele><time>2026-04-04T10:27:43.592Z</time></trkpt><trkpt lat="45.2668467" lon="11.076505"><ele>23.333333333333336</ele><time>2026-04-04T10:27:44.592Z</time></trkpt><trkpt lat="45.26677" lon="11.0767433"><ele>23.666666666666668</ele><time>2026-04-04T10:27:45.592Z</time></trkpt><trkpt lat="45.2667083" lon="11.07696"><ele>24.0</ele><time>2026-04-04T10:27:46.592Z</time></trkpt><trkpt lat="45.2666417" lon="11.0771733"><ele>24.0</ele><time>2026-04-04T10:27:47.592Z</time></trkpt><trkpt lat="45.2665717" lon="11.0773717"><ele>24.0</ele><time>2026-04-04T10:27:48.592Z</time></trkpt><trkpt lat="45.2665" lon="11.0775767"><ele>24.0</ele><time>2026-04-04T10:27:49.592Z</time></trkpt><trkpt lat="45.266445" lon="11.0778167"><ele>24.0</ele><time>2026-04-04T10:27:50.592Z</time></trkpt><trkpt lat="45.2663833" lon="11.078035"><ele>24.0</ele><time>2026-04-04T10:27:51.592Z</time></trkpt><trkpt lat="45.2663267" lon="11.0782967"><ele>24.0</ele><time>2026-04-04T10:27:52.592Z</time></trkpt><trkpt lat="45.2662983" lon="11.07857"><ele>24.0</ele><time>2026-04-04T10:27:53.592Z</time></trkpt><trkpt lat="45.266285" lon="11.0788183"><ele>24.0</ele><time>2026-04-04T10:27:54.592Z</time></trkpt><trkpt lat="45.2662617" lon="11.0790583"><ele>24.0</ele><time>2026-04-04T10:27:55.592Z</time></trkpt><trkpt lat="45.2662483" lon="11.07928"><ele>24.0</ele><time>2026-04-04T10:27:56.592Z</time></trkpt><trkpt lat="45.2662217" lon="11.0795167"><ele>24.0</ele><time>2026-04-04T10:27:57.592Z</time></trkpt><trkpt lat="45.2662233" lon="11.0797233"><ele>24.0</ele><time>2026-04-04T10:27:58.592Z</time></trkpt><trkpt lat="45.2662317" lon="11.07992"><ele>24.25</ele><time>2026-04-04T10:27:59.592Z</time></trkpt><trkpt lat="45.2662133" lon="11.0800867"><ele>24.5</ele><time>2026-04-04T10:28:00.592Z</time></trkpt><trkpt lat="45.266175" lon="11.0802433"><ele>24.75</ele><time>2026-04-04T10:28:01.592Z</time></trkpt><trkpt lat="45.2661217" lon="11.0803983"><ele>25.0</ele><time>2026-04-04T10:28:02.592Z</time></trkpt><trkpt lat="45.2660333" lon="11.08059"><ele>25.0</ele><time>2026-04-04T10:28:03.592Z</time></trkpt><trkpt lat="45.26594" lon="11.0807567"><ele>25.0</ele><time>2026-04-04T10:28:04.592Z</time></trkpt><trkpt lat="45.2658583" lon="11.0808767"><ele>25.0</ele><time>2026-04-04T10:28:05.592Z</time></trkpt><trkpt lat="45.265775" lon="11.0809767"><ele>25.0</ele><time>2026-04-04T10:28:07.592Z</time></trkpt><trkpt lat="45.2657183" lon="11.0810283"><ele>25.0</ele><time>2026-04-04T10:28:09.592Z</time></trkpt><trkpt lat="45.2656333" lon="11.0811267"><ele>25.2</ele><time>2026-04-04T10:28:11.592Z</time></trkpt><trkpt lat="45.26557" lon="11.0812083"><ele>25.4</ele><time>2026-04-04T10:28:12.592Z</time></trkpt><trkpt lat="45.2655067" lon="11.08128"><ele>25.6</ele><time>2026-04-04T10:28:13.592Z</time></trkpt><trkpt lat="45.26544" lon="11.081355"><ele>25.8</ele><time>2026-04-04T10:28:14.593Z</time></trkpt><trkpt lat="45.2653767" lon="11.08145"><ele>26.0</ele><time>2026-04-04T10:28:15.593Z</time></trkpt><trkpt lat="45.2653" lon="11.0815617"><ele>25.75</ele><time>2026-04-04T10:28:16.592Z</time></trkpt><trkpt lat="45.2652067" lon="11.08169"><ele>25.5</ele><time>2026-04-04T10:28:17.592Z</time></trkpt><trkpt lat="45.2650917" lon="11.081825"><ele>25.25</ele><time>2026-04-04T10:28:18.592Z</time></trkpt><trkpt lat="45.26498" lon="11.0819483"><ele>25.0</ele><time>2026-04-04T10:28:19.592Z</time></trkpt><trkpt lat="45.264865" lon="11.08206"><ele>24.5</ele><time>2026-04-04T10:28:20.592Z</time></trkpt><trkpt lat="45.26474" lon="11.0821583"><ele>24.0</ele><time>2026-04-04T10:28:21.592Z</time></trkpt><trkpt lat="45.26461" lon="11.0822383"><ele>23.5</ele><time>2026-04-04T10:28:22.592Z</time></trkpt><trkpt lat="45.264475" lon="11.0822883"><ele>23.0</ele><time>2026-04-04T10:28:23.593Z</time></trkpt><trkpt lat="45.2643417" lon="11.0823317"><ele>23.0</ele><time>2026-04-04T10:28:24.592Z</time></trkpt><trkpt lat="45.26422" lon="11.0823533"><ele>23.0</ele><time>2026-04-04T10:28:25.592Z</time></trkpt><trkpt lat="45.2641133" lon="11.0823833"><ele>23.0</ele><time>2026-04-04T10:28:26.592Z</time></trkpt><trkpt lat="45.2640167" lon="11.08241"><ele>23.0</ele><time>2026-04-04T10:28:27.592Z</time></trkpt><trkpt lat="45.26394" lon="11.082425"><ele>23.0</ele><time>2026-04-04T10:28:28.592Z</time></trkpt><trkpt lat="45.2638433" lon="11.0824783"><ele>23.0</ele><time>2026-04-04T10:28:30.592Z</time></trkpt><trkpt lat="45.2639367" lon="11.0824383"><ele>23.0</ele><time>2026-04-04T10:28:36.592Z</time></trkpt><trkpt lat="45.264075" lon="11.0823683"><ele>23.0</ele><time>2026-04-04T10:28:38.592Z</time></trkpt><trkpt lat="45.2641683" lon="11.0823467"><ele>23.0</ele><time>2026-04-04T10:28:39.592Z</time></trkpt><trkpt lat="45.2642917" lon="11.0823233"><ele>23.0</ele><time>2026-04-04T10:28:40.592Z</time></trkpt><trkpt lat="45.2644483" lon="11.0822883"><ele>23.0</ele><time>2026-04-04T10:28:41.592Z</time></trkpt><trkpt lat="45.2646167" lon="11.0822233"><ele>23.0</ele><time>2026-04-04T10:28:42.592Z</time></trkpt><trkpt lat="45.2647817" lon="11.08213"><ele>23.666666666666668</ele><time>2026-04-04T10:28:43.592Z</time></trkpt><trkpt lat="45.2649283" lon="11.0820033"><ele>24.333333333333336</ele><time>2026-04-04T10:28:44.592Z</time></trkpt><trkpt lat="45.26508" lon="11.081845"><ele>25.0</ele><time>2026-04-04T10:28:45.592Z</time></trkpt><trkpt lat="45.2652367" lon="11.08166"><ele>25.333333333333336</ele><time>2026-04-04T10:28:46.592Z</time></trkpt><trkpt lat="45.2653833" lon="11.0814667"><ele>25.666666666666664</ele><time>2026-04-04T10:28:47.592Z</time></trkpt><trkpt lat="45.2655067" lon="11.081305"><ele>26.0</ele><time>2026-04-04T10:28:48.592Z</time></trkpt><trkpt lat="45.26561" lon="11.08117"><ele>25.8</ele><time>2026-04-04T10:28:49.592Z</time></trkpt><trkpt lat="45.2657117" lon="11.0810533"><ele>25.6</ele><time>2026-04-04T10:28:50.592Z</time></trkpt><trkpt lat="45.265795" lon="11.08095"><ele>25.4</ele><time>2026-04-04T10:28:51.592Z</time></trkpt><trkpt lat="45.2658517" lon="11.0808733"><ele>25.2</ele><time>2026-04-04T10:28:52.592Z</time></trkpt><trkpt lat="45.2659133" lon="11.0808083"><ele>25.0</ele><time>2026-04-04T10:28:54.592Z</time></trkpt><trkpt lat="45.2659933" lon="11.0808833"><ele>25.0</ele><time>2026-04-04T10:28:57.592Z</time></trkpt><trkpt lat="45.2660433" lon="11.0809483"><ele>25.0</ele><time>2026-04-04T10:28:58.592Z</time></trkpt><trkpt lat="45.2661117" lon="11.0810133"><ele>25.0</ele><time>2026-04-04T10:28:59.592Z</time></trkpt><trkpt lat="45.2662033" lon="11.0810817"><ele>25.0</ele><time>2026-04-04T10:29:00.592Z</time></trkpt><trkpt lat="45.2663117" lon="11.0811467"><ele>25.0</ele><time>2026-04-04T10:29:01.592Z</time></trkpt><trkpt lat="45.2664683" lon="11.0812167"><ele>24.666666666666668</ele><time>2026-04-04T10:29:02.592Z</time></trkpt><trkpt lat="45.266635" lon="11.0813017"><ele>24.333333333333336</ele><time>2026-04-04T10:29:03.592Z</time></trkpt><trkpt lat="45.2668" lon="11.081395"><ele>24.0</ele><time>2026-04-04T10:29:04.592Z</time></trkpt><trkpt lat="45.2669483" lon="11.0814917"><ele>24.0</ele><time>2026-04-04T10:29:05.592Z</time></trkpt><trkpt lat="45.2670767" lon="11.0815633"><ele>24.0</ele><time>2026-04-04T10:29:06.592Z</time></trkpt><trkpt lat="45.2671783" lon="11.0816317"><ele>24.0</ele><time>2026-04-04T10:29:07.592Z</time></trkpt><trkpt lat="45.2672683" lon="11.0816783"><ele>24.0</ele><time>2026-04-04T10:29:08.592Z</time></trkpt><trkpt lat="45.2673433" lon="11.0817083"><ele>24.0</ele><time>2026-04-04T10:29:09.592Z</time></trkpt><trkpt lat="45.2674217" lon="11.0817633"><ele>24.0</ele><time>2026-04-04T10:29:11.592Z</time></trkpt><trkpt lat="45.267425" lon="11.0818667"><ele>24.0</ele><time>2026-04-04T10:29:13.592Z</time></trkpt><trkpt lat="45.267385" lon="11.0819733"><ele>24.0</ele><time>2026-04-04T10:29:14.593Z</time></trkpt><trkpt lat="45.2673333" lon="11.0821133"><ele>24.0</ele><time>2026-04-04T10:29:15.593Z</time></trkpt><trkpt lat="45.2672533" lon="11.0823017"><ele>24.0</ele><time>2026-04-04T10:29:16.592Z</time></trkpt><trkpt lat="45.2671583" lon="11.082535"><ele>24.0</ele><time>2026-04-04T10:29:17.592Z</time></trkpt><trkpt lat="45.2670583" lon="11.0827967"><ele>24.0</ele><time>2026-04-04T10:29:18.592Z</time></trkpt><trkpt lat="45.2669467" lon="11.0830967"><ele>24.0</ele><time>2026-04-04T10:29:19.592Z</time></trkpt><trkpt lat="45.2668317" lon="11.0834333"><ele>23.5</ele><time>2026-04-04T10:29:20.592Z</time></trkpt><trkpt lat="45.2667233" lon="11.0837483"><ele>23.0</ele><time>2026-04-04T10:29:21.592Z</time></trkpt><trkpt lat="45.2666183" lon="11.08404"><ele>23.0</ele><time>2026-04-04T10:29:22.592Z</time></trkpt><trkpt lat="45.2665183" lon="11.0842933"><ele>23.0</ele><time>2026-04-04T10:29:23.592Z</time></trkpt><trkpt lat="45.2664333" lon="11.0845267"><ele>23.0</ele><time>2026-04-04T10:29:24.592Z</time></trkpt><trkpt lat="45.2663517" lon="11.0847533"><ele>22.666666666666668</ele><time>2026-04-04T10:29:25.592Z</time></trkpt><trkpt lat="45.2662683" lon="11.0849833"><ele>22.333333333333332</ele><time>2026-04-04T10:29:26.592Z</time></trkpt><trkpt lat="45.26619" lon="11.0852017"><ele>22.0</ele><time>2026-04-04T10:29:27.592Z</time></trkpt><trkpt lat="45.2661233" lon="11.0853983"><ele>22.0</ele><time>2026-04-04T10:29:28.592Z</time></trkpt><trkpt lat="45.2660567" lon="11.085595"><ele>22.0</ele><time>2026-04-04T10:29:29.592Z</time></trkpt><trkpt lat="45.265995" lon="11.0857667"><ele>22.0</ele><time>2026-04-04T10:29:30.592Z</time></trkpt><trkpt lat="45.26594" lon="11.085935"><ele>22.0</ele><time>2026-04-04T10:29:31.592Z</time></trkpt><trkpt lat="45.26588" lon="11.0861033"><ele>22.0</ele><time>2026-04-04T10:29:32.592Z</time></trkpt><trkpt lat="45.2658367" lon="11.086245"><ele>22.0</ele><time>2026-04-04T10:29:33.592Z</time></trkpt><trkpt lat="45.26579" lon="11.086395"><ele>22.0</ele><time>2026-04-04T10:29:34.592Z</time></trkpt><trkpt lat="45.26574" lon="11.08654"><ele>22.0</ele><time>2026-04-04T10:29:35.592Z</time></trkpt><trkpt lat="45.2657033" lon="11.086665"><ele>22.0</ele><time>2026-04-04T10:29:36.592Z</time></trkpt><trkpt lat="45.26567" lon="11.0867933"><ele>22.0</ele><time>2026-04-04T10:29:37.592Z</time></trkpt><trkpt lat="45.2656333" lon="11.0869317"><ele>22.0</ele><time>2026-04-04T10:29:38.592Z</time></trkpt><trkpt lat="45.2655883" lon="11.0870683"><ele>22.0</ele><time>2026-04-04T10:29:39.592Z</time></trkpt><trkpt lat="45.265545" lon="11.0871933"><ele>22.0</ele><time>2026-04-04T10:29:40.592Z</time></trkpt><trkpt lat="45.2655017" lon="11.0873167"><ele>22.0</ele><time>2026-04-04T10:29:41.592Z</time></trkpt><trkpt lat="45.26546" lon="11.087445"><ele>22.200000000000003</ele><time>2026-04-04T10:29:42.592Z</time></trkpt><trkpt lat="45.2654083" lon="11.08758"><ele>22.4</ele><time>2026-04-04T10:29:43.592Z</time></trkpt><trkpt lat="45.265355" lon="11.0877083"><ele>22.6</ele><time>2026-04-04T10:29:44.592Z</time></trkpt><trkpt lat="45.2652983" lon="11.0878333"><ele>22.799999999999997</ele><time>2026-04-04T10:29:45.592Z</time></trkpt><trkpt lat="45.26525" lon="11.0879617"><ele>23.0</ele><time>2026-04-04T10:29:46.592Z</time></trkpt><trkpt lat="45.2652" lon="11.0881033"><ele>23.0</ele><time>2026-04-04T10:29:47.592Z</time></trkpt><trkpt lat="45.2651517" lon="11.0882617"><ele>23.0</ele><time>2026-04-04T10:29:48.592Z</time></trkpt><trkpt lat="45.2650983" lon="11.0884383"><ele>23.0</ele><time>2026-04-04T10:29:49.592Z</time></trkpt><trkpt lat="45.2650367" lon="11.0886367"><ele>23.0</ele><time>2026-04-04T10:29:50.592Z</time></trkpt><trkpt lat="45.26496" lon="11.088875"><ele>22.666666666666668</ele><time>2026-04-04T10:29:51.592Z</time></trkpt><trkpt lat="45.2648733" lon="11.0891333"><ele>22.333333333333332</ele><time>2026-04-04T10:29:52.592Z</time></trkpt><trkpt lat="45.2647767" lon="11.089415"><ele>22.0</ele><time>2026-04-04T10:29:53.592Z</time></trkpt><trkpt lat="45.2646567" lon="11.0897333"><ele>22.0</ele><time>2026-04-04T10:29:54.592Z</time></trkpt><trkpt lat="45.26453" lon="11.0900517"><ele>22.0</ele><time>2026-04-04T10:29:55.592Z</time></trkpt><trkpt lat="45.2644017" lon="11.0903683"><ele>22.0</ele><time>2026-04-04T10:29:56.592Z</time></trkpt><trkpt lat="45.2642783" lon="11.0906767"><ele>22.0</ele><time>2026-04-04T10:29:57.592Z</time></trkpt><trkpt lat="45.2641683" lon="11.090975"><ele>22.333333333333332</ele><time>2026-04-04T10:29:58.592Z</time></trkpt><trkpt lat="45.2640667" lon="11.0912483"><ele>22.666666666666668</ele><time>2026-04-04T10:29:59.592Z</time></trkpt><trkpt lat="45.263975" lon="11.0915033"><ele>23.0</ele><time>2026-04-04T10:30:00.592Z</time></trkpt><trkpt lat="45.263885" lon="11.0917433"><ele>22.333333333333336</ele><time>2026-04-04T10:30:01.592Z</time></trkpt><trkpt lat="45.2638067" lon="11.0919583"><ele>21.666666666666668</ele><time>2026-04-04T10:30:02.592Z</time></trkpt><trkpt lat="45.26373" lon="11.0921517"><ele>21.0</ele><time>2026-04-04T10:30:03.592Z</time></trkpt><trkpt lat="45.2636483" lon="11.09236"><ele>21.0</ele><time>2026-04-04T10:30:04.592Z</time></trkpt><trkpt lat="45.26357" lon="11.0925617"><ele>21.0</ele><time>2026-04-04T10:30:05.591Z</time></trkpt><trkpt lat="45.26348" lon="11.0927583"><ele>21.0</ele><time>2026-04-04T10:30:06.591Z</time></trkpt><trkpt lat="45.263385" lon="11.0929217"><ele>21.0</ele><time>2026-04-04T10:30:07.591Z</time></trkpt><trkpt lat="45.2632683" lon="11.09308"><ele>21.0</ele><time>2026-04-04T10:30:08.591Z</time></trkpt><trkpt lat="45.26313" lon="11.0932217"><ele>21.0</ele><time>2026-04-04T10:30:09.591Z</time></trkpt><trkpt lat="45.2629917" lon="11.093345"><ele>21.0</ele><time>2026-04-04T10:30:10.591Z</time></trkpt><trkpt lat="45.26285" lon="11.09346"><ele>21.0</ele><time>2026-04-04T10:30:11.591Z</time></trkpt><trkpt lat="45.2627117" lon="11.093555"><ele>21.0</ele><time>2026-04-04T10:30:12.591Z</time></trkpt><trkpt lat="45.262565" lon="11.0936383"><ele>21.0</ele><time>2026-04-04T10:30:13.591Z</time></trkpt><trkpt lat="45.2624" lon="11.09373"><ele>21.0</ele><time>2026-04-04T10:30:14.591Z</time></trkpt><trkpt lat="45.2622367" lon="11.093805"><ele>21.0</ele><time>2026-04-04T10:30:15.591Z</time></trkpt><trkpt lat="45.26208" lon="11.0938783"><ele>21.0</ele><time>2026-04-04T10:30:16.591Z</time></trkpt><trkpt lat="45.2619333" lon="11.09396"><ele>21.0</ele><time>2026-04-04T10:30:17.591Z</time></trkpt><trkpt lat="45.2617933" lon="11.0940617"><ele>21.0</ele><time>2026-04-04T10:30:18.591Z</time></trkpt><trkpt lat="45.2616633" lon="11.09419"><ele>21.333333333333332</ele><time>2026-04-04T10:30:19.591Z</time></trkpt><trkpt lat="45.2615517" lon="11.094335"><ele>21.666666666666664</ele><time>2026-04-04T10:30:20.591Z</time></trkpt><trkpt lat="45.2614517" lon="11.0945083"><ele>22.0</ele><time>2026-04-04T10:30:21.591Z</time></trkpt><trkpt lat="45.261335" lon="11.0947183"><ele>22.0</ele><time>2026-04-04T10:30:22.591Z</time></trkpt><trkpt lat="45.2612067" lon="11.0949283"><ele>22.0</ele><time>2026-04-04T10:30:23.591Z</time></trkpt><trkpt lat="45.2610833" lon="11.0951017"><ele>22.0</ele><time>2026-04-04T10:30:24.591Z</time></trkpt><trkpt lat="45.2609817" lon="11.0952433"><ele>22.0</ele><time>2026-04-04T10:30:25.591Z</time></trkpt><trkpt lat="45.260895" lon="11.09535"><ele>22.0</ele><time>2026-04-04T10:30:26.591Z</time></trkpt><trkpt lat="45.260815" lon="11.0954417"><ele>22.0</ele><time>2026-04-04T10:30:27.591Z</time></trkpt><trkpt lat="45.26076" lon="11.0955"><ele>22.0</ele><time>2026-04-04T10:30:28.591Z</time></trkpt><trkpt lat="45.2606867" lon="11.0955867"><ele>22.0</ele><time>2026-04-04T10:30:30.591Z</time></trkpt><trkpt lat="45.2606283" lon="11.09563"><ele>22.0</ele><time>2026-04-04T10:30:33.591Z</time></trkpt><trkpt lat="45.260555" lon="11.09565"><ele>22.0</ele><time>2026-04-04T10:30:35.591Z</time></trkpt><trkpt lat="45.2605" lon="11.0957017"><ele>22.0</ele><time>2026-04-04T10:30:36.591Z</time></trkpt><trkpt lat="45.2604317" lon="11.095785"><ele>22.0</ele><time>2026-04-04T10:30:37.591Z</time></trkpt><trkpt lat="45.2603517" lon="11.0958883"><ele>22.0</ele><time>2026-04-04T10:30:38.591Z</time></trkpt><trkpt lat="45.26025" lon="11.0960133"><ele>22.0</ele><time>2026-04-04T10:30:39.591Z</time></trkpt><trkpt lat="45.2601467" lon="11.0961467"><ele>22.25</ele><time>2026-04-04T10:30:40.591Z</time></trkpt><trkpt lat="45.2600433" lon="11.0962867"><ele>22.5</ele><time>2026-04-04T10:30:41.591Z</time></trkpt><trkpt lat="45.2599333" lon="11.0964283"><ele>22.75</ele><time>2026-04-04T10:30:42.591Z</time></trkpt><trkpt lat="45.2598317" lon="11.0965633"><ele>23.0</ele><time>2026-04-04T10:30:43.591Z</time></trkpt><trkpt lat="45.259745" lon="11.0966767"><ele>23.0</ele><time>2026-04-04T10:30:44.591Z</time></trkpt><trkpt lat="45.2596633" lon="11.09679"><ele>23.0</ele><time>2026-04-04T10:30:45.591Z</time></trkpt><trkpt lat="45.259575" lon="11.0969167"><ele>23.0</ele><time>2026-04-04T10:30:46.591Z</time></trkpt><trkpt lat="45.2595" lon="11.0970383"><ele>23.0</ele><time>2026-04-04T10:30:47.591Z</time></trkpt><trkpt lat="45.25942" lon="11.097155"><ele>23.0</ele><time>2026-04-04T10:30:48.591Z</time></trkpt><trkpt lat="45.259325" lon="11.09727"><ele>23.0</ele><time>2026-04-04T10:30:49.591Z</time></trkpt><trkpt lat="45.2592233" lon="11.0973817"><ele>23.0</ele><time>2026-04-04T10:30:50.591Z</time></trkpt><trkpt lat="45.2591" lon="11.0975"><ele>23.0</ele><time>2026-04-04T10:30:51.591Z</time></trkpt><trkpt lat="45.2589633" lon="11.0976267"><ele>22.666666666666668</ele><time>2026-04-04T10:30:52.591Z</time></trkpt><trkpt lat="45.2588233" lon="11.0977617"><ele>22.333333333333332</ele><time>2026-04-04T10:30:53.591Z</time></trkpt><trkpt lat="45.2586717" lon="11.0979083"><ele>22.0</ele><time>2026-04-04T10:30:54.591Z</time></trkpt><trkpt lat="45.2585217" lon="11.098055"><ele>22.0</ele><time>2026-04-04T10:30:55.591Z</time></trkpt><trkpt lat="45.258375" lon="11.0981917"><ele>22.0</ele><time>2026-04-04T10:30:56.591Z</time></trkpt><trkpt lat="45.258235" lon="11.0983217"><ele>22.0</ele><time>2026-04-04T10:30:57.591Z</time></trkpt><trkpt lat="45.25811" lon="11.0984467"><ele>21.75</ele><time>2026-04-04T10:30:58.591Z</time></trkpt><trkpt lat="45.2579867" lon="11.09857"><ele>21.5</ele><time>2026-04-04T10:30:59.591Z</time></trkpt><trkpt lat="45.2578667" lon="11.0986917"><ele>21.25</ele><time>2026-04-04T10:31:00.591Z</time></trkpt><trkpt lat="45.2577533" lon="11.0988033"><ele>21.0</ele><time>2026-04-04T10:31:01.591Z</time></trkpt><trkpt lat="45.2576383" lon="11.098905"><ele>21.0</ele><time>2026-04-04T10:31:02.591Z</time></trkpt><trkpt lat="45.2575183" lon="11.0990217"><ele>21.0</ele><time>2026-04-04T10:31:03.591Z</time></trkpt><trkpt lat="45.257395" lon="11.0991433"><ele>21.0</ele><time>2026-04-04T10:31:04.591Z</time></trkpt><trkpt lat="45.2572767" lon="11.099265"><ele>21.0</ele><time>2026-04-04T10:31:05.591Z</time></trkpt><trkpt lat="45.2571567" lon="11.0993833"><ele>20.5</ele><time>2026-04-04T10:31:06.591Z</time></trkpt><trkpt lat="45.2570367" lon="11.0994967"><ele>20.0</ele><time>2026-04-04T10:31:07.591Z</time></trkpt><trkpt lat="45.2569133" lon="11.099615"><ele>19.5</ele><time>2026-04-04T10:31:08.591Z</time></trkpt><trkpt lat="45.2568083" lon="11.0997133"><ele>19.0</ele><time>2026-04-04T10:31:09.591Z</time></trkpt><trkpt lat="45.25671" lon="11.0997967"><ele>19.0</ele><time>2026-04-04T10:31:10.591Z</time></trkpt><trkpt lat="45.2566133" lon="11.0998833"><ele>19.0</ele><time>2026-04-04T10:31:11.591Z</time></trkpt><trkpt lat="45.256525" lon="11.0999867"><ele>19.0</ele><time>2026-04-04T10:31:12.591Z</time></trkpt><trkpt lat="45.2564667" lon="11.100095"><ele>19.0</ele><time>2026-04-04T10:31:13.591Z</time></trkpt><trkpt lat="45.256435" lon="11.1002183"><ele>19.0</ele><time>2026-04-04T10:31:14.591Z</time></trkpt><trkpt lat="45.2564117" lon="11.1003483"><ele>19.0</ele><time>2026-04-04T10:31:15.591Z</time></trkpt><trkpt lat="45.2563933" lon="11.100485"><ele>19.0</ele><time>2026-04-04T10:31:16.591Z</time></trkpt><trkpt lat="45.2563783" lon="11.1006117"><ele>19.0</ele><time>2026-04-04T10:31:17.591Z</time></trkpt><trkpt lat="45.2563917" lon="11.10074"><ele>19.0</ele><time>2026-04-04T10:31:18.591Z</time></trkpt><trkpt lat="45.2564333" lon="11.100885"><ele>19.0</ele><time>2026-04-04T10:31:19.591Z</time></trkpt><trkpt lat="45.2564933" lon="11.101045"><ele>19.0</ele><time>2026-04-04T10:31:20.591Z</time></trkpt><trkpt lat="45.2565617" lon="11.101195"><ele>19.0</ele><time>2026-04-04T10:31:21.591Z</time></trkpt><trkpt lat="45.2566383" lon="11.101335"><ele>19.0</ele><time>2026-04-04T10:31:22.591Z</time></trkpt><trkpt lat="45.2567317" lon="11.1014767"><ele>19.0</ele><time>2026-04-04T10:31:23.591Z</time></trkpt><trkpt lat="45.25682" lon="11.1016317"><ele>18.75</ele><time>2026-04-04T10:31:24.591Z</time></trkpt><trkpt lat="45.2568983" lon="11.1017817"><ele>18.5</ele><time>2026-04-04T10:31:25.591Z</time></trkpt><trkpt lat="45.2569717" lon="11.1019417"><ele>18.25</ele><time>2026-04-04T10:31:26.591Z</time></trkpt><trkpt lat="45.2570333" lon="11.1021017"><ele>18.0</ele><time>2026-04-04T10:31:27.591Z</time></trkpt><trkpt lat="45.25709" lon="11.1022683"><ele>17.75</ele><time>2026-04-04T10:31:28.591Z</time></trkpt><trkpt lat="45.2571417" lon="11.1024333"><ele>17.5</ele><time>2026-04-04T10:31:29.591Z</time></trkpt><trkpt lat="45.2571967" lon="11.10259"><ele>17.25</ele><time>2026-04-04T10:31:30.591Z</time></trkpt><trkpt lat="45.2572517" lon="11.1027433"><ele>17.0</ele><time>2026-04-04T10:31:31.591Z</time></trkpt><trkpt lat="45.25731" lon="11.1028983"><ele>17.5</ele><time>2026-04-04T10:31:32.591Z</time></trkpt><trkpt lat="45.2574017" lon="11.1030383"><ele>18.0</ele><time>2026-04-04T10:31:33.591Z</time></trkpt><trkpt lat="45.2575033" lon="11.1031867"><ele>18.5</ele><time>2026-04-04T10:31:34.591Z</time></trkpt><trkpt lat="45.25762" lon="11.1033317"><ele>19.0</ele><time>2026-04-04T10:31:35.591Z</time></trkpt><trkpt lat="45.2577417" lon="11.10347"><ele>19.0</ele><time>2026-04-04T10:31:36.591Z</time></trkpt><trkpt lat="45.257865" lon="11.103615"><ele>19.0</ele><time>2026-04-04T10:31:37.591Z</time></trkpt><trkpt lat="45.2579883" lon="11.1037533"><ele>19.0</ele><time>2026-04-04T10:31:38.591Z</time></trkpt><trkpt lat="45.2581" lon="11.1038933"><ele>19.0</ele><time>2026-04-04T10:31:39.591Z</time></trkpt><trkpt lat="45.25821" lon="11.1040367"><ele>19.0</ele><time>2026-04-04T10:31:40.591Z</time></trkpt><trkpt lat="45.2583067" lon="11.10416"><ele>19.0</ele><time>2026-04-04T10:31:41.591Z</time></trkpt><trkpt lat="45.2583733" lon="11.104255"><ele>19.0</ele><time>2026-04-04T10:31:42.591Z</time></trkpt><trkpt lat="45.25843" lon="11.1043417"><ele>18.8</ele><time>2026-04-04T10:31:43.591Z</time></trkpt><trkpt lat="45.25849" lon="11.1044233"><ele>18.599999999999998</ele><time>2026-04-04T10:31:44.591Z</time></trkpt><trkpt lat="45.2585567" lon="11.1045017"><ele>18.4</ele><time>2026-04-04T10:31:45.591Z</time></trkpt><trkpt lat="45.2586167" lon="11.10458"><ele>18.2</ele><time>2026-04-04T10:31:46.591Z</time></trkpt><trkpt lat="45.258675" lon="11.1046983"><ele>18.0</ele><time>2026-04-04T10:31:48.591Z</time></trkpt><trkpt lat="45.25867" lon="11.10485"><ele>17.8</ele><time>2026-04-04T10:31:50.591Z</time></trkpt><trkpt lat="45.2586283" lon="11.1049333"><ele>17.6</ele><time>2026-04-04T10:31:51.592Z</time></trkpt><trkpt lat="45.2585567" lon="11.10504"><ele>17.4</ele><time>2026-04-04T10:31:52.591Z</time></trkpt><trkpt lat="45.2584717" lon="11.1051733"><ele>17.2</ele><time>2026-04-04T10:31:53.591Z</time></trkpt><trkpt lat="45.2583867" lon="11.1053267"><ele>17.0</ele><time>2026-04-04T10:31:54.591Z</time></trkpt><trkpt lat="45.2583317" lon="11.1055"><ele>17.0</ele><time>2026-04-04T10:31:55.591Z</time></trkpt><trkpt lat="45.25832" lon="11.105675"><ele>17.0</ele><time>2026-04-04T10:31:56.591Z</time></trkpt><trkpt lat="45.2583217" lon="11.1058383"><ele>17.0</ele><time>2026-04-04T10:31:57.591Z</time></trkpt><trkpt lat="45.2583083" lon="11.1060017"><ele>17.0</ele><time>2026-04-04T10:31:58.591Z</time></trkpt><trkpt lat="45.2582533" lon="11.106165"><ele>17.4</ele><time>2026-04-04T10:31:59.591Z</time></trkpt><trkpt lat="45.2581767" lon="11.1063083"><ele>17.799999999999997</ele><time>2026-04-04T10:32:00.591Z</time></trkpt><trkpt lat="45.2581067" lon="11.106425"><ele>18.2</ele><time>2026-04-04T10:32:01.592Z</time></trkpt><trkpt lat="45.2580717" lon="11.1065433"><ele>18.599999999999998</ele><time>2026-04-04T10:32:02.591Z</time></trkpt><trkpt lat="45.2580767" lon="11.1066833"><ele>19.0</ele><time>2026-04-04T10:32:03.591Z</time></trkpt><trkpt lat="45.258095" lon="11.10683"><ele>19.0</ele><time>2026-04-04T10:32:04.591Z</time></trkpt><trkpt lat="45.2581267" lon="11.106975"><ele>19.0</ele><time>2026-04-04T10:32:05.591Z</time></trkpt><trkpt lat="45.2581383" lon="11.107125"><ele>19.0</ele><time>2026-04-04T10:32:06.591Z</time></trkpt><trkpt lat="45.25811" lon="11.1072767"><ele>19.0</ele><time>2026-04-04T10:32:07.591Z</time></trkpt><trkpt lat="45.2580367" lon="11.107405"><ele>19.0</ele><time>2026-04-04T10:32:08.591Z</time></trkpt><trkpt lat="45.2579367" lon="11.10751"><ele>18.5</ele><time>2026-04-04T10:32:09.591Z</time></trkpt><trkpt lat="45.2578117" lon="11.107605"><ele>18.0</ele><time>2026-04-04T10:32:10.591Z</time></trkpt><trkpt lat="45.2576867" lon="11.1077017"><ele>17.5</ele><time>2026-04-04T10:32:11.591Z</time></trkpt><trkpt lat="45.2575583" lon="11.1077983"><ele>17.0</ele><time>2026-04-04T10:32:12.591Z</time></trkpt><trkpt lat="45.2574233" lon="11.1078967"><ele>17.0</ele><time>2026-04-04T10:32:13.591Z</time></trkpt><trkpt lat="45.25729" lon="11.1079883"><ele>17.0</ele><time>2026-04-04T10:32:14.591Z</time></trkpt><trkpt lat="45.2571483" lon="11.108085"><ele>17.0</ele><time>2026-04-04T10:32:15.591Z</time></trkpt><trkpt lat="45.2570217" lon="11.1081767"><ele>17.0</ele><time>2026-04-04T10:32:16.591Z</time></trkpt><trkpt lat="45.2569017" lon="11.1082583"><ele>17.0</ele><time>2026-04-04T10:32:17.592Z</time></trkpt><trkpt lat="45.2567917" lon="11.10834"><ele>17.0</ele><time>2026-04-04T10:32:18.591Z</time></trkpt><trkpt lat="45.2566883" lon="11.1084183"><ele>17.0</ele><time>2026-04-04T10:32:19.591Z</time></trkpt><trkpt lat="45.256585" lon="11.1084833"><ele>17.0</ele><time>2026-04-04T10:32:20.591Z</time></trkpt><trkpt lat="45.2564867" lon="11.1085483"><ele>17.2</ele><time>2026-04-04T10:32:21.591Z</time></trkpt><trkpt lat="45.2563883" lon="11.10862"><ele>17.4</ele><time>2026-04-04T10:32:22.591Z</time></trkpt><trkpt lat="45.2562783" lon="11.1086917"><ele>17.6</ele><time>2026-04-04T10:32:23.591Z</time></trkpt><trkpt lat="45.2561883" lon="11.1087583"><ele>17.8</ele><time>2026-04-04T10:32:24.591Z</time></trkpt><trkpt lat="45.2560983" lon="11.1088233"><ele>18.0</ele><time>2026-04-04T10:32:25.591Z</time></trkpt><trkpt lat="45.2560117" lon="11.10889"><ele>18.0</ele><time>2026-04-04T10:32:26.591Z</time></trkpt><trkpt lat="45.25592" lon="11.1089483"><ele>18.0</ele><time>2026-04-04T10:32:27.591Z</time></trkpt><trkpt lat="45.2558417" lon="11.10902"><ele>18.0</ele><time>2026-04-04T10:32:28.591Z</time></trkpt><trkpt lat="45.2557767" lon="11.1090917"><ele>18.0</ele><time>2026-04-04T10:32:29.591Z</time></trkpt><trkpt lat="45.2557017" lon="11.10917"><ele>18.0</ele><time>2026-04-04T10:32:30.591Z</time></trkpt><trkpt lat="45.2556067" lon="11.1092083"><ele>18.25</ele><time>2026-04-04T10:32:31.592Z</time></trkpt><trkpt lat="45.2554917" lon="11.109215"><ele>18.5</ele><time>2026-04-04T10:32:32.591Z</time></trkpt><trkpt lat="45.25538" lon="11.1091983"><ele>18.75</ele><time>2026-04-04T10:32:33.591Z</time></trkpt><trkpt lat="45.2552533" lon="11.1092"><ele>19.0</ele><time>2026-04-04T10:32:34.591Z</time></trkpt><trkpt lat="45.2551217" lon="11.109205"><ele>19.0</ele><time>2026-04-04T10:32:35.591Z</time></trkpt><trkpt lat="45.2549983" lon="11.1092267"><ele>19.0</ele><time>2026-04-04T10:32:36.591Z</time></trkpt><trkpt lat="45.2548883" lon="11.1092633"><ele>19.0</ele><time>2026-04-04T10:32:37.591Z</time></trkpt><trkpt lat="45.2547967" lon="11.1092917"><ele>19.0</ele><time>2026-04-04T10:32:38.591Z</time></trkpt><trkpt lat="45.254725" lon="11.1093283"><ele>19.0</ele><time>2026-04-04T10:32:39.591Z</time></trkpt><trkpt lat="45.254665" lon="11.1093883"><ele>19.0</ele><time>2026-04-04T10:32:40.591Z</time></trkpt><trkpt lat="45.254615" lon="11.1094683"><ele>19.0</ele><time>2026-04-04T10:32:41.591Z</time></trkpt><trkpt lat="45.2545983" lon="11.109585"><ele>19.0</ele><time>2026-04-04T10:32:42.591Z</time></trkpt><trkpt lat="45.2546017" lon="11.10973"><ele>19.0</ele><time>2026-04-04T10:32:43.591Z</time></trkpt><trkpt lat="45.25462" lon="11.1099083"><ele>19.0</ele><time>2026-04-04T10:32:44.591Z</time></trkpt><trkpt lat="45.2546533" lon="11.110115"><ele>19.0</ele><time>2026-04-04T10:32:45.591Z</time></trkpt><trkpt lat="45.2546717" lon="11.1103333"><ele>19.0</ele><time>2026-04-04T10:32:46.591Z</time></trkpt><trkpt lat="45.2546683" lon="11.1105633"><ele>19.0</ele><time>2026-04-04T10:32:47.591Z</time></trkpt><trkpt lat="45.25465" lon="11.110785"><ele>18.0</ele><time>2026-04-04T10:32:48.591Z</time></trkpt><trkpt lat="45.254625" lon="11.11101"><ele>17.0</ele><time>2026-04-04T10:32:49.591Z</time></trkpt><trkpt lat="45.2546133" lon="11.1112383"><ele>16.0</ele><time>2026-04-04T10:32:50.591Z</time></trkpt><trkpt lat="45.2546233" lon="11.1114817"><ele>16.333333333333332</ele><time>2026-04-04T10:32:51.591Z</time></trkpt><trkpt lat="45.254635" lon="11.1117333"><ele>16.666666666666668</ele><time>2026-04-04T10:32:52.591Z</time></trkpt><trkpt lat="45.25465" lon="11.1119917"><ele>17.0</ele><time>2026-04-04T10:32:53.591Z</time></trkpt><trkpt lat="45.254675" lon="11.1122433"><ele>17.0</ele><time>2026-04-04T10:32:54.591Z</time></trkpt><trkpt lat="45.2547017" lon="11.1124967"><ele>17.0</ele><time>2026-04-04T10:32:55.591Z</time></trkpt><trkpt lat="45.2547267" lon="11.1127367"><ele>17.0</ele><time>2026-04-04T10:32:56.591Z</time></trkpt><trkpt lat="45.2547483" lon="11.1129767"><ele>17.0</ele><time>2026-04-04T10:32:57.591Z</time></trkpt><trkpt lat="45.254775" lon="11.113205"><ele>17.0</ele><time>2026-04-04T10:32:58.591Z</time></trkpt><trkpt lat="45.2548067" lon="11.11341"><ele>17.0</ele><time>2026-04-04T10:32:59.591Z</time></trkpt><trkpt lat="45.25483" lon="11.1136117"><ele>17.0</ele><time>2026-04-04T10:33:00.591Z</time></trkpt><trkpt lat="45.2548467" lon="11.1137767"><ele>17.0</ele><time>2026-04-04T10:33:01.591Z</time></trkpt><trkpt lat="45.2548467" lon="11.1139233"><ele>17.0</ele><time>2026-04-04T10:33:02.591Z</time></trkpt><trkpt lat="45.2548183" lon="11.1140683"><ele>17.0</ele><time>2026-04-04T10:33:03.591Z</time></trkpt><trkpt lat="45.2547667" lon="11.114205"><ele>17.0</ele><time>2026-04-04T10:33:04.591Z</time></trkpt><trkpt lat="45.2547067" lon="11.11435"><ele>17.0</ele><time>2026-04-04T10:33:05.591Z</time></trkpt><trkpt lat="45.2546183" lon="11.1144933"><ele>17.0</ele><time>2026-04-04T10:33:06.591Z</time></trkpt><trkpt lat="45.2545317" lon="11.11463"><ele>17.0</ele><time>2026-04-04T10:33:07.592Z</time></trkpt><trkpt lat="45.254445" lon="11.11474"><ele>17.0</ele><time>2026-04-04T10:33:08.591Z</time></trkpt><trkpt lat="45.2543617" lon="11.1148533"><ele>17.0</ele><time>2026-04-04T10:33:09.591Z</time></trkpt><trkpt lat="45.2542833" lon="11.1149433"><ele>17.0</ele><time>2026-04-04T10:33:10.591Z</time></trkpt><trkpt lat="45.25422" lon="11.11501"><ele>17.0</ele><time>2026-04-04T10:33:11.591Z</time></trkpt><trkpt lat="45.2541533" lon="11.1150667"><ele>17.0</ele><time>2026-04-04T10:33:13.591Z</time></trkpt><trkpt lat="45.2541917" lon="11.11522"><ele>17.0</ele><time>2026-04-04T10:33:16.591Z</time></trkpt><trkpt lat="45.2542417" lon="11.1153117"><ele>17.0</ele><time>2026-04-04T10:33:17.591Z</time></trkpt><trkpt lat="45.2543133" lon="11.1154417"><ele>17.0</ele><time>2026-04-04T10:33:18.591Z</time></trkpt><trkpt lat="45.25441" lon="11.11558"><ele>17.0</ele><time>2026-04-04T10:33:19.591Z</time></trkpt><trkpt lat="45.254505" lon="11.11573"><ele>17.0</ele><time>2026-04-04T10:33:20.591Z</time></trkpt><trkpt lat="45.2546017" lon="11.115885"><ele>17.25</ele><time>2026-04-04T10:33:21.591Z</time></trkpt><trkpt lat="45.2546917" lon="11.1160383"><ele>17.5</ele><time>2026-04-04T10:33:22.591Z</time></trkpt><trkpt lat="45.2547817" lon="11.1161983"><ele>17.75</ele><time>2026-04-04T10:33:23.591Z</time></trkpt><trkpt lat="45.25486" lon="11.1163467"><ele>18.0</ele><time>2026-04-04T10:33:24.591Z</time></trkpt><trkpt lat="45.2549367" lon="11.1164883"><ele>18.333333333333332</ele><time>2026-04-04T10:33:25.591Z</time></trkpt><trkpt lat="45.255" lon="11.1166183"><ele>18.666666666666668</ele><time>2026-04-04T10:33:26.591Z</time></trkpt><trkpt lat="45.2550483" lon="11.116705"><ele>19.0</ele><time>2026-04-04T10:33:27.591Z</time></trkpt><trkpt lat="45.2550783" lon="11.1168017"><ele>19.333333333333336</ele><time>2026-04-04T10:33:28.591Z</time></trkpt><trkpt lat="45.25509" lon="11.11689"><ele>19.666666666666668</ele><time>2026-04-04T10:33:29.591Z</time></trkpt><trkpt lat="45.25504" lon="11.1170017"><ele>20.0</ele><time>2026-04-04T10:33:31.591Z</time></trkpt><trkpt lat="45.25497" lon="11.1170283"><ele>20.0</ele><time>2026-04-04T10:33:32.591Z</time></trkpt><trkpt lat="45.254885" lon="11.11706"><ele>20.0</ele><time>2026-04-04T10:33:33.591Z</time></trkpt><trkpt lat="45.2547917" lon="11.11712"><ele>20.0</ele><time>2026-04-04T10:33:34.591Z</time></trkpt><trkpt lat="45.2546933" lon="11.1172017"><ele>20.0</ele><time>2026-04-04T10:33:35.591Z</time></trkpt><trkpt lat="45.2545967" lon="11.117285"><ele>20.0</ele><time>2026-04-04T10:33:36.591Z</time></trkpt><trkpt lat="45.25451" lon="11.1173683"><ele>19.666666666666668</ele><time>2026-04-04T10:33:37.591Z</time></trkpt><trkpt lat="45.25443" lon="11.1174483"><ele>19.333333333333336</ele><time>2026-04-04T10:33:38.592Z</time></trkpt><trkpt lat="45.2543567" lon="11.1175167"><ele>19.0</ele><time>2026-04-04T10:33:39.591Z</time></trkpt><trkpt lat="45.2542917" lon="11.11758"><ele>18.666666666666668</ele><time>2026-04-04T10:33:40.591Z</time></trkpt><trkpt lat="45.2542383" lon="11.1176533"><ele>18.333333333333332</ele><time>2026-04-04T10:33:41.591Z</time></trkpt><trkpt lat="45.254205" lon="11.1177467"><ele>18.0</ele><time>2026-04-04T10:33:42.591Z</time></trkpt><trkpt lat="45.2542017" lon="11.1178517"><ele>18.0</ele><time>2026-04-04T10:33:43.591Z</time></trkpt><trkpt lat="45.254195" lon="11.1179517"><ele>18.0</ele><time>2026-04-04T10:33:44.591Z</time></trkpt><trkpt lat="45.2541983" lon="11.11811"><ele>18.0</ele><time>2026-04-04T10:33:46.591Z</time></trkpt><trkpt lat="45.254225" lon="11.11825"><ele>18.0</ele><time>2026-04-04T10:33:48.591Z</time></trkpt><trkpt lat="45.25432" lon="11.118345"><ele>18.0</ele><time>2026-04-04T10:33:50.591Z</time></trkpt><trkpt lat="45.2544133" lon="11.1183817"><ele>18.0</ele><time>2026-04-04T10:33:52.591Z</time></trkpt><trkpt lat="45.25446" lon="11.1184817"><ele>18.0</ele><time>2026-04-04T10:33:55.591Z</time></trkpt><trkpt lat="45.25442" lon="11.1185517"><ele>18.0</ele><time>2026-04-04T10:33:57.591Z</time></trkpt><trkpt lat="45.2543317" lon="11.1185633"><ele>18.0</ele><time>2026-04-04T11:00:44.585Z</time></trkpt><trkpt lat="45.2542533" lon="11.118555"><ele>18.0</ele><time>2026-04-04T11:00:48.585Z</time></trkpt><trkpt lat="45.2541933" lon="11.1186483"><ele>18.0</ele><time>2026-04-04T11:00:50.585Z</time></trkpt><trkpt lat="45.254185" lon="11.11874"><ele>18.0</ele><time>2026-04-04T11:00:51.585Z</time></trkpt><trkpt lat="45.254185" lon="11.11884"><ele>18.0</ele><time>2026-04-04T11:00:52.585Z</time></trkpt><trkpt lat="45.25419" lon="11.118945"><ele>18.0</ele><time>2026-04-04T11:00:53.585Z</time></trkpt><trkpt lat="45.254205" lon="11.119075"><ele>18.0</ele><time>2026-04-04T11:00:54.585Z</time></trkpt><trkpt lat="45.2542183" lon="11.1191833"><ele>18.0</ele><time>2026-04-04T11:00:55.585Z</time></trkpt><trkpt lat="45.25424" lon="11.1192917"><ele>18.0</ele><time>2026-04-04T11:00:56.585Z</time></trkpt><trkpt lat="45.2542617" lon="11.119405"><ele>18.2</ele><time>2026-04-04T11:00:57.585Z</time></trkpt><trkpt lat="45.2542783" lon="11.11952"><ele>18.4</ele><time>2026-04-04T11:00:58.585Z</time></trkpt><trkpt lat="45.2542967" lon="11.1196383"><ele>18.599999999999998</ele><time>2026-04-04T11:00:59.585Z</time></trkpt><trkpt lat="45.254315" lon="11.1197767"><ele>18.8</ele><time>2026-04-04T11:01:00.585Z</time></trkpt><trkpt lat="45.2543217" lon="11.1199217"><ele>19.0</ele><time>2026-04-04T11:01:01.585Z</time></trkpt><trkpt lat="45.25433" lon="11.1200717"><ele>19.2</ele><time>2026-04-04T11:01:02.585Z</time></trkpt><trkpt lat="45.25434" lon="11.1202133"><ele>19.4</ele><time>2026-04-04T11:01:03.585Z</time></trkpt><trkpt lat="45.2543483" lon="11.120355"><ele>19.6</ele><time>2026-04-04T11:01:04.585Z</time></trkpt><trkpt lat="45.2543583" lon="11.1204883"><ele>19.8</ele><time>2026-04-04T11:01:05.585Z</time></trkpt><trkpt lat="45.2543783" lon="11.1206183"><ele>20.0</ele><time>2026-04-04T11:01:06.585Z</time></trkpt><trkpt lat="45.25441" lon="11.1207483"><ele>20.0</ele><time>2026-04-04T11:01:07.585Z</time></trkpt><trkpt lat="45.254455" lon="11.12088"><ele>20.0</ele><time>2026-04-04T11:01:08.585Z</time></trkpt><trkpt lat="45.2545183" lon="11.1210033"><ele>20.0</ele><time>2026-04-04T11:01:09.585Z</time></trkpt><trkpt lat="45.2545833" lon="11.1211233"><ele>20.0</ele><time>2026-04-04T11:01:10.585Z</time></trkpt><trkpt lat="45.254645" lon="11.1212417"><ele>20.0</ele><time>2026-04-04T11:01:11.585Z</time></trkpt><trkpt lat="45.2547233" lon="11.1213333"><ele>20.333333333333336</ele><time>2026-04-04T11:01:12.585Z</time></trkpt><trkpt lat="45.2547917" lon="11.1214333"><ele>20.666666666666668</ele><time>2026-04-04T11:01:13.585Z</time></trkpt><trkpt lat="45.2548683" lon="11.1215167"><ele>21.0</ele><time>2026-04-04T11:01:14.585Z</time></trkpt><trkpt lat="45.25492" lon="11.1216067"><ele>21.333333333333332</ele><time>2026-04-04T11:01:15.585Z</time></trkpt><trkpt lat="45.2549717" lon="11.1217"><ele>21.666666666666664</ele><time>2026-04-04T11:01:16.585Z</time></trkpt><trkpt lat="45.25502" lon="11.1217717"><ele>22.0</ele><time>2026-04-04T11:01:17.585Z</time></trkpt><trkpt lat="45.2550667" lon="11.1218383"><ele>22.0</ele><time>2026-04-04T11:01:18.585Z</time></trkpt><trkpt lat="45.2551133" lon="11.12194"><ele>22.0</ele><time>2026-04-04T11:01:20.585Z</time></trkpt><trkpt lat="45.2551183" lon="11.1220517"><ele>22.0</ele><time>2026-04-04T11:01:22.584Z</time></trkpt><trkpt lat="45.25506" lon="11.1221933"><ele>22.0</ele><time>2026-04-04T11:01:24.584Z</time></trkpt><trkpt lat="45.2550017" lon="11.1222817"><ele>22.0</ele><time>2026-04-04T11:01:25.584Z</time></trkpt><trkpt lat="45.254935" lon="11.1223733"><ele>22.0</ele><time>2026-04-04T11:01:26.584Z</time></trkpt><trkpt lat="45.2548583" lon="11.122465"><ele>22.0</ele><time>2026-04-04T11:01:27.584Z</time></trkpt><trkpt lat="45.2547933" lon="11.1225683"><ele>22.0</ele><time>2026-04-04T11:01:28.584Z</time></trkpt><trkpt lat="45.25474" lon="11.1226783"><ele>22.0</ele><time>2026-04-04T11:01:29.584Z</time></trkpt><trkpt lat="45.2547133" lon="11.12283"><ele>22.0</ele><time>2026-04-04T11:01:30.584Z</time></trkpt><trkpt lat="45.2547217" lon="11.122975"><ele>22.0</ele><time>2026-04-04T11:01:31.584Z</time></trkpt><trkpt lat="45.2547283" lon="11.123115"><ele>22.0</ele><time>2026-04-04T11:01:32.584Z</time></trkpt><trkpt lat="45.2547417" lon="11.1232617"><ele>22.0</ele><time>2026-04-04T11:01:33.584Z</time></trkpt><trkpt lat="45.2547567" lon="11.1234017"><ele>22.0</ele><time>2026-04-04T11:01:34.584Z</time></trkpt><trkpt lat="45.25477" lon="11.1235467"><ele>22.0</ele><time>2026-04-04T11:01:35.584Z</time></trkpt><trkpt lat="45.2547817" lon="11.123695"><ele>22.0</ele><time>2026-04-04T11:01:36.584Z</time></trkpt><trkpt lat="45.25479" lon="11.123825"><ele>22.0</ele><time>2026-04-04T11:01:37.584Z</time></trkpt><trkpt lat="45.2548033" lon="11.123945"><ele>22.0</ele><time>2026-04-04T11:01:38.584Z</time></trkpt><trkpt lat="45.254805" lon="11.1240633"><ele>22.0</ele><time>2026-04-04T11:01:39.584Z</time></trkpt><trkpt lat="45.2547983" lon="11.1241533"><ele>22.0</ele><time>2026-04-04T11:01:40.584Z</time></trkpt><trkpt lat="45.2547567" lon="11.1243217"><ele>22.0</ele><time>2026-04-04T11:01:42.584Z</time></trkpt><trkpt lat="45.2547333" lon="11.1244367"><ele>22.0</ele><time>2026-04-04T11:01:43.584Z</time></trkpt><trkpt lat="45.254715" lon="11.1245483"><ele>22.0</ele><time>2026-04-04T11:01:44.584Z</time></trkpt><trkpt lat="45.2546817" lon="11.124665"><ele>22.0</ele><time>2026-04-04T11:01:45.584Z</time></trkpt><trkpt lat="45.2546667" lon="11.1247917"><ele>22.0</ele><time>2026-04-04T11:01:46.584Z</time></trkpt><trkpt lat="45.2546517" lon="11.1249267"><ele>22.0</ele><time>2026-04-04T11:01:47.584Z</time></trkpt><trkpt lat="45.2546533" lon="11.1250633"><ele>22.200000000000003</ele><time>2026-04-04T11:01:48.584Z</time></trkpt><trkpt lat="45.25466" lon="11.1251867"><ele>22.4</ele><time>2026-04-04T11:01:49.584Z</time></trkpt><trkpt lat="45.2546633" lon="11.125325"><ele>22.6</ele><time>2026-04-04T11:01:50.584Z</time></trkpt><trkpt lat="45.2546667" lon="11.1254633"><ele>22.799999999999997</ele><time>2026-04-04T11:01:51.584Z</time></trkpt><trkpt lat="45.2546683" lon="11.125595"><ele>23.0</ele><time>2026-04-04T11:01:52.584Z</time></trkpt><trkpt lat="45.2546733" lon="11.125715"><ele>23.166666666666668</ele><time>2026-04-04T11:01:53.584Z</time></trkpt><trkpt lat="45.2546867" lon="11.12583"><ele>23.333333333333336</ele><time>2026-04-04T11:01:54.584Z</time></trkpt><trkpt lat="45.2547017" lon="11.125935"><ele>23.5</ele><time>2026-04-04T11:01:55.584Z</time></trkpt><trkpt lat="45.2547183" lon="11.1260217"><ele>23.666666666666668</ele><time>2026-04-04T11:01:56.584Z</time></trkpt><trkpt lat="45.2547433" lon="11.1261567"><ele>23.833333333333332</ele><time>2026-04-04T11:01:58.584Z</time></trkpt><trkpt lat="45.254745" lon="11.12627"><ele>24.0</ele><time>2026-04-04T11:02:01.584Z</time></trkpt><trkpt lat="45.2547617" lon="11.1263733"><ele>24.0</ele><time>2026-04-04T11:02:03.584Z</time></trkpt><trkpt lat="45.2547667" lon="11.126535"><ele>24.0</ele><time>2026-04-04T11:02:05.584Z</time></trkpt><trkpt lat="45.2547483" lon="11.1266233"><ele>24.0</ele><time>2026-04-04T11:02:06.584Z</time></trkpt><trkpt lat="45.2547133" lon="11.1266983"><ele>24.0</ele><time>2026-04-04T11:02:07.584Z</time></trkpt><trkpt lat="45.254665" lon="11.1267683"><ele>24.0</ele><time>2026-04-04T11:02:08.584Z</time></trkpt><trkpt lat="45.2545983" lon="11.1268483"><ele>24.0</ele><time>2026-04-04T11:02:09.584Z</time></trkpt><trkpt lat="45.2545283" lon="11.1269267"><ele>24.0</ele><time>2026-04-04T11:02:10.584Z</time></trkpt><trkpt lat="45.25446" lon="11.1270167"><ele>24.0</ele><time>2026-04-04T11:02:11.584Z</time></trkpt><trkpt lat="45.2543917" lon="11.1271067"><ele>24.0</ele><time>2026-04-04T11:02:12.584Z</time></trkpt><trkpt lat="45.2543183" lon="11.1271867"><ele>24.0</ele><time>2026-04-04T11:02:13.584Z</time></trkpt><trkpt lat="45.2542333" lon="11.1272667"><ele>24.0</ele><time>2026-04-04T11:02:14.584Z</time></trkpt><trkpt lat="45.254155" lon="11.1273533"><ele>24.0</ele><time>2026-04-04T11:02:15.584Z</time></trkpt><trkpt lat="45.2540783" lon="11.1274433"><ele>24.0</ele><time>2026-04-04T11:02:16.584Z</time></trkpt><trkpt lat="45.2540067" lon="11.12754"><ele>24.0</ele><time>2026-04-04T11:02:17.584Z</time></trkpt><trkpt lat="45.2539333" lon="11.1276167"><ele>24.0</ele><time>2026-04-04T11:02:18.584Z</time></trkpt><trkpt lat="45.2538633" lon="11.127705"><ele>24.0</ele><time>2026-04-04T11:02:19.584Z</time></trkpt><trkpt lat="45.25379" lon="11.1277817"><ele>24.0</ele><time>2026-04-04T11:02:20.585Z</time></trkpt><trkpt lat="45.2537183" lon="11.1278633"><ele>24.0</ele><time>2026-04-04T11:02:21.584Z</time></trkpt><trkpt lat="45.253645" lon="11.1279533"><ele>24.0</ele><time>2026-04-04T11:02:22.584Z</time></trkpt><trkpt lat="45.253575" lon="11.12803"><ele>24.0</ele><time>2026-04-04T11:02:23.584Z</time></trkpt><trkpt lat="45.2535017" lon="11.1281167"><ele>24.0</ele><time>2026-04-04T11:02:24.584Z</time></trkpt><trkpt lat="45.2534283" lon="11.12819"><ele>23.799999999999997</ele><time>2026-04-04T11:02:25.584Z</time></trkpt><trkpt lat="45.2533517" lon="11.128265"><ele>23.599999999999998</ele><time>2026-04-04T11:02:26.584Z</time></trkpt><trkpt lat="45.25328" lon="11.1283317"><ele>23.4</ele><time>2026-04-04T11:02:27.584Z</time></trkpt><trkpt lat="45.2532083" lon="11.1283983"><ele>23.2</ele><time>2026-04-04T11:02:28.584Z</time></trkpt><trkpt lat="45.2531233" lon="11.1284917"><ele>23.0</ele><time>2026-04-04T11:02:29.584Z</time></trkpt><trkpt lat="45.2530483" lon="11.12858"><ele>22.799999999999997</ele><time>2026-04-04T11:02:30.584Z</time></trkpt><trkpt lat="45.2529667" lon="11.1286517"><ele>22.6</ele><time>2026-04-04T11:02:31.584Z</time></trkpt><trkpt lat="45.252895" lon="11.1287383"><ele>22.4</ele><time>2026-04-04T11:02:32.584Z</time></trkpt><trkpt lat="45.25282" lon="11.1288117"><ele>22.200000000000003</ele><time>2026-04-04T11:02:33.584Z</time></trkpt><trkpt lat="45.2527467" lon="11.1289067"><ele>22.0</ele><time>2026-04-04T11:02:34.584Z</time></trkpt><trkpt lat="45.2526633" lon="11.12898"><ele>22.400000000000002</ele><time>2026-04-04T11:02:35.584Z</time></trkpt><trkpt lat="45.252585" lon="11.129065"><ele>22.8</ele><time>2026-04-04T11:02:36.584Z</time></trkpt><trkpt lat="45.2524967" lon="11.1291533"><ele>23.2</ele><time>2026-04-04T11:02:37.584Z</time></trkpt><trkpt lat="45.2524033" lon="11.12924"><ele>23.6</ele><time>2026-04-04T11:02:38.584Z</time></trkpt><trkpt lat="45.2523167" lon="11.129325"><ele>24.0</ele><time>2026-04-04T11:02:39.584Z</time></trkpt><trkpt lat="45.2522367" lon="11.1294"><ele>24.2</ele><time>2026-04-04T11:02:40.584Z</time></trkpt><trkpt lat="45.2521533" lon="11.1294717"><ele>24.4</ele><time>2026-04-04T11:02:41.584Z</time></trkpt><trkpt lat="45.2520667" lon="11.1295533"><ele>24.6</ele><time>2026-04-04T11:02:42.584Z</time></trkpt><trkpt lat="45.2519833" lon="11.1296283"><ele>24.8</ele><time>2026-04-04T11:02:43.584Z</time></trkpt><trkpt lat="45.2518917" lon="11.129695"><ele>25.0</ele><time>2026-04-04T11:02:44.584Z</time></trkpt><trkpt lat="45.251815" lon="11.1297567"><ele>25.0</ele><time>2026-04-04T11:02:45.584Z</time></trkpt><trkpt lat="45.2517267" lon="11.1298267"><ele>25.0</ele><time>2026-04-04T11:02:46.584Z</time></trkpt><trkpt lat="45.2516467" lon="11.1299067"><ele>25.0</ele><time>2026-04-04T11:02:47.584Z</time></trkpt><trkpt lat="45.2515567" lon="11.129975"><ele>25.0</ele><time>2026-04-04T11:02:48.584Z</time></trkpt><trkpt lat="45.25148" lon="11.1300517"><ele>25.0</ele><time>2026-04-04T11:02:49.584Z</time></trkpt><trkpt lat="45.2514" lon="11.130135"><ele>24.8</ele><time>2026-04-04T11:02:50.584Z</time></trkpt><trkpt lat="45.2513183" lon="11.130215"><ele>24.6</ele><time>2026-04-04T11:02:51.584Z</time></trkpt><trkpt lat="45.2512433" lon="11.1303"><ele>24.4</ele><time>2026-04-04T11:02:52.584Z</time></trkpt><trkpt lat="45.2511633" lon="11.1303767"><ele>24.2</ele><time>2026-04-04T11:02:53.584Z</time></trkpt><trkpt lat="45.2510783" lon="11.1304467"><ele>24.0</ele><time>2026-04-04T11:02:54.584Z</time></trkpt><trkpt lat="45.251005" lon="11.1305233"><ele>24.0</ele><time>2026-04-04T11:02:55.584Z</time></trkpt><trkpt lat="45.2509333" lon="11.130605"><ele>24.0</ele><time>2026-04-04T11:02:56.584Z</time></trkpt><trkpt lat="45.2508533" lon="11.1306817"><ele>24.0</ele><time>2026-04-04T11:02:57.584Z</time></trkpt><trkpt lat="45.2507767" lon="11.1307617"><ele>24.0</ele><time>2026-04-04T11:02:58.584Z</time></trkpt><trkpt lat="45.2506967" lon="11.1308383"><ele>24.0</ele><time>2026-04-04T11:02:59.584Z</time></trkpt><trkpt lat="45.250615" lon="11.1309217"><ele>23.6</ele><time>2026-04-04T11:03:00.584Z</time></trkpt><trkpt lat="45.2505367" lon="11.1310067"><ele>23.2</ele><time>2026-04-04T11:03:01.584Z</time></trkpt><trkpt lat="45.2504567" lon="11.1310967"><ele>22.8</ele><time>2026-04-04T11:03:02.584Z</time></trkpt><trkpt lat="45.25038" lon="11.1311833"><ele>22.400000000000002</ele><time>2026-04-04T11:03:03.584Z</time></trkpt><trkpt lat="45.250305" lon="11.1312633"><ele>22.0</ele><time>2026-04-04T11:03:04.584Z</time></trkpt><trkpt lat="45.2502333" lon="11.1313517"><ele>22.0</ele><time>2026-04-04T11:03:05.584Z</time></trkpt><trkpt lat="45.2501567" lon="11.1314383"><ele>22.0</ele><time>2026-04-04T11:03:06.584Z</time></trkpt><trkpt lat="45.250085" lon="11.13152"><ele>22.0</ele><time>2026-04-04T11:03:07.584Z</time></trkpt><trkpt lat="45.2500233" lon="11.131585"><ele>22.0</ele><time>2026-04-04T11:03:08.584Z</time></trkpt><trkpt lat="45.2499683" lon="11.1316483"><ele>22.0</ele><time>2026-04-04T11:03:09.584Z</time></trkpt><trkpt lat="45.249915" lon="11.1317067"><ele>22.0</ele><time>2026-04-04T11:03:10.584Z</time></trkpt><trkpt lat="45.2498433" lon="11.1317717"><ele>22.166666666666664</ele><time>2026-04-04T11:03:12.584Z</time></trkpt><trkpt lat="45.2497717" lon="11.13187"><ele>22.333333333333332</ele><time>2026-04-04T11:08:47.582Z</time></trkpt><trkpt lat="45.2497183" lon="11.13193"><ele>22.5</ele><time>2026-04-04T11:08:48.582Z</time></trkpt><trkpt lat="45.2496567" lon="11.132"><ele>22.666666666666668</ele><time>2026-04-04T11:08:49.582Z</time></trkpt><trkpt lat="45.2495867" lon="11.132075"><ele>22.833333333333336</ele><time>2026-04-04T11:08:50.582Z</time></trkpt><trkpt lat="45.2495167" lon="11.13216"><ele>23.0</ele><time>2026-04-04T11:08:51.582Z</time></trkpt><trkpt lat="45.2494467" lon="11.1322467"><ele>23.0</ele><time>2026-04-04T11:08:52.582Z</time></trkpt><trkpt lat="45.2493717" lon="11.1323367"><ele>23.0</ele><time>2026-04-04T11:08:53.582Z</time></trkpt><trkpt lat="45.2492933" lon="11.1324267"><ele>23.0</ele><time>2026-04-04T11:08:54.582Z</time></trkpt><trkpt lat="45.2492083" lon="11.13252"><ele>23.0</ele><time>2026-04-04T11:08:55.582Z</time></trkpt><trkpt lat="45.24913" lon="11.1326"><ele>23.0</ele><time>2026-04-04T11:08:56.582Z</time></trkpt><trkpt lat="45.24904" lon="11.1326767"><ele>22.799999999999997</ele><time>2026-04-04T11:08:57.582Z</time></trkpt><trkpt lat="45.2489533" lon="11.132765"><ele>22.6</ele><time>2026-04-04T11:08:58.582Z</time></trkpt><trkpt lat="45.2488617" lon="11.1328567"><ele>22.4</ele><time>2026-04-04T11:08:59.582Z</time></trkpt><trkpt lat="45.2487667" lon="11.1329367"><ele>22.200000000000003</ele><time>2026-04-04T11:09:00.583Z</time></trkpt><trkpt lat="45.2486817" lon="11.1330267"><ele>22.0</ele><time>2026-04-04T11:09:01.582Z</time></trkpt><trkpt lat="45.2486083" lon="11.13312"><ele>22.0</ele><time>2026-04-04T11:09:02.582Z</time></trkpt><trkpt lat="45.248535" lon="11.133195"><ele>22.0</ele><time>2026-04-04T11:09:03.582Z</time></trkpt><trkpt lat="45.2484733" lon="11.1332633"><ele>22.0</ele><time>2026-04-04T11:09:04.582Z</time></trkpt><trkpt lat="45.2484117" lon="11.1333283"><ele>22.0</ele><time>2026-04-04T11:09:05.582Z</time></trkpt><trkpt lat="45.2483567" lon="11.133395"><ele>22.0</ele><time>2026-04-04T11:09:06.582Z</time></trkpt><trkpt lat="45.248305" lon="11.1334483"><ele>22.0</ele><time>2026-04-04T11:09:07.582Z</time></trkpt><trkpt lat="45.2482483" lon="11.133495"><ele>22.0</ele><time>2026-04-04T11:09:08.582Z</time></trkpt><trkpt lat="45.2481683" lon="11.1335317"><ele>22.0</ele><time>2026-04-04T11:09:10.582Z</time></trkpt><trkpt lat="45.2480917" lon="11.133475"><ele>22.0</ele><time>2026-04-04T11:09:12.582Z</time></trkpt><trkpt lat="45.2480017" lon="11.1333267"><ele>22.0</ele><time>2026-04-04T11:09:14.582Z</time></trkpt><trkpt lat="45.2479483" lon="11.133245"><ele>22.0</ele><time>2026-04-04T11:09:15.582Z</time></trkpt><trkpt lat="45.2478967" lon="11.1331717"><ele>22.0</ele><time>2026-04-04T11:09:16.582Z</time></trkpt><trkpt lat="45.2478467" lon="11.1331033"><ele>22.0</ele><time>2026-04-04T11:09:17.582Z</time></trkpt><trkpt lat="45.2477717" lon="11.1329683"><ele>22.0</ele><time>2026-04-04T11:09:19.582Z</time></trkpt><trkpt lat="45.2477017" lon="11.1328683"><ele>22.0</ele><time>2026-04-04T11:09:21.582Z</time></trkpt><trkpt lat="45.2476533" lon="11.1327983"><ele>22.0</ele><time>2026-04-04T11:09:23.582Z</time></trkpt><trkpt lat="45.2476317" lon="11.1326883"><ele>22.0</ele><time>2026-04-04T11:09:26.582Z</time></trkpt><trkpt lat="45.2475517" lon="11.13263"><ele>22.0</ele><time>2026-04-04T11:09:30.582Z</time></trkpt><trkpt lat="45.2474733" lon="11.1325133"><ele>22.0</ele><time>2026-04-04T11:09:32.582Z</time></trkpt><trkpt lat="45.247415" lon="11.1323983"><ele>22.0</ele><time>2026-04-04T11:09:34.582Z</time></trkpt><trkpt lat="45.2473667" lon="11.1323267"><ele>22.0</ele><time>2026-04-04T11:09:37.582Z</time></trkpt><trkpt lat="45.2473833" lon="11.1324233"><ele>22.0</ele><time>2026-04-04T11:09:41.582Z</time></trkpt><trkpt lat="45.2474533" lon="11.1325367"><ele>22.0</ele><time>2026-04-04T11:09:43.582Z</time></trkpt><trkpt lat="45.2474967" lon="11.132605"><ele>22.0</ele><time>2026-04-04T11:09:44.582Z</time></trkpt><trkpt lat="45.2475917" lon="11.1327133"><ele>22.0</ele><time>2026-04-04T11:09:46.582Z</time></trkpt><trkpt lat="45.2476717" lon="11.132675"><ele>22.0</ele><time>2026-04-04T11:09:48.582Z</time></trkpt><trkpt lat="45.2477183" lon="11.1325017"><ele>22.0</ele><time>2026-04-04T11:09:50.582Z</time></trkpt><trkpt lat="45.2477417" lon="11.1323817"><ele>22.0</ele><time>2026-04-04T11:09:51.582Z</time></trkpt><trkpt lat="45.24777" lon="11.1322617"><ele>22.0</ele><time>2026-04-04T11:09:52.582Z</time></trkpt><trkpt lat="45.2477983" lon="11.132145"><ele>21.8</ele><time>2026-04-04T11:09:53.582Z</time></trkpt><trkpt lat="45.2478317" lon="11.1320267"><ele>21.6</ele><time>2026-04-04T11:09:54.582Z</time></trkpt><trkpt lat="45.2478633" lon="11.1319183"><ele>21.400000000000002</ele><time>2026-04-04T11:09:55.583Z</time></trkpt><trkpt lat="45.247895" lon="11.13176"><ele>21.200000000000003</ele><time>2026-04-04T11:09:57.582Z</time></trkpt><trkpt lat="45.2479483" lon="11.1316383"><ele>21.0</ele><time>2026-04-04T11:09:59.582Z</time></trkpt><trkpt lat="45.2480267" lon="11.131545"><ele>21.0</ele><time>2026-04-04T11:10:01.582Z</time></trkpt><trkpt lat="45.248105" lon="11.13146"><ele>21.0</ele><time>2026-04-04T11:10:03.582Z</time></trkpt><trkpt lat="45.2481567" lon="11.131375"><ele>21.0</ele><time>2026-04-04T11:10:05.582Z</time></trkpt><trkpt lat="45.248215" lon="11.1313217"><ele>21.0</ele><time>2026-04-04T11:10:07.582Z</time></trkpt><trkpt lat="45.24829" lon="11.131265"><ele>21.0</ele><time>2026-04-04T11:10:10.582Z</time></trkpt><trkpt lat="45.2483433" lon="11.1312167"><ele>21.0</ele><time>2026-04-04T11:10:12.582Z</time></trkpt><trkpt lat="45.24839" lon="11.13115"><ele>21.4</ele><time>2026-04-04T11:10:14.582Z</time></trkpt><trkpt lat="45.2483883" lon="11.1310283"><ele>21.8</ele><time>2026-04-04T11:10:17.582Z</time></trkpt><trkpt lat="45.2483533" lon="11.1309317"><ele>22.2</ele><time>2026-04-04T11:10:20.583Z</time></trkpt><trkpt lat="45.2483667" lon="11.1310667"><ele>22.599999999999998</ele><time>2026-04-04T11:10:27.582Z</time></trkpt><trkpt lat="45.248345" lon="11.1311883"><ele>23.0</ele><time>2026-04-04T11:10:29.582Z</time></trkpt><trkpt lat="45.2482467" lon="11.1312967"><ele>23.0</ele><time>2026-04-04T11:10:31.582Z</time></trkpt><trkpt lat="45.2481633" lon="11.1313733"><ele>23.0</ele><time>2026-04-04T11:10:33.582Z</time></trkpt><trkpt lat="45.2480967" lon="11.13139"><ele>23.0</ele><time>2026-04-04T11:10:35.582Z</time></trkpt><trkpt lat="45.248035" lon="11.13134"><ele>23.0</ele><time>2026-04-04T11:10:38.582Z</time></trkpt><trkpt lat="45.24796" lon="11.131335"><ele>23.0</ele><time>2026-04-04T11:10:50.582Z</time></trkpt><trkpt lat="45.2479083" lon="11.1314183"><ele>23.0</ele><time>2026-04-04T11:10:52.582Z</time></trkpt><trkpt lat="45.24786" lon="11.131485"><ele>22.666666666666668</ele><time>2026-04-04T11:10:54.582Z</time></trkpt><trkpt lat="45.247825" lon="11.1315783"><ele>22.333333333333336</ele><time>2026-04-04T11:10:56.582Z</time></trkpt><trkpt lat="45.2478333" lon="11.131745"><ele>22.0</ele><time>2026-04-04T11:10:58.582Z</time></trkpt><trkpt lat="45.247835" lon="11.1318467"><ele>21.666666666666668</ele><time>2026-04-04T11:10:59.582Z</time></trkpt><trkpt lat="45.2478267" lon="11.131955"><ele>21.333333333333332</ele><time>2026-04-04T11:11:00.582Z</time></trkpt><trkpt lat="45.2478083" lon="11.132055"><ele>21.0</ele><time>2026-04-04T11:11:01.582Z</time></trkpt><trkpt lat="45.247785" lon="11.132165"><ele>21.0</ele><time>2026-04-04T11:11:02.582Z</time></trkpt><trkpt lat="45.2477567" lon="11.1322767"><ele>21.0</ele><time>2026-04-04T11:11:03.582Z</time></trkpt><trkpt lat="45.24773" lon="11.1323917"><ele>21.0</ele><time>2026-04-04T11:11:04.582Z</time></trkpt><trkpt lat="45.24771" lon="11.132495"><ele>21.0</ele><time>2026-04-04T11:11:05.582Z</time></trkpt><trkpt lat="45.2476883" lon="11.1325933"><ele>21.0</ele><time>2026-04-04T11:11:06.582Z</time></trkpt><trkpt lat="45.2476383" lon="11.1327033"><ele>21.0</ele><time>2026-04-04T11:11:08.582Z</time></trkpt><trkpt lat="45.24767" lon="11.13285"><ele>21.166666666666668</ele><time>2026-04-04T11:11:11.582Z</time></trkpt><trkpt lat="45.2477117" lon="11.1329317"><ele>21.333333333333332</ele><time>2026-04-04T11:11:12.582Z</time></trkpt><trkpt lat="45.247775" lon="11.13303"><ele>21.5</ele><time>2026-04-04T11:11:13.582Z</time></trkpt><trkpt lat="45.2478467" lon="11.1331333"><ele>21.666666666666664</ele><time>2026-04-04T11:11:14.582Z</time></trkpt><trkpt lat="45.2479167" lon="11.13323"><ele>21.833333333333332</ele><time>2026-04-04T11:11:15.582Z</time></trkpt><trkpt lat="45.2479783" lon="11.1333033"><ele>22.0</ele><time>2026-04-04T11:11:16.582Z</time></trkpt><trkpt lat="45.248025" lon="11.13338"><ele>22.0</ele><time>2026-04-04T11:11:17.583Z</time></trkpt><trkpt lat="45.2481083" lon="11.1334683"><ele>22.0</ele><time>2026-04-04T11:11:19.582Z</time></trkpt><trkpt lat="45.24816" lon="11.1335233"><ele>22.0</ele><time>2026-04-04T11:11:21.582Z</time></trkpt><trkpt lat="45.2481517" lon="11.1336133"><ele>22.0</ele><time>2026-04-04T11:11:25.582Z</time></trkpt><trkpt lat="45.2480667" lon="11.1337433"><ele>22.0</ele><time>2026-04-04T11:11:27.582Z</time></trkpt><trkpt lat="45.248005" lon="11.13381"><ele>22.0</ele><time>2026-04-04T11:11:28.582Z</time></trkpt><trkpt lat="45.24794" lon="11.1338783"><ele>22.0</ele><time>2026-04-04T11:11:29.582Z</time></trkpt><trkpt lat="45.2478817" lon="11.1339517"><ele>22.0</ele><time>2026-04-04T11:11:30.582Z</time></trkpt><trkpt lat="45.2478233" lon="11.1340233"><ele>22.0</ele><time>2026-04-04T11:11:31.582Z</time></trkpt><trkpt lat="45.2477733" lon="11.134085"><ele>22.0</ele><time>2026-04-04T11:11:32.582Z</time></trkpt><trkpt lat="45.2477233" lon="11.1341433"><ele>22.0</ele><time>2026-04-04T11:11:33.582Z</time></trkpt><trkpt lat="45.247655" lon="11.134245"><ele>22.0</ele><time>2026-04-04T11:11:35.58Z</time></trkpt><trkpt lat="45.2475983" lon="11.1342933"><ele>22.0</ele><time>2026-04-04T11:11:37.582Z</time></trkpt><trkpt lat="45.2476533" lon="11.1343467"><ele>22.0</ele><time>2026-04-04T11:11:43.582Z</time></trkpt><trkpt lat="45.2477317" lon="11.13426"><ele>22.0</ele><time>2026-04-04T11:11:45.582Z</time></trkpt><trkpt lat="45.2477917" lon="11.1341783"><ele>22.0</ele><time>2026-04-04T11:11:46.582Z</time></trkpt><trkpt lat="45.24786" lon="11.1340833"><ele>22.0</ele><time>2026-04-04T11:11:47.582Z</time></trkpt><trkpt lat="45.2479383" lon="11.1339733"><ele>22.0</ele><time>2026-04-04T11:11:48.582Z</time></trkpt><trkpt lat="45.2480233" lon="11.133865"><ele>22.0</ele><time>2026-04-04T11:11:49.582Z</time></trkpt><trkpt lat="45.2481067" lon="11.133765"><ele>22.0</ele><time>2026-04-04T11:11:50.582Z</time></trkpt><trkpt lat="45.2481933" lon="11.13366"><ele>22.0</ele><time>2026-04-04T11:11:51.582Z</time></trkpt><trkpt lat="45.2482867" lon="11.1335517"><ele>22.0</ele><time>2026-04-04T11:11:52.582Z</time></trkpt><trkpt lat="45.24838" lon="11.1334467"><ele>22.0</ele><time>2026-04-04T11:11:53.582Z</time></trkpt><trkpt lat="45.2484717" lon="11.1333417"><ele>22.0</ele><time>2026-04-04T11:11:54.582Z</time></trkpt><trkpt lat="45.248565" lon="11.1332333"><ele>22.0</ele><time>2026-04-04T11:11:55.582Z</time></trkpt><trkpt lat="45.24866" lon="11.1331383"><ele>22.0</ele><time>2026-04-04T11:11:56.582Z</time></trkpt><trkpt lat="45.2487483" lon="11.133035"><ele>22.0</ele><time>2026-04-04T11:11:57.582Z</time></trkpt><trkpt lat="45.2488417" lon="11.1329233"><ele>22.0</ele><time>2026-04-04T11:11:58.582Z</time></trkpt><trkpt lat="45.2489333" lon="11.1328317"><ele>22.0</ele><time>2026-04-04T11:11:59.583Z</time></trkpt><trkpt lat="45.24902" lon="11.1327483"><ele>22.200000000000003</ele><time>2026-04-04T11:12:00.582Z</time></trkpt><trkpt lat="45.2491033" lon="11.13266"><ele>22.4</ele><time>2026-04-04T11:12:01.582Z</time></trkpt><trkpt lat="45.249185" lon="11.1325733"><ele>22.6</ele><time>2026-04-04T11:12:02.582Z</time></trkpt><trkpt lat="45.2492683" lon="11.1324833"><ele>22.799999999999997</ele><time>2026-04-04T11:12:03.582Z</time></trkpt><trkpt lat="45.249345" lon="11.132395"><ele>23.0</ele><time>2026-04-04T11:12:04.582Z</time></trkpt><trkpt lat="45.2494317" lon="11.13231"><ele>23.0</ele><time>2026-04-04T11:12:05.582Z</time></trkpt><trkpt lat="45.2495117" lon="11.1322133"><ele>23.0</ele><time>2026-04-04T11:12:06.583Z</time></trkpt><trkpt lat="45.249585" lon="11.1321133"><ele>23.0</ele><time>2026-04-04T11:12:07.582Z</time></trkpt><trkpt lat="45.2496667" lon="11.13202"><ele>23.0</ele><time>2026-04-04T11:12:08.582Z</time></trkpt><trkpt lat="45.2497483" lon="11.13193"><ele>23.0</ele><time>2026-04-04T11:12:09.582Z</time></trkpt><trkpt lat="45.2498283" lon="11.1318567"><ele>23.0</ele><time>2026-04-04T11:12:10.582Z</time></trkpt><trkpt lat="45.2499067" lon="11.131775"><ele>23.0</ele><time>2026-04-04T11:12:11.581Z</time></trkpt><trkpt lat="45.2499867" lon="11.1316933"><ele>23.0</ele><time>2026-04-04T11:12:12.581Z</time></trkpt><trkpt lat="45.25007" lon="11.13162"><ele>23.0</ele><time>2026-04-04T11:12:13.581Z</time></trkpt><trkpt lat="45.250145" lon="11.1315333"><ele>23.0</ele><time>2026-04-04T11:12:14.581Z</time></trkpt><trkpt lat="45.2502233" lon="11.1314333"><ele>22.799999999999997</ele><time>2026-04-04T11:12:15.581Z</time></trkpt><trkpt lat="45.2502967" lon="11.131345"><ele>22.6</ele><time>2026-04-04T11:12:16.581Z</time></trkpt><trkpt lat="45.2503717" lon="11.1312483"><ele>22.4</ele><time>2026-04-04T11:12:17.581Z</time></trkpt><trkpt lat="45.25045" lon="11.1311617"><ele>22.200000000000003</ele><time>2026-04-04T11:12:18.581Z</time></trkpt><trkpt lat="45.2505267" lon="11.1310667"><ele>22.0</ele><time>2026-04-04T11:12:19.581Z</time></trkpt><trkpt lat="45.2506033" lon="11.130975"><ele>22.333333333333332</ele><time>2026-04-04T11:12:20.581Z</time></trkpt><trkpt lat="45.2506817" lon="11.13088"><ele>22.666666666666664</ele><time>2026-04-04T11:12:21.581Z</time></trkpt><trkpt lat="45.2507517" lon="11.1307883"><ele>23.0</ele><time>2026-04-04T11:12:22.581Z</time></trkpt><trkpt lat="45.25082" lon="11.130715"><ele>23.333333333333332</ele><time>2026-04-04T11:12:23.582Z</time></trkpt><trkpt lat="45.250885" lon="11.1306567"><ele>23.666666666666668</ele><time>2026-04-04T11:12:24.581Z</time></trkpt><trkpt lat="45.250945" lon="11.1305833"><ele>24.0</ele><time>2026-04-04T11:12:25.581Z</time></trkpt><trkpt lat="45.2510083" lon="11.1304883"><ele>24.0</ele><time>2026-04-04T11:12:26.581Z</time></trkpt><trkpt lat="45.2510917" lon="11.1304067"><ele>24.0</ele><time>2026-04-04T11:12:27.581Z</time></trkpt><trkpt lat="45.251175" lon="11.1303283"><ele>24.0</ele><time>2026-04-04T11:12:28.581Z</time></trkpt><trkpt lat="45.251265" lon="11.1302417"><ele>24.0</ele><time>2026-04-04T11:12:29.581Z</time></trkpt><trkpt lat="45.2513583" lon="11.1301567"><ele>24.0</ele><time>2026-04-04T11:12:30.581Z</time></trkpt><trkpt lat="45.251455" lon="11.130065"><ele>24.0</ele><time>2026-04-04T11:12:31.581Z</time></trkpt><trkpt lat="45.2515583" lon="11.129975"><ele>24.0</ele><time>2026-04-04T11:12:32.581Z</time></trkpt><trkpt lat="45.2516567" lon="11.1298883"><ele>24.0</ele><time>2026-04-04T11:12:33.581Z</time></trkpt><trkpt lat="45.2517583" lon="11.1298017"><ele>24.0</ele><time>2026-04-04T11:12:34.581Z</time></trkpt><trkpt lat="45.2518583" lon="11.1297117"><ele>24.25</ele><time>2026-04-04T11:12:35.581Z</time></trkpt><trkpt lat="45.2519633" lon="11.129625"><ele>24.5</ele><time>2026-04-04T11:12:36.581Z</time></trkpt><trkpt lat="45.2520633" lon="11.12955"><ele>24.75</ele><time>2026-04-04T11:12:37.581Z</time></trkpt><trkpt lat="45.2521617" lon="11.1294683"><ele>25.0</ele><time>2026-04-04T11:12:38.581Z</time></trkpt><trkpt lat="45.2522533" lon="11.129375"><ele>24.8</ele><time>2026-04-04T11:12:39.581Z</time></trkpt><trkpt lat="45.252345" lon="11.1292783"><ele>24.6</ele><time>2026-04-04T11:12:40.581Z</time></trkpt><trkpt lat="45.252435" lon="11.1291933"><ele>24.4</ele><time>2026-04-04T11:12:41.581Z</time></trkpt><trkpt lat="45.2525167" lon="11.1291033"><ele>24.2</ele><time>2026-04-04T11:12:42.581Z</time></trkpt><trkpt lat="45.2525883" lon="11.1290217"><ele>24.0</ele><time>2026-04-04T11:12:43.581Z</time></trkpt><trkpt lat="45.2526617" lon="11.12895"><ele>23.666666666666668</ele><time>2026-04-04T11:12:44.581Z</time></trkpt><trkpt lat="45.2527283" lon="11.1288833"><ele>23.333333333333332</ele><time>2026-04-04T11:12:45.581Z</time></trkpt><trkpt lat="45.2528" lon="11.1288217"><ele>23.0</ele><time>2026-04-04T11:12:46.581Z</time></trkpt><trkpt lat="45.2528717" lon="11.1287533"><ele>22.666666666666664</ele><time>2026-04-04T11:12:47.581Z</time></trkpt><trkpt lat="45.2529483" lon="11.1286633"><ele>22.333333333333332</ele><time>2026-04-04T11:12:48.581Z</time></trkpt><trkpt lat="45.2530267" lon="11.1285867"><ele>22.0</ele><time>2026-04-04T11:12:49.581Z</time></trkpt><trkpt lat="45.2531083" lon="11.128505"><ele>22.200000000000003</ele><time>2026-04-04T11:12:50.581Z</time></trkpt><trkpt lat="45.25319" lon="11.128415"><ele>22.4</ele><time>2026-04-04T11:12:51.581Z</time></trkpt><trkpt lat="45.2532733" lon="11.1283333"><ele>22.6</ele><time>2026-04-04T11:12:52.582Z</time></trkpt><trkpt lat="45.2533617" lon="11.1282467"><ele>22.799999999999997</ele><time>2026-04-04T11:12:53.581Z</time></trkpt><trkpt lat="45.2534483" lon="11.1281633"><ele>23.0</ele><time>2026-04-04T11:12:54.581Z</time></trkpt><trkpt lat="45.2535333" lon="11.128065"><ele>23.0</ele><time>2026-04-04T11:12:55.581Z</time></trkpt><trkpt lat="45.25362" lon="11.1279683"><ele>23.0</ele><time>2026-04-04T11:12:56.581Z</time></trkpt><trkpt lat="45.253705" lon="11.12787"><ele>23.0</ele><time>2026-04-04T11:12:57.581Z</time></trkpt><trkpt lat="45.253795" lon="11.1277717"><ele>23.0</ele><time>2026-04-04T11:12:58.581Z</time></trkpt><trkpt lat="45.253885" lon="11.1276783"><ele>23.0</ele><time>2026-04-04T11:12:59.581Z</time></trkpt><trkpt lat="45.2539717" lon="11.127575"><ele>23.0</ele><time>2026-04-04T11:13:00.581Z</time></trkpt><trkpt lat="45.2540583" lon="11.1274717"><ele>23.0</ele><time>2026-04-04T11:13:01.581Z</time></trkpt><trkpt lat="45.2541417" lon="11.1273667"><ele>23.0</ele><time>2026-04-04T11:13:02.581Z</time></trkpt><trkpt lat="45.254225" lon="11.1272817"><ele>23.0</ele><time>2026-04-04T11:13:03.581Z</time></trkpt><trkpt lat="45.2542967" lon="11.1272033"><ele>23.0</ele><time>2026-04-04T11:13:04.581Z</time></trkpt><trkpt lat="45.2543633" lon="11.1271417"><ele>23.166666666666668</ele><time>2026-04-04T11:13:05.581Z</time></trkpt><trkpt lat="45.254445" lon="11.1270517"><ele>23.333333333333336</ele><time>2026-04-04T11:13:07.582Z</time></trkpt><trkpt lat="45.2545017" lon="11.1269683"><ele>23.5</ele><time>2026-04-04T11:13:10.582Z</time></trkpt><trkpt lat="45.25451" lon="11.1268567"><ele>23.666666666666668</ele><time>2026-04-04T11:13:12.581Z</time></trkpt><trkpt lat="45.254505" lon="11.12669"><ele>23.833333333333332</ele><time>2026-04-04T11:13:14.581Z</time></trkpt><trkpt lat="45.254505" lon="11.1265967"><ele>24.0</ele><time>2026-04-04T11:13:15.581Z</time></trkpt><trkpt lat="45.2545017" lon="11.1264933"><ele>24.0</ele><time>2026-04-04T11:13:16.581Z</time></trkpt><trkpt lat="45.254495" lon="11.1263783"><ele>24.0</ele><time>2026-04-04T11:13:17.581Z</time></trkpt><trkpt lat="45.2544833" lon="11.1262667"><ele>24.0</ele><time>2026-04-04T11:13:18.581Z</time></trkpt><trkpt lat="45.254475" lon="11.1261467"><ele>24.0</ele><time>2026-04-04T11:13:19.581Z</time></trkpt><trkpt lat="45.2544667" lon="11.1260267"><ele>24.0</ele><time>2026-04-04T11:13:20.581Z</time></trkpt><trkpt lat="45.25445" lon="11.125905"><ele>24.0</ele><time>2026-04-04T11:13:21.581Z</time></trkpt><trkpt lat="45.254435" lon="11.1257783"><ele>23.833333333333332</ele><time>2026-04-04T11:13:22.581Z</time></trkpt><trkpt lat="45.2544217" lon="11.125655"><ele>23.666666666666668</ele><time>2026-04-04T11:13:23.581Z</time></trkpt><trkpt lat="45.2544083" lon="11.1255333"><ele>23.5</ele><time>2026-04-04T11:13:24.581Z</time></trkpt><trkpt lat="45.2543983" lon="11.12541"><ele>23.333333333333336</ele><time>2026-04-04T11:13:25.581Z</time></trkpt><trkpt lat="45.2543883" lon="11.1252883"><ele>23.166666666666668</ele><time>2026-04-04T11:13:26.581Z</time></trkpt><trkpt lat="45.2543817" lon="11.125165"><ele>23.0</ele><time>2026-04-04T11:13:27.581Z</time></trkpt><trkpt lat="45.2543733" lon="11.125045"><ele>23.0</ele><time>2026-04-04T11:13:28.581Z</time></trkpt><trkpt lat="45.2543633" lon="11.1249283"><ele>23.0</ele><time>2026-04-04T11:13:29.581Z</time></trkpt><trkpt lat="45.254355" lon="11.1248117"><ele>23.0</ele><time>2026-04-04T11:13:30.581Z</time></trkpt><trkpt lat="45.2543483" lon="11.1247"><ele>23.0</ele><time>2026-04-04T11:13:31.581Z</time></trkpt><trkpt lat="45.2543417" lon="11.1245883"><ele>23.0</ele><time>2026-04-04T11:13:32.581Z</time></trkpt><trkpt lat="45.2543333" lon="11.1244917"><ele>23.0</ele><time>2026-04-04T11:13:33.581Z</time></trkpt><trkpt lat="45.25433" lon="11.1243967"><ele>22.833333333333336</ele><time>2026-04-04T11:13:34.581Z</time></trkpt><trkpt lat="45.254325" lon="11.1243067"><ele>22.666666666666668</ele><time>2026-04-04T11:13:35.581Z</time></trkpt><trkpt lat="45.254315" lon="11.1242017"><ele>22.5</ele><time>2026-04-04T11:13:36.581Z</time></trkpt><trkpt lat="45.25431" lon="11.1240967"><ele>22.333333333333332</ele><time>2026-04-04T11:13:37.581Z</time></trkpt><trkpt lat="45.2543067" lon="11.1239817"><ele>22.166666666666664</ele><time>2026-04-04T11:13:38.581Z</time></trkpt><trkpt lat="45.2543" lon="11.1238667"><ele>22.0</ele><time>2026-04-04T11:13:39.581Z</time></trkpt><trkpt lat="45.25429" lon="11.12375"><ele>22.0</ele><time>2026-04-04T11:13:40.581Z</time></trkpt><trkpt lat="45.2542817" lon="11.123635"><ele>22.0</ele><time>2026-04-04T11:13:41.581Z</time></trkpt><trkpt lat="45.25427" lon="11.1235183"><ele>22.0</ele><time>2026-04-04T11:13:42.581Z</time></trkpt><trkpt lat="45.2542633" lon="11.123405"><ele>22.0</ele><time>2026-04-04T11:13:43.581Z</time></trkpt><trkpt lat="45.2542633" lon="11.1233"><ele>22.0</ele><time>2026-04-04T11:13:44.581Z</time></trkpt><trkpt lat="45.2542667" lon="11.123145"><ele>22.0</ele><time>2026-04-04T11:13:46.581Z</time></trkpt><trkpt lat="45.2542433" lon="11.1229983"><ele>22.0</ele><time>2026-04-04T11:13:48.582Z</time></trkpt><trkpt lat="45.254235" lon="11.1229017"><ele>22.0</ele><time>2026-04-04T11:13:49.582Z</time></trkpt><trkpt lat="45.2542183" lon="11.1227883"><ele>22.0</ele><time>2026-04-04T11:13:50.581Z</time></trkpt><trkpt lat="45.25421" lon="11.12268"><ele>22.0</ele><time>2026-04-04T11:13:51.582Z</time></trkpt><trkpt lat="45.2541983" lon="11.12256"><ele>22.0</ele><time>2026-04-04T11:13:52.581Z</time></trkpt><trkpt lat="45.2541917" lon="11.1224383"><ele>22.0</ele><time>2026-04-04T11:13:53.581Z</time></trkpt><trkpt lat="45.2541833" lon="11.1223233"><ele>22.0</ele><time>2026-04-04T11:13:54.581Z</time></trkpt><trkpt lat="45.2541767" lon="11.1222083"><ele>22.0</ele><time>2026-04-04T11:13:55.581Z</time></trkpt><trkpt lat="45.254165" lon="11.12209"><ele>22.0</ele><time>2026-04-04T11:13:56.581Z</time></trkpt><trkpt lat="45.2541517" lon="11.1219717"><ele>22.0</ele><time>2026-04-04T11:13:57.581Z</time></trkpt><trkpt lat="45.2541417" lon="11.12185"><ele>22.0</ele><time>2026-04-04T11:13:58.581Z</time></trkpt><trkpt lat="45.2541283" lon="11.121735"><ele>22.0</ele><time>2026-04-04T11:13:59.581Z</time></trkpt><trkpt lat="45.2541133" lon="11.121625"><ele>21.666666666666664</ele><time>2026-04-04T11:14:00.581Z</time></trkpt><trkpt lat="45.2541" lon="11.1215083"><ele>21.333333333333332</ele><time>2026-04-04T11:14:01.581Z</time></trkpt><trkpt lat="45.25409" lon="11.12139"><ele>21.0</ele><time>2026-04-04T11:14:02.582Z</time></trkpt><trkpt lat="45.2540867" lon="11.12127"><ele>20.666666666666668</ele><time>2026-04-04T11:14:03.581Z</time></trkpt><trkpt lat="45.2540767" lon="11.1211483"><ele>20.333333333333336</ele><time>2026-04-04T11:14:04.581Z</time></trkpt><trkpt lat="45.2540667" lon="11.121035"><ele>20.0</ele><time>2026-04-04T11:14:05.581Z</time></trkpt><trkpt lat="45.2540583" lon="11.1209167"><ele>20.0</ele><time>2026-04-04T11:14:06.581Z</time></trkpt><trkpt lat="45.2540517" lon="11.1208033"><ele>20.0</ele><time>2026-04-04T11:14:07.581Z</time></trkpt><trkpt lat="45.2540467" lon="11.12069"><ele>20.0</ele><time>2026-04-04T11:14:08.581Z</time></trkpt><trkpt lat="45.25404" lon="11.1205883"><ele>20.0</ele><time>2026-04-04T11:14:09.581Z</time></trkpt><trkpt lat="45.254035" lon="11.120475"><ele>20.0</ele><time>2026-04-04T11:14:10.581Z</time></trkpt><trkpt lat="45.254025" lon="11.120365"><ele>20.0</ele><time>2026-04-04T11:14:11.581Z</time></trkpt><trkpt lat="45.2540217" lon="11.1202733"><ele>20.0</ele><time>2026-04-04T11:14:12.581Z</time></trkpt><trkpt lat="45.2540083" lon="11.1201233"><ele>20.0</ele><time>2026-04-04T11:14:14.581Z</time></trkpt><trkpt lat="45.2539517" lon="11.1200633"><ele>20.0</ele><time>2026-04-04T11:14:16.581Z</time></trkpt><trkpt lat="45.2538817" lon="11.1200767"><ele>20.0</ele><time>2026-04-04T11:14:18.581Z</time></trkpt><trkpt lat="45.25383" lon="11.1201317"><ele>20.0</ele><time>2026-04-04T11:14:20.581Z</time></trkpt><trkpt lat="45.2537567" lon="11.12025"><ele>20.0</ele><time>2026-04-04T11:14:22.581Z</time></trkpt><trkpt lat="45.2537067" lon="11.120305"><ele>19.333333333333336</ele><time>2026-04-04T11:14:23.581Z</time></trkpt><trkpt lat="45.25365" lon="11.1203633"><ele>18.666666666666668</ele><time>2026-04-04T11:14:24.581Z</time></trkpt><trkpt lat="45.253585" lon="11.1204217"><ele>18.0</ele><time>2026-04-04T11:14:25.581Z</time></trkpt><trkpt lat="45.253525" lon="11.1204883"><ele>17.333333333333332</ele><time>2026-04-04T11:14:26.581Z</time></trkpt><trkpt lat="45.253475" lon="11.1205617"><ele>16.666666666666664</ele><time>2026-04-04T11:14:27.581Z</time></trkpt><trkpt lat="45.2534167" lon="11.1206317"><ele>16.0</ele><time>2026-04-04T11:14:28.582Z</time></trkpt><trkpt lat="45.2533533" lon="11.120705"><ele>15.999999999999998</ele><time>2026-04-04T11:14:29.581Z</time></trkpt><trkpt lat="45.2532867" lon="11.1207783"><ele>16.0</ele><time>2026-04-04T11:14:30.581Z</time></trkpt><trkpt lat="45.253215" lon="11.1208583"><ele>16.0</ele><time>2026-04-04T11:14:31.581Z</time></trkpt><trkpt lat="45.25316" lon="11.1209367"><ele>16.0</ele><time>2026-04-04T11:14:32.581Z</time></trkpt><trkpt lat="45.2531067" lon="11.121015"><ele>15.999999999999998</ele><time>2026-04-04T11:14:33.581Z</time></trkpt><trkpt lat="45.25304" lon="11.12109"><ele>16.0</ele><time>2026-04-04T11:14:34.581Z</time></trkpt><trkpt lat="45.25297" lon="11.1211583"><ele>15.999999999999998</ele><time>2026-04-04T11:14:35.581Z</time></trkpt><trkpt lat="45.2528983" lon="11.1212283"><ele>16.0</ele><time>2026-04-04T11:14:36.581Z</time></trkpt><trkpt lat="45.2528333" lon="11.1212967"><ele>16.0</ele><time>2026-04-04T11:14:37.581Z</time></trkpt><trkpt lat="45.2527683" lon="11.1213817"><ele>16.0</ele><time>2026-04-04T11:14:38.581Z</time></trkpt><trkpt lat="45.2527033" lon="11.1214567"><ele>15.999999999999998</ele><time>2026-04-04T11:14:39.581Z</time></trkpt><trkpt lat="45.2526483" lon="11.121525"><ele>16.0</ele><time>2026-04-04T11:14:40.581Z</time></trkpt><trkpt lat="45.2526" lon="11.1215833"><ele>16.333333333333332</ele><time>2026-04-04T11:14:41.581Z</time></trkpt><trkpt lat="45.25253" lon="11.1216667"><ele>16.666666666666664</ele><time>2026-04-04T11:14:43.581Z</time></trkpt><trkpt lat="45.2524633" lon="11.12175"><ele>17.0</ele><time>2026-04-04T11:14:46.581Z</time></trkpt><trkpt lat="45.25239" lon="11.1218333"><ele>17.333333333333332</ele><time>2026-04-04T11:14:49.581Z</time></trkpt><trkpt lat="45.252315" lon="11.12187"><ele>17.666666666666668</ele><time>2026-04-04T11:14:52.581Z</time></trkpt><trkpt lat="45.2522483" lon="11.1219433"><ele>18.0</ele><time>2026-04-04T11:14:56.581Z</time></trkpt><trkpt lat="45.2521667" lon="11.1220283"><ele>18.0</ele><time>2026-04-04T11:14:59.581Z</time></trkpt><trkpt lat="45.2520983" lon="11.1220983"><ele>18.0</ele><time>2026-04-04T11:15:01.581Z</time></trkpt><trkpt lat="45.2520317" lon="11.1221583"><ele>18.0</ele><time>2026-04-04T11:15:03.581Z</time></trkpt><trkpt lat="45.2519783" lon="11.1222083"><ele>18.0</ele><time>2026-04-04T11:15:05.581Z</time></trkpt><trkpt lat="45.2519267" lon="11.1222717"><ele>18.0</ele><time>2026-04-04T11:15:07.581Z</time></trkpt><trkpt lat="45.2518667" lon="11.122345"><ele>18.0</ele><time>2026-04-04T11:15:09.581Z</time></trkpt><trkpt lat="45.2518117" lon="11.12243"><ele>18.0</ele><time>2026-04-04T11:15:12.581Z</time></trkpt><trkpt lat="45.251795" lon="11.1225267"><ele>18.0</ele><time>2026-04-04T11:15:16.581Z</time></trkpt><trkpt lat="45.2518433" lon="11.1226083"><ele>18.0</ele><time>2026-04-04T11:15:19.581Z</time></trkpt><trkpt lat="45.25182" lon="11.122505"><ele>18.0</ele><time>2026-04-04T11:15:23.581Z</time></trkpt><trkpt lat="45.2518183" lon="11.122395"><ele>18.0</ele><time>2026-04-04T11:15:26.581Z</time></trkpt><trkpt lat="45.2518783" lon="11.1223267"><ele>18.0</ele><time>2026-04-04T11:15:28.581Z</time></trkpt><trkpt lat="45.25194" lon="11.1222633"><ele>18.0</ele><time>2026-04-04T11:15:30.581Z</time></trkpt><trkpt lat="45.25201" lon="11.1222133"><ele>18.0</ele><time>2026-04-04T11:15:33.581Z</time></trkpt><trkpt lat="45.2520767" lon="11.122125"><ele>18.0</ele><time>2026-04-04T11:17:08.58Z</time></trkpt><trkpt lat="45.2521783" lon="11.1220183"><ele>18.0</ele><time>2026-04-04T11:17:10.58Z</time></trkpt><trkpt lat="45.2522333" lon="11.121955"><ele>18.0</ele><time>2026-04-04T11:17:11.58Z</time></trkpt><trkpt lat="45.2522917" lon="11.1218967"><ele>18.0</ele><time>2026-04-04T11:17:12.58Z</time></trkpt><trkpt lat="45.2523467" lon="11.1218467"><ele>18.2</ele><time>2026-04-04T11:17:13.58Z</time></trkpt><trkpt lat="45.2524583" lon="11.1217717"><ele>18.4</ele><time>2026-04-04T11:17:15.58Z</time></trkpt><trkpt lat="45.2525667" lon="11.1216683"><ele>18.599999999999998</ele><time>2026-04-04T11:17:17.58Z</time></trkpt><trkpt lat="45.2526167" lon="11.121595"><ele>18.8</ele><time>2026-04-04T11:17:18.58Z</time></trkpt><trkpt lat="45.2526717" lon="11.1215117"><ele>19.0</ele><time>2026-04-04T11:17:19.58Z</time></trkpt><trkpt lat="45.2527367" lon="11.12143"><ele>18.4</ele><time>2026-04-04T11:17:20.58Z</time></trkpt><trkpt lat="45.2528033" lon="11.1213583"><ele>17.799999999999997</ele><time>2026-04-04T11:17:21.581Z</time></trkpt><trkpt lat="45.2528717" lon="11.1212767"><ele>17.200000000000003</ele><time>2026-04-04T11:17:22.58Z</time></trkpt><trkpt lat="45.2529433" lon="11.1211967"><ele>16.6</ele><time>2026-04-04T11:17:23.58Z</time></trkpt><trkpt lat="45.2530217" lon="11.12111"><ele>16.0</ele><time>2026-04-04T11:17:24.58Z</time></trkpt><trkpt lat="45.253105" lon="11.12101"><ele>16.0</ele><time>2026-04-04T11:17:25.58Z</time></trkpt><trkpt lat="45.2531767" lon="11.1209283"><ele>16.0</ele><time>2026-04-04T11:17:26.58Z</time></trkpt><trkpt lat="45.2532617" lon="11.1208317"><ele>16.0</ele><time>2026-04-04T11:17:27.58Z</time></trkpt><trkpt lat="45.2533383" lon="11.1207383"><ele>16.0</ele><time>2026-04-04T11:17:28.58Z</time></trkpt><trkpt lat="45.2534133" lon="11.120645"><ele>16.0</ele><time>2026-04-04T11:17:29.58Z</time></trkpt><trkpt lat="45.2534867" lon="11.1205517"><ele>16.0</ele><time>2026-04-04T11:17:30.58Z</time></trkpt><trkpt lat="45.2535683" lon="11.120465"><ele>16.0</ele><time>2026-04-04T11:17:31.58Z</time></trkpt><trkpt lat="45.25364" lon="11.1203867"><ele>16.0</ele><time>2026-04-04T11:17:32.58Z</time></trkpt><trkpt lat="45.2537117" lon="11.1203167"><ele>16.0</ele><time>2026-04-04T11:17:33.58Z</time></trkpt><trkpt lat="45.2537817" lon="11.1202383"><ele>16.0</ele><time>2026-04-04T11:17:34.58Z</time></trkpt><trkpt lat="45.2538533" lon="11.1201717"><ele>15.999999999999998</ele><time>2026-04-04T11:17:35.58Z</time></trkpt><trkpt lat="45.2539283" lon="11.1201383"><ele>16.0</ele><time>2026-04-04T11:17:36.58Z</time></trkpt><trkpt lat="45.2540317" lon="11.1201783"><ele>16.0</ele><time>2026-04-04T11:17:38.58Z</time></trkpt><trkpt lat="45.2540633" lon="11.1202567"><ele>16.0</ele><time>2026-04-04T11:17:39.581Z</time></trkpt><trkpt lat="45.2540767" lon="11.1203733"><ele>15.999999999999998</ele><time>2026-04-04T11:17:40.58Z</time></trkpt><trkpt lat="45.2540833" lon="11.120515"><ele>16.0</ele><time>2026-04-04T11:17:41.58Z</time></trkpt><trkpt lat="45.25408" lon="11.1206917"><ele>17.0</ele><time>2026-04-04T11:17:42.58Z</time></trkpt><trkpt lat="45.2540783" lon="11.1208683"><ele>18.0</ele><time>2026-04-04T11:17:43.58Z</time></trkpt><trkpt lat="45.254085" lon="11.121025"><ele>19.0</ele><time>2026-04-04T11:17:44.58Z</time></trkpt><trkpt lat="45.2540967" lon="11.1211833"><ele>20.0</ele><time>2026-04-04T11:17:45.58Z</time></trkpt><trkpt lat="45.2541117" lon="11.121335"><ele>20.0</ele><time>2026-04-04T11:17:46.58Z</time></trkpt><trkpt lat="45.2541283" lon="11.1214967"><ele>20.0</ele><time>2026-04-04T11:17:47.58Z</time></trkpt><trkpt lat="45.2541483" lon="11.1216583"><ele>20.0</ele><time>2026-04-04T11:17:48.581Z</time></trkpt><trkpt lat="45.2541617" lon="11.1218283"><ele>20.0</ele><time>2026-04-04T11:17:49.58Z</time></trkpt><trkpt lat="45.2541683" lon="11.1219983"><ele>20.5</ele><time>2026-04-04T11:17:50.58Z</time></trkpt><trkpt lat="45.2541733" lon="11.1221667"><ele>21.0</ele><time>2026-04-04T11:17:51.58Z</time></trkpt><trkpt lat="45.2541833" lon="11.1223333"><ele>21.5</ele><time>2026-04-04T11:17:52.58Z</time></trkpt><trkpt lat="45.2541967" lon="11.1224967"><ele>22.0</ele><time>2026-04-04T11:17:53.58Z</time></trkpt><trkpt lat="45.254205" lon="11.1226767"><ele>22.0</ele><time>2026-04-04T11:17:54.58Z</time></trkpt><trkpt lat="45.2542117" lon="11.12286"><ele>22.0</ele><time>2026-04-04T11:17:55.58Z</time></trkpt><trkpt lat="45.254225" lon="11.1230267"><ele>22.0</ele><time>2026-04-04T11:17:56.58Z</time></trkpt><trkpt lat="45.254235" lon="11.1231783"><ele>22.0</ele><time>2026-04-04T11:17:57.58Z</time></trkpt><trkpt lat="45.2542467" lon="11.12333"><ele>22.0</ele><time>2026-04-04T11:17:58.58Z</time></trkpt><trkpt lat="45.2542533" lon="11.1234833"><ele>22.0</ele><time>2026-04-04T11:17:59.58Z</time></trkpt><trkpt lat="45.2542617" lon="11.1236417"><ele>22.0</ele><time>2026-04-04T11:18:00.58Z</time></trkpt><trkpt lat="45.25427" lon="11.12379"><ele>22.0</ele><time>2026-04-04T11:18:01.58Z</time></trkpt><trkpt lat="45.25428" lon="11.123935"><ele>22.0</ele><time>2026-04-04T11:18:02.58Z</time></trkpt><trkpt lat="45.2542917" lon="11.1240683"><ele>22.0</ele><time>2026-04-04T11:18:03.58Z</time></trkpt><trkpt lat="45.2543017" lon="11.1241817"><ele>22.0</ele><time>2026-04-04T11:18:04.58Z</time></trkpt><trkpt lat="45.2542983" lon="11.124275"><ele>22.0</ele><time>2026-04-04T11:18:05.58Z</time></trkpt><trkpt lat="45.2542333" lon="11.1243983"><ele>22.0</ele><time>2026-04-04T11:18:07.58Z</time></trkpt><trkpt lat="45.2541733" lon="11.1244617"><ele>22.0</ele><time>2026-04-04T11:18:08.58Z</time></trkpt><trkpt lat="45.2540917" lon="11.1245317"><ele>22.0</ele><time>2026-04-04T11:18:09.58Z</time></trkpt><trkpt lat="45.2539933" lon="11.1246033"><ele>22.0</ele><time>2026-04-04T11:18:10.58Z</time></trkpt><trkpt lat="45.2538983" lon="11.1246833"><ele>22.0</ele><time>2026-04-04T11:18:11.58Z</time></trkpt><trkpt lat="45.253815" lon="11.1247683"><ele>22.0</ele><time>2026-04-04T11:18:12.58Z</time></trkpt><trkpt lat="45.2537267" lon="11.1248383"><ele>22.0</ele><time>2026-04-04T11:18:13.58Z</time></trkpt><trkpt lat="45.2536433" lon="11.1249267"><ele>22.0</ele><time>2026-04-04T11:18:14.58Z</time></trkpt><trkpt lat="45.2535517" lon="11.125"><ele>21.833333333333332</ele><time>2026-04-04T11:18:15.58Z</time></trkpt><trkpt lat="45.25347" lon="11.1250683"><ele>21.666666666666664</ele><time>2026-04-04T11:18:16.58Z</time></trkpt><trkpt lat="45.2534017" lon="11.1251267"><ele>21.5</ele><time>2026-04-04T11:18:17.58Z</time></trkpt><trkpt lat="45.253335" lon="11.1251867"><ele>21.333333333333332</ele><time>2026-04-04T11:18:18.58Z</time></trkpt><trkpt lat="45.2532683" lon="11.12524"><ele>21.166666666666668</ele><time>2026-04-04T11:18:19.58Z</time></trkpt><trkpt lat="45.253185" lon="11.125315"><ele>21.0</ele><time>2026-04-04T11:18:21.58Z</time></trkpt><trkpt lat="45.2531933" lon="11.1254167"><ele>21.0</ele><time>2026-04-04T11:18:24.58Z</time></trkpt><trkpt lat="45.2532283" lon="11.125495"><ele>21.0</ele><time>2026-04-04T11:18:25.58Z</time></trkpt><trkpt lat="45.25328" lon="11.1256117"><ele>21.0</ele><time>2026-04-04T11:18:26.58Z</time></trkpt><trkpt lat="45.2533467" lon="11.1257417"><ele>21.0</ele><time>2026-04-04T11:18:27.58Z</time></trkpt><trkpt lat="45.25342" lon="11.1258933"><ele>21.0</ele><time>2026-04-04T11:18:28.58Z</time></trkpt><trkpt lat="45.253505" lon="11.12604"><ele>21.25</ele><time>2026-04-04T11:18:29.58Z</time></trkpt><trkpt lat="45.2535833" lon="11.1261917"><ele>21.5</ele><time>2026-04-04T11:18:30.581Z</time></trkpt><trkpt lat="45.2536617" lon="11.126335"><ele>21.75</ele><time>2026-04-04T11:18:31.58Z</time></trkpt><trkpt lat="45.2537333" lon="11.1264967"><ele>22.0</ele><time>2026-04-04T11:18:32.58Z</time></trkpt><trkpt lat="45.2537633" lon="11.126645"><ele>22.400000000000002</ele><time>2026-04-04T11:18:33.58Z</time></trkpt><trkpt lat="45.253815" lon="11.1267833"><ele>22.8</ele><time>2026-04-04T11:18:34.58Z</time></trkpt><trkpt lat="45.2538633" lon="11.126915"><ele>23.2</ele><time>2026-04-04T11:18:35.58Z</time></trkpt><trkpt lat="45.2539133" lon="11.1270333"><ele>23.6</ele><time>2026-04-04T11:18:36.58Z</time></trkpt><trkpt lat="45.2539633" lon="11.127135"><ele>24.0</ele><time>2026-04-04T11:18:37.58Z</time></trkpt><trkpt lat="45.254005" lon="11.1272267"><ele>24.0</ele><time>2026-04-04T11:18:38.58Z</time></trkpt><trkpt lat="45.2540567" lon="11.1273533"><ele>24.0</ele><time>2026-04-04T11:18:40.58Z</time></trkpt><trkpt lat="45.254065" lon="11.1274467"><ele>24.0</ele><time>2026-04-04T11:18:42.58Z</time></trkpt><trkpt lat="45.2540117" lon="11.1275317"><ele>24.0</ele><time>2026-04-04T11:18:44.58Z</time></trkpt><trkpt lat="45.2539567" lon="11.127595"><ele>24.0</ele><time>2026-04-04T11:18:45.58Z</time></trkpt><trkpt lat="45.2538883" lon="11.1276667"><ele>24.0</ele><time>2026-04-04T11:18:46.58Z</time></trkpt><trkpt lat="45.2538083" lon="11.12774"><ele>24.0</ele><time>2026-04-04T11:18:47.58Z</time></trkpt><trkpt lat="45.2537233" lon="11.127825"><ele>24.0</ele><time>2026-04-04T11:18:48.58Z</time></trkpt><trkpt lat="45.253645" lon="11.12791"><ele>24.0</ele><time>2026-04-04T11:18:49.58Z</time></trkpt><trkpt lat="45.2535617" lon="11.127985"><ele>24.0</ele><time>2026-04-04T11:18:50.58Z</time></trkpt><trkpt lat="45.2534733" lon="11.1280783"><ele>24.0</ele><time>2026-04-04T11:18:51.58Z</time></trkpt><trkpt lat="45.2533883" lon="11.1281767"><ele>23.75</ele><time>2026-04-04T11:18:52.58Z</time></trkpt><trkpt lat="45.2533033" lon="11.1282733"><ele>23.5</ele><time>2026-04-04T11:18:53.58Z</time></trkpt><trkpt lat="45.2532117" lon="11.1283683"><ele>23.25</ele><time>2026-04-04T11:18:54.58Z</time></trkpt><trkpt lat="45.2531183" lon="11.128455"><ele>23.0</ele><time>2026-04-04T11:18:55.58Z</time></trkpt><trkpt lat="45.2530217" lon="11.1285483"><ele>22.75</ele><time>2026-04-04T11:18:56.58Z</time></trkpt><trkpt lat="45.252935" lon="11.1286517"><ele>22.5</ele><time>2026-04-04T11:18:57.58Z</time></trkpt><trkpt lat="45.25284" lon="11.1287583"><ele>22.25</ele><time>2026-04-04T11:18:58.58Z</time></trkpt><trkpt lat="45.252745" lon="11.1288467"><ele>22.0</ele><time>2026-04-04T11:18:59.58Z</time></trkpt><trkpt lat="45.2526533" lon="11.128935"><ele>22.0</ele><time>2026-04-04T11:19:00.58Z</time></trkpt><trkpt lat="45.25255" lon="11.1290283"><ele>22.0</ele><time>2026-04-04T11:19:01.58Z</time></trkpt><trkpt lat="45.2524517" lon="11.129135"><ele>22.0</ele><time>2026-04-04T11:19:02.58Z</time></trkpt><trkpt lat="45.2523517" lon="11.1292317"><ele>22.0</ele><time>2026-04-04T11:19:03.58Z</time></trkpt><trkpt lat="45.25225" lon="11.1293267"><ele>22.75</ele><time>2026-04-04T11:19:04.58Z</time></trkpt><trkpt lat="45.25215" lon="11.1294217"><ele>23.5</ele><time>2026-04-04T11:19:05.58Z</time></trkpt><trkpt lat="45.2520483" lon="11.1295233"><ele>24.25</ele><time>2026-04-04T11:19:06.58Z</time></trkpt><trkpt lat="45.2519467" lon="11.12962"><ele>25.0</ele><time>2026-04-04T11:19:07.58Z</time></trkpt><trkpt lat="45.2518433" lon="11.1297067"><ele>25.0</ele><time>2026-04-04T11:19:08.58Z</time></trkpt><trkpt lat="45.2517417" lon="11.1298"><ele>25.0</ele><time>2026-04-04T11:19:09.58Z</time></trkpt><trkpt lat="45.2516433" lon="11.129885"><ele>25.0</ele><time>2026-04-04T11:19:10.58Z</time></trkpt><trkpt lat="45.2515333" lon="11.1299817"><ele>25.0</ele><time>2026-04-04T11:19:11.58Z</time></trkpt><trkpt lat="45.2514267" lon="11.1300883"><ele>24.75</ele><time>2026-04-04T11:19:12.58Z</time></trkpt><trkpt lat="45.25133" lon="11.1301833"><ele>24.5</ele><time>2026-04-04T11:19:13.579Z</time></trkpt><trkpt lat="45.25123" lon="11.130285"><ele>24.25</ele><time>2026-04-04T11:19:14.579Z</time></trkpt><trkpt lat="45.2511267" lon="11.1303767"><ele>24.0</ele><time>2026-04-04T11:19:15.579Z</time></trkpt><trkpt lat="45.2510183" lon="11.1304683"><ele>24.0</ele><time>2026-04-04T11:19:16.579Z</time></trkpt><trkpt lat="45.2509267" lon="11.1305683"><ele>24.0</ele><time>2026-04-04T11:19:17.579Z</time></trkpt><trkpt lat="45.2508333" lon="11.13067"><ele>24.0</ele><time>2026-04-04T11:19:18.58Z</time></trkpt><trkpt lat="45.2507417" lon="11.1307867"><ele>24.0</ele><time>2026-04-04T11:19:19.579Z</time></trkpt><trkpt lat="45.25064" lon="11.130885"><ele>23.5</ele><time>2026-04-04T11:19:20.579Z</time></trkpt><trkpt lat="45.2505367" lon="11.130985"><ele>23.0</ele><time>2026-04-04T11:19:21.579Z</time></trkpt><trkpt lat="45.2504417" lon="11.13108"><ele>22.5</ele><time>2026-04-04T11:19:22.579Z</time></trkpt><trkpt lat="45.2503417" lon="11.13118"><ele>22.0</ele><time>2026-04-04T11:19:23.579Z</time></trkpt><trkpt lat="45.250255" lon="11.1312933"><ele>22.0</ele><time>2026-04-04T11:19:24.579Z</time></trkpt><trkpt lat="45.2501617" lon="11.1314067"><ele>22.0</ele><time>2026-04-04T11:19:25.579Z</time></trkpt><trkpt lat="45.2500667" lon="11.1315217"><ele>22.0</ele><time>2026-04-04T11:19:26.579Z</time></trkpt><trkpt lat="45.2499733" lon="11.1316233"><ele>22.0</ele><time>2026-04-04T11:19:27.579Z</time></trkpt><trkpt lat="45.2498867" lon="11.1317217"><ele>22.25</ele><time>2026-04-04T11:19:28.579Z</time></trkpt><trkpt lat="45.2498" lon="11.1318367"><ele>22.5</ele><time>2026-04-04T11:19:29.579Z</time></trkpt><trkpt lat="45.2497067" lon="11.1319433"><ele>22.75</ele><time>2026-04-04T11:19:30.579Z</time></trkpt><trkpt lat="45.249615" lon="11.1320417"><ele>23.0</ele><time>2026-04-04T11:19:31.579Z</time></trkpt><trkpt lat="45.24952" lon="11.1321533"><ele>23.0</ele><time>2026-04-04T11:19:32.579Z</time></trkpt><trkpt lat="45.2494267" lon="11.13227"><ele>23.0</ele><time>2026-04-04T11:19:33.579Z</time></trkpt><trkpt lat="45.2493383" lon="11.1323683"><ele>23.0</ele><time>2026-04-04T11:19:34.579Z</time></trkpt><trkpt lat="45.249255" lon="11.1324733"><ele>23.0</ele><time>2026-04-04T11:19:35.579Z</time></trkpt><trkpt lat="45.2491533" lon="11.1325683"><ele>23.0</ele><time>2026-04-04T11:19:36.579Z</time></trkpt><trkpt lat="45.2490683" lon="11.1326483"><ele>23.0</ele><time>2026-04-04T11:19:37.579Z</time></trkpt><trkpt lat="45.248975" lon="11.13274"><ele>23.0</ele><time>2026-04-04T11:19:38.579Z</time></trkpt><trkpt lat="45.24888" lon="11.1328383"><ele>23.0</ele><time>2026-04-04T11:19:39.579Z</time></trkpt><trkpt lat="45.2487833" lon="11.13293"><ele>23.0</ele><time>2026-04-04T11:19:40.579Z</time></trkpt><trkpt lat="45.2486983" lon="11.1330283"><ele>23.0</ele><time>2026-04-04T11:19:41.579Z</time></trkpt><trkpt lat="45.248615" lon="11.133115"><ele>23.0</ele><time>2026-04-04T11:19:42.579Z</time></trkpt><trkpt lat="45.24853" lon="11.13321"><ele>23.0</ele><time>2026-04-04T11:19:43.579Z</time></trkpt><trkpt lat="45.2484567" lon="11.1332983"><ele>23.0</ele><time>2026-04-04T11:19:44.579Z</time></trkpt><trkpt lat="45.24838" lon="11.133405"><ele>23.0</ele><time>2026-04-04T11:19:45.579Z</time></trkpt><trkpt lat="45.2483117" lon="11.1334717"><ele>23.0</ele><time>2026-04-04T11:19:46.579Z</time></trkpt><trkpt lat="45.24824" lon="11.133525"><ele>23.0</ele><time>2026-04-04T11:19:47.579Z</time></trkpt><trkpt lat="45.2481717" lon="11.1335267"><ele>23.0</ele><time>2026-04-04T11:19:48.579Z</time></trkpt><trkpt lat="45.2480917" lon="11.133495"><ele>23.0</ele><time>2026-04-04T11:19:49.579Z</time></trkpt><trkpt lat="45.24802" lon="11.13344"><ele>23.0</ele><time>2026-04-04T11:19:50.579Z</time></trkpt><trkpt lat="45.2479517" lon="11.1333433"><ele>23.0</ele><time>2026-04-04T11:19:51.579Z</time></trkpt><trkpt lat="45.2478967" lon="11.133225"><ele>22.799999999999997</ele><time>2026-04-04T11:19:52.579Z</time></trkpt><trkpt lat="45.2478267" lon="11.1331317"><ele>22.6</ele><time>2026-04-04T11:19:53.579Z</time></trkpt><trkpt lat="45.2477567" lon="11.1330283"><ele>22.4</ele><time>2026-04-04T11:19:54.579Z</time></trkpt><trkpt lat="45.24769" lon="11.1329233"><ele>22.200000000000003</ele><time>2026-04-04T11:19:55.579Z</time></trkpt><trkpt lat="45.2476317" lon="11.1328283"><ele>22.0</ele><time>2026-04-04T11:19:56.579Z</time></trkpt><trkpt lat="45.24757" lon="11.1327283"><ele>22.0</ele><time>2026-04-04T11:19:57.579Z</time></trkpt><trkpt lat="45.2475117" lon="11.1326267"><ele>22.0</ele><time>2026-04-04T11:19:58.579Z</time></trkpt><trkpt lat="45.2474583" lon="11.1325283"><ele>22.0</ele><time>2026-04-04T11:19:59.579Z</time></trkpt><trkpt lat="45.2474083" lon="11.132455"><ele>22.0</ele><time>2026-04-04T11:20:00.579Z</time></trkpt><trkpt lat="45.2473" lon="11.1323817"><ele>22.0</ele><time>2026-04-04T11:20:02.579Z</time></trkpt><trkpt lat="45.247175" lon="11.132455"><ele>21.8</ele><time>2026-04-04T11:20:04.579Z</time></trkpt><trkpt lat="45.2471067" lon="11.1325817"><ele>21.6</ele><time>2026-04-04T11:20:05.579Z</time></trkpt><trkpt lat="45.2470317" lon="11.1327117"><ele>21.400000000000002</ele><time>2026-04-04T11:20:06.579Z</time></trkpt><trkpt lat="45.2469683" lon="11.1328317"><ele>21.200000000000003</ele><time>2026-04-04T11:20:07.579Z</time></trkpt><trkpt lat="45.2469" lon="11.1329433"><ele>21.0</ele><time>2026-04-04T11:20:08.579Z</time></trkpt><trkpt lat="45.2468533" lon="11.1330483"><ele>21.0</ele><time>2026-04-04T11:20:09.579Z</time></trkpt><trkpt lat="45.2468167" lon="11.1331483"><ele>21.0</ele><time>2026-04-04T11:20:10.579Z</time></trkpt><trkpt lat="45.2467783" lon="11.13323"><ele>21.0</ele><time>2026-04-04T11:20:11.579Z</time></trkpt><trkpt lat="45.2466833" lon="11.1333083"><ele>21.0</ele><time>2026-04-04T11:20:13.579Z</time></trkpt><trkpt lat="45.2465567" lon="11.1332667"><ele>21.0</ele><time>2026-04-04T11:20:15.579Z</time></trkpt><trkpt lat="45.246485" lon="11.1331983"><ele>20.2</ele><time>2026-04-04T11:20:16.579Z</time></trkpt><trkpt lat="45.2464167" lon="11.13314"><ele>19.400000000000002</ele><time>2026-04-04T11:20:17.579Z</time></trkpt><trkpt lat="45.24635" lon="11.1331"><ele>18.6</ele><time>2026-04-04T11:20:18.579Z</time></trkpt><trkpt lat="45.2462433" lon="11.13305"><ele>17.8</ele><time>2026-04-04T11:20:20.579Z</time></trkpt><trkpt lat="45.2461417" lon="11.1330183"><ele>17.0</ele><time>2026-04-04T11:20:22.579Z</time></trkpt><trkpt lat="45.2460183" lon="11.1330167"><ele>17.0</ele><time>2026-04-04T11:20:24.579Z</time></trkpt><trkpt lat="45.2459367" lon="11.1330033"><ele>17.0</ele><time>2026-04-04T11:20:25.579Z</time></trkpt><trkpt lat="45.2458583" lon="11.1330067"><ele>17.0</ele><time>2026-04-04T11:20:26.579Z</time></trkpt><trkpt lat="45.2457683" lon="11.13301"><ele>17.0</ele><time>2026-04-04T11:20:27.579Z</time></trkpt><trkpt lat="45.245675" lon="11.1330067"><ele>17.0</ele><time>2026-04-04T11:20:28.579Z</time></trkpt><trkpt lat="45.2455817" lon="11.1330067"><ele>17.0</ele><time>2026-04-04T11:20:29.579Z</time></trkpt><trkpt lat="45.2454883" lon="11.1330117"><ele>16.6</ele><time>2026-04-04T11:20:30.579Z</time></trkpt><trkpt lat="45.2453967" lon="11.1330117"><ele>16.2</ele><time>2026-04-04T11:20:31.579Z</time></trkpt><trkpt lat="45.245305" lon="11.1330183"><ele>15.8</ele><time>2026-04-04T11:20:32.579Z</time></trkpt><trkpt lat="45.24521" lon="11.1330083"><ele>15.4</ele><time>2026-04-04T11:20:33.579Z</time></trkpt><trkpt lat="45.2451217" lon="11.1330017"><ele>15.0</ele><time>2026-04-04T11:20:34.579Z</time></trkpt><trkpt lat="45.2450317" lon="11.1330067"><ele>15.0</ele><time>2026-04-04T11:20:35.58Z</time></trkpt><trkpt lat="45.2449383" lon="11.1330083"><ele>15.0</ele><time>2026-04-04T11:20:36.579Z</time></trkpt><trkpt lat="45.2448483" lon="11.13301"><ele>15.0</ele><time>2026-04-04T11:20:37.579Z</time></trkpt><trkpt lat="45.2447583" lon="11.1329983"><ele>15.0</ele><time>2026-04-04T11:20:38.579Z</time></trkpt><trkpt lat="45.2446667" lon="11.1329867"><ele>15.0</ele><time>2026-04-04T11:20:39.579Z</time></trkpt><trkpt lat="45.2445717" lon="11.1329833"><ele>15.0</ele><time>2026-04-04T11:20:40.58Z</time></trkpt><trkpt lat="45.244485" lon="11.1329883"><ele>15.0</ele><time>2026-04-04T11:20:41.579Z</time></trkpt><trkpt lat="45.2443967" lon="11.1329917"><ele>15.0</ele><time>2026-04-04T11:20:42.579Z</time></trkpt><trkpt lat="45.2443083" lon="11.1329983"><ele>15.0</ele><time>2026-04-04T11:20:43.579Z</time></trkpt><trkpt lat="45.2442233" lon="11.1330117"><ele>15.0</ele><time>2026-04-04T11:20:44.579Z</time></trkpt><trkpt lat="45.2441433" lon="11.13302"><ele>15.0</ele><time>2026-04-04T11:20:45.579Z</time></trkpt><trkpt lat="45.2440717" lon="11.13302"><ele>15.0</ele><time>2026-04-04T11:20:46.579Z</time></trkpt><trkpt lat="45.2439933" lon="11.1330183"><ele>15.0</ele><time>2026-04-04T11:20:47.579Z</time></trkpt><trkpt lat="45.243915" lon="11.1330283"><ele>15.0</ele><time>2026-04-04T11:20:48.579Z</time></trkpt><trkpt lat="45.243835" lon="11.1330367"><ele>15.0</ele><time>2026-04-04T11:20:49.579Z</time></trkpt><trkpt lat="45.24376" lon="11.13304"><ele>15.0</ele><time>2026-04-04T11:20:50.579Z</time></trkpt><trkpt lat="45.2436933" lon="11.1330383"><ele>15.0</ele><time>2026-04-04T11:20:51.579Z</time></trkpt><trkpt lat="45.24363" lon="11.1330283"><ele>15.0</ele><time>2026-04-04T11:20:52.579Z</time></trkpt><trkpt lat="45.2435083" lon="11.1330117"><ele>15.0</ele><time>2026-04-04T11:20:54.579Z</time></trkpt><trkpt lat="45.2434333" lon="11.1330167"><ele>15.0</ele><time>2026-04-04T11:20:55.579Z</time></trkpt><trkpt lat="45.2433667" lon="11.1330317"><ele>15.0</ele><time>2026-04-04T11:20:56.579Z</time></trkpt><trkpt lat="45.2432933" lon="11.133045"><ele>15.0</ele><time>2026-04-04T11:20:57.579Z</time></trkpt><trkpt lat="45.24321" lon="11.13307"><ele>15.0</ele><time>2026-04-04T11:20:58.58Z</time></trkpt><trkpt lat="45.243125" lon="11.1331033"><ele>15.0</ele><time>2026-04-04T11:20:59.579Z</time></trkpt><trkpt lat="45.24304" lon="11.133135"><ele>15.0</ele><time>2026-04-04T11:21:00.579Z</time></trkpt><trkpt lat="45.2429583" lon="11.1331583"><ele>15.0</ele><time>2026-04-04T11:21:01.579Z</time></trkpt><trkpt lat="45.242875" lon="11.1331883"><ele>15.0</ele><time>2026-04-04T11:21:02.579Z</time></trkpt><trkpt lat="45.2427933" lon="11.1332183"><ele>15.0</ele><time>2026-04-04T11:21:03.579Z</time></trkpt><trkpt lat="45.2427133" lon="11.13324"><ele>15.0</ele><time>2026-04-04T11:21:04.579Z</time></trkpt><trkpt lat="45.2426367" lon="11.1332567"><ele>15.0</ele><time>2026-04-04T11:21:05.579Z</time></trkpt><trkpt lat="45.242555" lon="11.1332717"><ele>15.0</ele><time>2026-04-04T11:21:06.579Z</time></trkpt><trkpt lat="45.2424783" lon="11.133285"><ele>15.0</ele><time>2026-04-04T11:21:07.579Z</time></trkpt><trkpt lat="45.2424067" lon="11.1333117"><ele>15.0</ele><time>2026-04-04T11:21:08.579Z</time></trkpt><trkpt lat="45.2423417" lon="11.1333317"><ele>15.0</ele><time>2026-04-04T11:21:09.579Z</time></trkpt><trkpt lat="45.2422283" lon="11.13336"><ele>15.0</ele><time>2026-04-04T11:21:11.579Z</time></trkpt><trkpt lat="45.2421383" lon="11.133325"><ele>15.0</ele><time>2026-04-04T11:21:13.579Z</time></trkpt><trkpt lat="45.2420917" lon="11.1332433"><ele>15.0</ele><time>2026-04-04T11:21:15.579Z</time></trkpt><trkpt lat="45.2420617" lon="11.13313"><ele>15.0</ele><time>2026-04-04T11:21:18.579Z</time></trkpt><trkpt lat="45.2419883" lon="11.1331317"><ele>15.0</ele><time>2026-04-04T11:21:21.579Z</time></trkpt></trkseg></trk></gpx>